<?xml version="1.0" encoding="UTF-8" standalone="no" ?>
<gpx xmlns="http://www.topografix.com/GPX/1/1" xmlns:xsi="http://www.w3.org/2001/XMLSchema-instance" xsi:schemaLocation="http://www.topografix.com/GPX/1/1 http://www.topografix.com/GPX/1/1/gpx.xsd" version="1.1" creator="VisuGPX - https://www.visugpx.com">
  <metadata>
    <name>lundi 2015 08 17</name>
    <desc><![CDATA[rando du lundi]]></desc>
  </metadata>
  <trk>
    <name><![CDATA[Paris - Versailles]]></name>
    <trkseg>
      <trkpt lat="48.85746" lon="2.34724">
        <ele>41.200000762939</ele>
        <time>2015-08-17T18:20:55.000Z</time>
      </trkpt>
      <trkpt lat="48.85751" lon="2.34724">
        <ele>41.200000762939</ele>
        <time>2015-08-17T18:21:01.000Z</time>
      </trkpt>
      <trkpt lat="48.85755" lon="2.34727">
        <ele>41.200000762939</ele>
        <time>2015-08-17T18:21:05.000Z</time>
      </trkpt>
      <trkpt lat="48.85756" lon="2.34731">
        <ele>41.200000762939</ele>
        <time>2015-08-17T18:21:07.000Z</time>
      </trkpt>
      <trkpt lat="48.85769" lon="2.34739">
        <ele>41.200000762939</ele>
        <time>2015-08-17T18:21:12.000Z</time>
      </trkpt>
      <trkpt lat="48.85786" lon="2.34742">
        <ele>41.200000762939</ele>
        <time>2015-08-17T18:21:16.000Z</time>
      </trkpt>
      <trkpt lat="48.85801" lon="2.34745">
        <ele>41.599998474121</ele>
        <time>2015-08-17T18:21:19.000Z</time>
      </trkpt>
      <trkpt lat="48.85809" lon="2.34746">
        <ele>41.799999237061</ele>
        <time>2015-08-17T18:21:21.000Z</time>
      </trkpt>
      <trkpt lat="48.85835" lon="2.34749">
        <ele>42.400001525879</ele>
        <time>2015-08-17T18:21:26.000Z</time>
      </trkpt>
      <trkpt lat="48.85839" lon="2.34749">
        <ele>42.400001525879</ele>
        <time>2015-08-17T18:21:27.000Z</time>
      </trkpt>
      <trkpt lat="48.85857" lon="2.34739">
        <ele>42.799999237061</ele>
        <time>2015-08-17T18:21:31.000Z</time>
      </trkpt>
      <trkpt lat="48.85873" lon="2.34718">
        <ele>43</ele>
        <time>2015-08-17T18:21:36.000Z</time>
      </trkpt>
      <trkpt lat="48.8588" lon="2.34705">
        <ele>43</ele>
        <time>2015-08-17T18:21:38.000Z</time>
      </trkpt>
      <trkpt lat="48.85892" lon="2.34686">
        <ele>43</ele>
        <time>2015-08-17T18:21:41.000Z</time>
      </trkpt>
      <trkpt lat="48.85912" lon="2.34664">
        <ele>43.400001525879</ele>
        <time>2015-08-17T18:21:45.000Z</time>
      </trkpt>
      <trkpt lat="48.85916" lon="2.34661">
        <ele>43.599998474121</ele>
        <time>2015-08-17T18:21:46.000Z</time>
      </trkpt>
      <trkpt lat="48.85949" lon="2.34592">
        <ele>45</ele>
        <time>2015-08-17T18:21:57.000Z</time>
      </trkpt>
      <trkpt lat="48.85966" lon="2.34566">
        <ele>45.799999237061</ele>
        <time>2015-08-17T18:22:01.000Z</time>
      </trkpt>
      <trkpt lat="48.85972" lon="2.34554">
        <ele>46.200000762939</ele>
        <time>2015-08-17T18:22:03.000Z</time>
      </trkpt>
      <trkpt lat="48.85975" lon="2.34521">
        <ele>46.599998474121</ele>
        <time>2015-08-17T18:22:08.000Z</time>
      </trkpt>
      <trkpt lat="48.85978" lon="2.34504">
        <ele>47.200000762939</ele>
        <time>2015-08-17T18:22:11.000Z</time>
      </trkpt>
      <trkpt lat="48.8598" lon="2.34491">
        <ele>47.599998474121</ele>
        <time>2015-08-17T18:22:13.000Z</time>
      </trkpt>
      <trkpt lat="48.85981" lon="2.34485">
        <ele>47.799999237061</ele>
        <time>2015-08-17T18:22:14.000Z</time>
      </trkpt>
      <trkpt lat="48.85991" lon="2.3445">
        <ele>49</ele>
        <time>2015-08-17T18:22:19.000Z</time>
      </trkpt>
      <trkpt lat="48.85999" lon="2.34436">
        <ele>49.400001525879</ele>
        <time>2015-08-17T18:22:21.000Z</time>
      </trkpt>
      <trkpt lat="48.86008" lon="2.34422">
        <ele>50</ele>
        <time>2015-08-17T18:22:23.000Z</time>
      </trkpt>
      <trkpt lat="48.86024" lon="2.34391">
        <ele>51.400001525879</ele>
        <time>2015-08-17T18:22:27.000Z</time>
      </trkpt>
      <trkpt lat="48.86027" lon="2.34383">
        <ele>51.599998474121</ele>
        <time>2015-08-17T18:22:28.000Z</time>
      </trkpt>
      <trkpt lat="48.86034" lon="2.3434">
        <ele>53.200000762939</ele>
        <time>2015-08-17T18:22:33.000Z</time>
      </trkpt>
      <trkpt lat="48.86031" lon="2.34334">
        <ele>53.599998474121</ele>
        <time>2015-08-17T18:22:34.000Z</time>
      </trkpt>
      <trkpt lat="48.86032" lon="2.34302">
        <ele>54.400001525879</ele>
        <time>2015-08-17T18:22:38.000Z</time>
      </trkpt>
      <trkpt lat="48.86038" lon="2.34275">
        <ele>54.799999237061</ele>
        <time>2015-08-17T18:22:41.000Z</time>
      </trkpt>
      <trkpt lat="48.86041" lon="2.34266">
        <ele>55</ele>
        <time>2015-08-17T18:22:42.000Z</time>
      </trkpt>
      <trkpt lat="48.86049" lon="2.34245">
        <ele>55.799999237061</ele>
        <time>2015-08-17T18:22:45.000Z</time>
      </trkpt>
      <trkpt lat="48.86056" lon="2.34202">
        <ele>56.799999237061</ele>
        <time>2015-08-17T18:22:50.000Z</time>
      </trkpt>
      <trkpt lat="48.86058" lon="2.34193">
        <ele>56.799999237061</ele>
        <time>2015-08-17T18:22:51.000Z</time>
      </trkpt>
      <trkpt lat="48.86069" lon="2.34166">
        <ele>57.200000762939</ele>
        <time>2015-08-17T18:22:54.000Z</time>
      </trkpt>
      <trkpt lat="48.86072" lon="2.34156">
        <ele>57.400001525879</ele>
        <time>2015-08-17T18:22:55.000Z</time>
      </trkpt>
      <trkpt lat="48.86075" lon="2.34149">
        <ele>57.400001525879</ele>
        <time>2015-08-17T18:22:56.000Z</time>
      </trkpt>
      <trkpt lat="48.86085" lon="2.3411">
        <ele>58.400001525879</ele>
        <time>2015-08-17T18:23:01.000Z</time>
      </trkpt>
      <trkpt lat="48.86087" lon="2.34103">
        <ele>58.599998474121</ele>
        <time>2015-08-17T18:23:02.000Z</time>
      </trkpt>
      <trkpt lat="48.86103" lon="2.34073">
        <ele>59.799999237061</ele>
        <time>2015-08-17T18:23:07.000Z</time>
      </trkpt>
      <trkpt lat="48.86109" lon="2.34053">
        <ele>60.599998474121</ele>
        <time>2015-08-17T18:23:10.000Z</time>
      </trkpt>
      <trkpt lat="48.86121" lon="2.34017">
        <ele>61.400001525879</ele>
        <time>2015-08-17T18:23:15.000Z</time>
      </trkpt>
      <trkpt lat="48.86127" lon="2.33997">
        <ele>61.599998474121</ele>
        <time>2015-08-17T18:23:18.000Z</time>
      </trkpt>
      <trkpt lat="48.86132" lon="2.33983">
        <ele>61.799999237061</ele>
        <time>2015-08-17T18:23:20.000Z</time>
      </trkpt>
      <trkpt lat="48.86139" lon="2.3396">
        <ele>62</ele>
        <time>2015-08-17T18:23:24.000Z</time>
      </trkpt>
      <trkpt lat="48.86146" lon="2.33945">
        <ele>61.400001525879</ele>
        <time>2015-08-17T18:23:29.000Z</time>
      </trkpt>
      <trkpt lat="48.86159" lon="2.33931">
        <ele>61</ele>
        <time>2015-08-17T18:23:33.000Z</time>
      </trkpt>
      <trkpt lat="48.86161" lon="2.33928">
        <ele>61</ele>
        <time>2015-08-17T18:23:34.000Z</time>
      </trkpt>
      <trkpt lat="48.86173" lon="2.33904">
        <ele>60.799999237061</ele>
        <time>2015-08-17T18:23:38.000Z</time>
      </trkpt>
      <trkpt lat="48.86176" lon="2.33897">
        <ele>60.599998474121</ele>
        <time>2015-08-17T18:23:39.000Z</time>
      </trkpt>
      <trkpt lat="48.86179" lon="2.33883">
        <ele>60.599998474121</ele>
        <time>2015-08-17T18:23:41.000Z</time>
      </trkpt>
      <trkpt lat="48.86179" lon="2.33854">
        <ele>60</ele>
        <time>2015-08-17T18:23:45.000Z</time>
      </trkpt>
      <trkpt lat="48.86188" lon="2.33819">
        <ele>59.200000762939</ele>
        <time>2015-08-17T18:23:50.000Z</time>
      </trkpt>
      <trkpt lat="48.8619" lon="2.33808">
        <ele>59</ele>
        <time>2015-08-17T18:23:52.000Z</time>
      </trkpt>
      <trkpt lat="48.86193" lon="2.33785">
        <ele>58.799999237061</ele>
        <time>2015-08-17T18:23:55.000Z</time>
      </trkpt>
      <trkpt lat="48.86191" lon="2.33752">
        <ele>57.799999237061</ele>
        <time>2015-08-17T18:24:01.000Z</time>
      </trkpt>
      <trkpt lat="48.862" lon="2.33721">
        <ele>57.200000762939</ele>
        <time>2015-08-17T18:24:06.000Z</time>
      </trkpt>
      <trkpt lat="48.86205" lon="2.33709">
        <ele>57</ele>
        <time>2015-08-17T18:24:07.000Z</time>
      </trkpt>
      <trkpt lat="48.86215" lon="2.33698">
        <ele>56.799999237061</ele>
        <time>2015-08-17T18:24:09.000Z</time>
      </trkpt>
      <trkpt lat="48.86219" lon="2.33686">
        <ele>56.799999237061</ele>
        <time>2015-08-17T18:24:12.000Z</time>
      </trkpt>
      <trkpt lat="48.86229" lon="2.33667">
        <ele>56.599998474121</ele>
        <time>2015-08-17T18:24:15.000Z</time>
      </trkpt>
      <trkpt lat="48.86236" lon="2.33648">
        <ele>56.200000762939</ele>
        <time>2015-08-17T18:24:17.000Z</time>
      </trkpt>
      <trkpt lat="48.86242" lon="2.33636">
        <ele>55.799999237061</ele>
        <time>2015-08-17T18:24:20.000Z</time>
      </trkpt>
      <trkpt lat="48.86252" lon="2.33602">
        <ele>55.200000762939</ele>
        <time>2015-08-17T18:24:25.000Z</time>
      </trkpt>
      <trkpt lat="48.86255" lon="2.33595">
        <ele>55</ele>
        <time>2015-08-17T18:24:26.000Z</time>
      </trkpt>
      <trkpt lat="48.86264" lon="2.33572">
        <ele>54.799999237061</ele>
        <time>2015-08-17T18:24:30.000Z</time>
      </trkpt>
      <trkpt lat="48.86265" lon="2.33565">
        <ele>54.599998474121</ele>
        <time>2015-08-17T18:24:32.000Z</time>
      </trkpt>
      <trkpt lat="48.86268" lon="2.33552">
        <ele>54.599998474121</ele>
        <time>2015-08-17T18:24:36.000Z</time>
      </trkpt>
      <trkpt lat="48.8627" lon="2.33545">
        <ele>53.200000762939</ele>
        <time>2015-08-17T18:24:46.000Z</time>
      </trkpt>
      <trkpt lat="48.86265" lon="2.33544">
        <ele>52.799999237061</ele>
        <time>2015-08-17T18:24:51.000Z</time>
      </trkpt>
      <trkpt lat="48.86264" lon="2.33545">
        <ele>52.799999237061</ele>
        <time>2015-08-17T18:24:52.000Z</time>
      </trkpt>
      <trkpt lat="48.862" lon="2.33499">
        <ele>52.400001525879</ele>
        <time>2015-08-17T18:25:08.000Z</time>
      </trkpt>
      <trkpt lat="48.86193" lon="2.33498">
        <ele>52.400001525879</ele>
        <time>2015-08-17T18:25:09.000Z</time>
      </trkpt>
      <trkpt lat="48.86175" lon="2.33484">
        <ele>52.200000762939</ele>
        <time>2015-08-17T18:25:14.000Z</time>
      </trkpt>
      <trkpt lat="48.8617" lon="2.33483">
        <ele>52.200000762939</ele>
        <time>2015-08-17T18:25:15.000Z</time>
      </trkpt>
      <trkpt lat="48.86166" lon="2.33483">
        <ele>52.200000762939</ele>
        <time>2015-08-17T18:25:16.000Z</time>
      </trkpt>
      <trkpt lat="48.86146" lon="2.33475">
        <ele>51.799999237061</ele>
        <time>2015-08-17T18:25:20.000Z</time>
      </trkpt>
      <trkpt lat="48.86142" lon="2.33471">
        <ele>51.599998474121</ele>
        <time>2015-08-17T18:25:21.000Z</time>
      </trkpt>
      <trkpt lat="48.86138" lon="2.33469">
        <ele>51.599998474121</ele>
        <time>2015-08-17T18:25:22.000Z</time>
      </trkpt>
      <trkpt lat="48.86124" lon="2.33468">
        <ele>51.200000762939</ele>
        <time>2015-08-17T18:25:25.000Z</time>
      </trkpt>
      <trkpt lat="48.86106" lon="2.33458">
        <ele>50.799999237061</ele>
        <time>2015-08-17T18:25:30.000Z</time>
      </trkpt>
      <trkpt lat="48.861" lon="2.33443">
        <ele>50.599998474121</ele>
        <time>2015-08-17T18:25:34.000Z</time>
      </trkpt>
      <trkpt lat="48.86099" lon="2.33429">
        <ele>50.400001525879</ele>
        <time>2015-08-17T18:25:37.000Z</time>
      </trkpt>
      <trkpt lat="48.86097" lon="2.33421">
        <ele>50.400001525879</ele>
        <time>2015-08-17T18:25:39.000Z</time>
      </trkpt>
      <trkpt lat="48.86086" lon="2.33412">
        <ele>50.400001525879</ele>
        <time>2015-08-17T18:25:43.000Z</time>
      </trkpt>
      <trkpt lat="48.86071" lon="2.334">
        <ele>50.200000762939</ele>
        <time>2015-08-17T18:25:48.000Z</time>
      </trkpt>
      <trkpt lat="48.86058" lon="2.3339">
        <ele>50.200000762939</ele>
        <time>2015-08-17T18:25:52.000Z</time>
      </trkpt>
      <trkpt lat="48.86046" lon="2.33375">
        <ele>50.200000762939</ele>
        <time>2015-08-17T18:25:57.000Z</time>
      </trkpt>
      <trkpt lat="48.86037" lon="2.33368">
        <ele>50.200000762939</ele>
        <time>2015-08-17T18:26:02.000Z</time>
      </trkpt>
      <trkpt lat="48.86027" lon="2.33361">
        <ele>50.200000762939</ele>
        <time>2015-08-17T18:26:05.000Z</time>
      </trkpt>
      <trkpt lat="48.86015" lon="2.33367">
        <ele>49.799999237061</ele>
        <time>2015-08-17T18:26:08.000Z</time>
      </trkpt>
      <trkpt lat="48.86014" lon="2.33368">
        <ele>49.599998474121</ele>
        <time>2015-08-17T18:26:09.000Z</time>
      </trkpt>
      <trkpt lat="48.8601" lon="2.33368">
        <ele>48.400001525879</ele>
        <time>2015-08-17T18:26:16.000Z</time>
      </trkpt>
      <trkpt lat="48.86008" lon="2.33362">
        <ele>43.799999237061</ele>
        <time>2015-08-17T18:26:35.000Z</time>
      </trkpt>
      <trkpt lat="48.86007" lon="2.33364">
        <ele>42.799999237061</ele>
        <time>2015-08-17T18:26:42.000Z</time>
      </trkpt>
      <trkpt lat="48.86002" lon="2.3336">
        <ele>41</ele>
        <time>2015-08-17T18:26:52.000Z</time>
      </trkpt>
      <trkpt lat="48.86" lon="2.33359">
        <ele>40.799999237061</ele>
        <time>2015-08-17T18:26:54.000Z</time>
      </trkpt>
      <trkpt lat="48.85993" lon="2.33355">
        <ele>40.200000762939</ele>
        <time>2015-08-17T18:26:59.000Z</time>
      </trkpt>
      <trkpt lat="48.85992" lon="2.33353">
        <ele>40.200000762939</ele>
        <time>2015-08-17T18:27:00.000Z</time>
      </trkpt>
      <trkpt lat="48.85985" lon="2.33339">
        <ele>39.200000762939</ele>
        <time>2015-08-17T18:27:05.000Z</time>
      </trkpt>
      <trkpt lat="48.85973" lon="2.3333">
        <ele>38.599998474121</ele>
        <time>2015-08-17T18:27:10.000Z</time>
      </trkpt>
      <trkpt lat="48.85953" lon="2.3332">
        <ele>37.599998474121</ele>
        <time>2015-08-17T18:27:17.000Z</time>
      </trkpt>
      <trkpt lat="48.85935" lon="2.33309">
        <ele>36.599998474121</ele>
        <time>2015-08-17T18:27:24.000Z</time>
      </trkpt>
      <trkpt lat="48.8593" lon="2.33306">
        <ele>36.400001525879</ele>
        <time>2015-08-17T18:27:26.000Z</time>
      </trkpt>
      <trkpt lat="48.85917" lon="2.33298">
        <ele>36</ele>
        <time>2015-08-17T18:27:31.000Z</time>
      </trkpt>
      <trkpt lat="48.85915" lon="2.33293">
        <ele>36</ele>
        <time>2015-08-17T18:27:32.000Z</time>
      </trkpt>
      <trkpt lat="48.8591" lon="2.33276">
        <ele>35.799999237061</ele>
        <time>2015-08-17T18:27:36.000Z</time>
      </trkpt>
      <trkpt lat="48.85908" lon="2.33259">
        <ele>35.799999237061</ele>
        <time>2015-08-17T18:27:40.000Z</time>
      </trkpt>
      <trkpt lat="48.85898" lon="2.33251">
        <ele>35.599998474121</ele>
        <time>2015-08-17T18:27:44.000Z</time>
      </trkpt>
      <trkpt lat="48.85887" lon="2.33241">
        <ele>35</ele>
        <time>2015-08-17T18:27:48.000Z</time>
      </trkpt>
      <trkpt lat="48.85877" lon="2.33232">
        <ele>34.599998474121</ele>
        <time>2015-08-17T18:27:51.000Z</time>
      </trkpt>
      <trkpt lat="48.85876" lon="2.33219">
        <ele>34.400001525879</ele>
        <time>2015-08-17T18:27:54.000Z</time>
      </trkpt>
      <trkpt lat="48.8588" lon="2.33209">
        <ele>34.200000762939</ele>
        <time>2015-08-17T18:27:57.000Z</time>
      </trkpt>
      <trkpt lat="48.85891" lon="2.33188">
        <ele>33.799999237061</ele>
        <time>2015-08-17T18:28:02.000Z</time>
      </trkpt>
      <trkpt lat="48.859" lon="2.33172">
        <ele>34</ele>
        <time>2015-08-17T18:28:07.000Z</time>
      </trkpt>
      <trkpt lat="48.8591" lon="2.33146">
        <ele>34.599998474121</ele>
        <time>2015-08-17T18:28:11.000Z</time>
      </trkpt>
      <trkpt lat="48.85919" lon="2.33118">
        <ele>35.599998474121</ele>
        <time>2015-08-17T18:28:15.000Z</time>
      </trkpt>
      <trkpt lat="48.8592" lon="2.33111">
        <ele>35.799999237061</ele>
        <time>2015-08-17T18:28:16.000Z</time>
      </trkpt>
      <trkpt lat="48.85931" lon="2.33088">
        <ele>36.400001525879</ele>
        <time>2015-08-17T18:28:20.000Z</time>
      </trkpt>
      <trkpt lat="48.85937" lon="2.33069">
        <ele>37.200000762939</ele>
        <time>2015-08-17T18:28:22.000Z</time>
      </trkpt>
      <trkpt lat="48.85941" lon="2.33053">
        <ele>38</ele>
        <time>2015-08-17T18:28:26.000Z</time>
      </trkpt>
      <trkpt lat="48.85947" lon="2.33033">
        <ele>38.599998474121</ele>
        <time>2015-08-17T18:28:28.000Z</time>
      </trkpt>
      <trkpt lat="48.85953" lon="2.3301">
        <ele>39.799999237061</ele>
        <time>2015-08-17T18:28:32.000Z</time>
      </trkpt>
      <trkpt lat="48.85956" lon="2.32998">
        <ele>40.200000762939</ele>
        <time>2015-08-17T18:28:34.000Z</time>
      </trkpt>
      <trkpt lat="48.85962" lon="2.32976">
        <ele>40.799999237061</ele>
        <time>2015-08-17T18:28:40.000Z</time>
      </trkpt>
      <trkpt lat="48.85964" lon="2.32959">
        <ele>42</ele>
        <time>2015-08-17T18:28:45.000Z</time>
      </trkpt>
      <trkpt lat="48.85965" lon="2.32938">
        <ele>42.799999237061</ele>
        <time>2015-08-17T18:28:49.000Z</time>
      </trkpt>
      <trkpt lat="48.85971" lon="2.32917">
        <ele>43.200000762939</ele>
        <time>2015-08-17T18:28:53.000Z</time>
      </trkpt>
      <trkpt lat="48.85978" lon="2.32892">
        <ele>43.400001525879</ele>
        <time>2015-08-17T18:28:57.000Z</time>
      </trkpt>
      <trkpt lat="48.85982" lon="2.32875">
        <ele>43.599998474121</ele>
        <time>2015-08-17T18:29:01.000Z</time>
      </trkpt>
      <trkpt lat="48.8599" lon="2.32855">
        <ele>43.799999237061</ele>
        <time>2015-08-17T18:29:04.000Z</time>
      </trkpt>
      <trkpt lat="48.85997" lon="2.32834">
        <ele>43.799999237061</ele>
        <time>2015-08-17T18:29:10.000Z</time>
      </trkpt>
      <trkpt lat="48.85999" lon="2.32832">
        <ele>43.799999237061</ele>
        <time>2015-08-17T18:29:12.000Z</time>
      </trkpt>
      <trkpt lat="48.86003" lon="2.32822">
        <ele>43.799999237061</ele>
        <time>2015-08-17T18:29:15.000Z</time>
      </trkpt>
      <trkpt lat="48.86006" lon="2.32818">
        <ele>43.799999237061</ele>
        <time>2015-08-17T18:29:16.000Z</time>
      </trkpt>
      <trkpt lat="48.86008" lon="2.32816">
        <ele>43.799999237061</ele>
        <time>2015-08-17T18:29:17.000Z</time>
      </trkpt>
      <trkpt lat="48.8601" lon="2.32809">
        <ele>44</ele>
        <time>2015-08-17T18:29:21.000Z</time>
      </trkpt>
      <trkpt lat="48.86012" lon="2.32806">
        <ele>44</ele>
        <time>2015-08-17T18:29:22.000Z</time>
      </trkpt>
      <trkpt lat="48.86013" lon="2.32801">
        <ele>44</ele>
        <time>2015-08-17T18:29:25.000Z</time>
      </trkpt>
      <trkpt lat="48.86015" lon="2.32794">
        <ele>44</ele>
        <time>2015-08-17T18:29:27.000Z</time>
      </trkpt>
      <trkpt lat="48.86025" lon="2.32773">
        <ele>44</ele>
        <time>2015-08-17T18:29:31.000Z</time>
      </trkpt>
      <trkpt lat="48.8604" lon="2.32735">
        <ele>44</ele>
        <time>2015-08-17T18:29:34.000Z</time>
      </trkpt>
      <trkpt lat="48.86051" lon="2.32696">
        <ele>44</ele>
        <time>2015-08-17T18:29:37.000Z</time>
      </trkpt>
      <trkpt lat="48.86071" lon="2.32651">
        <ele>44</ele>
        <time>2015-08-17T18:29:42.000Z</time>
      </trkpt>
      <trkpt lat="48.86085" lon="2.32621">
        <ele>44</ele>
        <time>2015-08-17T18:29:45.000Z</time>
      </trkpt>
      <trkpt lat="48.8609" lon="2.32612">
        <ele>44</ele>
        <time>2015-08-17T18:29:46.000Z</time>
      </trkpt>
      <trkpt lat="48.86097" lon="2.32594">
        <ele>44</ele>
        <time>2015-08-17T18:29:48.000Z</time>
      </trkpt>
      <trkpt lat="48.86109" lon="2.32568">
        <ele>44</ele>
        <time>2015-08-17T18:29:52.000Z</time>
      </trkpt>
      <trkpt lat="48.86118" lon="2.32547">
        <ele>43.799999237061</ele>
        <time>2015-08-17T18:29:54.000Z</time>
      </trkpt>
      <trkpt lat="48.86124" lon="2.3251">
        <ele>43</ele>
        <time>2015-08-17T18:29:59.000Z</time>
      </trkpt>
      <trkpt lat="48.86125" lon="2.32501">
        <ele>42.799999237061</ele>
        <time>2015-08-17T18:30:02.000Z</time>
      </trkpt>
      <trkpt lat="48.86127" lon="2.32491">
        <ele>42.400001525879</ele>
        <time>2015-08-17T18:30:04.000Z</time>
      </trkpt>
      <trkpt lat="48.86134" lon="2.32462">
        <ele>41.400001525879</ele>
        <time>2015-08-17T18:30:10.000Z</time>
      </trkpt>
      <trkpt lat="48.86135" lon="2.32445">
        <ele>40.799999237061</ele>
        <time>2015-08-17T18:30:15.000Z</time>
      </trkpt>
      <trkpt lat="48.86138" lon="2.32426">
        <ele>40.599998474121</ele>
        <time>2015-08-17T18:30:19.000Z</time>
      </trkpt>
      <trkpt lat="48.86145" lon="2.324">
        <ele>40.200000762939</ele>
        <time>2015-08-17T18:30:23.000Z</time>
      </trkpt>
      <trkpt lat="48.86153" lon="2.32374">
        <ele>39.200000762939</ele>
        <time>2015-08-17T18:30:27.000Z</time>
      </trkpt>
      <trkpt lat="48.86162" lon="2.32355">
        <ele>38.799999237061</ele>
        <time>2015-08-17T18:30:31.000Z</time>
      </trkpt>
      <trkpt lat="48.86166" lon="2.3234">
        <ele>38</ele>
        <time>2015-08-17T18:30:34.000Z</time>
      </trkpt>
      <trkpt lat="48.86172" lon="2.32329">
        <ele>37.599998474121</ele>
        <time>2015-08-17T18:30:36.000Z</time>
      </trkpt>
      <trkpt lat="48.86182" lon="2.323">
        <ele>36.799999237061</ele>
        <time>2015-08-17T18:30:40.000Z</time>
      </trkpt>
      <trkpt lat="48.86183" lon="2.32285">
        <ele>36.599998474121</ele>
        <time>2015-08-17T18:30:42.000Z</time>
      </trkpt>
      <trkpt lat="48.86193" lon="2.32246">
        <ele>36</ele>
        <time>2015-08-17T18:30:47.000Z</time>
      </trkpt>
      <trkpt lat="48.86195" lon="2.32239">
        <ele>36</ele>
        <time>2015-08-17T18:30:48.000Z</time>
      </trkpt>
      <trkpt lat="48.86197" lon="2.32233">
        <ele>35.799999237061</ele>
        <time>2015-08-17T18:30:49.000Z</time>
      </trkpt>
      <trkpt lat="48.86206" lon="2.32206">
        <ele>35.599998474121</ele>
        <time>2015-08-17T18:30:53.000Z</time>
      </trkpt>
      <trkpt lat="48.86209" lon="2.32196">
        <ele>35.200000762939</ele>
        <time>2015-08-17T18:30:55.000Z</time>
      </trkpt>
      <trkpt lat="48.86219" lon="2.32171">
        <ele>34.400001525879</ele>
        <time>2015-08-17T18:31:00.000Z</time>
      </trkpt>
      <trkpt lat="48.8622" lon="2.32165">
        <ele>34.400001525879</ele>
        <time>2015-08-17T18:31:01.000Z</time>
      </trkpt>
      <trkpt lat="48.86223" lon="2.32154">
        <ele>34.200000762939</ele>
        <time>2015-08-17T18:31:02.000Z</time>
      </trkpt>
      <trkpt lat="48.86234" lon="2.32126">
        <ele>33</ele>
        <time>2015-08-17T18:31:07.000Z</time>
      </trkpt>
      <trkpt lat="48.86244" lon="2.32101">
        <ele>32.400001525879</ele>
        <time>2015-08-17T18:31:12.000Z</time>
      </trkpt>
      <trkpt lat="48.86251" lon="2.32066">
        <ele>31.799999237061</ele>
        <time>2015-08-17T18:31:16.000Z</time>
      </trkpt>
      <trkpt lat="48.86252" lon="2.32057">
        <ele>31.39999961853</ele>
        <time>2015-08-17T18:31:17.000Z</time>
      </trkpt>
      <trkpt lat="48.86262" lon="2.32014">
        <ele>30.39999961853</ele>
        <time>2015-08-17T18:31:22.000Z</time>
      </trkpt>
      <trkpt lat="48.86264" lon="2.32005">
        <ele>30.39999961853</ele>
        <time>2015-08-17T18:31:24.000Z</time>
      </trkpt>
      <trkpt lat="48.86278" lon="2.31964">
        <ele>29.799999237061</ele>
        <time>2015-08-17T18:31:28.000Z</time>
      </trkpt>
      <trkpt lat="48.86288" lon="2.31937">
        <ele>29.60000038147</ele>
        <time>2015-08-17T18:31:32.000Z</time>
      </trkpt>
      <trkpt lat="48.86306" lon="2.3188">
        <ele>29.200000762939</ele>
        <time>2015-08-17T18:31:40.000Z</time>
      </trkpt>
      <trkpt lat="48.86311" lon="2.3185">
        <ele>29.200000762939</ele>
        <time>2015-08-17T18:31:44.000Z</time>
      </trkpt>
      <trkpt lat="48.86319" lon="2.31815">
        <ele>29</ele>
        <time>2015-08-17T18:31:49.000Z</time>
      </trkpt>
      <trkpt lat="48.8632" lon="2.31805">
        <ele>29</ele>
        <time>2015-08-17T18:31:50.000Z</time>
      </trkpt>
      <trkpt lat="48.86325" lon="2.31768">
        <ele>29</ele>
        <time>2015-08-17T18:31:55.000Z</time>
      </trkpt>
      <trkpt lat="48.86325" lon="2.31763">
        <ele>29</ele>
        <time>2015-08-17T18:31:56.000Z</time>
      </trkpt>
      <trkpt lat="48.86321" lon="2.31733">
        <ele>29</ele>
        <time>2015-08-17T18:31:59.000Z</time>
      </trkpt>
      <trkpt lat="48.86319" lon="2.317">
        <ele>28.39999961853</ele>
        <time>2015-08-17T18:32:03.000Z</time>
      </trkpt>
      <trkpt lat="48.86317" lon="2.31667">
        <ele>27.799999237061</ele>
        <time>2015-08-17T18:32:07.000Z</time>
      </trkpt>
      <trkpt lat="48.86317" lon="2.31636">
        <ele>27</ele>
        <time>2015-08-17T18:32:11.000Z</time>
      </trkpt>
      <trkpt lat="48.86316" lon="2.31605">
        <ele>26.200000762939</ele>
        <time>2015-08-17T18:32:15.000Z</time>
      </trkpt>
      <trkpt lat="48.86314" lon="2.31575">
        <ele>25.799999237061</ele>
        <time>2015-08-17T18:32:19.000Z</time>
      </trkpt>
      <trkpt lat="48.86314" lon="2.31554">
        <ele>25.60000038147</ele>
        <time>2015-08-17T18:32:22.000Z</time>
      </trkpt>
      <trkpt lat="48.86314" lon="2.31545">
        <ele>25.39999961853</ele>
        <time>2015-08-17T18:32:23.000Z</time>
      </trkpt>
      <trkpt lat="48.86314" lon="2.31531">
        <ele>25</ele>
        <time>2015-08-17T18:32:25.000Z</time>
      </trkpt>
      <trkpt lat="48.86314" lon="2.31491">
        <ele>24</ele>
        <time>2015-08-17T18:32:31.000Z</time>
      </trkpt>
      <trkpt lat="48.86313" lon="2.31484">
        <ele>23.799999237061</ele>
        <time>2015-08-17T18:32:32.000Z</time>
      </trkpt>
      <trkpt lat="48.86313" lon="2.31443">
        <ele>23.39999961853</ele>
        <time>2015-08-17T18:32:38.000Z</time>
      </trkpt>
      <trkpt lat="48.86313" lon="2.31436">
        <ele>23.39999961853</ele>
        <time>2015-08-17T18:32:39.000Z</time>
      </trkpt>
      <trkpt lat="48.86312" lon="2.31396">
        <ele>23.200000762939</ele>
        <time>2015-08-17T18:32:45.000Z</time>
      </trkpt>
      <trkpt lat="48.86312" lon="2.31389">
        <ele>23.200000762939</ele>
        <time>2015-08-17T18:32:46.000Z</time>
      </trkpt>
      <trkpt lat="48.86311" lon="2.31251">
        <ele>23</ele>
        <time>2015-08-17T18:33:05.000Z</time>
      </trkpt>
      <trkpt lat="48.86309" lon="2.31235">
        <ele>23</ele>
        <time>2015-08-17T18:33:07.000Z</time>
      </trkpt>
      <trkpt lat="48.86308" lon="2.31197">
        <ele>22.799999237061</ele>
        <time>2015-08-17T18:33:11.000Z</time>
      </trkpt>
      <trkpt lat="48.86307" lon="2.31163">
        <ele>22.799999237061</ele>
        <time>2015-08-17T18:33:15.000Z</time>
      </trkpt>
      <trkpt lat="48.86306" lon="2.31129">
        <ele>22.799999237061</ele>
        <time>2015-08-17T18:33:19.000Z</time>
      </trkpt>
      <trkpt lat="48.86305" lon="2.31096">
        <ele>22.799999237061</ele>
        <time>2015-08-17T18:33:23.000Z</time>
      </trkpt>
      <trkpt lat="48.86303" lon="2.31062">
        <ele>22.799999237061</ele>
        <time>2015-08-17T18:33:27.000Z</time>
      </trkpt>
      <trkpt lat="48.86303" lon="2.31054">
        <ele>22.799999237061</ele>
        <time>2015-08-17T18:33:28.000Z</time>
      </trkpt>
      <trkpt lat="48.86303" lon="2.31024">
        <ele>22.799999237061</ele>
        <time>2015-08-17T18:33:32.000Z</time>
      </trkpt>
      <trkpt lat="48.863" lon="2.30986">
        <ele>22.799999237061</ele>
        <time>2015-08-17T18:33:35.000Z</time>
      </trkpt>
      <trkpt lat="48.86301" lon="2.30946">
        <ele>22.799999237061</ele>
        <time>2015-08-17T18:33:40.000Z</time>
      </trkpt>
      <trkpt lat="48.86302" lon="2.30922">
        <ele>22.799999237061</ele>
        <time>2015-08-17T18:33:43.000Z</time>
      </trkpt>
      <trkpt lat="48.863" lon="2.3091">
        <ele>22.799999237061</ele>
        <time>2015-08-17T18:33:45.000Z</time>
      </trkpt>
      <trkpt lat="48.86297" lon="2.30873">
        <ele>22.799999237061</ele>
        <time>2015-08-17T18:33:50.000Z</time>
      </trkpt>
      <trkpt lat="48.86297" lon="2.30866">
        <ele>22.799999237061</ele>
        <time>2015-08-17T18:33:51.000Z</time>
      </trkpt>
      <trkpt lat="48.86297" lon="2.30862">
        <ele>22.799999237061</ele>
        <time>2015-08-17T18:33:52.000Z</time>
      </trkpt>
      <trkpt lat="48.86296" lon="2.30848">
        <ele>22.799999237061</ele>
        <time>2015-08-17T18:33:54.000Z</time>
      </trkpt>
      <trkpt lat="48.86297" lon="2.30799">
        <ele>22.60000038147</ele>
        <time>2015-08-17T18:34:00.000Z</time>
      </trkpt>
      <trkpt lat="48.86299" lon="2.30785">
        <ele>22.39999961853</ele>
        <time>2015-08-17T18:34:03.000Z</time>
      </trkpt>
      <trkpt lat="48.863" lon="2.30761">
        <ele>22</ele>
        <time>2015-08-17T18:34:05.000Z</time>
      </trkpt>
      <trkpt lat="48.86297" lon="2.3072">
        <ele>21.39999961853</ele>
        <time>2015-08-17T18:34:10.000Z</time>
      </trkpt>
      <trkpt lat="48.86296" lon="2.30687">
        <ele>21.200000762939</ele>
        <time>2015-08-17T18:34:14.000Z</time>
      </trkpt>
      <trkpt lat="48.86296" lon="2.30655">
        <ele>21</ele>
        <time>2015-08-17T18:34:18.000Z</time>
      </trkpt>
      <trkpt lat="48.86295" lon="2.30623">
        <ele>20.200000762939</ele>
        <time>2015-08-17T18:34:22.000Z</time>
      </trkpt>
      <trkpt lat="48.86292" lon="2.30591">
        <ele>19.60000038147</ele>
        <time>2015-08-17T18:34:26.000Z</time>
      </trkpt>
      <trkpt lat="48.86292" lon="2.30584">
        <ele>19.60000038147</ele>
        <time>2015-08-17T18:34:27.000Z</time>
      </trkpt>
      <trkpt lat="48.86292" lon="2.30558">
        <ele>19.39999961853</ele>
        <time>2015-08-17T18:34:31.000Z</time>
      </trkpt>
      <trkpt lat="48.8629" lon="2.30539">
        <ele>19.200000762939</ele>
        <time>2015-08-17T18:34:35.000Z</time>
      </trkpt>
      <trkpt lat="48.86291" lon="2.30503">
        <ele>19</ele>
        <time>2015-08-17T18:34:42.000Z</time>
      </trkpt>
      <trkpt lat="48.86288" lon="2.30436">
        <ele>18.799999237061</ele>
        <time>2015-08-17T18:34:51.000Z</time>
      </trkpt>
      <trkpt lat="48.86289" lon="2.30396">
        <ele>18.799999237061</ele>
        <time>2015-08-17T18:34:56.000Z</time>
      </trkpt>
      <trkpt lat="48.86289" lon="2.30364">
        <ele>18.799999237061</ele>
        <time>2015-08-17T18:35:00.000Z</time>
      </trkpt>
      <trkpt lat="48.86288" lon="2.30348">
        <ele>18.799999237061</ele>
        <time>2015-08-17T18:35:03.000Z</time>
      </trkpt>
      <trkpt lat="48.86287" lon="2.30309">
        <ele>18.799999237061</ele>
        <time>2015-08-17T18:35:08.000Z</time>
      </trkpt>
      <trkpt lat="48.86286" lon="2.30278">
        <ele>18.799999237061</ele>
        <time>2015-08-17T18:35:12.000Z</time>
      </trkpt>
      <trkpt lat="48.86286" lon="2.30262">
        <ele>18.799999237061</ele>
        <time>2015-08-17T18:35:14.000Z</time>
      </trkpt>
      <trkpt lat="48.86287" lon="2.30224">
        <ele>18.799999237061</ele>
        <time>2015-08-17T18:35:18.000Z</time>
      </trkpt>
      <trkpt lat="48.86286" lon="2.30209">
        <ele>18.799999237061</ele>
        <time>2015-08-17T18:35:20.000Z</time>
      </trkpt>
      <trkpt lat="48.86287" lon="2.30194">
        <ele>18.799999237061</ele>
        <time>2015-08-17T18:35:23.000Z</time>
      </trkpt>
      <trkpt lat="48.86283" lon="2.30152">
        <ele>18.799999237061</ele>
        <time>2015-08-17T18:35:30.000Z</time>
      </trkpt>
      <trkpt lat="48.86285" lon="2.30124">
        <ele>18.799999237061</ele>
        <time>2015-08-17T18:35:34.000Z</time>
      </trkpt>
      <trkpt lat="48.86285" lon="2.30117">
        <ele>18.799999237061</ele>
        <time>2015-08-17T18:35:35.000Z</time>
      </trkpt>
      <trkpt lat="48.86283" lon="2.30083">
        <ele>18.799999237061</ele>
        <time>2015-08-17T18:35:39.000Z</time>
      </trkpt>
      <trkpt lat="48.86281" lon="2.30068">
        <ele>18.799999237061</ele>
        <time>2015-08-17T18:35:40.000Z</time>
      </trkpt>
      <trkpt lat="48.8628" lon="2.30051">
        <ele>18.799999237061</ele>
        <time>2015-08-17T18:35:44.000Z</time>
      </trkpt>
      <trkpt lat="48.86277" lon="2.30032">
        <ele>18.799999237061</ele>
        <time>2015-08-17T18:35:47.000Z</time>
      </trkpt>
      <trkpt lat="48.8627" lon="2.3">
        <ele>19.60000038147</ele>
        <time>2015-08-17T18:35:54.000Z</time>
      </trkpt>
      <trkpt lat="48.86263" lon="2.29979">
        <ele>20.200000762939</ele>
        <time>2015-08-17T18:36:00.000Z</time>
      </trkpt>
      <trkpt lat="48.86249" lon="2.29948">
        <ele>21.799999237061</ele>
        <time>2015-08-17T18:36:13.000Z</time>
      </trkpt>
      <trkpt lat="48.86248" lon="2.29946">
        <ele>21.799999237061</ele>
        <time>2015-08-17T18:36:14.000Z</time>
      </trkpt>
      <trkpt lat="48.86247" lon="2.29942">
        <ele>22.39999961853</ele>
        <time>2015-08-17T18:36:20.000Z</time>
      </trkpt>
      <trkpt lat="48.86242" lon="2.29937">
        <ele>24</ele>
        <time>2015-08-17T18:36:32.000Z</time>
      </trkpt>
      <trkpt lat="48.86241" lon="2.29938">
        <ele>26</ele>
        <time>2015-08-17T18:36:45.000Z</time>
      </trkpt>
      <trkpt lat="48.86241" lon="2.29941">
        <ele>30.799999237061</ele>
        <time>2015-08-17T18:37:28.000Z</time>
      </trkpt>
      <trkpt lat="48.86245" lon="2.29944">
        <ele>31</ele>
        <time>2015-08-17T18:37:33.000Z</time>
      </trkpt>
      <trkpt lat="48.86249" lon="2.29945">
        <ele>31.200000762939</ele>
        <time>2015-08-17T18:37:40.000Z</time>
      </trkpt>
      <trkpt lat="48.86237" lon="2.29934">
        <ele>31.200000762939</ele>
        <time>2015-08-17T18:37:59.000Z</time>
      </trkpt>
      <trkpt lat="48.86225" lon="2.29908">
        <ele>31.200000762939</ele>
        <time>2015-08-17T18:38:06.000Z</time>
      </trkpt>
      <trkpt lat="48.86216" lon="2.29881">
        <ele>31.200000762939</ele>
        <time>2015-08-17T18:38:11.000Z</time>
      </trkpt>
      <trkpt lat="48.86204" lon="2.29853">
        <ele>31.200000762939</ele>
        <time>2015-08-17T18:38:16.000Z</time>
      </trkpt>
      <trkpt lat="48.86196" lon="2.29828">
        <ele>31.200000762939</ele>
        <time>2015-08-17T18:38:20.000Z</time>
      </trkpt>
      <trkpt lat="48.86191" lon="2.29808">
        <ele>31.200000762939</ele>
        <time>2015-08-17T18:38:23.000Z</time>
      </trkpt>
      <trkpt lat="48.86186" lon="2.29782">
        <ele>31.200000762939</ele>
        <time>2015-08-17T18:38:27.000Z</time>
      </trkpt>
      <trkpt lat="48.86182" lon="2.29771">
        <ele>31.200000762939</ele>
        <time>2015-08-17T18:38:29.000Z</time>
      </trkpt>
      <trkpt lat="48.86175" lon="2.29747">
        <ele>31.200000762939</ele>
        <time>2015-08-17T18:38:33.000Z</time>
      </trkpt>
      <trkpt lat="48.86164" lon="2.29718">
        <ele>31.200000762939</ele>
        <time>2015-08-17T18:38:38.000Z</time>
      </trkpt>
      <trkpt lat="48.86159" lon="2.29705">
        <ele>31.200000762939</ele>
        <time>2015-08-17T18:38:40.000Z</time>
      </trkpt>
      <trkpt lat="48.8614" lon="2.29663">
        <ele>31.200000762939</ele>
        <time>2015-08-17T18:38:47.000Z</time>
      </trkpt>
      <trkpt lat="48.86137" lon="2.29657">
        <ele>31.200000762939</ele>
        <time>2015-08-17T18:38:48.000Z</time>
      </trkpt>
      <trkpt lat="48.86125" lon="2.29629">
        <ele>31.200000762939</ele>
        <time>2015-08-17T18:38:54.000Z</time>
      </trkpt>
      <trkpt lat="48.86119" lon="2.29617">
        <ele>31.200000762939</ele>
        <time>2015-08-17T18:38:56.000Z</time>
      </trkpt>
      <trkpt lat="48.86114" lon="2.29607">
        <ele>31.200000762939</ele>
        <time>2015-08-17T18:38:58.000Z</time>
      </trkpt>
      <trkpt lat="48.86109" lon="2.29596">
        <ele>31.200000762939</ele>
        <time>2015-08-17T18:39:00.000Z</time>
      </trkpt>
      <trkpt lat="48.8609" lon="2.29568">
        <ele>31.200000762939</ele>
        <time>2015-08-17T18:39:07.000Z</time>
      </trkpt>
      <trkpt lat="48.86082" lon="2.29556">
        <ele>31.200000762939</ele>
        <time>2015-08-17T18:39:10.000Z</time>
      </trkpt>
      <trkpt lat="48.86064" lon="2.29532">
        <ele>31.200000762939</ele>
        <time>2015-08-17T18:39:15.000Z</time>
      </trkpt>
      <trkpt lat="48.86047" lon="2.2951">
        <ele>31.200000762939</ele>
        <time>2015-08-17T18:39:20.000Z</time>
      </trkpt>
      <trkpt lat="48.86032" lon="2.29488">
        <ele>30.799999237061</ele>
        <time>2015-08-17T18:39:25.000Z</time>
      </trkpt>
      <trkpt lat="48.86022" lon="2.2947">
        <ele>30.200000762939</ele>
        <time>2015-08-17T18:39:29.000Z</time>
      </trkpt>
      <trkpt lat="48.86006" lon="2.29446">
        <ele>29.799999237061</ele>
        <time>2015-08-17T18:39:35.000Z</time>
      </trkpt>
      <trkpt lat="48.85992" lon="2.29425">
        <ele>29.60000038147</ele>
        <time>2015-08-17T18:39:40.000Z</time>
      </trkpt>
      <trkpt lat="48.85979" lon="2.29407">
        <ele>29.39999961853</ele>
        <time>2015-08-17T18:39:45.000Z</time>
      </trkpt>
      <trkpt lat="48.85953" lon="2.2937">
        <ele>29.39999961853</ele>
        <time>2015-08-17T18:39:50.000Z</time>
      </trkpt>
      <trkpt lat="48.85936" lon="2.29344">
        <ele>29.200000762939</ele>
        <time>2015-08-17T18:39:54.000Z</time>
      </trkpt>
      <trkpt lat="48.85872" lon="2.29246">
        <ele>29.200000762939</ele>
        <time>2015-08-17T18:40:07.000Z</time>
      </trkpt>
      <trkpt lat="48.85861" lon="2.29245">
        <ele>29.200000762939</ele>
        <time>2015-08-17T18:40:09.000Z</time>
      </trkpt>
      <trkpt lat="48.85844" lon="2.29214">
        <ele>29.200000762939</ele>
        <time>2015-08-17T18:40:14.000Z</time>
      </trkpt>
      <trkpt lat="48.85832" lon="2.29197">
        <ele>29.200000762939</ele>
        <time>2015-08-17T18:40:17.000Z</time>
      </trkpt>
      <trkpt lat="48.85813" lon="2.2917">
        <ele>29.200000762939</ele>
        <time>2015-08-17T18:40:24.000Z</time>
      </trkpt>
      <trkpt lat="48.85798" lon="2.29147">
        <ele>29.200000762939</ele>
        <time>2015-08-17T18:40:28.000Z</time>
      </trkpt>
      <trkpt lat="48.85781" lon="2.29125">
        <ele>29.200000762939</ele>
        <time>2015-08-17T18:40:32.000Z</time>
      </trkpt>
      <trkpt lat="48.85772" lon="2.29114">
        <ele>29.200000762939</ele>
        <time>2015-08-17T18:40:34.000Z</time>
      </trkpt>
      <trkpt lat="48.8575" lon="2.29088">
        <ele>29.200000762939</ele>
        <time>2015-08-17T18:40:39.000Z</time>
      </trkpt>
      <trkpt lat="48.85738" lon="2.29071">
        <ele>29.200000762939</ele>
        <time>2015-08-17T18:40:42.000Z</time>
      </trkpt>
      <trkpt lat="48.85718" lon="2.2904">
        <ele>28.60000038147</ele>
        <time>2015-08-17T18:40:46.000Z</time>
      </trkpt>
      <trkpt lat="48.85703" lon="2.2902">
        <ele>28.200000762939</ele>
        <time>2015-08-17T18:40:49.000Z</time>
      </trkpt>
      <trkpt lat="48.85698" lon="2.29015">
        <ele>28.200000762939</ele>
        <time>2015-08-17T18:40:50.000Z</time>
      </trkpt>
      <trkpt lat="48.85681" lon="2.29004">
        <ele>27.799999237061</ele>
        <time>2015-08-17T18:40:53.000Z</time>
      </trkpt>
      <trkpt lat="48.85675" lon="2.28999">
        <ele>27.799999237061</ele>
        <time>2015-08-17T18:40:54.000Z</time>
      </trkpt>
      <trkpt lat="48.85651" lon="2.28985">
        <ele>27.60000038147</ele>
        <time>2015-08-17T18:40:58.000Z</time>
      </trkpt>
      <trkpt lat="48.85645" lon="2.28981">
        <ele>27.60000038147</ele>
        <time>2015-08-17T18:40:59.000Z</time>
      </trkpt>
      <trkpt lat="48.85633" lon="2.28976">
        <ele>27.39999961853</ele>
        <time>2015-08-17T18:41:01.000Z</time>
      </trkpt>
      <trkpt lat="48.85603" lon="2.28963">
        <ele>27.39999961853</ele>
        <time>2015-08-17T18:41:06.000Z</time>
      </trkpt>
      <trkpt lat="48.85597" lon="2.2896">
        <ele>27.200000762939</ele>
        <time>2015-08-17T18:41:08.000Z</time>
      </trkpt>
      <trkpt lat="48.85569" lon="2.28946">
        <ele>27.200000762939</ele>
        <time>2015-08-17T18:41:12.000Z</time>
      </trkpt>
      <trkpt lat="48.85549" lon="2.28938">
        <ele>27.200000762939</ele>
        <time>2015-08-17T18:41:16.000Z</time>
      </trkpt>
      <trkpt lat="48.85543" lon="2.28936">
        <ele>27.200000762939</ele>
        <time>2015-08-17T18:41:17.000Z</time>
      </trkpt>
      <trkpt lat="48.85525" lon="2.28927">
        <ele>27.200000762939</ele>
        <time>2015-08-17T18:41:21.000Z</time>
      </trkpt>
      <trkpt lat="48.85513" lon="2.28921">
        <ele>27.200000762939</ele>
        <time>2015-08-17T18:41:24.000Z</time>
      </trkpt>
      <trkpt lat="48.85507" lon="2.28915">
        <ele>27.200000762939</ele>
        <time>2015-08-17T18:41:26.000Z</time>
      </trkpt>
      <trkpt lat="48.85489" lon="2.28896">
        <ele>27.39999961853</ele>
        <time>2015-08-17T18:41:32.000Z</time>
      </trkpt>
      <trkpt lat="48.85486" lon="2.28893">
        <ele>27.60000038147</ele>
        <time>2015-08-17T18:41:33.000Z</time>
      </trkpt>
      <trkpt lat="48.85473" lon="2.28877">
        <ele>28.39999961853</ele>
        <time>2015-08-17T18:41:40.000Z</time>
      </trkpt>
      <trkpt lat="48.85473" lon="2.28877">
        <ele>29.799999237061</ele>
        <time>2015-08-17T18:41:45.000Z</time>
      </trkpt>
      <trkpt lat="48.85474" lon="2.28878">
        <ele>31</ele>
        <time>2015-08-17T18:41:53.000Z</time>
      </trkpt>
      <trkpt lat="48.8546" lon="2.28873">
        <ele>35.799999237061</ele>
        <time>2015-08-17T18:42:16.000Z</time>
      </trkpt>
      <trkpt lat="48.85451" lon="2.28859">
        <ele>36.599998474121</ele>
        <time>2015-08-17T18:42:21.000Z</time>
      </trkpt>
      <trkpt lat="48.85442" lon="2.28853">
        <ele>37</ele>
        <time>2015-08-17T18:42:24.000Z</time>
      </trkpt>
      <trkpt lat="48.85426" lon="2.28836">
        <ele>37.400001525879</ele>
        <time>2015-08-17T18:42:29.000Z</time>
      </trkpt>
      <trkpt lat="48.8541" lon="2.28813">
        <ele>37.400001525879</ele>
        <time>2015-08-17T18:42:32.000Z</time>
      </trkpt>
      <trkpt lat="48.85394" lon="2.2879">
        <ele>37.599998474121</ele>
        <time>2015-08-17T18:42:34.000Z</time>
      </trkpt>
      <trkpt lat="48.85379" lon="2.28771">
        <ele>37.599998474121</ele>
        <time>2015-08-17T18:42:37.000Z</time>
      </trkpt>
      <trkpt lat="48.85365" lon="2.28751">
        <ele>37.799999237061</ele>
        <time>2015-08-17T18:42:39.000Z</time>
      </trkpt>
      <trkpt lat="48.85346" lon="2.28724">
        <ele>37.799999237061</ele>
        <time>2015-08-17T18:42:42.000Z</time>
      </trkpt>
      <trkpt lat="48.85332" lon="2.28707">
        <ele>37.799999237061</ele>
        <time>2015-08-17T18:42:44.000Z</time>
      </trkpt>
      <trkpt lat="48.85328" lon="2.287">
        <ele>37.799999237061</ele>
        <time>2015-08-17T18:42:45.000Z</time>
      </trkpt>
      <trkpt lat="48.85313" lon="2.28679">
        <ele>37.799999237061</ele>
        <time>2015-08-17T18:42:48.000Z</time>
      </trkpt>
      <trkpt lat="48.8529" lon="2.28654">
        <ele>38.599998474121</ele>
        <time>2015-08-17T18:42:52.000Z</time>
      </trkpt>
      <trkpt lat="48.85268" lon="2.28639">
        <ele>39</ele>
        <time>2015-08-17T18:42:55.000Z</time>
      </trkpt>
      <trkpt lat="48.85245" lon="2.28627">
        <ele>39.200000762939</ele>
        <time>2015-08-17T18:42:58.000Z</time>
      </trkpt>
      <trkpt lat="48.8523" lon="2.2861">
        <ele>39.400001525879</ele>
        <time>2015-08-17T18:43:01.000Z</time>
      </trkpt>
      <trkpt lat="48.85216" lon="2.28585">
        <ele>39.599998474121</ele>
        <time>2015-08-17T18:43:04.000Z</time>
      </trkpt>
      <trkpt lat="48.85204" lon="2.28561">
        <ele>39.799999237061</ele>
        <time>2015-08-17T18:43:07.000Z</time>
      </trkpt>
      <trkpt lat="48.852" lon="2.28554">
        <ele>39.799999237061</ele>
        <time>2015-08-17T18:43:08.000Z</time>
      </trkpt>
      <trkpt lat="48.85181" lon="2.2853">
        <ele>39.799999237061</ele>
        <time>2015-08-17T18:43:12.000Z</time>
      </trkpt>
      <trkpt lat="48.85168" lon="2.28512">
        <ele>39.799999237061</ele>
        <time>2015-08-17T18:43:14.000Z</time>
      </trkpt>
      <trkpt lat="48.85152" lon="2.28482">
        <ele>40</ele>
        <time>2015-08-17T18:43:18.000Z</time>
      </trkpt>
      <trkpt lat="48.85144" lon="2.28466">
        <ele>40</ele>
        <time>2015-08-17T18:43:20.000Z</time>
      </trkpt>
      <trkpt lat="48.85137" lon="2.28452">
        <ele>40</ele>
        <time>2015-08-17T18:43:22.000Z</time>
      </trkpt>
      <trkpt lat="48.85116" lon="2.28418">
        <ele>40</ele>
        <time>2015-08-17T18:43:27.000Z</time>
      </trkpt>
      <trkpt lat="48.85101" lon="2.2839">
        <ele>40</ele>
        <time>2015-08-17T18:43:32.000Z</time>
      </trkpt>
      <trkpt lat="48.85083" lon="2.28364">
        <ele>39.200000762939</ele>
        <time>2015-08-17T18:43:36.000Z</time>
      </trkpt>
      <trkpt lat="48.85068" lon="2.28339">
        <ele>38.799999237061</ele>
        <time>2015-08-17T18:43:40.000Z</time>
      </trkpt>
      <trkpt lat="48.85055" lon="2.28317">
        <ele>38.599998474121</ele>
        <time>2015-08-17T18:43:44.000Z</time>
      </trkpt>
      <trkpt lat="48.85039" lon="2.28299">
        <ele>38.400001525879</ele>
        <time>2015-08-17T18:43:48.000Z</time>
      </trkpt>
      <trkpt lat="48.8502" lon="2.28276">
        <ele>38.200000762939</ele>
        <time>2015-08-17T18:43:52.000Z</time>
      </trkpt>
      <trkpt lat="48.85003" lon="2.28254">
        <ele>38.200000762939</ele>
        <time>2015-08-17T18:43:57.000Z</time>
      </trkpt>
      <trkpt lat="48.84987" lon="2.28232">
        <ele>38</ele>
        <time>2015-08-17T18:44:01.000Z</time>
      </trkpt>
      <trkpt lat="48.84973" lon="2.28209">
        <ele>38</ele>
        <time>2015-08-17T18:44:04.000Z</time>
      </trkpt>
      <trkpt lat="48.84969" lon="2.28203">
        <ele>38</ele>
        <time>2015-08-17T18:44:05.000Z</time>
      </trkpt>
      <trkpt lat="48.84953" lon="2.28174">
        <ele>38</ele>
        <time>2015-08-17T18:44:11.000Z</time>
      </trkpt>
      <trkpt lat="48.84951" lon="2.2817">
        <ele>37.799999237061</ele>
        <time>2015-08-17T18:44:12.000Z</time>
      </trkpt>
      <trkpt lat="48.84948" lon="2.28162">
        <ele>37.400001525879</ele>
        <time>2015-08-17T18:44:14.000Z</time>
      </trkpt>
      <trkpt lat="48.8494" lon="2.28152">
        <ele>36.799999237061</ele>
        <time>2015-08-17T18:44:19.000Z</time>
      </trkpt>
      <trkpt lat="48.84936" lon="2.28143">
        <ele>36.400001525879</ele>
        <time>2015-08-17T18:44:25.000Z</time>
      </trkpt>
      <trkpt lat="48.8493" lon="2.2814">
        <ele>36.200000762939</ele>
        <time>2015-08-17T18:44:31.000Z</time>
      </trkpt>
      <trkpt lat="48.84917" lon="2.28122">
        <ele>36</ele>
        <time>2015-08-17T18:44:35.000Z</time>
      </trkpt>
      <trkpt lat="48.84906" lon="2.28101">
        <ele>36.200000762939</ele>
        <time>2015-08-17T18:44:39.000Z</time>
      </trkpt>
      <trkpt lat="48.84898" lon="2.28089">
        <ele>36.599998474121</ele>
        <time>2015-08-17T18:44:42.000Z</time>
      </trkpt>
      <trkpt lat="48.84868" lon="2.28056">
        <ele>37.200000762939</ele>
        <time>2015-08-17T18:44:47.000Z</time>
      </trkpt>
      <trkpt lat="48.84863" lon="2.28051">
        <ele>37.599998474121</ele>
        <time>2015-08-17T18:44:48.000Z</time>
      </trkpt>
      <trkpt lat="48.84844" lon="2.28021">
        <ele>38.799999237061</ele>
        <time>2015-08-17T18:44:54.000Z</time>
      </trkpt>
      <trkpt lat="48.84829" lon="2.28004">
        <ele>39.400001525879</ele>
        <time>2015-08-17T18:44:57.000Z</time>
      </trkpt>
      <trkpt lat="48.84811" lon="2.27981">
        <ele>40.400001525879</ele>
        <time>2015-08-17T18:45:01.000Z</time>
      </trkpt>
      <trkpt lat="48.84797" lon="2.27965">
        <ele>41</ele>
        <time>2015-08-17T18:45:03.000Z</time>
      </trkpt>
      <trkpt lat="48.84779" lon="2.27938">
        <ele>41.599998474121</ele>
        <time>2015-08-17T18:45:08.000Z</time>
      </trkpt>
      <trkpt lat="48.84774" lon="2.27932">
        <ele>41.599998474121</ele>
        <time>2015-08-17T18:45:09.000Z</time>
      </trkpt>
      <trkpt lat="48.84762" lon="2.27913">
        <ele>42</ele>
        <time>2015-08-17T18:45:12.000Z</time>
      </trkpt>
      <trkpt lat="48.84745" lon="2.27883">
        <ele>42.200000762939</ele>
        <time>2015-08-17T18:45:16.000Z</time>
      </trkpt>
      <trkpt lat="48.84728" lon="2.27859">
        <ele>42.200000762939</ele>
        <time>2015-08-17T18:45:21.000Z</time>
      </trkpt>
      <trkpt lat="48.84715" lon="2.2784">
        <ele>42.400001525879</ele>
        <time>2015-08-17T18:45:24.000Z</time>
      </trkpt>
      <trkpt lat="48.84694" lon="2.2781">
        <ele>42.400001525879</ele>
        <time>2015-08-17T18:45:28.000Z</time>
      </trkpt>
      <trkpt lat="48.8467" lon="2.27783">
        <ele>42.400001525879</ele>
        <time>2015-08-17T18:45:34.000Z</time>
      </trkpt>
      <trkpt lat="48.84662" lon="2.27772">
        <ele>42.599998474121</ele>
        <time>2015-08-17T18:45:37.000Z</time>
      </trkpt>
      <trkpt lat="48.84648" lon="2.27754">
        <ele>42.599998474121</ele>
        <time>2015-08-17T18:45:40.000Z</time>
      </trkpt>
      <trkpt lat="48.84635" lon="2.27736">
        <ele>42.599998474121</ele>
        <time>2015-08-17T18:45:44.000Z</time>
      </trkpt>
      <trkpt lat="48.84619" lon="2.2771">
        <ele>42.599998474121</ele>
        <time>2015-08-17T18:45:50.000Z</time>
      </trkpt>
      <trkpt lat="48.84616" lon="2.27704">
        <ele>42.599998474121</ele>
        <time>2015-08-17T18:45:51.000Z</time>
      </trkpt>
      <trkpt lat="48.84612" lon="2.27685">
        <ele>42.599998474121</ele>
        <time>2015-08-17T18:45:56.000Z</time>
      </trkpt>
      <trkpt lat="48.84612" lon="2.27682">
        <ele>42.599998474121</ele>
        <time>2015-08-17T18:45:57.000Z</time>
      </trkpt>
      <trkpt lat="48.84614" lon="2.27679">
        <ele>42.599998474121</ele>
        <time>2015-08-17T18:46:02.000Z</time>
      </trkpt>
      <trkpt lat="48.84619" lon="2.27678">
        <ele>42.599998474121</ele>
        <time>2015-08-17T18:46:08.000Z</time>
      </trkpt>
      <trkpt lat="48.84618" lon="2.27677">
        <ele>42.599998474121</ele>
        <time>2015-08-17T18:46:18.000Z</time>
      </trkpt>
      <trkpt lat="48.84617" lon="2.27676">
        <ele>42.599998474121</ele>
        <time>2015-08-17T18:46:19.000Z</time>
      </trkpt>
      <trkpt lat="48.84618" lon="2.2767">
        <ele>42.599998474121</ele>
        <time>2015-08-17T18:46:23.000Z</time>
      </trkpt>
      <trkpt lat="48.84626" lon="2.27652">
        <ele>42.599998474121</ele>
        <time>2015-08-17T18:46:29.000Z</time>
      </trkpt>
      <trkpt lat="48.84638" lon="2.27626">
        <ele>42.400001525879</ele>
        <time>2015-08-17T18:46:37.000Z</time>
      </trkpt>
      <trkpt lat="48.84649" lon="2.27603">
        <ele>41.400001525879</ele>
        <time>2015-08-17T18:46:43.000Z</time>
      </trkpt>
      <trkpt lat="48.84661" lon="2.27579">
        <ele>41</ele>
        <time>2015-08-17T18:46:49.000Z</time>
      </trkpt>
      <trkpt lat="48.84673" lon="2.27554">
        <ele>40.799999237061</ele>
        <time>2015-08-17T18:46:54.000Z</time>
      </trkpt>
      <trkpt lat="48.84685" lon="2.27529">
        <ele>39.799999237061</ele>
        <time>2015-08-17T18:46:59.000Z</time>
      </trkpt>
      <trkpt lat="48.84697" lon="2.27504">
        <ele>39.200000762939</ele>
        <time>2015-08-17T18:47:04.000Z</time>
      </trkpt>
      <trkpt lat="48.84699" lon="2.27499">
        <ele>39.200000762939</ele>
        <time>2015-08-17T18:47:05.000Z</time>
      </trkpt>
      <trkpt lat="48.84712" lon="2.27469">
        <ele>38.799999237061</ele>
        <time>2015-08-17T18:47:11.000Z</time>
      </trkpt>
      <trkpt lat="48.84726" lon="2.27446">
        <ele>38.599998474121</ele>
        <time>2015-08-17T18:47:16.000Z</time>
      </trkpt>
      <trkpt lat="48.84738" lon="2.27423">
        <ele>38.599998474121</ele>
        <time>2015-08-17T18:47:21.000Z</time>
      </trkpt>
      <trkpt lat="48.84747" lon="2.27401">
        <ele>38.599998474121</ele>
        <time>2015-08-17T18:47:24.000Z</time>
      </trkpt>
      <trkpt lat="48.84755" lon="2.27378">
        <ele>38.599998474121</ele>
        <time>2015-08-17T18:47:27.000Z</time>
      </trkpt>
      <trkpt lat="48.84753" lon="2.27364">
        <ele>38.400001525879</ele>
        <time>2015-08-17T18:47:31.000Z</time>
      </trkpt>
      <trkpt lat="48.84746" lon="2.27359">
        <ele>38.400001525879</ele>
        <time>2015-08-17T18:47:33.000Z</time>
      </trkpt>
      <trkpt lat="48.84731" lon="2.2735">
        <ele>38.400001525879</ele>
        <time>2015-08-17T18:47:36.000Z</time>
      </trkpt>
      <trkpt lat="48.84709" lon="2.2733">
        <ele>38.400001525879</ele>
        <time>2015-08-17T18:47:40.000Z</time>
      </trkpt>
      <trkpt lat="48.84705" lon="2.27323">
        <ele>38.400001525879</ele>
        <time>2015-08-17T18:47:42.000Z</time>
      </trkpt>
      <trkpt lat="48.84694" lon="2.27314">
        <ele>38.599998474121</ele>
        <time>2015-08-17T18:47:44.000Z</time>
      </trkpt>
      <trkpt lat="48.8467" lon="2.27295">
        <ele>39.400001525879</ele>
        <time>2015-08-17T18:47:49.000Z</time>
      </trkpt>
      <trkpt lat="48.84665" lon="2.27291">
        <ele>39.599998474121</ele>
        <time>2015-08-17T18:47:51.000Z</time>
      </trkpt>
      <trkpt lat="48.84646" lon="2.27273">
        <ele>39.799999237061</ele>
        <time>2015-08-17T18:47:54.000Z</time>
      </trkpt>
      <trkpt lat="48.84627" lon="2.27251">
        <ele>40</ele>
        <time>2015-08-17T18:47:58.000Z</time>
      </trkpt>
      <trkpt lat="48.84593" lon="2.27218">
        <ele>40.200000762939</ele>
        <time>2015-08-17T18:48:05.000Z</time>
      </trkpt>
      <trkpt lat="48.84589" lon="2.27212">
        <ele>40.400001525879</ele>
        <time>2015-08-17T18:48:06.000Z</time>
      </trkpt>
      <trkpt lat="48.84574" lon="2.27199">
        <ele>40.400001525879</ele>
        <time>2015-08-17T18:48:10.000Z</time>
      </trkpt>
      <trkpt lat="48.84559" lon="2.27188">
        <ele>40.400001525879</ele>
        <time>2015-08-17T18:48:13.000Z</time>
      </trkpt>
      <trkpt lat="48.84555" lon="2.27183">
        <ele>40.400001525879</ele>
        <time>2015-08-17T18:48:14.000Z</time>
      </trkpt>
      <trkpt lat="48.84539" lon="2.27164">
        <ele>40.400001525879</ele>
        <time>2015-08-17T18:48:17.000Z</time>
      </trkpt>
      <trkpt lat="48.84536" lon="2.27161">
        <ele>40.400001525879</ele>
        <time>2015-08-17T18:48:18.000Z</time>
      </trkpt>
      <trkpt lat="48.84524" lon="2.27154">
        <ele>40.400001525879</ele>
        <time>2015-08-17T18:48:22.000Z</time>
      </trkpt>
      <trkpt lat="48.84516" lon="2.27146">
        <ele>40.400001525879</ele>
        <time>2015-08-17T18:48:24.000Z</time>
      </trkpt>
      <trkpt lat="48.84504" lon="2.27128">
        <ele>40.400001525879</ele>
        <time>2015-08-17T18:48:28.000Z</time>
      </trkpt>
      <trkpt lat="48.84489" lon="2.27113">
        <ele>40.400001525879</ele>
        <time>2015-08-17T18:48:32.000Z</time>
      </trkpt>
      <trkpt lat="48.84481" lon="2.27107">
        <ele>40.400001525879</ele>
        <time>2015-08-17T18:48:34.000Z</time>
      </trkpt>
      <trkpt lat="48.84459" lon="2.27091">
        <ele>40.400001525879</ele>
        <time>2015-08-17T18:48:39.000Z</time>
      </trkpt>
      <trkpt lat="48.84446" lon="2.27082">
        <ele>40.400001525879</ele>
        <time>2015-08-17T18:48:42.000Z</time>
      </trkpt>
      <trkpt lat="48.84421" lon="2.27062">
        <ele>41</ele>
        <time>2015-08-17T18:48:47.000Z</time>
      </trkpt>
      <trkpt lat="48.84406" lon="2.27049">
        <ele>41.400001525879</ele>
        <time>2015-08-17T18:48:50.000Z</time>
      </trkpt>
      <trkpt lat="48.84382" lon="2.27029">
        <ele>42.400001525879</ele>
        <time>2015-08-17T18:48:55.000Z</time>
      </trkpt>
      <trkpt lat="48.84362" lon="2.27013">
        <ele>43.400001525879</ele>
        <time>2015-08-17T18:48:59.000Z</time>
      </trkpt>
      <trkpt lat="48.84345" lon="2.26995">
        <ele>44.799999237061</ele>
        <time>2015-08-17T18:49:03.000Z</time>
      </trkpt>
      <trkpt lat="48.84341" lon="2.26991">
        <ele>45</ele>
        <time>2015-08-17T18:49:04.000Z</time>
      </trkpt>
      <trkpt lat="48.84335" lon="2.26984">
        <ele>45.400001525879</ele>
        <time>2015-08-17T18:49:06.000Z</time>
      </trkpt>
      <trkpt lat="48.84314" lon="2.26956">
        <ele>47</ele>
        <time>2015-08-17T18:49:11.000Z</time>
      </trkpt>
      <trkpt lat="48.843" lon="2.26937">
        <ele>47.599998474121</ele>
        <time>2015-08-17T18:49:14.000Z</time>
      </trkpt>
      <trkpt lat="48.84296" lon="2.26931">
        <ele>47.599998474121</ele>
        <time>2015-08-17T18:49:15.000Z</time>
      </trkpt>
      <trkpt lat="48.84275" lon="2.26906">
        <ele>48.200000762939</ele>
        <time>2015-08-17T18:49:20.000Z</time>
      </trkpt>
      <trkpt lat="48.84271" lon="2.26901">
        <ele>48.400001525879</ele>
        <time>2015-08-17T18:49:21.000Z</time>
      </trkpt>
      <trkpt lat="48.84267" lon="2.26895">
        <ele>48.400001525879</ele>
        <time>2015-08-17T18:49:22.000Z</time>
      </trkpt>
      <trkpt lat="48.84259" lon="2.2686">
        <ele>49.599998474121</ele>
        <time>2015-08-17T18:49:27.000Z</time>
      </trkpt>
      <trkpt lat="48.84256" lon="2.26856">
        <ele>49.799999237061</ele>
        <time>2015-08-17T18:49:28.000Z</time>
      </trkpt>
      <trkpt lat="48.84249" lon="2.26845">
        <ele>50</ele>
        <time>2015-08-17T18:49:30.000Z</time>
      </trkpt>
      <trkpt lat="48.84236" lon="2.26818">
        <ele>50.400001525879</ele>
        <time>2015-08-17T18:49:34.000Z</time>
      </trkpt>
      <trkpt lat="48.8423" lon="2.26803">
        <ele>50.599998474121</ele>
        <time>2015-08-17T18:49:36.000Z</time>
      </trkpt>
      <trkpt lat="48.84216" lon="2.26774">
        <ele>50.799999237061</ele>
        <time>2015-08-17T18:49:41.000Z</time>
      </trkpt>
      <trkpt lat="48.84214" lon="2.26768">
        <ele>50.799999237061</ele>
        <time>2015-08-17T18:49:42.000Z</time>
      </trkpt>
      <trkpt lat="48.84211" lon="2.26764">
        <ele>50.799999237061</ele>
        <time>2015-08-17T18:49:43.000Z</time>
      </trkpt>
      <trkpt lat="48.84198" lon="2.26738">
        <ele>51</ele>
        <time>2015-08-17T18:49:48.000Z</time>
      </trkpt>
      <trkpt lat="48.84185" lon="2.26719">
        <ele>51</ele>
        <time>2015-08-17T18:49:53.000Z</time>
      </trkpt>
      <trkpt lat="48.84182" lon="2.26714">
        <ele>51</ele>
        <time>2015-08-17T18:49:54.000Z</time>
      </trkpt>
      <trkpt lat="48.84177" lon="2.26704">
        <ele>51</ele>
        <time>2015-08-17T18:49:57.000Z</time>
      </trkpt>
      <trkpt lat="48.84166" lon="2.26685">
        <ele>51.200000762939</ele>
        <time>2015-08-17T18:50:02.000Z</time>
      </trkpt>
      <trkpt lat="48.84164" lon="2.26681">
        <ele>51.200000762939</ele>
        <time>2015-08-17T18:50:03.000Z</time>
      </trkpt>
      <trkpt lat="48.84152" lon="2.26658">
        <ele>51.200000762939</ele>
        <time>2015-08-17T18:50:08.000Z</time>
      </trkpt>
      <trkpt lat="48.84141" lon="2.26633">
        <ele>51.200000762939</ele>
        <time>2015-08-17T18:50:12.000Z</time>
      </trkpt>
      <trkpt lat="48.84134" lon="2.2662">
        <ele>51.200000762939</ele>
        <time>2015-08-17T18:50:14.000Z</time>
      </trkpt>
      <trkpt lat="48.8413" lon="2.2661">
        <ele>51.200000762939</ele>
        <time>2015-08-17T18:50:16.000Z</time>
      </trkpt>
      <trkpt lat="48.84115" lon="2.26588">
        <ele>51.200000762939</ele>
        <time>2015-08-17T18:50:20.000Z</time>
      </trkpt>
      <trkpt lat="48.84105" lon="2.26571">
        <ele>51.200000762939</ele>
        <time>2015-08-17T18:50:22.000Z</time>
      </trkpt>
      <trkpt lat="48.84095" lon="2.26556">
        <ele>52</ele>
        <time>2015-08-17T18:50:27.000Z</time>
      </trkpt>
      <trkpt lat="48.84089" lon="2.26548">
        <ele>53</ele>
        <time>2015-08-17T18:50:31.000Z</time>
      </trkpt>
      <trkpt lat="48.84085" lon="2.26542">
        <ele>54.200000762939</ele>
        <time>2015-08-17T18:50:34.000Z</time>
      </trkpt>
      <trkpt lat="48.84085" lon="2.26541">
        <ele>54.599998474121</ele>
        <time>2015-08-17T18:50:36.000Z</time>
      </trkpt>
      <trkpt lat="48.84089" lon="2.26538">
        <ele>55.599998474121</ele>
        <time>2015-08-17T18:50:39.000Z</time>
      </trkpt>
      <trkpt lat="48.84088" lon="2.26529">
        <ele>56.799999237061</ele>
        <time>2015-08-17T18:50:42.000Z</time>
      </trkpt>
      <trkpt lat="48.84084" lon="2.26525">
        <ele>59.400001525879</ele>
        <time>2015-08-17T18:50:48.000Z</time>
      </trkpt>
      <trkpt lat="48.84082" lon="2.26518">
        <ele>60.799999237061</ele>
        <time>2015-08-17T18:50:51.000Z</time>
      </trkpt>
      <trkpt lat="48.8408" lon="2.26495">
        <ele>64.199996948242</ele>
        <time>2015-08-17T18:51:00.000Z</time>
      </trkpt>
      <trkpt lat="48.84083" lon="2.2649">
        <ele>65.400001525879</ele>
        <time>2015-08-17T18:51:04.000Z</time>
      </trkpt>
      <trkpt lat="48.84081" lon="2.26491">
        <ele>71.400001525879</ele>
        <time>2015-08-17T18:51:29.000Z</time>
      </trkpt>
      <trkpt lat="48.84065" lon="2.26485">
        <ele>72</ele>
        <time>2015-08-17T18:51:33.000Z</time>
      </trkpt>
      <trkpt lat="48.84061" lon="2.26482">
        <ele>72.199996948242</ele>
        <time>2015-08-17T18:51:34.000Z</time>
      </trkpt>
      <trkpt lat="48.84045" lon="2.26454">
        <ele>72.400001525879</ele>
        <time>2015-08-17T18:51:40.000Z</time>
      </trkpt>
      <trkpt lat="48.84036" lon="2.26436">
        <ele>73</ele>
        <time>2015-08-17T18:51:42.000Z</time>
      </trkpt>
      <trkpt lat="48.8402" lon="2.26396">
        <ele>73.800003051758</ele>
        <time>2015-08-17T18:51:47.000Z</time>
      </trkpt>
      <trkpt lat="48.84015" lon="2.26388">
        <ele>73.800003051758</ele>
        <time>2015-08-17T18:51:48.000Z</time>
      </trkpt>
      <trkpt lat="48.84006" lon="2.26372">
        <ele>74</ele>
        <time>2015-08-17T18:51:50.000Z</time>
      </trkpt>
      <trkpt lat="48.83988" lon="2.26342">
        <ele>74.400001525879</ele>
        <time>2015-08-17T18:51:54.000Z</time>
      </trkpt>
      <trkpt lat="48.83984" lon="2.26335">
        <ele>74.400001525879</ele>
        <time>2015-08-17T18:51:55.000Z</time>
      </trkpt>
      <trkpt lat="48.83955" lon="2.26268">
        <ele>73.599998474121</ele>
        <time>2015-08-17T18:52:06.000Z</time>
      </trkpt>
      <trkpt lat="48.83945" lon="2.26233">
        <ele>73.400001525879</ele>
        <time>2015-08-17T18:52:11.000Z</time>
      </trkpt>
      <trkpt lat="48.83935" lon="2.26207">
        <ele>72.400001525879</ele>
        <time>2015-08-17T18:52:15.000Z</time>
      </trkpt>
      <trkpt lat="48.83927" lon="2.26182">
        <ele>72</ele>
        <time>2015-08-17T18:52:18.000Z</time>
      </trkpt>
      <trkpt lat="48.83919" lon="2.26149">
        <ele>71.400001525879</ele>
        <time>2015-08-17T18:52:22.000Z</time>
      </trkpt>
      <trkpt lat="48.83916" lon="2.26141">
        <ele>71.199996948242</ele>
        <time>2015-08-17T18:52:23.000Z</time>
      </trkpt>
      <trkpt lat="48.83908" lon="2.26115">
        <ele>70.400001525879</ele>
        <time>2015-08-17T18:52:26.000Z</time>
      </trkpt>
      <trkpt lat="48.83898" lon="2.26083">
        <ele>69.800003051758</ele>
        <time>2015-08-17T18:52:30.000Z</time>
      </trkpt>
      <trkpt lat="48.83887" lon="2.26051">
        <ele>69.400001525879</ele>
        <time>2015-08-17T18:52:34.000Z</time>
      </trkpt>
      <trkpt lat="48.8388" lon="2.26026">
        <ele>69.199996948242</ele>
        <time>2015-08-17T18:52:37.000Z</time>
      </trkpt>
      <trkpt lat="48.8387" lon="2.25997">
        <ele>69</ele>
        <time>2015-08-17T18:52:41.000Z</time>
      </trkpt>
      <trkpt lat="48.83862" lon="2.25969">
        <ele>69</ele>
        <time>2015-08-17T18:52:45.000Z</time>
      </trkpt>
      <trkpt lat="48.83851" lon="2.25937">
        <ele>68</ele>
        <time>2015-08-17T18:52:49.000Z</time>
      </trkpt>
      <trkpt lat="48.83841" lon="2.25905">
        <ele>67.599998474121</ele>
        <time>2015-08-17T18:52:53.000Z</time>
      </trkpt>
      <trkpt lat="48.83833" lon="2.2588">
        <ele>66.800003051758</ele>
        <time>2015-08-17T18:52:56.000Z</time>
      </trkpt>
      <trkpt lat="48.83829" lon="2.25863">
        <ele>66.400001525879</ele>
        <time>2015-08-17T18:52:58.000Z</time>
      </trkpt>
      <trkpt lat="48.83825" lon="2.25837">
        <ele>65.599998474121</ele>
        <time>2015-08-17T18:53:01.000Z</time>
      </trkpt>
      <trkpt lat="48.83817" lon="2.25818">
        <ele>64.800003051758</ele>
        <time>2015-08-17T18:53:04.000Z</time>
      </trkpt>
      <trkpt lat="48.83812" lon="2.25793">
        <ele>63.200000762939</ele>
        <time>2015-08-17T18:53:09.000Z</time>
      </trkpt>
      <trkpt lat="48.83811" lon="2.25791">
        <ele>62.799999237061</ele>
        <time>2015-08-17T18:53:10.000Z</time>
      </trkpt>
      <trkpt lat="48.83809" lon="2.25785">
        <ele>61.799999237061</ele>
        <time>2015-08-17T18:53:12.000Z</time>
      </trkpt>
      <trkpt lat="48.83809" lon="2.25776">
        <ele>61</ele>
        <time>2015-08-17T18:53:14.000Z</time>
      </trkpt>
      <trkpt lat="48.83812" lon="2.25764">
        <ele>59.599998474121</ele>
        <time>2015-08-17T18:53:17.000Z</time>
      </trkpt>
      <trkpt lat="48.83826" lon="2.25748">
        <ele>57</ele>
        <time>2015-08-17T18:53:23.000Z</time>
      </trkpt>
      <trkpt lat="48.83829" lon="2.25745">
        <ele>55</ele>
        <time>2015-08-17T18:53:27.000Z</time>
      </trkpt>
      <trkpt lat="48.8383" lon="2.25745">
        <ele>54.599998474121</ele>
        <time>2015-08-17T18:53:28.000Z</time>
      </trkpt>
      <trkpt lat="48.83839" lon="2.25736">
        <ele>52.200000762939</ele>
        <time>2015-08-17T18:53:34.000Z</time>
      </trkpt>
      <trkpt lat="48.83841" lon="2.25735">
        <ele>51.799999237061</ele>
        <time>2015-08-17T18:53:35.000Z</time>
      </trkpt>
      <trkpt lat="48.83842" lon="2.25733">
        <ele>51</ele>
        <time>2015-08-17T18:53:37.000Z</time>
      </trkpt>
      <trkpt lat="48.83843" lon="2.25717">
        <ele>49.200000762939</ele>
        <time>2015-08-17T18:53:42.000Z</time>
      </trkpt>
      <trkpt lat="48.83849" lon="2.25702">
        <ele>47</ele>
        <time>2015-08-17T18:53:48.000Z</time>
      </trkpt>
      <trkpt lat="48.8385" lon="2.25696">
        <ele>45.200000762939</ele>
        <time>2015-08-17T18:53:55.000Z</time>
      </trkpt>
      <trkpt lat="48.83849" lon="2.25694">
        <ele>45</ele>
        <time>2015-08-17T18:53:56.000Z</time>
      </trkpt>
      <trkpt lat="48.83844" lon="2.25672">
        <ele>44</ele>
        <time>2015-08-17T18:54:01.000Z</time>
      </trkpt>
      <trkpt lat="48.83851" lon="2.25665">
        <ele>43.599998474121</ele>
        <time>2015-08-17T18:54:04.000Z</time>
      </trkpt>
      <trkpt lat="48.83849" lon="2.25655">
        <ele>43.200000762939</ele>
        <time>2015-08-17T18:54:07.000Z</time>
      </trkpt>
      <trkpt lat="48.83847" lon="2.25649">
        <ele>43.200000762939</ele>
        <time>2015-08-17T18:54:08.000Z</time>
      </trkpt>
      <trkpt lat="48.83842" lon="2.25636">
        <ele>43</ele>
        <time>2015-08-17T18:54:12.000Z</time>
      </trkpt>
      <trkpt lat="48.83839" lon="2.2563">
        <ele>42.799999237061</ele>
        <time>2015-08-17T18:54:14.000Z</time>
      </trkpt>
      <trkpt lat="48.83841" lon="2.25611">
        <ele>42.799999237061</ele>
        <time>2015-08-17T18:54:19.000Z</time>
      </trkpt>
      <trkpt lat="48.83842" lon="2.25608">
        <ele>42.599998474121</ele>
        <time>2015-08-17T18:54:20.000Z</time>
      </trkpt>
      <trkpt lat="48.83845" lon="2.25595">
        <ele>42</ele>
        <time>2015-08-17T18:54:24.000Z</time>
      </trkpt>
      <trkpt lat="48.83862" lon="2.25571">
        <ele>41</ele>
        <time>2015-08-17T18:54:32.000Z</time>
      </trkpt>
      <trkpt lat="48.83866" lon="2.25565">
        <ele>41</ele>
        <time>2015-08-17T18:54:34.000Z</time>
      </trkpt>
      <trkpt lat="48.83866" lon="2.25533">
        <ele>40.799999237061</ele>
        <time>2015-08-17T18:54:38.000Z</time>
      </trkpt>
      <trkpt lat="48.83866" lon="2.25513">
        <ele>40.599998474121</ele>
        <time>2015-08-17T18:54:42.000Z</time>
      </trkpt>
      <trkpt lat="48.83866" lon="2.25508">
        <ele>40.599998474121</ele>
        <time>2015-08-17T18:54:43.000Z</time>
      </trkpt>
      <trkpt lat="48.83868" lon="2.25485">
        <ele>40.599998474121</ele>
        <time>2015-08-17T18:54:49.000Z</time>
      </trkpt>
      <trkpt lat="48.83868" lon="2.25481">
        <ele>40.400001525879</ele>
        <time>2015-08-17T18:54:50.000Z</time>
      </trkpt>
      <trkpt lat="48.83868" lon="2.25467">
        <ele>40.400001525879</ele>
        <time>2015-08-17T18:54:53.000Z</time>
      </trkpt>
      <trkpt lat="48.83869" lon="2.25461">
        <ele>40.400001525879</ele>
        <time>2015-08-17T18:54:56.000Z</time>
      </trkpt>
      <trkpt lat="48.83874" lon="2.25447">
        <ele>40.400001525879</ele>
        <time>2015-08-17T18:55:01.000Z</time>
      </trkpt>
      <trkpt lat="48.8388" lon="2.25434">
        <ele>40.400001525879</ele>
        <time>2015-08-17T18:55:05.000Z</time>
      </trkpt>
      <trkpt lat="48.8388" lon="2.25427">
        <ele>40.400001525879</ele>
        <time>2015-08-17T18:55:07.000Z</time>
      </trkpt>
      <trkpt lat="48.83884" lon="2.25418">
        <ele>40.400001525879</ele>
        <time>2015-08-17T18:55:12.000Z</time>
      </trkpt>
      <trkpt lat="48.83882" lon="2.25408">
        <ele>40.799999237061</ele>
        <time>2015-08-17T18:55:16.000Z</time>
      </trkpt>
      <trkpt lat="48.83882" lon="2.25394">
        <ele>41.200000762939</ele>
        <time>2015-08-17T18:55:20.000Z</time>
      </trkpt>
      <trkpt lat="48.83872" lon="2.25374">
        <ele>41.799999237061</ele>
        <time>2015-08-17T18:55:25.000Z</time>
      </trkpt>
      <trkpt lat="48.83865" lon="2.2536">
        <ele>42</ele>
        <time>2015-08-17T18:55:27.000Z</time>
      </trkpt>
      <trkpt lat="48.83861" lon="2.25321">
        <ele>42.200000762939</ele>
        <time>2015-08-17T18:55:34.000Z</time>
      </trkpt>
      <trkpt lat="48.8386" lon="2.25314">
        <ele>42.200000762939</ele>
        <time>2015-08-17T18:55:35.000Z</time>
      </trkpt>
      <trkpt lat="48.83859" lon="2.253">
        <ele>42.599998474121</ele>
        <time>2015-08-17T18:55:37.000Z</time>
      </trkpt>
      <trkpt lat="48.83862" lon="2.25276">
        <ele>43.200000762939</ele>
        <time>2015-08-17T18:55:41.000Z</time>
      </trkpt>
      <trkpt lat="48.83864" lon="2.25264">
        <ele>43.599998474121</ele>
        <time>2015-08-17T18:55:43.000Z</time>
      </trkpt>
      <trkpt lat="48.83865" lon="2.25229">
        <ele>44.200000762939</ele>
        <time>2015-08-17T18:55:48.000Z</time>
      </trkpt>
      <trkpt lat="48.83866" lon="2.25221">
        <ele>44.400001525879</ele>
        <time>2015-08-17T18:55:49.000Z</time>
      </trkpt>
      <trkpt lat="48.83868" lon="2.25209">
        <ele>44.799999237061</ele>
        <time>2015-08-17T18:55:51.000Z</time>
      </trkpt>
      <trkpt lat="48.8388" lon="2.25183">
        <ele>46</ele>
        <time>2015-08-17T18:55:57.000Z</time>
      </trkpt>
      <trkpt lat="48.83885" lon="2.25162">
        <ele>47</ele>
        <time>2015-08-17T18:56:01.000Z</time>
      </trkpt>
      <trkpt lat="48.83885" lon="2.25149">
        <ele>47.200000762939</ele>
        <time>2015-08-17T18:56:03.000Z</time>
      </trkpt>
      <trkpt lat="48.83888" lon="2.25115">
        <ele>48.200000762939</ele>
        <time>2015-08-17T18:56:08.000Z</time>
      </trkpt>
      <trkpt lat="48.83895" lon="2.25078">
        <ele>49.400001525879</ele>
        <time>2015-08-17T18:56:14.000Z</time>
      </trkpt>
      <trkpt lat="48.83897" lon="2.25044">
        <ele>50</ele>
        <time>2015-08-17T18:56:19.000Z</time>
      </trkpt>
      <trkpt lat="48.83898" lon="2.25021">
        <ele>50.200000762939</ele>
        <time>2015-08-17T18:56:23.000Z</time>
      </trkpt>
      <trkpt lat="48.83899" lon="2.25015">
        <ele>50.400001525879</ele>
        <time>2015-08-17T18:56:24.000Z</time>
      </trkpt>
      <trkpt lat="48.83899" lon="2.2501">
        <ele>50.400001525879</ele>
        <time>2015-08-17T18:56:25.000Z</time>
      </trkpt>
      <trkpt lat="48.83906" lon="2.24983">
        <ele>50.599998474121</ele>
        <time>2015-08-17T18:56:30.000Z</time>
      </trkpt>
      <trkpt lat="48.83907" lon="2.24962">
        <ele>50.599998474121</ele>
        <time>2015-08-17T18:56:33.000Z</time>
      </trkpt>
      <trkpt lat="48.83909" lon="2.24936">
        <ele>50.599998474121</ele>
        <time>2015-08-17T18:56:36.000Z</time>
      </trkpt>
      <trkpt lat="48.8391" lon="2.24918">
        <ele>50.599998474121</ele>
        <time>2015-08-17T18:56:38.000Z</time>
      </trkpt>
      <trkpt lat="48.83915" lon="2.24877">
        <ele>50.799999237061</ele>
        <time>2015-08-17T18:56:42.000Z</time>
      </trkpt>
      <trkpt lat="48.83918" lon="2.24856">
        <ele>50.799999237061</ele>
        <time>2015-08-17T18:56:44.000Z</time>
      </trkpt>
      <trkpt lat="48.83922" lon="2.24838">
        <ele>50.799999237061</ele>
        <time>2015-08-17T18:56:46.000Z</time>
      </trkpt>
      <trkpt lat="48.83922" lon="2.24791">
        <ele>50.799999237061</ele>
        <time>2015-08-17T18:56:50.000Z</time>
      </trkpt>
      <trkpt lat="48.83923" lon="2.24782">
        <ele>50.799999237061</ele>
        <time>2015-08-17T18:56:51.000Z</time>
      </trkpt>
      <trkpt lat="48.83932" lon="2.24747">
        <ele>50.799999237061</ele>
        <time>2015-08-17T18:56:56.000Z</time>
      </trkpt>
      <trkpt lat="48.83933" lon="2.2474">
        <ele>50.799999237061</ele>
        <time>2015-08-17T18:56:57.000Z</time>
      </trkpt>
      <trkpt lat="48.83933" lon="2.24733">
        <ele>50.799999237061</ele>
        <time>2015-08-17T18:56:58.000Z</time>
      </trkpt>
      <trkpt lat="48.83926" lon="2.24707">
        <ele>50.799999237061</ele>
        <time>2015-08-17T18:57:01.000Z</time>
      </trkpt>
      <trkpt lat="48.83918" lon="2.24694">
        <ele>49.599998474121</ele>
        <time>2015-08-17T18:57:08.000Z</time>
      </trkpt>
      <trkpt lat="48.83915" lon="2.2469">
        <ele>49.400001525879</ele>
        <time>2015-08-17T18:57:12.000Z</time>
      </trkpt>
      <trkpt lat="48.83918" lon="2.24674">
        <ele>49</ele>
        <time>2015-08-17T18:57:17.000Z</time>
      </trkpt>
      <trkpt lat="48.83919" lon="2.24667">
        <ele>49</ele>
        <time>2015-08-17T18:57:18.000Z</time>
      </trkpt>
      <trkpt lat="48.83921" lon="2.24639">
        <ele>48.799999237061</ele>
        <time>2015-08-17T18:57:21.000Z</time>
      </trkpt>
      <trkpt lat="48.83924" lon="2.24609">
        <ele>48.799999237061</ele>
        <time>2015-08-17T18:57:24.000Z</time>
      </trkpt>
      <trkpt lat="48.83926" lon="2.2458">
        <ele>48.799999237061</ele>
        <time>2015-08-17T18:57:26.000Z</time>
      </trkpt>
      <trkpt lat="48.83929" lon="2.24543">
        <ele>48.799999237061</ele>
        <time>2015-08-17T18:57:30.000Z</time>
      </trkpt>
      <trkpt lat="48.83932" lon="2.24523">
        <ele>48.400001525879</ele>
        <time>2015-08-17T18:57:32.000Z</time>
      </trkpt>
      <trkpt lat="48.83936" lon="2.24484">
        <ele>47.799999237061</ele>
        <time>2015-08-17T18:57:36.000Z</time>
      </trkpt>
      <trkpt lat="48.83936" lon="2.24474">
        <ele>47.599998474121</ele>
        <time>2015-08-17T18:57:37.000Z</time>
      </trkpt>
      <trkpt lat="48.83939" lon="2.24437">
        <ele>46.599998474121</ele>
        <time>2015-08-17T18:57:41.000Z</time>
      </trkpt>
      <trkpt lat="48.83939" lon="2.24427">
        <ele>46.400001525879</ele>
        <time>2015-08-17T18:57:42.000Z</time>
      </trkpt>
      <trkpt lat="48.83942" lon="2.24387">
        <ele>45.599998474121</ele>
        <time>2015-08-17T18:57:46.000Z</time>
      </trkpt>
      <trkpt lat="48.83945" lon="2.24355">
        <ele>44.799999237061</ele>
        <time>2015-08-17T18:57:49.000Z</time>
      </trkpt>
      <trkpt lat="48.83949" lon="2.24324">
        <ele>44.200000762939</ele>
        <time>2015-08-17T18:57:53.000Z</time>
      </trkpt>
      <trkpt lat="48.83951" lon="2.24317">
        <ele>44</ele>
        <time>2015-08-17T18:57:54.000Z</time>
      </trkpt>
      <trkpt lat="48.83958" lon="2.24294">
        <ele>43.599998474121</ele>
        <time>2015-08-17T18:57:57.000Z</time>
      </trkpt>
      <trkpt lat="48.83964" lon="2.2428">
        <ele>42.799999237061</ele>
        <time>2015-08-17T18:57:59.000Z</time>
      </trkpt>
      <trkpt lat="48.83963" lon="2.24248">
        <ele>42.200000762939</ele>
        <time>2015-08-17T18:58:02.000Z</time>
      </trkpt>
      <trkpt lat="48.83964" lon="2.24228">
        <ele>41.799999237061</ele>
        <time>2015-08-17T18:58:04.000Z</time>
      </trkpt>
      <trkpt lat="48.83966" lon="2.242">
        <ele>41</ele>
        <time>2015-08-17T18:58:07.000Z</time>
      </trkpt>
      <trkpt lat="48.8397" lon="2.24163">
        <ele>40</ele>
        <time>2015-08-17T18:58:11.000Z</time>
      </trkpt>
      <trkpt lat="48.83971" lon="2.24135">
        <ele>39.599998474121</ele>
        <time>2015-08-17T18:58:14.000Z</time>
      </trkpt>
      <trkpt lat="48.83974" lon="2.24102">
        <ele>39</ele>
        <time>2015-08-17T18:58:18.000Z</time>
      </trkpt>
      <trkpt lat="48.83975" lon="2.24067">
        <ele>38.599998474121</ele>
        <time>2015-08-17T18:58:22.000Z</time>
      </trkpt>
      <trkpt lat="48.83975" lon="2.24043">
        <ele>38.599998474121</ele>
        <time>2015-08-17T18:58:25.000Z</time>
      </trkpt>
      <trkpt lat="48.83975" lon="2.24037">
        <ele>38.400001525879</ele>
        <time>2015-08-17T18:58:26.000Z</time>
      </trkpt>
      <trkpt lat="48.83976" lon="2.24029">
        <ele>38.400001525879</ele>
        <time>2015-08-17T18:58:27.000Z</time>
      </trkpt>
      <trkpt lat="48.83977" lon="2.24015">
        <ele>38.400001525879</ele>
        <time>2015-08-17T18:58:29.000Z</time>
      </trkpt>
      <trkpt lat="48.83979" lon="2.24005">
        <ele>38.400001525879</ele>
        <time>2015-08-17T18:58:31.000Z</time>
      </trkpt>
      <trkpt lat="48.83979" lon="2.23988">
        <ele>38.200000762939</ele>
        <time>2015-08-17T18:58:34.000Z</time>
      </trkpt>
      <trkpt lat="48.83981" lon="2.23953">
        <ele>38.200000762939</ele>
        <time>2015-08-17T18:58:39.000Z</time>
      </trkpt>
      <trkpt lat="48.83981" lon="2.23938">
        <ele>38.200000762939</ele>
        <time>2015-08-17T18:58:41.000Z</time>
      </trkpt>
      <trkpt lat="48.83984" lon="2.23916">
        <ele>38.200000762939</ele>
        <time>2015-08-17T18:58:44.000Z</time>
      </trkpt>
      <trkpt lat="48.83986" lon="2.23892">
        <ele>38.200000762939</ele>
        <time>2015-08-17T18:58:47.000Z</time>
      </trkpt>
      <trkpt lat="48.83991" lon="2.23876">
        <ele>38</ele>
        <time>2015-08-17T18:58:49.000Z</time>
      </trkpt>
      <trkpt lat="48.83996" lon="2.23867">
        <ele>38</ele>
        <time>2015-08-17T18:58:51.000Z</time>
      </trkpt>
      <trkpt lat="48.83999" lon="2.23839">
        <ele>38</ele>
        <time>2015-08-17T18:58:54.000Z</time>
      </trkpt>
      <trkpt lat="48.84" lon="2.23813">
        <ele>38</ele>
        <time>2015-08-17T18:58:57.000Z</time>
      </trkpt>
      <trkpt lat="48.84001" lon="2.23774">
        <ele>38</ele>
        <time>2015-08-17T18:59:01.000Z</time>
      </trkpt>
      <trkpt lat="48.84003" lon="2.23743">
        <ele>38</ele>
        <time>2015-08-17T18:59:05.000Z</time>
      </trkpt>
      <trkpt lat="48.84005" lon="2.23736">
        <ele>38</ele>
        <time>2015-08-17T18:59:06.000Z</time>
      </trkpt>
      <trkpt lat="48.84007" lon="2.23726">
        <ele>38</ele>
        <time>2015-08-17T18:59:07.000Z</time>
      </trkpt>
      <trkpt lat="48.84016" lon="2.23688">
        <ele>38</ele>
        <time>2015-08-17T18:59:11.000Z</time>
      </trkpt>
      <trkpt lat="48.84018" lon="2.23677">
        <ele>38</ele>
        <time>2015-08-17T18:59:12.000Z</time>
      </trkpt>
      <trkpt lat="48.84019" lon="2.23638">
        <ele>38</ele>
        <time>2015-08-17T18:59:15.000Z</time>
      </trkpt>
      <trkpt lat="48.84024" lon="2.23601">
        <ele>38</ele>
        <time>2015-08-17T18:59:18.000Z</time>
      </trkpt>
      <trkpt lat="48.84026" lon="2.23561">
        <ele>37.599998474121</ele>
        <time>2015-08-17T18:59:21.000Z</time>
      </trkpt>
      <trkpt lat="48.84029" lon="2.2352">
        <ele>37.200000762939</ele>
        <time>2015-08-17T18:59:24.000Z</time>
      </trkpt>
      <trkpt lat="48.84029" lon="2.23493">
        <ele>37</ele>
        <time>2015-08-17T18:59:26.000Z</time>
      </trkpt>
      <trkpt lat="48.8403" lon="2.23455">
        <ele>36.200000762939</ele>
        <time>2015-08-17T18:59:29.000Z</time>
      </trkpt>
      <trkpt lat="48.8403" lon="2.23444">
        <ele>36</ele>
        <time>2015-08-17T18:59:30.000Z</time>
      </trkpt>
      <trkpt lat="48.84029" lon="2.23416">
        <ele>35.400001525879</ele>
        <time>2015-08-17T18:59:33.000Z</time>
      </trkpt>
      <trkpt lat="48.84027" lon="2.23396">
        <ele>34.799999237061</ele>
        <time>2015-08-17T18:59:37.000Z</time>
      </trkpt>
      <trkpt lat="48.84025" lon="2.23384">
        <ele>34</ele>
        <time>2015-08-17T18:59:41.000Z</time>
      </trkpt>
      <trkpt lat="48.84031" lon="2.23361">
        <ele>33.200000762939</ele>
        <time>2015-08-17T18:59:45.000Z</time>
      </trkpt>
      <trkpt lat="48.84037" lon="2.23343">
        <ele>32.799999237061</ele>
        <time>2015-08-17T18:59:48.000Z</time>
      </trkpt>
      <trkpt lat="48.8405" lon="2.23316">
        <ele>32.400001525879</ele>
        <time>2015-08-17T18:59:53.000Z</time>
      </trkpt>
      <trkpt lat="48.8405" lon="2.23306">
        <ele>32.200000762939</ele>
        <time>2015-08-17T18:59:54.000Z</time>
      </trkpt>
      <trkpt lat="48.8405" lon="2.23278">
        <ele>32.200000762939</ele>
        <time>2015-08-17T18:59:57.000Z</time>
      </trkpt>
      <trkpt lat="48.84052" lon="2.23243">
        <ele>32.599998474121</ele>
        <time>2015-08-17T19:00:01.000Z</time>
      </trkpt>
      <trkpt lat="48.84053" lon="2.23207">
        <ele>33</ele>
        <time>2015-08-17T19:00:05.000Z</time>
      </trkpt>
      <trkpt lat="48.84054" lon="2.232">
        <ele>33</ele>
        <time>2015-08-17T19:00:06.000Z</time>
      </trkpt>
      <trkpt lat="48.84057" lon="2.23186">
        <ele>33.200000762939</ele>
        <time>2015-08-17T19:00:08.000Z</time>
      </trkpt>
      <trkpt lat="48.84059" lon="2.23162">
        <ele>33.400001525879</ele>
        <time>2015-08-17T19:00:11.000Z</time>
      </trkpt>
      <trkpt lat="48.84059" lon="2.23125">
        <ele>33.599998474121</ele>
        <time>2015-08-17T19:00:16.000Z</time>
      </trkpt>
      <trkpt lat="48.84059" lon="2.23112">
        <ele>33.599998474121</ele>
        <time>2015-08-17T19:00:18.000Z</time>
      </trkpt>
      <trkpt lat="48.84062" lon="2.23092">
        <ele>33.799999237061</ele>
        <time>2015-08-17T19:00:21.000Z</time>
      </trkpt>
      <trkpt lat="48.84064" lon="2.23052">
        <ele>34.400001525879</ele>
        <time>2015-08-17T19:00:27.000Z</time>
      </trkpt>
      <trkpt lat="48.84067" lon="2.23038">
        <ele>34.799999237061</ele>
        <time>2015-08-17T19:00:29.000Z</time>
      </trkpt>
      <trkpt lat="48.84069" lon="2.23025">
        <ele>35</ele>
        <time>2015-08-17T19:00:31.000Z</time>
      </trkpt>
      <trkpt lat="48.8407" lon="2.2301">
        <ele>35.200000762939</ele>
        <time>2015-08-17T19:00:33.000Z</time>
      </trkpt>
      <trkpt lat="48.84074" lon="2.22978">
        <ele>35.400001525879</ele>
        <time>2015-08-17T19:00:37.000Z</time>
      </trkpt>
      <trkpt lat="48.84076" lon="2.22948">
        <ele>35.599998474121</ele>
        <time>2015-08-17T19:00:41.000Z</time>
      </trkpt>
      <trkpt lat="48.84082" lon="2.22902">
        <ele>35.799999237061</ele>
        <time>2015-08-17T19:00:48.000Z</time>
      </trkpt>
      <trkpt lat="48.84087" lon="2.22891">
        <ele>35.799999237061</ele>
        <time>2015-08-17T19:00:50.000Z</time>
      </trkpt>
      <trkpt lat="48.84093" lon="2.22883">
        <ele>35.799999237061</ele>
        <time>2015-08-17T19:00:52.000Z</time>
      </trkpt>
      <trkpt lat="48.84099" lon="2.2285">
        <ele>35.799999237061</ele>
        <time>2015-08-17T19:00:57.000Z</time>
      </trkpt>
      <trkpt lat="48.84099" lon="2.22828">
        <ele>35.799999237061</ele>
        <time>2015-08-17T19:01:00.000Z</time>
      </trkpt>
      <trkpt lat="48.84098" lon="2.22814">
        <ele>35.799999237061</ele>
        <time>2015-08-17T19:01:02.000Z</time>
      </trkpt>
      <trkpt lat="48.84097" lon="2.22809">
        <ele>35.799999237061</ele>
        <time>2015-08-17T19:01:03.000Z</time>
      </trkpt>
      <trkpt lat="48.84097" lon="2.22795">
        <ele>35.799999237061</ele>
        <time>2015-08-17T19:01:05.000Z</time>
      </trkpt>
      <trkpt lat="48.84099" lon="2.22769">
        <ele>35.799999237061</ele>
        <time>2015-08-17T19:01:09.000Z</time>
      </trkpt>
      <trkpt lat="48.84102" lon="2.22746">
        <ele>35.799999237061</ele>
        <time>2015-08-17T19:01:13.000Z</time>
      </trkpt>
      <trkpt lat="48.84106" lon="2.22713">
        <ele>35.799999237061</ele>
        <time>2015-08-17T19:01:18.000Z</time>
      </trkpt>
      <trkpt lat="48.84107" lon="2.22707">
        <ele>35.799999237061</ele>
        <time>2015-08-17T19:01:19.000Z</time>
      </trkpt>
      <trkpt lat="48.8411" lon="2.22675">
        <ele>35.799999237061</ele>
        <time>2015-08-17T19:01:24.000Z</time>
      </trkpt>
      <trkpt lat="48.84111" lon="2.22669">
        <ele>35.799999237061</ele>
        <time>2015-08-17T19:01:25.000Z</time>
      </trkpt>
      <trkpt lat="48.84113" lon="2.2265">
        <ele>35.799999237061</ele>
        <time>2015-08-17T19:01:28.000Z</time>
      </trkpt>
      <trkpt lat="48.84115" lon="2.22628">
        <ele>36.200000762939</ele>
        <time>2015-08-17T19:01:31.000Z</time>
      </trkpt>
      <trkpt lat="48.84119" lon="2.22592">
        <ele>37</ele>
        <time>2015-08-17T19:01:36.000Z</time>
      </trkpt>
      <trkpt lat="48.84121" lon="2.2258">
        <ele>37.200000762939</ele>
        <time>2015-08-17T19:01:38.000Z</time>
      </trkpt>
      <trkpt lat="48.84123" lon="2.22566">
        <ele>37.400001525879</ele>
        <time>2015-08-17T19:01:40.000Z</time>
      </trkpt>
      <trkpt lat="48.84124" lon="2.22554">
        <ele>37.400001525879</ele>
        <time>2015-08-17T19:01:42.000Z</time>
      </trkpt>
      <trkpt lat="48.84127" lon="2.22531">
        <ele>37.599998474121</ele>
        <time>2015-08-17T19:01:46.000Z</time>
      </trkpt>
      <trkpt lat="48.84131" lon="2.22497">
        <ele>37.599998474121</ele>
        <time>2015-08-17T19:01:53.000Z</time>
      </trkpt>
      <trkpt lat="48.84133" lon="2.22479">
        <ele>37.200000762939</ele>
        <time>2015-08-17T19:01:56.000Z</time>
      </trkpt>
      <trkpt lat="48.84138" lon="2.22457">
        <ele>36.599998474121</ele>
        <time>2015-08-17T19:02:00.000Z</time>
      </trkpt>
      <trkpt lat="48.84141" lon="2.22423">
        <ele>36.200000762939</ele>
        <time>2015-08-17T19:02:06.000Z</time>
      </trkpt>
      <trkpt lat="48.84143" lon="2.22396">
        <ele>35.200000762939</ele>
        <time>2015-08-17T19:02:10.000Z</time>
      </trkpt>
      <trkpt lat="48.84145" lon="2.22367">
        <ele>34.599998474121</ele>
        <time>2015-08-17T19:02:16.000Z</time>
      </trkpt>
      <trkpt lat="48.84149" lon="2.22336">
        <ele>34.200000762939</ele>
        <time>2015-08-17T19:02:21.000Z</time>
      </trkpt>
      <trkpt lat="48.84151" lon="2.22303">
        <ele>34</ele>
        <time>2015-08-17T19:02:26.000Z</time>
      </trkpt>
      <trkpt lat="48.84154" lon="2.22274">
        <ele>33.799999237061</ele>
        <time>2015-08-17T19:02:31.000Z</time>
      </trkpt>
      <trkpt lat="48.84156" lon="2.22246">
        <ele>33.799999237061</ele>
        <time>2015-08-17T19:02:36.000Z</time>
      </trkpt>
      <trkpt lat="48.84165" lon="2.22222">
        <ele>33.799999237061</ele>
        <time>2015-08-17T19:02:40.000Z</time>
      </trkpt>
      <trkpt lat="48.84169" lon="2.22219">
        <ele>33.799999237061</ele>
        <time>2015-08-17T19:02:41.000Z</time>
      </trkpt>
      <trkpt lat="48.84175" lon="2.22209">
        <ele>33.799999237061</ele>
        <time>2015-08-17T19:02:43.000Z</time>
      </trkpt>
      <trkpt lat="48.8418" lon="2.22193">
        <ele>33.799999237061</ele>
        <time>2015-08-17T19:02:46.000Z</time>
      </trkpt>
      <trkpt lat="48.84189" lon="2.2217">
        <ele>33.799999237061</ele>
        <time>2015-08-17T19:02:51.000Z</time>
      </trkpt>
      <trkpt lat="48.84191" lon="2.22162">
        <ele>33.799999237061</ele>
        <time>2015-08-17T19:02:54.000Z</time>
      </trkpt>
      <trkpt lat="48.84197" lon="2.22147">
        <ele>33.799999237061</ele>
        <time>2015-08-17T19:02:59.000Z</time>
      </trkpt>
      <trkpt lat="48.84198" lon="2.22143">
        <ele>34</ele>
        <time>2015-08-17T19:03:00.000Z</time>
      </trkpt>
      <trkpt lat="48.84198" lon="2.22139">
        <ele>34.200000762939</ele>
        <time>2015-08-17T19:03:01.000Z</time>
      </trkpt>
      <trkpt lat="48.84199" lon="2.22124">
        <ele>34.799999237061</ele>
        <time>2015-08-17T19:03:06.000Z</time>
      </trkpt>
      <trkpt lat="48.84199" lon="2.22122">
        <ele>35</ele>
        <time>2015-08-17T19:03:07.000Z</time>
      </trkpt>
      <trkpt lat="48.84202" lon="2.22107">
        <ele>36</ele>
        <time>2015-08-17T19:03:14.000Z</time>
      </trkpt>
      <trkpt lat="48.84205" lon="2.22101">
        <ele>36.799999237061</ele>
        <time>2015-08-17T19:03:19.000Z</time>
      </trkpt>
      <trkpt lat="48.84204" lon="2.22094">
        <ele>39</ele>
        <time>2015-08-17T19:03:30.000Z</time>
      </trkpt>
      <trkpt lat="48.84204" lon="2.22093">
        <ele>39</ele>
        <time>2015-08-17T19:03:31.000Z</time>
      </trkpt>
      <trkpt lat="48.84206" lon="2.22082">
        <ele>40.400001525879</ele>
        <time>2015-08-17T19:03:37.000Z</time>
      </trkpt>
      <trkpt lat="48.84209" lon="2.22079">
        <ele>41.599998474121</ele>
        <time>2015-08-17T19:03:42.000Z</time>
      </trkpt>
      <trkpt lat="48.84208" lon="2.22077">
        <ele>41.799999237061</ele>
        <time>2015-08-17T19:03:43.000Z</time>
      </trkpt>
      <trkpt lat="48.84207" lon="2.22076">
        <ele>42</ele>
        <time>2015-08-17T19:03:44.000Z</time>
      </trkpt>
      <trkpt lat="48.84206" lon="2.22071">
        <ele>42.599998474121</ele>
        <time>2015-08-17T19:03:47.000Z</time>
      </trkpt>
      <trkpt lat="48.84206" lon="2.22065">
        <ele>43.799999237061</ele>
        <time>2015-08-17T19:03:51.000Z</time>
      </trkpt>
      <trkpt lat="48.84209" lon="2.22058">
        <ele>45.400001525879</ele>
        <time>2015-08-17T19:03:57.000Z</time>
      </trkpt>
      <trkpt lat="48.84211" lon="2.22056">
        <ele>46</ele>
        <time>2015-08-17T19:03:59.000Z</time>
      </trkpt>
      <trkpt lat="48.84211" lon="2.22054">
        <ele>46.400001525879</ele>
        <time>2015-08-17T19:04:01.000Z</time>
      </trkpt>
      <trkpt lat="48.84211" lon="2.22052">
        <ele>46.599998474121</ele>
        <time>2015-08-17T19:04:02.000Z</time>
      </trkpt>
      <trkpt lat="48.84209" lon="2.22046">
        <ele>49</ele>
        <time>2015-08-17T19:04:12.000Z</time>
      </trkpt>
      <trkpt lat="48.8421" lon="2.22043">
        <ele>49.200000762939</ele>
        <time>2015-08-17T19:04:14.000Z</time>
      </trkpt>
      <trkpt lat="48.84209" lon="2.22039">
        <ele>49.599998474121</ele>
        <time>2015-08-17T19:04:16.000Z</time>
      </trkpt>
      <trkpt lat="48.84209" lon="2.22033">
        <ele>50.599998474121</ele>
        <time>2015-08-17T19:04:20.000Z</time>
      </trkpt>
      <trkpt lat="48.8421" lon="2.22028">
        <ele>51.200000762939</ele>
        <time>2015-08-17T19:04:23.000Z</time>
      </trkpt>
      <trkpt lat="48.8421" lon="2.22025">
        <ele>52.599998474121</ele>
        <time>2015-08-17T19:04:28.000Z</time>
      </trkpt>
      <trkpt lat="48.84208" lon="2.22013">
        <ele>55.599998474121</ele>
        <time>2015-08-17T19:04:38.000Z</time>
      </trkpt>
      <trkpt lat="48.8421" lon="2.22007">
        <ele>56.799999237061</ele>
        <time>2015-08-17T19:04:42.000Z</time>
      </trkpt>
      <trkpt lat="48.84213" lon="2.21997">
        <ele>58.799999237061</ele>
        <time>2015-08-17T19:04:48.000Z</time>
      </trkpt>
      <trkpt lat="48.84212" lon="2.21989">
        <ele>60</ele>
        <time>2015-08-17T19:04:52.000Z</time>
      </trkpt>
      <trkpt lat="48.84212" lon="2.21987">
        <ele>60.400001525879</ele>
        <time>2015-08-17T19:04:53.000Z</time>
      </trkpt>
      <trkpt lat="48.84212" lon="2.21975">
        <ele>61.400001525879</ele>
        <time>2015-08-17T19:04:57.000Z</time>
      </trkpt>
      <trkpt lat="48.84213" lon="2.21974">
        <ele>61.799999237061</ele>
        <time>2015-08-17T19:04:58.000Z</time>
      </trkpt>
      <trkpt lat="48.84217" lon="2.21966">
        <ele>63.200000762939</ele>
        <time>2015-08-17T19:05:03.000Z</time>
      </trkpt>
      <trkpt lat="48.84221" lon="2.21962">
        <ele>64.199996948242</ele>
        <time>2015-08-17T19:05:08.000Z</time>
      </trkpt>
      <trkpt lat="48.84221" lon="2.21961">
        <ele>64.400001525879</ele>
        <time>2015-08-17T19:05:09.000Z</time>
      </trkpt>
      <trkpt lat="48.8422" lon="2.2195">
        <ele>66.800003051758</ele>
        <time>2015-08-17T19:05:22.000Z</time>
      </trkpt>
      <trkpt lat="48.8422" lon="2.21946">
        <ele>67</ele>
        <time>2015-08-17T19:05:26.000Z</time>
      </trkpt>
      <trkpt lat="48.8422" lon="2.21942">
        <ele>67.199996948242</ele>
        <time>2015-08-17T19:05:31.000Z</time>
      </trkpt>
      <trkpt lat="48.84214" lon="2.2194">
        <ele>67.400001525879</ele>
        <time>2015-08-17T19:06:02.000Z</time>
      </trkpt>
      <trkpt lat="48.8421" lon="2.21943">
        <ele>67.400001525879</ele>
        <time>2015-08-17T19:06:05.000Z</time>
      </trkpt>
      <trkpt lat="48.84201" lon="2.21942">
        <ele>67.400001525879</ele>
        <time>2015-08-17T19:06:11.000Z</time>
      </trkpt>
      <trkpt lat="48.84186" lon="2.21938">
        <ele>67.400001525879</ele>
        <time>2015-08-17T19:06:19.000Z</time>
      </trkpt>
      <trkpt lat="48.84175" lon="2.2194">
        <ele>68.199996948242</ele>
        <time>2015-08-17T19:06:25.000Z</time>
      </trkpt>
      <trkpt lat="48.84162" lon="2.21939">
        <ele>69.599998474121</ele>
        <time>2015-08-17T19:06:32.000Z</time>
      </trkpt>
      <trkpt lat="48.84157" lon="2.21939">
        <ele>70</ele>
        <time>2015-08-17T19:06:34.000Z</time>
      </trkpt>
      <trkpt lat="48.84141" lon="2.21932">
        <ele>71.800003051758</ele>
        <time>2015-08-17T19:06:42.000Z</time>
      </trkpt>
      <trkpt lat="48.84129" lon="2.21925">
        <ele>72.599998474121</ele>
        <time>2015-08-17T19:06:47.000Z</time>
      </trkpt>
      <trkpt lat="48.84122" lon="2.21921">
        <ele>73</ele>
        <time>2015-08-17T19:06:50.000Z</time>
      </trkpt>
      <trkpt lat="48.84116" lon="2.2192">
        <ele>73.400001525879</ele>
        <time>2015-08-17T19:06:55.000Z</time>
      </trkpt>
      <trkpt lat="48.84108" lon="2.21915">
        <ele>73.599998474121</ele>
        <time>2015-08-17T19:07:01.000Z</time>
      </trkpt>
      <trkpt lat="48.84097" lon="2.2191">
        <ele>73.800003051758</ele>
        <time>2015-08-17T19:07:07.000Z</time>
      </trkpt>
      <trkpt lat="48.84095" lon="2.21909">
        <ele>73.800003051758</ele>
        <time>2015-08-17T19:07:08.000Z</time>
      </trkpt>
      <trkpt lat="48.84086" lon="2.21903">
        <ele>73.800003051758</ele>
        <time>2015-08-17T19:07:12.000Z</time>
      </trkpt>
      <trkpt lat="48.84081" lon="2.21903">
        <ele>73.800003051758</ele>
        <time>2015-08-17T19:07:14.000Z</time>
      </trkpt>
      <trkpt lat="48.84079" lon="2.21904">
        <ele>73.800003051758</ele>
        <time>2015-08-17T19:07:16.000Z</time>
      </trkpt>
      <trkpt lat="48.84077" lon="2.21907">
        <ele>73.800003051758</ele>
        <time>2015-08-17T19:07:22.000Z</time>
      </trkpt>
      <trkpt lat="48.84089" lon="2.21916">
        <ele>73.800003051758</ele>
        <time>2015-08-17T19:07:30.000Z</time>
      </trkpt>
      <trkpt lat="48.84095" lon="2.21919">
        <ele>73.800003051758</ele>
        <time>2015-08-17T19:07:34.000Z</time>
      </trkpt>
      <trkpt lat="48.84098" lon="2.21921">
        <ele>73.800003051758</ele>
        <time>2015-08-17T19:07:36.000Z</time>
      </trkpt>
      <trkpt lat="48.84099" lon="2.21924">
        <ele>73.800003051758</ele>
        <time>2015-08-17T19:07:38.000Z</time>
      </trkpt>
      <trkpt lat="48.8411" lon="2.21921">
        <ele>73.800003051758</ele>
        <time>2015-08-17T19:07:45.000Z</time>
      </trkpt>
      <trkpt lat="48.84113" lon="2.21921">
        <ele>73.800003051758</ele>
        <time>2015-08-17T19:07:50.000Z</time>
      </trkpt>
      <trkpt lat="48.84111" lon="2.21932">
        <ele>77</ele>
        <time>2015-08-17T19:08:18.000Z</time>
      </trkpt>
      <trkpt lat="48.84112" lon="2.21929">
        <ele>79</ele>
        <time>2015-08-17T19:08:28.000Z</time>
      </trkpt>
      <trkpt lat="48.84123" lon="2.21906">
        <ele>79</ele>
        <time>2015-08-17T19:08:52.000Z</time>
      </trkpt>
      <trkpt lat="48.84131" lon="2.21892">
        <ele>78.599998474121</ele>
        <time>2015-08-17T19:08:58.000Z</time>
      </trkpt>
      <trkpt lat="48.84134" lon="2.2189">
        <ele>78.599998474121</ele>
        <time>2015-08-17T19:08:59.000Z</time>
      </trkpt>
      <trkpt lat="48.84136" lon="2.21879">
        <ele>77.599998474121</ele>
        <time>2015-08-17T19:09:03.000Z</time>
      </trkpt>
      <trkpt lat="48.84137" lon="2.21877">
        <ele>77.400001525879</ele>
        <time>2015-08-17T19:09:04.000Z</time>
      </trkpt>
      <trkpt lat="48.84141" lon="2.21866">
        <ele>76.599998474121</ele>
        <time>2015-08-17T19:09:09.000Z</time>
      </trkpt>
      <trkpt lat="48.84144" lon="2.21857">
        <ele>76.400001525879</ele>
        <time>2015-08-17T19:09:13.000Z</time>
      </trkpt>
      <trkpt lat="48.84144" lon="2.21849">
        <ele>75.800003051758</ele>
        <time>2015-08-17T19:09:16.000Z</time>
      </trkpt>
      <trkpt lat="48.84147" lon="2.21834">
        <ele>74.599998474121</ele>
        <time>2015-08-17T19:09:23.000Z</time>
      </trkpt>
      <trkpt lat="48.8415" lon="2.21828">
        <ele>74.199996948242</ele>
        <time>2015-08-17T19:09:30.000Z</time>
      </trkpt>
      <trkpt lat="48.8415" lon="2.21826">
        <ele>74</ele>
        <time>2015-08-17T19:09:31.000Z</time>
      </trkpt>
      <trkpt lat="48.84149" lon="2.21826">
        <ele>74</ele>
        <time>2015-08-17T19:09:32.000Z</time>
      </trkpt>
      <trkpt lat="48.84151" lon="2.21818">
        <ele>74</ele>
        <time>2015-08-17T19:09:35.000Z</time>
      </trkpt>
      <trkpt lat="48.84158" lon="2.21805">
        <ele>73.800003051758</ele>
        <time>2015-08-17T19:09:40.000Z</time>
      </trkpt>
      <trkpt lat="48.84161" lon="2.21793">
        <ele>73.800003051758</ele>
        <time>2015-08-17T19:09:45.000Z</time>
      </trkpt>
      <trkpt lat="48.84155" lon="2.21782">
        <ele>73.800003051758</ele>
        <time>2015-08-17T19:09:49.000Z</time>
      </trkpt>
      <trkpt lat="48.84154" lon="2.21779">
        <ele>73.800003051758</ele>
        <time>2015-08-17T19:09:51.000Z</time>
      </trkpt>
      <trkpt lat="48.84153" lon="2.21775">
        <ele>73.599998474121</ele>
        <time>2015-08-17T19:09:59.000Z</time>
      </trkpt>
      <trkpt lat="48.84149" lon="2.21776">
        <ele>73.599998474121</ele>
        <time>2015-08-17T19:10:07.000Z</time>
      </trkpt>
      <trkpt lat="48.84148" lon="2.21776">
        <ele>73.599998474121</ele>
        <time>2015-08-17T19:10:08.000Z</time>
      </trkpt>
      <trkpt lat="48.84145" lon="2.2177">
        <ele>74</ele>
        <time>2015-08-17T19:10:12.000Z</time>
      </trkpt>
      <trkpt lat="48.84143" lon="2.21764">
        <ele>76</ele>
        <time>2015-08-17T19:10:22.000Z</time>
      </trkpt>
      <trkpt lat="48.84136" lon="2.21748">
        <ele>102</ele>
        <time>2015-08-17T19:11:36.000Z</time>
      </trkpt>
      <trkpt lat="48.84127" lon="2.21745">
        <ele>104</ele>
        <time>2015-08-17T19:11:42.000Z</time>
      </trkpt>
      <trkpt lat="48.8411" lon="2.21744">
        <ele>106.40000152588</ele>
        <time>2015-08-17T19:11:50.000Z</time>
      </trkpt>
      <trkpt lat="48.84094" lon="2.21745">
        <ele>107.40000152588</ele>
        <time>2015-08-17T19:11:57.000Z</time>
      </trkpt>
      <trkpt lat="48.84083" lon="2.21744">
        <ele>107.40000152588</ele>
        <time>2015-08-17T19:12:01.000Z</time>
      </trkpt>
      <trkpt lat="48.84078" lon="2.21744">
        <ele>107.19999694824</ele>
        <time>2015-08-17T19:12:03.000Z</time>
      </trkpt>
      <trkpt lat="48.8407" lon="2.21745">
        <ele>106.40000152588</ele>
        <time>2015-08-17T19:12:08.000Z</time>
      </trkpt>
      <trkpt lat="48.84064" lon="2.21746">
        <ele>104.80000305176</ele>
        <time>2015-08-17T19:12:14.000Z</time>
      </trkpt>
      <trkpt lat="48.84057" lon="2.21744">
        <ele>102.59999847412</ele>
        <time>2015-08-17T19:12:21.000Z</time>
      </trkpt>
      <trkpt lat="48.84051" lon="2.21744">
        <ele>101</ele>
        <time>2015-08-17T19:12:26.000Z</time>
      </trkpt>
      <trkpt lat="48.84041" lon="2.2174">
        <ele>98.800003051758</ele>
        <time>2015-08-17T19:12:33.000Z</time>
      </trkpt>
      <trkpt lat="48.84036" lon="2.21739">
        <ele>98</ele>
        <time>2015-08-17T19:12:36.000Z</time>
      </trkpt>
      <trkpt lat="48.84035" lon="2.21738">
        <ele>97.400001525879</ele>
        <time>2015-08-17T19:12:38.000Z</time>
      </trkpt>
      <trkpt lat="48.84025" lon="2.21734">
        <ele>95.400001525879</ele>
        <time>2015-08-17T19:12:45.000Z</time>
      </trkpt>
      <trkpt lat="48.84015" lon="2.2173">
        <ele>93.400001525879</ele>
        <time>2015-08-17T19:12:51.000Z</time>
      </trkpt>
      <trkpt lat="48.84004" lon="2.21724">
        <ele>91.599998474121</ele>
        <time>2015-08-17T19:12:58.000Z</time>
      </trkpt>
      <trkpt lat="48.83995" lon="2.21721">
        <ele>90</ele>
        <time>2015-08-17T19:13:05.000Z</time>
      </trkpt>
      <trkpt lat="48.83989" lon="2.21718">
        <ele>88</ele>
        <time>2015-08-17T19:13:12.000Z</time>
      </trkpt>
      <trkpt lat="48.83988" lon="2.21717">
        <ele>87.599998474121</ele>
        <time>2015-08-17T19:13:13.000Z</time>
      </trkpt>
      <trkpt lat="48.83987" lon="2.21711">
        <ele>86</ele>
        <time>2015-08-17T19:13:19.000Z</time>
      </trkpt>
      <trkpt lat="48.83988" lon="2.21708">
        <ele>84.400001525879</ele>
        <time>2015-08-17T19:13:25.000Z</time>
      </trkpt>
      <trkpt lat="48.83989" lon="2.21704">
        <ele>83.800003051758</ele>
        <time>2015-08-17T19:13:28.000Z</time>
      </trkpt>
      <trkpt lat="48.8399" lon="2.217">
        <ele>82.400001525879</ele>
        <time>2015-08-17T19:13:33.000Z</time>
      </trkpt>
      <trkpt lat="48.83988" lon="2.21695">
        <ele>81.599998474121</ele>
        <time>2015-08-17T19:13:38.000Z</time>
      </trkpt>
      <trkpt lat="48.83985" lon="2.21693">
        <ele>80.800003051758</ele>
        <time>2015-08-17T19:13:42.000Z</time>
      </trkpt>
      <trkpt lat="48.83969" lon="2.21693">
        <ele>79.599998474121</ele>
        <time>2015-08-17T19:13:49.000Z</time>
      </trkpt>
      <trkpt lat="48.83954" lon="2.21694">
        <ele>79</ele>
        <time>2015-08-17T19:13:55.000Z</time>
      </trkpt>
      <trkpt lat="48.8395" lon="2.21692">
        <ele>79</ele>
        <time>2015-08-17T19:13:58.000Z</time>
      </trkpt>
      <trkpt lat="48.83946" lon="2.21691">
        <ele>78.800003051758</ele>
        <time>2015-08-17T19:14:02.000Z</time>
      </trkpt>
      <trkpt lat="48.83937" lon="2.21692">
        <ele>77.800003051758</ele>
        <time>2015-08-17T19:14:10.000Z</time>
      </trkpt>
      <trkpt lat="48.83934" lon="2.21693">
        <ele>77.199996948242</ele>
        <time>2015-08-17T19:14:16.000Z</time>
      </trkpt>
      <trkpt lat="48.83932" lon="2.21698">
        <ele>76.800003051758</ele>
        <time>2015-08-17T19:14:23.000Z</time>
      </trkpt>
      <trkpt lat="48.83931" lon="2.21696">
        <ele>75.199996948242</ele>
        <time>2015-08-17T19:14:34.000Z</time>
      </trkpt>
      <trkpt lat="48.83931" lon="2.217">
        <ele>74.400001525879</ele>
        <time>2015-08-17T19:14:52.000Z</time>
      </trkpt>
      <trkpt lat="48.83932" lon="2.21697">
        <ele>74.199996948242</ele>
        <time>2015-08-17T19:15:03.000Z</time>
      </trkpt>
      <trkpt lat="48.83928" lon="2.21693">
        <ele>73.599998474121</ele>
        <time>2015-08-17T19:15:18.000Z</time>
      </trkpt>
      <trkpt lat="48.8392" lon="2.21689">
        <ele>72.800003051758</ele>
        <time>2015-08-17T19:15:26.000Z</time>
      </trkpt>
      <trkpt lat="48.83908" lon="2.21684">
        <ele>72.599998474121</ele>
        <time>2015-08-17T19:15:33.000Z</time>
      </trkpt>
      <trkpt lat="48.83903" lon="2.21682">
        <ele>72.400001525879</ele>
        <time>2015-08-17T19:15:36.000Z</time>
      </trkpt>
      <trkpt lat="48.83893" lon="2.21677">
        <ele>72.400001525879</ele>
        <time>2015-08-17T19:15:43.000Z</time>
      </trkpt>
      <trkpt lat="48.83892" lon="2.21676">
        <ele>72.400001525879</ele>
        <time>2015-08-17T19:15:44.000Z</time>
      </trkpt>
      <trkpt lat="48.83883" lon="2.21672">
        <ele>72.199996948242</ele>
        <time>2015-08-17T19:15:50.000Z</time>
      </trkpt>
      <trkpt lat="48.83871" lon="2.21667">
        <ele>72.199996948242</ele>
        <time>2015-08-17T19:15:58.000Z</time>
      </trkpt>
      <trkpt lat="48.83858" lon="2.21662">
        <ele>72.199996948242</ele>
        <time>2015-08-17T19:16:05.000Z</time>
      </trkpt>
      <trkpt lat="48.83852" lon="2.21662">
        <ele>72.199996948242</ele>
        <time>2015-08-17T19:16:11.000Z</time>
      </trkpt>
      <trkpt lat="48.83852" lon="2.21663">
        <ele>72.199996948242</ele>
        <time>2015-08-17T19:16:12.000Z</time>
      </trkpt>
      <trkpt lat="48.83846" lon="2.21662">
        <ele>72.199996948242</ele>
        <time>2015-08-17T19:16:17.000Z</time>
      </trkpt>
      <trkpt lat="48.83843" lon="2.21661">
        <ele>72.199996948242</ele>
        <time>2015-08-17T19:16:18.000Z</time>
      </trkpt>
      <trkpt lat="48.83835" lon="2.21659">
        <ele>72.199996948242</ele>
        <time>2015-08-17T19:16:24.000Z</time>
      </trkpt>
      <trkpt lat="48.8383" lon="2.21659">
        <ele>72.199996948242</ele>
        <time>2015-08-17T19:16:31.000Z</time>
      </trkpt>
      <trkpt lat="48.83827" lon="2.21658">
        <ele>72.199996948242</ele>
        <time>2015-08-17T19:16:41.000Z</time>
      </trkpt>
      <trkpt lat="48.83824" lon="2.21657">
        <ele>72.199996948242</ele>
        <time>2015-08-17T19:16:47.000Z</time>
      </trkpt>
      <trkpt lat="48.83822" lon="2.21657">
        <ele>72.199996948242</ele>
        <time>2015-08-17T19:16:52.000Z</time>
      </trkpt>
      <trkpt lat="48.83819" lon="2.21656">
        <ele>72.199996948242</ele>
        <time>2015-08-17T19:16:58.000Z</time>
      </trkpt>
      <trkpt lat="48.83816" lon="2.21655">
        <ele>72.199996948242</ele>
        <time>2015-08-17T19:17:03.000Z</time>
      </trkpt>
      <trkpt lat="48.83813" lon="2.21654">
        <ele>71.199996948242</ele>
        <time>2015-08-17T19:17:12.000Z</time>
      </trkpt>
      <trkpt lat="48.83812" lon="2.21651">
        <ele>70.599998474121</ele>
        <time>2015-08-17T19:17:20.000Z</time>
      </trkpt>
      <trkpt lat="48.83809" lon="2.21652">
        <ele>70.599998474121</ele>
        <time>2015-08-17T19:17:23.000Z</time>
      </trkpt>
      <trkpt lat="48.83809" lon="2.21649">
        <ele>70.400001525879</ele>
        <time>2015-08-17T19:17:30.000Z</time>
      </trkpt>
      <trkpt lat="48.83813" lon="2.21637">
        <ele>68.199996948242</ele>
        <time>2015-08-17T19:18:56.000Z</time>
      </trkpt>
      <trkpt lat="48.83812" lon="2.2162">
        <ele>68.199996948242</ele>
        <time>2015-08-17T19:19:02.000Z</time>
      </trkpt>
      <trkpt lat="48.83808" lon="2.21592">
        <ele>68.199996948242</ele>
        <time>2015-08-17T19:19:10.000Z</time>
      </trkpt>
      <trkpt lat="48.83807" lon="2.21561">
        <ele>68.199996948242</ele>
        <time>2015-08-17T19:19:16.000Z</time>
      </trkpt>
      <trkpt lat="48.83807" lon="2.21541">
        <ele>68.199996948242</ele>
        <time>2015-08-17T19:19:21.000Z</time>
      </trkpt>
      <trkpt lat="48.83808" lon="2.21522">
        <ele>68.199996948242</ele>
        <time>2015-08-17T19:19:26.000Z</time>
      </trkpt>
      <trkpt lat="48.83808" lon="2.21499">
        <ele>68.199996948242</ele>
        <time>2015-08-17T19:19:32.000Z</time>
      </trkpt>
      <trkpt lat="48.83806" lon="2.21482">
        <ele>68.199996948242</ele>
        <time>2015-08-17T19:19:36.000Z</time>
      </trkpt>
      <trkpt lat="48.83806" lon="2.21463">
        <ele>68.199996948242</ele>
        <time>2015-08-17T19:19:41.000Z</time>
      </trkpt>
      <trkpt lat="48.83806" lon="2.21456">
        <ele>68.199996948242</ele>
        <time>2015-08-17T19:19:43.000Z</time>
      </trkpt>
      <trkpt lat="48.83805" lon="2.21432">
        <ele>68.199996948242</ele>
        <time>2015-08-17T19:19:49.000Z</time>
      </trkpt>
      <trkpt lat="48.83805" lon="2.2141">
        <ele>68.199996948242</ele>
        <time>2015-08-17T19:19:55.000Z</time>
      </trkpt>
      <trkpt lat="48.83805" lon="2.21388">
        <ele>68.199996948242</ele>
        <time>2015-08-17T19:20:01.000Z</time>
      </trkpt>
      <trkpt lat="48.83804" lon="2.21364">
        <ele>68.199996948242</ele>
        <time>2015-08-17T19:20:07.000Z</time>
      </trkpt>
      <trkpt lat="48.83804" lon="2.21338">
        <ele>68.199996948242</ele>
        <time>2015-08-17T19:20:13.000Z</time>
      </trkpt>
      <trkpt lat="48.83804" lon="2.21312">
        <ele>68.199996948242</ele>
        <time>2015-08-17T19:20:19.000Z</time>
      </trkpt>
      <trkpt lat="48.83803" lon="2.21291">
        <ele>68.199996948242</ele>
        <time>2015-08-17T19:20:24.000Z</time>
      </trkpt>
      <trkpt lat="48.83802" lon="2.21262">
        <ele>68.199996948242</ele>
        <time>2015-08-17T19:20:31.000Z</time>
      </trkpt>
      <trkpt lat="48.83802" lon="2.21244">
        <ele>68.599998474121</ele>
        <time>2015-08-17T19:20:37.000Z</time>
      </trkpt>
      <trkpt lat="48.83803" lon="2.21237">
        <ele>69.199996948242</ele>
        <time>2015-08-17T19:20:42.000Z</time>
      </trkpt>
      <trkpt lat="48.83804" lon="2.21217">
        <ele>69.800003051758</ele>
        <time>2015-08-17T19:20:49.000Z</time>
      </trkpt>
      <trkpt lat="48.83803" lon="2.21193">
        <ele>70</ele>
        <time>2015-08-17T19:20:56.000Z</time>
      </trkpt>
      <trkpt lat="48.83801" lon="2.21171">
        <ele>70.199996948242</ele>
        <time>2015-08-17T19:21:03.000Z</time>
      </trkpt>
      <trkpt lat="48.83799" lon="2.21144">
        <ele>70.199996948242</ele>
        <time>2015-08-17T19:21:11.000Z</time>
      </trkpt>
      <trkpt lat="48.83795" lon="2.21129">
        <ele>70.199996948242</ele>
        <time>2015-08-17T19:21:16.000Z</time>
      </trkpt>
      <trkpt lat="48.83784" lon="2.21105">
        <ele>70.199996948242</ele>
        <time>2015-08-17T19:21:23.000Z</time>
      </trkpt>
      <trkpt lat="48.83774" lon="2.21083">
        <ele>70.199996948242</ele>
        <time>2015-08-17T19:21:30.000Z</time>
      </trkpt>
      <trkpt lat="48.83763" lon="2.21071">
        <ele>70.599998474121</ele>
        <time>2015-08-17T19:21:35.000Z</time>
      </trkpt>
      <trkpt lat="48.83755" lon="2.21069">
        <ele>71.199996948242</ele>
        <time>2015-08-17T19:21:38.000Z</time>
      </trkpt>
      <trkpt lat="48.8375" lon="2.21063">
        <ele>71.400001525879</ele>
        <time>2015-08-17T19:21:41.000Z</time>
      </trkpt>
      <trkpt lat="48.83749" lon="2.2105">
        <ele>71.800003051758</ele>
        <time>2015-08-17T19:21:47.000Z</time>
      </trkpt>
      <trkpt lat="48.83748" lon="2.21047">
        <ele>72</ele>
        <time>2015-08-17T19:21:54.000Z</time>
      </trkpt>
      <trkpt lat="48.83745" lon="2.21046">
        <ele>72.800003051758</ele>
        <time>2015-08-17T19:21:58.000Z</time>
      </trkpt>
      <trkpt lat="48.83745" lon="2.21044">
        <ele>73</ele>
        <time>2015-08-17T19:21:59.000Z</time>
      </trkpt>
      <trkpt lat="48.83744" lon="2.21043">
        <ele>73.599998474121</ele>
        <time>2015-08-17T19:22:04.000Z</time>
      </trkpt>
      <trkpt lat="48.83743" lon="2.21042">
        <ele>74</ele>
        <time>2015-08-17T19:22:11.000Z</time>
      </trkpt>
      <trkpt lat="48.83742" lon="2.21044">
        <ele>74</ele>
        <time>2015-08-17T19:22:13.000Z</time>
      </trkpt>
      <trkpt lat="48.83741" lon="2.21047">
        <ele>74.199996948242</ele>
        <time>2015-08-17T19:22:19.000Z</time>
      </trkpt>
      <trkpt lat="48.83741" lon="2.21047">
        <ele>74.199996948242</ele>
        <time>2015-08-17T19:22:27.000Z</time>
      </trkpt>
      <trkpt lat="48.83744" lon="2.21042">
        <ele>75.199996948242</ele>
        <time>2015-08-17T19:22:32.000Z</time>
      </trkpt>
      <trkpt lat="48.83743" lon="2.2104">
        <ele>75.199996948242</ele>
        <time>2015-08-17T19:22:33.000Z</time>
      </trkpt>
      <trkpt lat="48.83743" lon="2.21036">
        <ele>75.400001525879</ele>
        <time>2015-08-17T19:22:35.000Z</time>
      </trkpt>
      <trkpt lat="48.83744" lon="2.21019">
        <ele>75.800003051758</ele>
        <time>2015-08-17T19:22:41.000Z</time>
      </trkpt>
      <trkpt lat="48.83744" lon="2.21013">
        <ele>76</ele>
        <time>2015-08-17T19:22:43.000Z</time>
      </trkpt>
      <trkpt lat="48.83746" lon="2.20991">
        <ele>76.199996948242</ele>
        <time>2015-08-17T19:22:50.000Z</time>
      </trkpt>
      <trkpt lat="48.83746" lon="2.20971">
        <ele>76.199996948242</ele>
        <time>2015-08-17T19:22:55.000Z</time>
      </trkpt>
      <trkpt lat="48.83746" lon="2.20949">
        <ele>76.599998474121</ele>
        <time>2015-08-17T19:23:00.000Z</time>
      </trkpt>
      <trkpt lat="48.83744" lon="2.20919">
        <ele>77.199996948242</ele>
        <time>2015-08-17T19:23:05.000Z</time>
      </trkpt>
      <trkpt lat="48.83741" lon="2.20899">
        <ele>77.599998474121</ele>
        <time>2015-08-17T19:23:09.000Z</time>
      </trkpt>
      <trkpt lat="48.8374" lon="2.20892">
        <ele>78</ele>
        <time>2015-08-17T19:23:13.000Z</time>
      </trkpt>
      <trkpt lat="48.8374" lon="2.2089">
        <ele>78</ele>
        <time>2015-08-17T19:23:14.000Z</time>
      </trkpt>
      <trkpt lat="48.83738" lon="2.20884">
        <ele>78</ele>
        <time>2015-08-17T19:23:16.000Z</time>
      </trkpt>
      <trkpt lat="48.83734" lon="2.20866">
        <ele>78.199996948242</ele>
        <time>2015-08-17T19:23:22.000Z</time>
      </trkpt>
      <trkpt lat="48.83732" lon="2.20857">
        <ele>78.199996948242</ele>
        <time>2015-08-17T19:23:26.000Z</time>
      </trkpt>
      <trkpt lat="48.8373" lon="2.20839">
        <ele>78.400001525879</ele>
        <time>2015-08-17T19:23:33.000Z</time>
      </trkpt>
      <trkpt lat="48.83728" lon="2.20822">
        <ele>78.800003051758</ele>
        <time>2015-08-17T19:23:39.000Z</time>
      </trkpt>
      <trkpt lat="48.83729" lon="2.20808">
        <ele>79.599998474121</ele>
        <time>2015-08-17T19:23:44.000Z</time>
      </trkpt>
      <trkpt lat="48.83729" lon="2.20806">
        <ele>79.599998474121</ele>
        <time>2015-08-17T19:23:45.000Z</time>
      </trkpt>
      <trkpt lat="48.8373" lon="2.20804">
        <ele>79.800003051758</ele>
        <time>2015-08-17T19:23:46.000Z</time>
      </trkpt>
      <trkpt lat="48.83734" lon="2.20792">
        <ele>80.199996948242</ele>
        <time>2015-08-17T19:23:52.000Z</time>
      </trkpt>
      <trkpt lat="48.83736" lon="2.20791">
        <ele>80.199996948242</ele>
        <time>2015-08-17T19:23:53.000Z</time>
      </trkpt>
      <trkpt lat="48.83744" lon="2.20773">
        <ele>80.400001525879</ele>
        <time>2015-08-17T19:23:59.000Z</time>
      </trkpt>
      <trkpt lat="48.83746" lon="2.20754">
        <ele>80.400001525879</ele>
        <time>2015-08-17T19:24:04.000Z</time>
      </trkpt>
      <trkpt lat="48.83743" lon="2.2073">
        <ele>81.400001525879</ele>
        <time>2015-08-17T19:24:10.000Z</time>
      </trkpt>
      <trkpt lat="48.83735" lon="2.20702">
        <ele>82</ele>
        <time>2015-08-17T19:24:17.000Z</time>
      </trkpt>
      <trkpt lat="48.83727" lon="2.20684">
        <ele>82.800003051758</ele>
        <time>2015-08-17T19:24:23.000Z</time>
      </trkpt>
      <trkpt lat="48.8372" lon="2.20673">
        <ele>83.599998474121</ele>
        <time>2015-08-17T19:24:28.000Z</time>
      </trkpt>
      <trkpt lat="48.83717" lon="2.20666">
        <ele>84</ele>
        <time>2015-08-17T19:24:31.000Z</time>
      </trkpt>
      <trkpt lat="48.83717" lon="2.20657">
        <ele>84.199996948242</ele>
        <time>2015-08-17T19:24:35.000Z</time>
      </trkpt>
      <trkpt lat="48.83717" lon="2.20652">
        <ele>84.400001525879</ele>
        <time>2015-08-17T19:24:37.000Z</time>
      </trkpt>
      <trkpt lat="48.83716" lon="2.20644">
        <ele>84.400001525879</ele>
        <time>2015-08-17T19:24:40.000Z</time>
      </trkpt>
      <trkpt lat="48.83716" lon="2.20617">
        <ele>84.599998474121</ele>
        <time>2015-08-17T19:24:46.000Z</time>
      </trkpt>
      <trkpt lat="48.83713" lon="2.20587">
        <ele>85.199996948242</ele>
        <time>2015-08-17T19:24:51.000Z</time>
      </trkpt>
      <trkpt lat="48.83712" lon="2.20562">
        <ele>85.800003051758</ele>
        <time>2015-08-17T19:24:56.000Z</time>
      </trkpt>
      <trkpt lat="48.8371" lon="2.20539">
        <ele>86.199996948242</ele>
        <time>2015-08-17T19:25:00.000Z</time>
      </trkpt>
      <trkpt lat="48.83706" lon="2.20509">
        <ele>86.400001525879</ele>
        <time>2015-08-17T19:25:05.000Z</time>
      </trkpt>
      <trkpt lat="48.83701" lon="2.20478">
        <ele>87.199996948242</ele>
        <time>2015-08-17T19:25:10.000Z</time>
      </trkpt>
      <trkpt lat="48.83699" lon="2.20449">
        <ele>88</ele>
        <time>2015-08-17T19:25:16.000Z</time>
      </trkpt>
      <trkpt lat="48.837" lon="2.20422">
        <ele>88.599998474121</ele>
        <time>2015-08-17T19:25:22.000Z</time>
      </trkpt>
      <trkpt lat="48.837" lon="2.20409">
        <ele>89.599998474121</ele>
        <time>2015-08-17T19:25:27.000Z</time>
      </trkpt>
      <trkpt lat="48.837" lon="2.20392">
        <ele>90.400001525879</ele>
        <time>2015-08-17T19:25:33.000Z</time>
      </trkpt>
      <trkpt lat="48.83699" lon="2.20381">
        <ele>90.599998474121</ele>
        <time>2015-08-17T19:25:36.000Z</time>
      </trkpt>
      <trkpt lat="48.83697" lon="2.20357">
        <ele>90.800003051758</ele>
        <time>2015-08-17T19:25:44.000Z</time>
      </trkpt>
      <trkpt lat="48.83697" lon="2.20355">
        <ele>90.800003051758</ele>
        <time>2015-08-17T19:25:45.000Z</time>
      </trkpt>
      <trkpt lat="48.83693" lon="2.20331">
        <ele>91</ele>
        <time>2015-08-17T19:25:51.000Z</time>
      </trkpt>
      <trkpt lat="48.8369" lon="2.203">
        <ele>91</ele>
        <time>2015-08-17T19:25:57.000Z</time>
      </trkpt>
      <trkpt lat="48.83689" lon="2.20269">
        <ele>91</ele>
        <time>2015-08-17T19:26:03.000Z</time>
      </trkpt>
      <trkpt lat="48.83688" lon="2.20238">
        <ele>91</ele>
        <time>2015-08-17T19:26:09.000Z</time>
      </trkpt>
      <trkpt lat="48.83686" lon="2.20209">
        <ele>91</ele>
        <time>2015-08-17T19:26:14.000Z</time>
      </trkpt>
      <trkpt lat="48.83682" lon="2.20179">
        <ele>91</ele>
        <time>2015-08-17T19:26:19.000Z</time>
      </trkpt>
      <trkpt lat="48.8368" lon="2.20156">
        <ele>91</ele>
        <time>2015-08-17T19:26:24.000Z</time>
      </trkpt>
      <trkpt lat="48.83678" lon="2.20137">
        <ele>91</ele>
        <time>2015-08-17T19:26:28.000Z</time>
      </trkpt>
      <trkpt lat="48.83679" lon="2.20125">
        <ele>91</ele>
        <time>2015-08-17T19:26:32.000Z</time>
      </trkpt>
      <trkpt lat="48.83678" lon="2.2011">
        <ele>91</ele>
        <time>2015-08-17T19:26:37.000Z</time>
      </trkpt>
      <trkpt lat="48.83678" lon="2.20083">
        <ele>91.599998474121</ele>
        <time>2015-08-17T19:26:44.000Z</time>
      </trkpt>
      <trkpt lat="48.83675" lon="2.20054">
        <ele>92.400001525879</ele>
        <time>2015-08-17T19:26:51.000Z</time>
      </trkpt>
      <trkpt lat="48.8367" lon="2.20006">
        <ele>94</ele>
        <time>2015-08-17T19:27:03.000Z</time>
      </trkpt>
      <trkpt lat="48.83666" lon="2.19977">
        <ele>94.599998474121</ele>
        <time>2015-08-17T19:27:10.000Z</time>
      </trkpt>
      <trkpt lat="48.83664" lon="2.19953">
        <ele>94.800003051758</ele>
        <time>2015-08-17T19:27:16.000Z</time>
      </trkpt>
      <trkpt lat="48.83664" lon="2.1994">
        <ele>95</ele>
        <time>2015-08-17T19:27:20.000Z</time>
      </trkpt>
      <trkpt lat="48.83664" lon="2.19932">
        <ele>95</ele>
        <time>2015-08-17T19:27:26.000Z</time>
      </trkpt>
      <trkpt lat="48.83665" lon="2.19931">
        <ele>95.400001525879</ele>
        <time>2015-08-17T19:27:28.000Z</time>
      </trkpt>
      <trkpt lat="48.83664" lon="2.19908">
        <ele>96.400001525879</ele>
        <time>2015-08-17T19:27:35.000Z</time>
      </trkpt>
      <trkpt lat="48.83662" lon="2.19886">
        <ele>96.800003051758</ele>
        <time>2015-08-17T19:27:41.000Z</time>
      </trkpt>
      <trkpt lat="48.83661" lon="2.1986">
        <ele>97.599998474121</ele>
        <time>2015-08-17T19:27:47.000Z</time>
      </trkpt>
      <trkpt lat="48.8366" lon="2.19839">
        <ele>98.400001525879</ele>
        <time>2015-08-17T19:27:52.000Z</time>
      </trkpt>
      <trkpt lat="48.8366" lon="2.19816">
        <ele>98.599998474121</ele>
        <time>2015-08-17T19:27:57.000Z</time>
      </trkpt>
      <trkpt lat="48.83659" lon="2.19797">
        <ele>98.800003051758</ele>
        <time>2015-08-17T19:28:01.000Z</time>
      </trkpt>
      <trkpt lat="48.83657" lon="2.19775">
        <ele>99</ele>
        <time>2015-08-17T19:28:06.000Z</time>
      </trkpt>
      <trkpt lat="48.83655" lon="2.19756">
        <ele>99.199996948242</ele>
        <time>2015-08-17T19:28:11.000Z</time>
      </trkpt>
      <trkpt lat="48.83652" lon="2.19733">
        <ele>99.199996948242</ele>
        <time>2015-08-17T19:28:16.000Z</time>
      </trkpt>
      <trkpt lat="48.8365" lon="2.19711">
        <ele>99.199996948242</ele>
        <time>2015-08-17T19:28:21.000Z</time>
      </trkpt>
      <trkpt lat="48.83646" lon="2.19688">
        <ele>99.199996948242</ele>
        <time>2015-08-17T19:28:26.000Z</time>
      </trkpt>
      <trkpt lat="48.83645" lon="2.19671">
        <ele>99.199996948242</ele>
        <time>2015-08-17T19:28:30.000Z</time>
      </trkpt>
      <trkpt lat="48.83645" lon="2.19668">
        <ele>99.199996948242</ele>
        <time>2015-08-17T19:28:31.000Z</time>
      </trkpt>
      <trkpt lat="48.83648" lon="2.19649">
        <ele>99.199996948242</ele>
        <time>2015-08-17T19:28:36.000Z</time>
      </trkpt>
      <trkpt lat="48.83648" lon="2.19634">
        <ele>99.199996948242</ele>
        <time>2015-08-17T19:28:39.000Z</time>
      </trkpt>
      <trkpt lat="48.83643" lon="2.196">
        <ele>100.19999694824</ele>
        <time>2015-08-17T19:28:45.000Z</time>
      </trkpt>
      <trkpt lat="48.8364" lon="2.19574">
        <ele>100.59999847412</ele>
        <time>2015-08-17T19:28:50.000Z</time>
      </trkpt>
      <trkpt lat="48.8364" lon="2.19552">
        <ele>100.80000305176</ele>
        <time>2015-08-17T19:28:55.000Z</time>
      </trkpt>
      <trkpt lat="48.83638" lon="2.19541">
        <ele>101.19999694824</ele>
        <time>2015-08-17T19:28:58.000Z</time>
      </trkpt>
      <trkpt lat="48.83638" lon="2.19527">
        <ele>102.19999694824</ele>
        <time>2015-08-17T19:29:03.000Z</time>
      </trkpt>
      <trkpt lat="48.83636" lon="2.19499">
        <ele>102.80000305176</ele>
        <time>2015-08-17T19:29:09.000Z</time>
      </trkpt>
      <trkpt lat="48.83635" lon="2.19472">
        <ele>103</ele>
        <time>2015-08-17T19:29:13.000Z</time>
      </trkpt>
      <trkpt lat="48.83633" lon="2.19454">
        <ele>103.59999847412</ele>
        <time>2015-08-17T19:29:16.000Z</time>
      </trkpt>
      <trkpt lat="48.83632" lon="2.19448">
        <ele>103.80000305176</ele>
        <time>2015-08-17T19:29:17.000Z</time>
      </trkpt>
      <trkpt lat="48.83631" lon="2.19441">
        <ele>104</ele>
        <time>2015-08-17T19:29:18.000Z</time>
      </trkpt>
      <trkpt lat="48.83632" lon="2.19426">
        <ele>104.19999694824</ele>
        <time>2015-08-17T19:29:20.000Z</time>
      </trkpt>
      <trkpt lat="48.83633" lon="2.19406">
        <ele>104.59999847412</ele>
        <time>2015-08-17T19:29:24.000Z</time>
      </trkpt>
      <trkpt lat="48.83633" lon="2.194">
        <ele>104.80000305176</ele>
        <time>2015-08-17T19:29:25.000Z</time>
      </trkpt>
      <trkpt lat="48.83632" lon="2.19388">
        <ele>105</ele>
        <time>2015-08-17T19:29:27.000Z</time>
      </trkpt>
      <trkpt lat="48.83629" lon="2.1936">
        <ele>105.59999847412</ele>
        <time>2015-08-17T19:29:32.000Z</time>
      </trkpt>
      <trkpt lat="48.83623" lon="2.19332">
        <ele>106.40000152588</ele>
        <time>2015-08-17T19:29:37.000Z</time>
      </trkpt>
      <trkpt lat="48.83619" lon="2.19301">
        <ele>107</ele>
        <time>2015-08-17T19:29:42.000Z</time>
      </trkpt>
      <trkpt lat="48.83616" lon="2.19274">
        <ele>108</ele>
        <time>2015-08-17T19:29:47.000Z</time>
      </trkpt>
      <trkpt lat="48.83614" lon="2.19238">
        <ele>108.80000305176</ele>
        <time>2015-08-17T19:29:54.000Z</time>
      </trkpt>
      <trkpt lat="48.83612" lon="2.19217">
        <ele>110</ele>
        <time>2015-08-17T19:29:59.000Z</time>
      </trkpt>
      <trkpt lat="48.83608" lon="2.19186">
        <ele>110.80000305176</ele>
        <time>2015-08-17T19:30:05.000Z</time>
      </trkpt>
      <trkpt lat="48.83606" lon="2.19162">
        <ele>111.59999847412</ele>
        <time>2015-08-17T19:30:10.000Z</time>
      </trkpt>
      <trkpt lat="48.83603" lon="2.19135">
        <ele>112.59999847412</ele>
        <time>2015-08-17T19:30:16.000Z</time>
      </trkpt>
      <trkpt lat="48.83602" lon="2.19123">
        <ele>113</ele>
        <time>2015-08-17T19:30:20.000Z</time>
      </trkpt>
      <trkpt lat="48.83601" lon="2.1912">
        <ele>113</ele>
        <time>2015-08-17T19:30:21.000Z</time>
      </trkpt>
      <trkpt lat="48.83601" lon="2.19105">
        <ele>114.19999694824</ele>
        <time>2015-08-17T19:30:27.000Z</time>
      </trkpt>
      <trkpt lat="48.836" lon="2.1908">
        <ele>115</ele>
        <time>2015-08-17T19:30:33.000Z</time>
      </trkpt>
      <trkpt lat="48.83601" lon="2.19062">
        <ele>115.40000152588</ele>
        <time>2015-08-17T19:30:39.000Z</time>
      </trkpt>
      <trkpt lat="48.83599" lon="2.1903">
        <ele>115.59999847412</ele>
        <time>2015-08-17T19:30:45.000Z</time>
      </trkpt>
      <trkpt lat="48.83593" lon="2.18975">
        <ele>115.80000305176</ele>
        <time>2015-08-17T19:30:55.000Z</time>
      </trkpt>
      <trkpt lat="48.83594" lon="2.1895">
        <ele>115.80000305176</ele>
        <time>2015-08-17T19:31:00.000Z</time>
      </trkpt>
      <trkpt lat="48.83593" lon="2.18925">
        <ele>115.80000305176</ele>
        <time>2015-08-17T19:31:05.000Z</time>
      </trkpt>
      <trkpt lat="48.83591" lon="2.189">
        <ele>116</ele>
        <time>2015-08-17T19:31:11.000Z</time>
      </trkpt>
      <trkpt lat="48.83585" lon="2.18877">
        <ele>116.80000305176</ele>
        <time>2015-08-17T19:31:17.000Z</time>
      </trkpt>
      <trkpt lat="48.83582" lon="2.1887">
        <ele>117</ele>
        <time>2015-08-17T19:31:20.000Z</time>
      </trkpt>
      <trkpt lat="48.83583" lon="2.18869">
        <ele>117.40000152588</ele>
        <time>2015-08-17T19:31:26.000Z</time>
      </trkpt>
      <trkpt lat="48.83587" lon="2.18866">
        <ele>117.80000305176</ele>
        <time>2015-08-17T19:31:54.000Z</time>
      </trkpt>
      <trkpt lat="48.83588" lon="2.18867">
        <ele>118.80000305176</ele>
        <time>2015-08-17T19:32:02.000Z</time>
      </trkpt>
      <trkpt lat="48.8359" lon="2.18865">
        <ele>119.19999694824</ele>
        <time>2015-08-17T19:32:05.000Z</time>
      </trkpt>
      <trkpt lat="48.83592" lon="2.18865">
        <ele>119.40000152588</ele>
        <time>2015-08-17T19:32:10.000Z</time>
      </trkpt>
      <trkpt lat="48.83593" lon="2.18861">
        <ele>119.80000305176</ele>
        <time>2015-08-17T19:32:17.000Z</time>
      </trkpt>
      <trkpt lat="48.83589" lon="2.18865">
        <ele>120</ele>
        <time>2015-08-17T19:32:30.000Z</time>
      </trkpt>
      <trkpt lat="48.83586" lon="2.18858">
        <ele>120</ele>
        <time>2015-08-17T19:32:34.000Z</time>
      </trkpt>
      <trkpt lat="48.8358" lon="2.18838">
        <ele>120</ele>
        <time>2015-08-17T19:32:41.000Z</time>
      </trkpt>
      <trkpt lat="48.83573" lon="2.18818">
        <ele>120</ele>
        <time>2015-08-17T19:32:47.000Z</time>
      </trkpt>
      <trkpt lat="48.83563" lon="2.18793">
        <ele>119</ele>
        <time>2015-08-17T19:32:54.000Z</time>
      </trkpt>
      <trkpt lat="48.83554" lon="2.18774">
        <ele>118.59999847412</ele>
        <time>2015-08-17T19:32:59.000Z</time>
      </trkpt>
      <trkpt lat="48.83543" lon="2.18752">
        <ele>118.19999694824</ele>
        <time>2015-08-17T19:33:04.000Z</time>
      </trkpt>
      <trkpt lat="48.83527" lon="2.18732">
        <ele>118</ele>
        <time>2015-08-17T19:33:09.000Z</time>
      </trkpt>
      <trkpt lat="48.83511" lon="2.18719">
        <ele>117.40000152588</ele>
        <time>2015-08-17T19:33:14.000Z</time>
      </trkpt>
      <trkpt lat="48.83496" lon="2.18709">
        <ele>116.80000305176</ele>
        <time>2015-08-17T19:33:19.000Z</time>
      </trkpt>
      <trkpt lat="48.83477" lon="2.18693">
        <ele>116.40000152588</ele>
        <time>2015-08-17T19:33:24.000Z</time>
      </trkpt>
      <trkpt lat="48.83469" lon="2.18684">
        <ele>116.19999694824</ele>
        <time>2015-08-17T19:33:26.000Z</time>
      </trkpt>
      <trkpt lat="48.83457" lon="2.18669">
        <ele>116.19999694824</ele>
        <time>2015-08-17T19:33:30.000Z</time>
      </trkpt>
      <trkpt lat="48.8344" lon="2.18641">
        <ele>116</ele>
        <time>2015-08-17T19:33:37.000Z</time>
      </trkpt>
      <trkpt lat="48.8343" lon="2.18621">
        <ele>115.80000305176</ele>
        <time>2015-08-17T19:33:42.000Z</time>
      </trkpt>
      <trkpt lat="48.83418" lon="2.18595">
        <ele>115.80000305176</ele>
        <time>2015-08-17T19:33:48.000Z</time>
      </trkpt>
      <trkpt lat="48.83411" lon="2.18578">
        <ele>115.80000305176</ele>
        <time>2015-08-17T19:33:52.000Z</time>
      </trkpt>
      <trkpt lat="48.83404" lon="2.18557">
        <ele>115.80000305176</ele>
        <time>2015-08-17T19:33:57.000Z</time>
      </trkpt>
      <trkpt lat="48.83397" lon="2.18533">
        <ele>116</ele>
        <time>2015-08-17T19:34:02.000Z</time>
      </trkpt>
      <trkpt lat="48.83393" lon="2.18511">
        <ele>116.80000305176</ele>
        <time>2015-08-17T19:34:07.000Z</time>
      </trkpt>
      <trkpt lat="48.83388" lon="2.18486">
        <ele>117.19999694824</ele>
        <time>2015-08-17T19:34:13.000Z</time>
      </trkpt>
      <trkpt lat="48.83384" lon="2.18464">
        <ele>118.19999694824</ele>
        <time>2015-08-17T19:34:19.000Z</time>
      </trkpt>
      <trkpt lat="48.83381" lon="2.18445">
        <ele>118.80000305176</ele>
        <time>2015-08-17T19:34:24.000Z</time>
      </trkpt>
      <trkpt lat="48.83377" lon="2.18429">
        <ele>119.40000152588</ele>
        <time>2015-08-17T19:34:29.000Z</time>
      </trkpt>
      <trkpt lat="48.83373" lon="2.18413">
        <ele>120.40000152588</ele>
        <time>2015-08-17T19:34:34.000Z</time>
      </trkpt>
      <trkpt lat="48.83369" lon="2.18395">
        <ele>121.19999694824</ele>
        <time>2015-08-17T19:34:40.000Z</time>
      </trkpt>
      <trkpt lat="48.83369" lon="2.18393">
        <ele>121.19999694824</ele>
        <time>2015-08-17T19:34:41.000Z</time>
      </trkpt>
      <trkpt lat="48.83367" lon="2.18379">
        <ele>122</ele>
        <time>2015-08-17T19:34:47.000Z</time>
      </trkpt>
      <trkpt lat="48.83365" lon="2.1837">
        <ele>122.40000152588</ele>
        <time>2015-08-17T19:34:49.000Z</time>
      </trkpt>
      <trkpt lat="48.83355" lon="2.18336">
        <ele>123.19999694824</ele>
        <time>2015-08-17T19:34:56.000Z</time>
      </trkpt>
      <trkpt lat="48.83347" lon="2.18315">
        <ele>123.40000152588</ele>
        <time>2015-08-17T19:35:01.000Z</time>
      </trkpt>
      <trkpt lat="48.83341" lon="2.18299">
        <ele>123.59999847412</ele>
        <time>2015-08-17T19:35:06.000Z</time>
      </trkpt>
      <trkpt lat="48.83334" lon="2.1828">
        <ele>124</ele>
        <time>2015-08-17T19:35:12.000Z</time>
      </trkpt>
      <trkpt lat="48.83326" lon="2.18267">
        <ele>124.80000305176</ele>
        <time>2015-08-17T19:35:17.000Z</time>
      </trkpt>
      <trkpt lat="48.8332" lon="2.18257">
        <ele>125.19999694824</ele>
        <time>2015-08-17T19:35:20.000Z</time>
      </trkpt>
      <trkpt lat="48.83318" lon="2.18254">
        <ele>125.19999694824</ele>
        <time>2015-08-17T19:35:21.000Z</time>
      </trkpt>
      <trkpt lat="48.83308" lon="2.18237">
        <ele>125.59999847412</ele>
        <time>2015-08-17T19:35:27.000Z</time>
      </trkpt>
      <trkpt lat="48.833" lon="2.18224">
        <ele>125.80000305176</ele>
        <time>2015-08-17T19:35:33.000Z</time>
      </trkpt>
      <trkpt lat="48.83293" lon="2.18215">
        <ele>126</ele>
        <time>2015-08-17T19:35:37.000Z</time>
      </trkpt>
      <trkpt lat="48.83287" lon="2.18207">
        <ele>126</ele>
        <time>2015-08-17T19:35:41.000Z</time>
      </trkpt>
      <trkpt lat="48.83278" lon="2.18193">
        <ele>126</ele>
        <time>2015-08-17T19:35:47.000Z</time>
      </trkpt>
      <trkpt lat="48.83266" lon="2.18179">
        <ele>126</ele>
        <time>2015-08-17T19:35:52.000Z</time>
      </trkpt>
      <trkpt lat="48.83254" lon="2.18164">
        <ele>126</ele>
        <time>2015-08-17T19:35:58.000Z</time>
      </trkpt>
      <trkpt lat="48.83243" lon="2.18151">
        <ele>126.80000305176</ele>
        <time>2015-08-17T19:36:04.000Z</time>
      </trkpt>
      <trkpt lat="48.8323" lon="2.18136">
        <ele>127.40000152588</ele>
        <time>2015-08-17T19:36:10.000Z</time>
      </trkpt>
      <trkpt lat="48.83217" lon="2.18122">
        <ele>127.80000305176</ele>
        <time>2015-08-17T19:36:16.000Z</time>
      </trkpt>
      <trkpt lat="48.83214" lon="2.18116">
        <ele>127.80000305176</ele>
        <time>2015-08-17T19:36:18.000Z</time>
      </trkpt>
      <trkpt lat="48.83201" lon="2.18098">
        <ele>128</ele>
        <time>2015-08-17T19:36:25.000Z</time>
      </trkpt>
      <trkpt lat="48.83192" lon="2.18083">
        <ele>128.39999389648</ele>
        <time>2015-08-17T19:36:29.000Z</time>
      </trkpt>
      <trkpt lat="48.83191" lon="2.1808">
        <ele>128.60000610352</ele>
        <time>2015-08-17T19:36:31.000Z</time>
      </trkpt>
      <trkpt lat="48.83191" lon="2.18075">
        <ele>129.19999694824</ele>
        <time>2015-08-17T19:36:36.000Z</time>
      </trkpt>
      <trkpt lat="48.83184" lon="2.18061">
        <ele>129.60000610352</ele>
        <time>2015-08-17T19:36:41.000Z</time>
      </trkpt>
      <trkpt lat="48.83174" lon="2.18041">
        <ele>129.80000305176</ele>
        <time>2015-08-17T19:36:47.000Z</time>
      </trkpt>
      <trkpt lat="48.83164" lon="2.18019">
        <ele>130</ele>
        <time>2015-08-17T19:36:53.000Z</time>
      </trkpt>
      <trkpt lat="48.83156" lon="2.17997">
        <ele>131</ele>
        <time>2015-08-17T19:36:59.000Z</time>
      </trkpt>
      <trkpt lat="48.83148" lon="2.17979">
        <ele>131.60000610352</ele>
        <time>2015-08-17T19:37:05.000Z</time>
      </trkpt>
      <trkpt lat="48.83145" lon="2.17973">
        <ele>131.60000610352</ele>
        <time>2015-08-17T19:37:08.000Z</time>
      </trkpt>
      <trkpt lat="48.83139" lon="2.17968">
        <ele>132</ele>
        <time>2015-08-17T19:37:14.000Z</time>
      </trkpt>
      <trkpt lat="48.83138" lon="2.17968">
        <ele>132</ele>
        <time>2015-08-17T19:37:22.000Z</time>
      </trkpt>
      <trkpt lat="48.83136" lon="2.17966">
        <ele>132</ele>
        <time>2015-08-17T19:37:28.000Z</time>
      </trkpt>
      <trkpt lat="48.83134" lon="2.17965">
        <ele>132.19999694824</ele>
        <time>2015-08-17T19:37:34.000Z</time>
      </trkpt>
      <trkpt lat="48.83133" lon="2.17957">
        <ele>138.19999694824</ele>
        <time>2015-08-17T19:38:06.000Z</time>
      </trkpt>
      <trkpt lat="48.83133" lon="2.17954">
        <ele>138.80000305176</ele>
        <time>2015-08-17T19:38:09.000Z</time>
      </trkpt>
      <trkpt lat="48.83129" lon="2.17943">
        <ele>139.39999389648</ele>
        <time>2015-08-17T19:38:13.000Z</time>
      </trkpt>
      <trkpt lat="48.83122" lon="2.17939">
        <ele>140.39999389648</ele>
        <time>2015-08-17T19:38:17.000Z</time>
      </trkpt>
      <trkpt lat="48.83121" lon="2.17934">
        <ele>141.19999694824</ele>
        <time>2015-08-17T19:38:22.000Z</time>
      </trkpt>
      <trkpt lat="48.83118" lon="2.1792">
        <ele>141.80000305176</ele>
        <time>2015-08-17T19:38:26.000Z</time>
      </trkpt>
      <trkpt lat="48.8311" lon="2.17899">
        <ele>142</ele>
        <time>2015-08-17T19:38:30.000Z</time>
      </trkpt>
      <trkpt lat="48.83099" lon="2.17872">
        <ele>142.19999694824</ele>
        <time>2015-08-17T19:38:34.000Z</time>
      </trkpt>
      <trkpt lat="48.83085" lon="2.17843">
        <ele>142.39999389648</ele>
        <time>2015-08-17T19:38:38.000Z</time>
      </trkpt>
      <trkpt lat="48.83079" lon="2.17828">
        <ele>142.39999389648</ele>
        <time>2015-08-17T19:38:40.000Z</time>
      </trkpt>
      <trkpt lat="48.83063" lon="2.17792">
        <ele>142.39999389648</ele>
        <time>2015-08-17T19:38:45.000Z</time>
      </trkpt>
      <trkpt lat="48.83055" lon="2.17769">
        <ele>142</ele>
        <time>2015-08-17T19:38:48.000Z</time>
      </trkpt>
      <trkpt lat="48.83048" lon="2.1776">
        <ele>141.60000610352</ele>
        <time>2015-08-17T19:38:51.000Z</time>
      </trkpt>
      <trkpt lat="48.83035" lon="2.17767">
        <ele>141.19999694824</ele>
        <time>2015-08-17T19:38:57.000Z</time>
      </trkpt>
      <trkpt lat="48.83034" lon="2.17767">
        <ele>140.80000305176</ele>
        <time>2015-08-17T19:38:58.000Z</time>
      </trkpt>
      <trkpt lat="48.83033" lon="2.17764">
        <ele>140.60000610352</ele>
        <time>2015-08-17T19:38:59.000Z</time>
      </trkpt>
      <trkpt lat="48.83034" lon="2.17764">
        <ele>139.80000305176</ele>
        <time>2015-08-17T19:39:04.000Z</time>
      </trkpt>
      <trkpt lat="48.83036" lon="2.17764">
        <ele>139</ele>
        <time>2015-08-17T19:39:17.000Z</time>
      </trkpt>
      <trkpt lat="48.83032" lon="2.17764">
        <ele>138.80000305176</ele>
        <time>2015-08-17T19:39:24.000Z</time>
      </trkpt>
      <trkpt lat="48.83037" lon="2.17764">
        <ele>138.60000610352</ele>
        <time>2015-08-17T19:39:33.000Z</time>
      </trkpt>
      <trkpt lat="48.83038" lon="2.17761">
        <ele>138.60000610352</ele>
        <time>2015-08-17T19:39:36.000Z</time>
      </trkpt>
      <trkpt lat="48.83034" lon="2.17752">
        <ele>138.60000610352</ele>
        <time>2015-08-17T19:39:40.000Z</time>
      </trkpt>
      <trkpt lat="48.83031" lon="2.1773">
        <ele>138.60000610352</ele>
        <time>2015-08-17T19:39:47.000Z</time>
      </trkpt>
      <trkpt lat="48.83025" lon="2.17703">
        <ele>137.80000305176</ele>
        <time>2015-08-17T19:39:53.000Z</time>
      </trkpt>
      <trkpt lat="48.83021" lon="2.17673">
        <ele>137.19999694824</ele>
        <time>2015-08-17T19:39:58.000Z</time>
      </trkpt>
      <trkpt lat="48.8302" lon="2.17646">
        <ele>137</ele>
        <time>2015-08-17T19:40:03.000Z</time>
      </trkpt>
      <trkpt lat="48.83019" lon="2.17615">
        <ele>136.80000305176</ele>
        <time>2015-08-17T19:40:09.000Z</time>
      </trkpt>
      <trkpt lat="48.8302" lon="2.17596">
        <ele>136.60000610352</ele>
        <time>2015-08-17T19:40:14.000Z</time>
      </trkpt>
      <trkpt lat="48.83021" lon="2.17572">
        <ele>136</ele>
        <time>2015-08-17T19:40:20.000Z</time>
      </trkpt>
      <trkpt lat="48.83018" lon="2.17544">
        <ele>135.39999389648</ele>
        <time>2015-08-17T19:40:25.000Z</time>
      </trkpt>
      <trkpt lat="48.83018" lon="2.17515">
        <ele>135</ele>
        <time>2015-08-17T19:40:31.000Z</time>
      </trkpt>
      <trkpt lat="48.8302" lon="2.17486">
        <ele>134.80000305176</ele>
        <time>2015-08-17T19:40:37.000Z</time>
      </trkpt>
      <trkpt lat="48.83018" lon="2.17468">
        <ele>134.60000610352</ele>
        <time>2015-08-17T19:40:42.000Z</time>
      </trkpt>
      <trkpt lat="48.83018" lon="2.17466">
        <ele>134.60000610352</ele>
        <time>2015-08-17T19:40:43.000Z</time>
      </trkpt>
      <trkpt lat="48.83014" lon="2.17454">
        <ele>134.39999389648</ele>
        <time>2015-08-17T19:40:46.000Z</time>
      </trkpt>
      <trkpt lat="48.83006" lon="2.17438">
        <ele>133.60000610352</ele>
        <time>2015-08-17T19:40:50.000Z</time>
      </trkpt>
      <trkpt lat="48.83" lon="2.17434">
        <ele>133.39999389648</ele>
        <time>2015-08-17T19:40:52.000Z</time>
      </trkpt>
      <trkpt lat="48.82982" lon="2.17433">
        <ele>133</ele>
        <time>2015-08-17T19:40:57.000Z</time>
      </trkpt>
      <trkpt lat="48.82962" lon="2.17438">
        <ele>132.80000305176</ele>
        <time>2015-08-17T19:41:02.000Z</time>
      </trkpt>
      <trkpt lat="48.82958" lon="2.17438">
        <ele>132.80000305176</ele>
        <time>2015-08-17T19:41:03.000Z</time>
      </trkpt>
      <trkpt lat="48.82946" lon="2.17446">
        <ele>132.60000610352</ele>
        <time>2015-08-17T19:41:07.000Z</time>
      </trkpt>
      <trkpt lat="48.82932" lon="2.17452">
        <ele>132.60000610352</ele>
        <time>2015-08-17T19:41:12.000Z</time>
      </trkpt>
      <trkpt lat="48.82918" lon="2.1746">
        <ele>132.80000305176</ele>
        <time>2015-08-17T19:41:17.000Z</time>
      </trkpt>
      <trkpt lat="48.829" lon="2.17468">
        <ele>133.60000610352</ele>
        <time>2015-08-17T19:41:22.000Z</time>
      </trkpt>
      <trkpt lat="48.82885" lon="2.17475">
        <ele>134</ele>
        <time>2015-08-17T19:41:27.000Z</time>
      </trkpt>
      <trkpt lat="48.82873" lon="2.17478">
        <ele>134.60000610352</ele>
        <time>2015-08-17T19:41:31.000Z</time>
      </trkpt>
      <trkpt lat="48.82855" lon="2.17486">
        <ele>135.39999389648</ele>
        <time>2015-08-17T19:41:37.000Z</time>
      </trkpt>
      <trkpt lat="48.82839" lon="2.17492">
        <ele>136.60000610352</ele>
        <time>2015-08-17T19:41:43.000Z</time>
      </trkpt>
      <trkpt lat="48.82825" lon="2.17496">
        <ele>137.60000610352</ele>
        <time>2015-08-17T19:41:49.000Z</time>
      </trkpt>
      <trkpt lat="48.82808" lon="2.17502">
        <ele>139.19999694824</ele>
        <time>2015-08-17T19:41:56.000Z</time>
      </trkpt>
      <trkpt lat="48.82799" lon="2.17505">
        <ele>140.19999694824</ele>
        <time>2015-08-17T19:42:00.000Z</time>
      </trkpt>
      <trkpt lat="48.82797" lon="2.17505">
        <ele>140.39999389648</ele>
        <time>2015-08-17T19:42:01.000Z</time>
      </trkpt>
      <trkpt lat="48.82791" lon="2.17508">
        <ele>141.60000610352</ele>
        <time>2015-08-17T19:42:07.000Z</time>
      </trkpt>
      <trkpt lat="48.82791" lon="2.17508">
        <ele>144.80000305176</ele>
        <time>2015-08-17T19:42:22.000Z</time>
      </trkpt>
      <trkpt lat="48.8279" lon="2.17512">
        <ele>148</ele>
        <time>2015-08-17T19:42:41.000Z</time>
      </trkpt>
      <trkpt lat="48.82788" lon="2.17503">
        <ele>149</ele>
        <time>2015-08-17T19:43:04.000Z</time>
      </trkpt>
      <trkpt lat="48.82784" lon="2.17508">
        <ele>152.19999694824</ele>
        <time>2015-08-17T19:43:28.000Z</time>
      </trkpt>
      <trkpt lat="48.82779" lon="2.17512">
        <ele>152.60000610352</ele>
        <time>2015-08-17T19:43:33.000Z</time>
      </trkpt>
      <trkpt lat="48.82778" lon="2.17512">
        <ele>152.80000305176</ele>
        <time>2015-08-17T19:43:34.000Z</time>
      </trkpt>
      <trkpt lat="48.82766" lon="2.17507">
        <ele>153</ele>
        <time>2015-08-17T19:43:40.000Z</time>
      </trkpt>
      <trkpt lat="48.82753" lon="2.17498">
        <ele>153.19999694824</ele>
        <time>2015-08-17T19:43:47.000Z</time>
      </trkpt>
      <trkpt lat="48.82736" lon="2.17485">
        <ele>153.19999694824</ele>
        <time>2015-08-17T19:43:54.000Z</time>
      </trkpt>
      <trkpt lat="48.82726" lon="2.17475">
        <ele>153.39999389648</ele>
        <time>2015-08-17T19:43:58.000Z</time>
      </trkpt>
      <trkpt lat="48.82709" lon="2.17462">
        <ele>153.39999389648</ele>
        <time>2015-08-17T19:44:03.000Z</time>
      </trkpt>
      <trkpt lat="48.82692" lon="2.17448">
        <ele>153.39999389648</ele>
        <time>2015-08-17T19:44:09.000Z</time>
      </trkpt>
      <trkpt lat="48.82684" lon="2.1744">
        <ele>153.39999389648</ele>
        <time>2015-08-17T19:44:14.000Z</time>
      </trkpt>
      <trkpt lat="48.82671" lon="2.17428">
        <ele>153.39999389648</ele>
        <time>2015-08-17T19:44:20.000Z</time>
      </trkpt>
      <trkpt lat="48.82656" lon="2.17413">
        <ele>153.39999389648</ele>
        <time>2015-08-17T19:44:26.000Z</time>
      </trkpt>
      <trkpt lat="48.8264" lon="2.17398">
        <ele>153.39999389648</ele>
        <time>2015-08-17T19:44:31.000Z</time>
      </trkpt>
      <trkpt lat="48.82625" lon="2.17382">
        <ele>153.39999389648</ele>
        <time>2015-08-17T19:44:36.000Z</time>
      </trkpt>
      <trkpt lat="48.82611" lon="2.17372">
        <ele>153.39999389648</ele>
        <time>2015-08-17T19:44:41.000Z</time>
      </trkpt>
      <trkpt lat="48.82593" lon="2.17358">
        <ele>153.39999389648</ele>
        <time>2015-08-17T19:44:47.000Z</time>
      </trkpt>
      <trkpt lat="48.82573" lon="2.17346">
        <ele>153.39999389648</ele>
        <time>2015-08-17T19:44:53.000Z</time>
      </trkpt>
      <trkpt lat="48.82552" lon="2.17331">
        <ele>153.39999389648</ele>
        <time>2015-08-17T19:44:59.000Z</time>
      </trkpt>
      <trkpt lat="48.82536" lon="2.17315">
        <ele>153.39999389648</ele>
        <time>2015-08-17T19:45:04.000Z</time>
      </trkpt>
      <trkpt lat="48.82522" lon="2.17305">
        <ele>153.39999389648</ele>
        <time>2015-08-17T19:45:09.000Z</time>
      </trkpt>
      <trkpt lat="48.82504" lon="2.17293">
        <ele>153.39999389648</ele>
        <time>2015-08-17T19:45:14.000Z</time>
      </trkpt>
      <trkpt lat="48.82488" lon="2.17278">
        <ele>153.39999389648</ele>
        <time>2015-08-17T19:45:19.000Z</time>
      </trkpt>
      <trkpt lat="48.82472" lon="2.17258">
        <ele>153.39999389648</ele>
        <time>2015-08-17T19:45:24.000Z</time>
      </trkpt>
      <trkpt lat="48.82466" lon="2.1725">
        <ele>153.39999389648</ele>
        <time>2015-08-17T19:45:26.000Z</time>
      </trkpt>
      <trkpt lat="48.82452" lon="2.17231">
        <ele>153.60000610352</ele>
        <time>2015-08-17T19:45:30.000Z</time>
      </trkpt>
      <trkpt lat="48.82442" lon="2.17211">
        <ele>154.19999694824</ele>
        <time>2015-08-17T19:45:34.000Z</time>
      </trkpt>
      <trkpt lat="48.82433" lon="2.17195">
        <ele>154.60000610352</ele>
        <time>2015-08-17T19:45:37.000Z</time>
      </trkpt>
      <trkpt lat="48.82426" lon="2.17179">
        <ele>154.80000305176</ele>
        <time>2015-08-17T19:45:40.000Z</time>
      </trkpt>
      <trkpt lat="48.82415" lon="2.17155">
        <ele>155</ele>
        <time>2015-08-17T19:45:44.000Z</time>
      </trkpt>
      <trkpt lat="48.82411" lon="2.17143">
        <ele>155</ele>
        <time>2015-08-17T19:45:46.000Z</time>
      </trkpt>
      <trkpt lat="48.82405" lon="2.1712">
        <ele>155.19999694824</ele>
        <time>2015-08-17T19:45:50.000Z</time>
      </trkpt>
      <trkpt lat="48.82402" lon="2.17103">
        <ele>155.19999694824</ele>
        <time>2015-08-17T19:45:53.000Z</time>
      </trkpt>
      <trkpt lat="48.82394" lon="2.1706">
        <ele>155.60000610352</ele>
        <time>2015-08-17T19:46:00.000Z</time>
      </trkpt>
      <trkpt lat="48.82393" lon="2.17054">
        <ele>155.80000305176</ele>
        <time>2015-08-17T19:46:01.000Z</time>
      </trkpt>
      <trkpt lat="48.82393" lon="2.17049">
        <ele>156</ele>
        <time>2015-08-17T19:46:02.000Z</time>
      </trkpt>
      <trkpt lat="48.8239" lon="2.17024">
        <ele>156.39999389648</ele>
        <time>2015-08-17T19:46:06.000Z</time>
      </trkpt>
      <trkpt lat="48.82388" lon="2.17018">
        <ele>156.60000610352</ele>
        <time>2015-08-17T19:46:07.000Z</time>
      </trkpt>
      <trkpt lat="48.82387" lon="2.17011">
        <ele>156.60000610352</ele>
        <time>2015-08-17T19:46:08.000Z</time>
      </trkpt>
      <trkpt lat="48.8238" lon="2.16978">
        <ele>157</ele>
        <time>2015-08-17T19:46:13.000Z</time>
      </trkpt>
      <trkpt lat="48.82375" lon="2.1695">
        <ele>157.19999694824</ele>
        <time>2015-08-17T19:46:17.000Z</time>
      </trkpt>
      <trkpt lat="48.82373" lon="2.16937">
        <ele>157.19999694824</ele>
        <time>2015-08-17T19:46:19.000Z</time>
      </trkpt>
      <trkpt lat="48.82369" lon="2.16918">
        <ele>157.19999694824</ele>
        <time>2015-08-17T19:46:22.000Z</time>
      </trkpt>
      <trkpt lat="48.82369" lon="2.16883">
        <ele>157.39999389648</ele>
        <time>2015-08-17T19:46:28.000Z</time>
      </trkpt>
      <trkpt lat="48.82368" lon="2.16877">
        <ele>157.60000610352</ele>
        <time>2015-08-17T19:46:29.000Z</time>
      </trkpt>
      <trkpt lat="48.82368" lon="2.16871">
        <ele>157.80000305176</ele>
        <time>2015-08-17T19:46:30.000Z</time>
      </trkpt>
      <trkpt lat="48.82368" lon="2.16845">
        <ele>158.39999389648</ele>
        <time>2015-08-17T19:46:35.000Z</time>
      </trkpt>
      <trkpt lat="48.82366" lon="2.16818">
        <ele>158.80000305176</ele>
        <time>2015-08-17T19:46:39.000Z</time>
      </trkpt>
      <trkpt lat="48.82362" lon="2.16786">
        <ele>159</ele>
        <time>2015-08-17T19:46:44.000Z</time>
      </trkpt>
      <trkpt lat="48.82362" lon="2.16779">
        <ele>159.19999694824</ele>
        <time>2015-08-17T19:46:45.000Z</time>
      </trkpt>
      <trkpt lat="48.82359" lon="2.1676">
        <ele>159.19999694824</ele>
        <time>2015-08-17T19:46:48.000Z</time>
      </trkpt>
      <trkpt lat="48.82357" lon="2.16747">
        <ele>159.19999694824</ele>
        <time>2015-08-17T19:46:50.000Z</time>
      </trkpt>
      <trkpt lat="48.82353" lon="2.16716">
        <ele>159.39999389648</ele>
        <time>2015-08-17T19:46:55.000Z</time>
      </trkpt>
      <trkpt lat="48.82351" lon="2.16695">
        <ele>159.39999389648</ele>
        <time>2015-08-17T19:46:58.000Z</time>
      </trkpt>
      <trkpt lat="48.82349" lon="2.16682">
        <ele>159.39999389648</ele>
        <time>2015-08-17T19:47:00.000Z</time>
      </trkpt>
      <trkpt lat="48.82345" lon="2.16646">
        <ele>159.39999389648</ele>
        <time>2015-08-17T19:47:05.000Z</time>
      </trkpt>
      <trkpt lat="48.82344" lon="2.16639">
        <ele>159.39999389648</ele>
        <time>2015-08-17T19:47:06.000Z</time>
      </trkpt>
      <trkpt lat="48.82343" lon="2.16617">
        <ele>159.39999389648</ele>
        <time>2015-08-17T19:47:09.000Z</time>
      </trkpt>
      <trkpt lat="48.82341" lon="2.16601">
        <ele>159.39999389648</ele>
        <time>2015-08-17T19:47:11.000Z</time>
      </trkpt>
      <trkpt lat="48.82336" lon="2.16571">
        <ele>159.39999389648</ele>
        <time>2015-08-17T19:47:15.000Z</time>
      </trkpt>
      <trkpt lat="48.82335" lon="2.16563">
        <ele>159.39999389648</ele>
        <time>2015-08-17T19:47:16.000Z</time>
      </trkpt>
      <trkpt lat="48.82334" lon="2.16537">
        <ele>159.39999389648</ele>
        <time>2015-08-17T19:47:20.000Z</time>
      </trkpt>
      <trkpt lat="48.82334" lon="2.1652">
        <ele>159.39999389648</ele>
        <time>2015-08-17T19:47:23.000Z</time>
      </trkpt>
      <trkpt lat="48.82332" lon="2.16498">
        <ele>159.39999389648</ele>
        <time>2015-08-17T19:47:27.000Z</time>
      </trkpt>
      <trkpt lat="48.82332" lon="2.16469">
        <ele>159.39999389648</ele>
        <time>2015-08-17T19:47:32.000Z</time>
      </trkpt>
      <trkpt lat="48.82337" lon="2.16441">
        <ele>160.19999694824</ele>
        <time>2015-08-17T19:47:38.000Z</time>
      </trkpt>
      <trkpt lat="48.82342" lon="2.16411">
        <ele>160.80000305176</ele>
        <time>2015-08-17T19:47:43.000Z</time>
      </trkpt>
      <trkpt lat="48.82342" lon="2.164">
        <ele>160.80000305176</ele>
        <time>2015-08-17T19:47:44.000Z</time>
      </trkpt>
      <trkpt lat="48.82349" lon="2.16374">
        <ele>161</ele>
        <time>2015-08-17T19:47:48.000Z</time>
      </trkpt>
      <trkpt lat="48.82352" lon="2.16357">
        <ele>161.19999694824</ele>
        <time>2015-08-17T19:47:51.000Z</time>
      </trkpt>
      <trkpt lat="48.82354" lon="2.16345">
        <ele>161.19999694824</ele>
        <time>2015-08-17T19:47:53.000Z</time>
      </trkpt>
      <trkpt lat="48.82357" lon="2.16333">
        <ele>161.19999694824</ele>
        <time>2015-08-17T19:47:55.000Z</time>
      </trkpt>
      <trkpt lat="48.82364" lon="2.16302">
        <ele>161.39999389648</ele>
        <time>2015-08-17T19:48:01.000Z</time>
      </trkpt>
      <trkpt lat="48.82371" lon="2.16277">
        <ele>161.39999389648</ele>
        <time>2015-08-17T19:48:06.000Z</time>
      </trkpt>
      <trkpt lat="48.82379" lon="2.16246">
        <ele>161.39999389648</ele>
        <time>2015-08-17T19:48:12.000Z</time>
      </trkpt>
      <trkpt lat="48.82383" lon="2.16219">
        <ele>161.39999389648</ele>
        <time>2015-08-17T19:48:17.000Z</time>
      </trkpt>
      <trkpt lat="48.82378" lon="2.16191">
        <ele>161.39999389648</ele>
        <time>2015-08-17T19:48:22.000Z</time>
      </trkpt>
      <trkpt lat="48.8237" lon="2.16166">
        <ele>161.39999389648</ele>
        <time>2015-08-17T19:48:26.000Z</time>
      </trkpt>
      <trkpt lat="48.82369" lon="2.16159">
        <ele>161.39999389648</ele>
        <time>2015-08-17T19:48:27.000Z</time>
      </trkpt>
      <trkpt lat="48.82364" lon="2.1614">
        <ele>161.39999389648</ele>
        <time>2015-08-17T19:48:30.000Z</time>
      </trkpt>
      <trkpt lat="48.8236" lon="2.16127">
        <ele>161.39999389648</ele>
        <time>2015-08-17T19:48:32.000Z</time>
      </trkpt>
      <trkpt lat="48.82354" lon="2.16108">
        <ele>161.80000305176</ele>
        <time>2015-08-17T19:48:35.000Z</time>
      </trkpt>
      <trkpt lat="48.82351" lon="2.16097">
        <ele>162.19999694824</ele>
        <time>2015-08-17T19:48:37.000Z</time>
      </trkpt>
      <trkpt lat="48.82343" lon="2.16074">
        <ele>162.60000610352</ele>
        <time>2015-08-17T19:48:41.000Z</time>
      </trkpt>
      <trkpt lat="48.82337" lon="2.1606">
        <ele>163</ele>
        <time>2015-08-17T19:48:44.000Z</time>
      </trkpt>
      <trkpt lat="48.8233" lon="2.16044">
        <ele>163</ele>
        <time>2015-08-17T19:48:47.000Z</time>
      </trkpt>
      <trkpt lat="48.82317" lon="2.16014">
        <ele>163.60000610352</ele>
        <time>2015-08-17T19:48:53.000Z</time>
      </trkpt>
      <trkpt lat="48.82318" lon="2.16016">
        <ele>163.80000305176</ele>
        <time>2015-08-17T19:48:52.000Z</time>
      </trkpt>
      <trkpt lat="48.82304" lon="2.1599">
        <ele>164.39999389648</ele>
        <time>2015-08-17T19:48:57.000Z</time>
      </trkpt>
      <trkpt lat="48.82294" lon="2.15975">
        <ele>164.80000305176</ele>
        <time>2015-08-17T19:49:01.000Z</time>
      </trkpt>
      <trkpt lat="48.82287" lon="2.15962">
        <ele>165</ele>
        <time>2015-08-17T19:49:03.000Z</time>
      </trkpt>
      <trkpt lat="48.82279" lon="2.15945">
        <ele>165</ele>
        <time>2015-08-17T19:49:06.000Z</time>
      </trkpt>
      <trkpt lat="48.82269" lon="2.1592">
        <ele>165.19999694824</ele>
        <time>2015-08-17T19:49:10.000Z</time>
      </trkpt>
      <trkpt lat="48.82257" lon="2.15886">
        <ele>165.39999389648</ele>
        <time>2015-08-17T19:49:15.000Z</time>
      </trkpt>
      <trkpt lat="48.82253" lon="2.15879">
        <ele>165.39999389648</ele>
        <time>2015-08-17T19:49:16.000Z</time>
      </trkpt>
      <trkpt lat="48.82242" lon="2.15852">
        <ele>165.39999389648</ele>
        <time>2015-08-17T19:49:20.000Z</time>
      </trkpt>
      <trkpt lat="48.82235" lon="2.15823">
        <ele>165.39999389648</ele>
        <time>2015-08-17T19:49:24.000Z</time>
      </trkpt>
      <trkpt lat="48.82231" lon="2.15808">
        <ele>165.60000610352</ele>
        <time>2015-08-17T19:49:26.000Z</time>
      </trkpt>
      <trkpt lat="48.82229" lon="2.15782">
        <ele>165.60000610352</ele>
        <time>2015-08-17T19:49:30.000Z</time>
      </trkpt>
      <trkpt lat="48.8223" lon="2.15759">
        <ele>165.60000610352</ele>
        <time>2015-08-17T19:49:34.000Z</time>
      </trkpt>
      <trkpt lat="48.82226" lon="2.15731">
        <ele>165.60000610352</ele>
        <time>2015-08-17T19:49:38.000Z</time>
      </trkpt>
      <trkpt lat="48.82223" lon="2.15709">
        <ele>165.60000610352</ele>
        <time>2015-08-17T19:49:41.000Z</time>
      </trkpt>
      <trkpt lat="48.82218" lon="2.15669">
        <ele>165.60000610352</ele>
        <time>2015-08-17T19:49:47.000Z</time>
      </trkpt>
      <trkpt lat="48.82217" lon="2.15662">
        <ele>165.60000610352</ele>
        <time>2015-08-17T19:49:48.000Z</time>
      </trkpt>
      <trkpt lat="48.82217" lon="2.15657">
        <ele>165.60000610352</ele>
        <time>2015-08-17T19:49:49.000Z</time>
      </trkpt>
      <trkpt lat="48.82216" lon="2.15623">
        <ele>165.60000610352</ele>
        <time>2015-08-17T19:49:54.000Z</time>
      </trkpt>
      <trkpt lat="48.82216" lon="2.15616">
        <ele>165.60000610352</ele>
        <time>2015-08-17T19:49:55.000Z</time>
      </trkpt>
      <trkpt lat="48.82213" lon="2.15589">
        <ele>165.60000610352</ele>
        <time>2015-08-17T19:49:59.000Z</time>
      </trkpt>
      <trkpt lat="48.82214" lon="2.15572">
        <ele>165.60000610352</ele>
        <time>2015-08-17T19:50:02.000Z</time>
      </trkpt>
      <trkpt lat="48.82208" lon="2.15539">
        <ele>165.60000610352</ele>
        <time>2015-08-17T19:50:07.000Z</time>
      </trkpt>
      <trkpt lat="48.82207" lon="2.15532">
        <ele>165.60000610352</ele>
        <time>2015-08-17T19:50:08.000Z</time>
      </trkpt>
      <trkpt lat="48.82204" lon="2.15518">
        <ele>165.60000610352</ele>
        <time>2015-08-17T19:50:10.000Z</time>
      </trkpt>
      <trkpt lat="48.82199" lon="2.15495">
        <ele>166.19999694824</ele>
        <time>2015-08-17T19:50:13.000Z</time>
      </trkpt>
      <trkpt lat="48.82195" lon="2.15474">
        <ele>166.60000610352</ele>
        <time>2015-08-17T19:50:16.000Z</time>
      </trkpt>
      <trkpt lat="48.82187" lon="2.1544">
        <ele>167</ele>
        <time>2015-08-17T19:50:21.000Z</time>
      </trkpt>
      <trkpt lat="48.82186" lon="2.15427">
        <ele>167.19999694824</ele>
        <time>2015-08-17T19:50:23.000Z</time>
      </trkpt>
      <trkpt lat="48.82182" lon="2.15388">
        <ele>168.39999389648</ele>
        <time>2015-08-17T19:50:29.000Z</time>
      </trkpt>
      <trkpt lat="48.8218" lon="2.15375">
        <ele>168.60000610352</ele>
        <time>2015-08-17T19:50:31.000Z</time>
      </trkpt>
      <trkpt lat="48.82174" lon="2.15357">
        <ele>169</ele>
        <time>2015-08-17T19:50:34.000Z</time>
      </trkpt>
      <trkpt lat="48.82165" lon="2.15333">
        <ele>169.19999694824</ele>
        <time>2015-08-17T19:50:38.000Z</time>
      </trkpt>
      <trkpt lat="48.8216" lon="2.15321">
        <ele>169.39999389648</ele>
        <time>2015-08-17T19:50:40.000Z</time>
      </trkpt>
      <trkpt lat="48.8215" lon="2.15297">
        <ele>170.19999694824</ele>
        <time>2015-08-17T19:50:45.000Z</time>
      </trkpt>
      <trkpt lat="48.82134" lon="2.15268">
        <ele>171</ele>
        <time>2015-08-17T19:50:51.000Z</time>
      </trkpt>
      <trkpt lat="48.82129" lon="2.15259">
        <ele>171</ele>
        <time>2015-08-17T19:50:53.000Z</time>
      </trkpt>
      <trkpt lat="48.82125" lon="2.15252">
        <ele>171.19999694824</ele>
        <time>2015-08-17T19:50:55.000Z</time>
      </trkpt>
      <trkpt lat="48.82108" lon="2.15229">
        <ele>171.39999389648</ele>
        <time>2015-08-17T19:51:01.000Z</time>
      </trkpt>
      <trkpt lat="48.82104" lon="2.15225">
        <ele>171.39999389648</ele>
        <time>2015-08-17T19:51:02.000Z</time>
      </trkpt>
      <trkpt lat="48.8209" lon="2.1521">
        <ele>171.60000610352</ele>
        <time>2015-08-17T19:51:06.000Z</time>
      </trkpt>
      <trkpt lat="48.82086" lon="2.15206">
        <ele>171.60000610352</ele>
        <time>2015-08-17T19:51:07.000Z</time>
      </trkpt>
      <trkpt lat="48.82074" lon="2.15194">
        <ele>171.60000610352</ele>
        <time>2015-08-17T19:51:10.000Z</time>
      </trkpt>
      <trkpt lat="48.82056" lon="2.15178">
        <ele>171.60000610352</ele>
        <time>2015-08-17T19:51:14.000Z</time>
      </trkpt>
      <trkpt lat="48.82045" lon="2.15168">
        <ele>171.80000305176</ele>
        <time>2015-08-17T19:51:17.000Z</time>
      </trkpt>
      <trkpt lat="48.82037" lon="2.15161">
        <ele>171.80000305176</ele>
        <time>2015-08-17T19:51:19.000Z</time>
      </trkpt>
      <trkpt lat="48.82023" lon="2.15149">
        <ele>171.80000305176</ele>
        <time>2015-08-17T19:51:23.000Z</time>
      </trkpt>
      <trkpt lat="48.82002" lon="2.15131">
        <ele>171.80000305176</ele>
        <time>2015-08-17T19:51:29.000Z</time>
      </trkpt>
      <trkpt lat="48.81984" lon="2.15115">
        <ele>171.39999389648</ele>
        <time>2015-08-17T19:51:34.000Z</time>
      </trkpt>
      <trkpt lat="48.81969" lon="2.15104">
        <ele>170.80000305176</ele>
        <time>2015-08-17T19:51:38.000Z</time>
      </trkpt>
      <trkpt lat="48.81944" lon="2.15092">
        <ele>170.19999694824</ele>
        <time>2015-08-17T19:51:45.000Z</time>
      </trkpt>
      <trkpt lat="48.81931" lon="2.15091">
        <ele>170</ele>
        <time>2015-08-17T19:51:48.000Z</time>
      </trkpt>
      <trkpt lat="48.8192" lon="2.15088">
        <ele>170</ele>
        <time>2015-08-17T19:51:51.000Z</time>
      </trkpt>
      <trkpt lat="48.81917" lon="2.15073">
        <ele>169.80000305176</ele>
        <time>2015-08-17T19:51:55.000Z</time>
      </trkpt>
      <trkpt lat="48.81918" lon="2.1507">
        <ele>169.80000305176</ele>
        <time>2015-08-17T19:51:57.000Z</time>
      </trkpt>
      <trkpt lat="48.81918" lon="2.15065">
        <ele>169.80000305176</ele>
        <time>2015-08-17T19:52:13.000Z</time>
      </trkpt>
      <trkpt lat="48.81919" lon="2.15055">
        <ele>169.80000305176</ele>
        <time>2015-08-17T19:52:19.000Z</time>
      </trkpt>
      <trkpt lat="48.81921" lon="2.1505">
        <ele>169.80000305176</ele>
        <time>2015-08-17T19:52:22.000Z</time>
      </trkpt>
      <trkpt lat="48.81922" lon="2.15046">
        <ele>169.80000305176</ele>
        <time>2015-08-17T19:52:31.000Z</time>
      </trkpt>
      <trkpt lat="48.81922" lon="2.15045">
        <ele>169.80000305176</ele>
        <time>2015-08-17T19:52:32.000Z</time>
      </trkpt>
      <trkpt lat="48.81923" lon="2.15043">
        <ele>169.80000305176</ele>
        <time>2015-08-17T19:52:34.000Z</time>
      </trkpt>
      <trkpt lat="48.81924" lon="2.1504">
        <ele>169.80000305176</ele>
        <time>2015-08-17T19:52:36.000Z</time>
      </trkpt>
      <trkpt lat="48.81923" lon="2.15037">
        <ele>170.19999694824</ele>
        <time>2015-08-17T19:52:44.000Z</time>
      </trkpt>
      <trkpt lat="48.81919" lon="2.15037">
        <ele>171</ele>
        <time>2015-08-17T19:52:52.000Z</time>
      </trkpt>
      <trkpt lat="48.81906" lon="2.15032">
        <ele>171.39999389648</ele>
        <time>2015-08-17T19:52:58.000Z</time>
      </trkpt>
      <trkpt lat="48.81896" lon="2.15027">
        <ele>171.60000610352</ele>
        <time>2015-08-17T19:53:04.000Z</time>
      </trkpt>
      <trkpt lat="48.81895" lon="2.15027">
        <ele>171.60000610352</ele>
        <time>2015-08-17T19:53:05.000Z</time>
      </trkpt>
      <trkpt lat="48.81891" lon="2.15018">
        <ele>171.60000610352</ele>
        <time>2015-08-17T19:53:11.000Z</time>
      </trkpt>
      <trkpt lat="48.81889" lon="2.15013">
        <ele>171.60000610352</ele>
        <time>2015-08-17T19:53:16.000Z</time>
      </trkpt>
      <trkpt lat="48.81886" lon="2.15008">
        <ele>171.80000305176</ele>
        <time>2015-08-17T19:53:47.000Z</time>
      </trkpt>
      <trkpt lat="48.81885" lon="2.15004">
        <ele>171.80000305176</ele>
        <time>2015-08-17T19:53:54.000Z</time>
      </trkpt>
      <trkpt lat="48.81884" lon="2.15005">
        <ele>171.80000305176</ele>
        <time>2015-08-17T19:54:03.000Z</time>
      </trkpt>
      <trkpt lat="48.81884" lon="2.15006">
        <ele>171.80000305176</ele>
        <time>2015-08-17T19:54:09.000Z</time>
      </trkpt>
      <trkpt lat="48.81885" lon="2.15012">
        <ele>171.80000305176</ele>
        <time>2015-08-17T19:54:34.000Z</time>
      </trkpt>
      <trkpt lat="48.81888" lon="2.15017">
        <ele>171.80000305176</ele>
        <time>2015-08-17T19:54:41.000Z</time>
      </trkpt>
      <trkpt lat="48.81888" lon="2.15018">
        <ele>171.80000305176</ele>
        <time>2015-08-17T19:54:42.000Z</time>
      </trkpt>
      <trkpt lat="48.81886" lon="2.15021">
        <ele>172</ele>
        <time>2015-08-17T19:54:45.000Z</time>
      </trkpt>
      <trkpt lat="48.81884" lon="2.15022">
        <ele>173</ele>
        <time>2015-08-17T19:54:53.000Z</time>
      </trkpt>
      <trkpt lat="48.81881" lon="2.1502">
        <ele>173.60000610352</ele>
        <time>2015-08-17T19:55:07.000Z</time>
      </trkpt>
      <trkpt lat="48.81879" lon="2.15022">
        <ele>173.60000610352</ele>
        <time>2015-08-17T19:55:13.000Z</time>
      </trkpt>
      <trkpt lat="48.81874" lon="2.15024">
        <ele>173.60000610352</ele>
        <time>2015-08-17T19:55:17.000Z</time>
      </trkpt>
      <trkpt lat="48.81862" lon="2.1502">
        <ele>173.80000305176</ele>
        <time>2015-08-17T19:55:25.000Z</time>
      </trkpt>
      <trkpt lat="48.81847" lon="2.1502">
        <ele>173.80000305176</ele>
        <time>2015-08-17T19:55:31.000Z</time>
      </trkpt>
      <trkpt lat="48.81828" lon="2.15019">
        <ele>173.80000305176</ele>
        <time>2015-08-17T19:55:37.000Z</time>
      </trkpt>
      <trkpt lat="48.81809" lon="2.15022">
        <ele>173.80000305176</ele>
        <time>2015-08-17T19:55:43.000Z</time>
      </trkpt>
      <trkpt lat="48.81787" lon="2.15022">
        <ele>173.80000305176</ele>
        <time>2015-08-17T19:55:48.000Z</time>
      </trkpt>
      <trkpt lat="48.81766" lon="2.15025">
        <ele>173.80000305176</ele>
        <time>2015-08-17T19:55:52.000Z</time>
      </trkpt>
      <trkpt lat="48.81748" lon="2.15027">
        <ele>173.80000305176</ele>
        <time>2015-08-17T19:55:55.000Z</time>
      </trkpt>
      <trkpt lat="48.81728" lon="2.15029">
        <ele>173.80000305176</ele>
        <time>2015-08-17T19:55:58.000Z</time>
      </trkpt>
      <trkpt lat="48.81706" lon="2.1503">
        <ele>173.80000305176</ele>
        <time>2015-08-17T19:56:01.000Z</time>
      </trkpt>
      <trkpt lat="48.81684" lon="2.15032">
        <ele>173.80000305176</ele>
        <time>2015-08-17T19:56:04.000Z</time>
      </trkpt>
      <trkpt lat="48.81663" lon="2.15034">
        <ele>173.80000305176</ele>
        <time>2015-08-17T19:56:07.000Z</time>
      </trkpt>
      <trkpt lat="48.81656" lon="2.15034">
        <ele>173.80000305176</ele>
        <time>2015-08-17T19:56:08.000Z</time>
      </trkpt>
      <trkpt lat="48.81631" lon="2.15037">
        <ele>173.80000305176</ele>
        <time>2015-08-17T19:56:12.000Z</time>
      </trkpt>
      <trkpt lat="48.81612" lon="2.1504">
        <ele>173.80000305176</ele>
        <time>2015-08-17T19:56:15.000Z</time>
      </trkpt>
      <trkpt lat="48.81606" lon="2.15041">
        <ele>173.80000305176</ele>
        <time>2015-08-17T19:56:16.000Z</time>
      </trkpt>
      <trkpt lat="48.81585" lon="2.15043">
        <ele>173.80000305176</ele>
        <time>2015-08-17T19:56:19.000Z</time>
      </trkpt>
      <trkpt lat="48.81565" lon="2.15047">
        <ele>173.80000305176</ele>
        <time>2015-08-17T19:56:22.000Z</time>
      </trkpt>
      <trkpt lat="48.81559" lon="2.15048">
        <ele>173.80000305176</ele>
        <time>2015-08-17T19:56:23.000Z</time>
      </trkpt>
      <trkpt lat="48.81534" lon="2.1505">
        <ele>173.80000305176</ele>
        <time>2015-08-17T19:56:27.000Z</time>
      </trkpt>
      <trkpt lat="48.81514" lon="2.15054">
        <ele>173.80000305176</ele>
        <time>2015-08-17T19:56:30.000Z</time>
      </trkpt>
      <trkpt lat="48.81495" lon="2.15057">
        <ele>173.80000305176</ele>
        <time>2015-08-17T19:56:33.000Z</time>
      </trkpt>
      <trkpt lat="48.81474" lon="2.15061">
        <ele>173.80000305176</ele>
        <time>2015-08-17T19:56:36.000Z</time>
      </trkpt>
      <trkpt lat="48.81456" lon="2.15065">
        <ele>173.80000305176</ele>
        <time>2015-08-17T19:56:39.000Z</time>
      </trkpt>
      <trkpt lat="48.81435" lon="2.15069">
        <ele>173.80000305176</ele>
        <time>2015-08-17T19:56:43.000Z</time>
      </trkpt>
      <trkpt lat="48.81417" lon="2.15074">
        <ele>173.80000305176</ele>
        <time>2015-08-17T19:56:47.000Z</time>
      </trkpt>
      <trkpt lat="48.81374" lon="2.15083">
        <ele>173.80000305176</ele>
        <time>2015-08-17T19:56:57.000Z</time>
      </trkpt>
      <trkpt lat="48.81352" lon="2.15088">
        <ele>173.80000305176</ele>
        <time>2015-08-17T19:57:01.000Z</time>
      </trkpt>
      <trkpt lat="48.81334" lon="2.1509">
        <ele>173.80000305176</ele>
        <time>2015-08-17T19:57:04.000Z</time>
      </trkpt>
      <trkpt lat="48.81314" lon="2.15093">
        <ele>173.80000305176</ele>
        <time>2015-08-17T19:57:07.000Z</time>
      </trkpt>
      <trkpt lat="48.81292" lon="2.15094">
        <ele>173.80000305176</ele>
        <time>2015-08-17T19:57:10.000Z</time>
      </trkpt>
      <trkpt lat="48.81265" lon="2.15095">
        <ele>173.60000610352</ele>
        <time>2015-08-17T19:57:13.000Z</time>
      </trkpt>
      <trkpt lat="48.81245" lon="2.15095">
        <ele>173.19999694824</ele>
        <time>2015-08-17T19:57:15.000Z</time>
      </trkpt>
      <trkpt lat="48.81224" lon="2.15096">
        <ele>172.80000305176</ele>
        <time>2015-08-17T19:57:17.000Z</time>
      </trkpt>
      <trkpt lat="48.81201" lon="2.15096">
        <ele>172.60000610352</ele>
        <time>2015-08-17T19:57:19.000Z</time>
      </trkpt>
      <trkpt lat="48.81178" lon="2.15092">
        <ele>172.19999694824</ele>
        <time>2015-08-17T19:57:21.000Z</time>
      </trkpt>
      <trkpt lat="48.81156" lon="2.15086">
        <ele>171.60000610352</ele>
        <time>2015-08-17T19:57:23.000Z</time>
      </trkpt>
      <trkpt lat="48.81136" lon="2.15078">
        <ele>171.19999694824</ele>
        <time>2015-08-17T19:57:25.000Z</time>
      </trkpt>
      <trkpt lat="48.81118" lon="2.15066">
        <ele>170.60000610352</ele>
        <time>2015-08-17T19:57:27.000Z</time>
      </trkpt>
      <trkpt lat="48.81098" lon="2.15051">
        <ele>169.60000610352</ele>
        <time>2015-08-17T19:57:30.000Z</time>
      </trkpt>
      <trkpt lat="48.81083" lon="2.15037">
        <ele>168.19999694824</ele>
        <time>2015-08-17T19:57:34.000Z</time>
      </trkpt>
      <trkpt lat="48.81081" lon="2.15036">
        <ele>167.80000305176</ele>
        <time>2015-08-17T19:57:35.000Z</time>
      </trkpt>
      <trkpt lat="48.81083" lon="2.15038">
        <ele>166.60000610352</ele>
        <time>2015-08-17T19:57:38.000Z</time>
      </trkpt>
      <trkpt lat="48.81086" lon="2.1504">
        <ele>165.80000305176</ele>
        <time>2015-08-17T19:57:40.000Z</time>
      </trkpt>
      <trkpt lat="48.81099" lon="2.15037">
        <ele>152.39999389648</ele>
        <time>2015-08-17T19:58:27.000Z</time>
      </trkpt>
      <trkpt lat="48.81091" lon="2.15026">
        <ele>152.19999694824</ele>
        <time>2015-08-17T19:58:31.000Z</time>
      </trkpt>
      <trkpt lat="48.81074" lon="2.15007">
        <ele>152</ele>
        <time>2015-08-17T19:58:34.000Z</time>
      </trkpt>
      <trkpt lat="48.81055" lon="2.14982">
        <ele>151.80000305176</ele>
        <time>2015-08-17T19:58:37.000Z</time>
      </trkpt>
      <trkpt lat="48.81042" lon="2.14963">
        <ele>151.80000305176</ele>
        <time>2015-08-17T19:58:39.000Z</time>
      </trkpt>
      <trkpt lat="48.8103" lon="2.14942">
        <ele>151.60000610352</ele>
        <time>2015-08-17T19:58:41.000Z</time>
      </trkpt>
      <trkpt lat="48.81018" lon="2.14921">
        <ele>151.19999694824</ele>
        <time>2015-08-17T19:58:43.000Z</time>
      </trkpt>
      <trkpt lat="48.81005" lon="2.14901">
        <ele>150.80000305176</ele>
        <time>2015-08-17T19:58:45.000Z</time>
      </trkpt>
      <trkpt lat="48.80993" lon="2.14879">
        <ele>150.19999694824</ele>
        <time>2015-08-17T19:58:47.000Z</time>
      </trkpt>
      <trkpt lat="48.8098" lon="2.14856">
        <ele>149.60000610352</ele>
        <time>2015-08-17T19:58:49.000Z</time>
      </trkpt>
      <trkpt lat="48.80967" lon="2.14832">
        <ele>149</ele>
        <time>2015-08-17T19:58:51.000Z</time>
      </trkpt>
      <trkpt lat="48.80953" lon="2.14808">
        <ele>148.19999694824</ele>
        <time>2015-08-17T19:58:53.000Z</time>
      </trkpt>
      <trkpt lat="48.80939" lon="2.14783">
        <ele>147.39999389648</ele>
        <time>2015-08-17T19:58:55.000Z</time>
      </trkpt>
      <trkpt lat="48.80924" lon="2.14757">
        <ele>146.60000610352</ele>
        <time>2015-08-17T19:58:57.000Z</time>
      </trkpt>
      <trkpt lat="48.80908" lon="2.14732">
        <ele>145.60000610352</ele>
        <time>2015-08-17T19:58:59.000Z</time>
      </trkpt>
      <trkpt lat="48.80893" lon="2.14706">
        <ele>144.60000610352</ele>
        <time>2015-08-17T19:59:01.000Z</time>
      </trkpt>
      <trkpt lat="48.80879" lon="2.14682">
        <ele>144</ele>
        <time>2015-08-17T19:59:03.000Z</time>
      </trkpt>
      <trkpt lat="48.80867" lon="2.14661">
        <ele>143</ele>
        <time>2015-08-17T19:59:05.000Z</time>
      </trkpt>
      <trkpt lat="48.80852" lon="2.1463">
        <ele>141.80000305176</ele>
        <time>2015-08-17T19:59:08.000Z</time>
      </trkpt>
      <trkpt lat="48.80837" lon="2.14602">
        <ele>140.39999389648</ele>
        <time>2015-08-17T19:59:11.000Z</time>
      </trkpt>
      <trkpt lat="48.80824" lon="2.14579">
        <ele>139</ele>
        <time>2015-08-17T19:59:14.000Z</time>
      </trkpt>
      <trkpt lat="48.80815" lon="2.14556">
        <ele>137.39999389648</ele>
        <time>2015-08-17T19:59:18.000Z</time>
      </trkpt>
      <trkpt lat="48.80808" lon="2.14539">
        <ele>136</ele>
        <time>2015-08-17T19:59:22.000Z</time>
      </trkpt>
      <trkpt lat="48.80807" lon="2.14531">
        <ele>134.19999694824</ele>
        <time>2015-08-17T19:59:28.000Z</time>
      </trkpt>
      <trkpt lat="48.80808" lon="2.14531">
        <ele>131.60000610352</ele>
        <time>2015-08-17T19:59:37.000Z</time>
      </trkpt>
      <trkpt lat="48.80799" lon="2.14525">
        <ele>128</ele>
        <time>2015-08-17T20:00:10.000Z</time>
      </trkpt>
      <trkpt lat="48.80788" lon="2.14512">
        <ele>127.59999847412</ele>
        <time>2015-08-17T20:00:15.000Z</time>
      </trkpt>
      <trkpt lat="48.80774" lon="2.14489">
        <ele>126.80000305176</ele>
        <time>2015-08-17T20:00:21.000Z</time>
      </trkpt>
      <trkpt lat="48.8076" lon="2.14468">
        <ele>126.40000152588</ele>
        <time>2015-08-17T20:00:26.000Z</time>
      </trkpt>
      <trkpt lat="48.80749" lon="2.14446">
        <ele>126.19999694824</ele>
        <time>2015-08-17T20:00:31.000Z</time>
      </trkpt>
      <trkpt lat="48.80741" lon="2.14428">
        <ele>126</ele>
        <time>2015-08-17T20:00:35.000Z</time>
      </trkpt>
      <trkpt lat="48.80728" lon="2.14402">
        <ele>126</ele>
        <time>2015-08-17T20:00:40.000Z</time>
      </trkpt>
      <trkpt lat="48.80724" lon="2.14391">
        <ele>125.80000305176</ele>
        <time>2015-08-17T20:00:42.000Z</time>
      </trkpt>
      <trkpt lat="48.80713" lon="2.14371">
        <ele>125.80000305176</ele>
        <time>2015-08-17T20:00:46.000Z</time>
      </trkpt>
      <trkpt lat="48.80699" lon="2.14345">
        <ele>125.80000305176</ele>
        <time>2015-08-17T20:00:51.000Z</time>
      </trkpt>
      <trkpt lat="48.80685" lon="2.1432">
        <ele>125.80000305176</ele>
        <time>2015-08-17T20:00:56.000Z</time>
      </trkpt>
      <trkpt lat="48.80678" lon="2.14306">
        <ele>125.80000305176</ele>
        <time>2015-08-17T20:00:59.000Z</time>
      </trkpt>
      <trkpt lat="48.80669" lon="2.14291">
        <ele>125.80000305176</ele>
        <time>2015-08-17T20:01:02.000Z</time>
      </trkpt>
      <trkpt lat="48.80664" lon="2.14281">
        <ele>125.80000305176</ele>
        <time>2015-08-17T20:01:04.000Z</time>
      </trkpt>
      <trkpt lat="48.80658" lon="2.1427">
        <ele>125.80000305176</ele>
        <time>2015-08-17T20:01:06.000Z</time>
      </trkpt>
      <trkpt lat="48.80641" lon="2.1424">
        <ele>125.80000305176</ele>
        <time>2015-08-17T20:01:12.000Z</time>
      </trkpt>
      <trkpt lat="48.80628" lon="2.14216">
        <ele>125.80000305176</ele>
        <time>2015-08-17T20:01:17.000Z</time>
      </trkpt>
      <trkpt lat="48.80614" lon="2.1419">
        <ele>125.80000305176</ele>
        <time>2015-08-17T20:01:23.000Z</time>
      </trkpt>
      <trkpt lat="48.80601" lon="2.14165">
        <ele>125.80000305176</ele>
        <time>2015-08-17T20:01:28.000Z</time>
      </trkpt>
      <trkpt lat="48.80591" lon="2.1414">
        <ele>125.80000305176</ele>
        <time>2015-08-17T20:01:33.000Z</time>
      </trkpt>
      <trkpt lat="48.80583" lon="2.14115">
        <ele>125.80000305176</ele>
        <time>2015-08-17T20:01:38.000Z</time>
      </trkpt>
      <trkpt lat="48.80578" lon="2.14086">
        <ele>125.80000305176</ele>
        <time>2015-08-17T20:01:44.000Z</time>
      </trkpt>
      <trkpt lat="48.80577" lon="2.14066">
        <ele>125.80000305176</ele>
        <time>2015-08-17T20:01:48.000Z</time>
      </trkpt>
      <trkpt lat="48.80577" lon="2.14033">
        <ele>125.80000305176</ele>
        <time>2015-08-17T20:01:54.000Z</time>
      </trkpt>
      <trkpt lat="48.80577" lon="2.14007">
        <ele>126.59999847412</ele>
        <time>2015-08-17T20:01:59.000Z</time>
      </trkpt>
      <trkpt lat="48.80576" lon="2.13978">
        <ele>127.19999694824</ele>
        <time>2015-08-17T20:02:04.000Z</time>
      </trkpt>
      <trkpt lat="48.80573" lon="2.13954">
        <ele>127.40000152588</ele>
        <time>2015-08-17T20:02:08.000Z</time>
      </trkpt>
      <trkpt lat="48.80576" lon="2.13933">
        <ele>127.59999847412</ele>
        <time>2015-08-17T20:02:12.000Z</time>
      </trkpt>
      <trkpt lat="48.80575" lon="2.13909">
        <ele>127.59999847412</ele>
        <time>2015-08-17T20:02:16.000Z</time>
      </trkpt>
      <trkpt lat="48.80574" lon="2.13882">
        <ele>128.39999389648</ele>
        <time>2015-08-17T20:02:20.000Z</time>
      </trkpt>
      <trkpt lat="48.80574" lon="2.13866">
        <ele>128.60000610352</ele>
        <time>2015-08-17T20:02:22.000Z</time>
      </trkpt>
      <trkpt lat="48.80573" lon="2.13844">
        <ele>129</ele>
        <time>2015-08-17T20:02:25.000Z</time>
      </trkpt>
      <trkpt lat="48.8057" lon="2.13808">
        <ele>129.39999389648</ele>
        <time>2015-08-17T20:02:29.000Z</time>
      </trkpt>
      <trkpt lat="48.80567" lon="2.13774">
        <ele>129.39999389648</ele>
        <time>2015-08-17T20:02:33.000Z</time>
      </trkpt>
      <trkpt lat="48.80565" lon="2.13749">
        <ele>129.60000610352</ele>
        <time>2015-08-17T20:02:36.000Z</time>
      </trkpt>
      <trkpt lat="48.80562" lon="2.13712">
        <ele>129.60000610352</ele>
        <time>2015-08-17T20:02:40.000Z</time>
      </trkpt>
      <trkpt lat="48.80558" lon="2.13678">
        <ele>130.39999389648</ele>
        <time>2015-08-17T20:02:44.000Z</time>
      </trkpt>
      <trkpt lat="48.80556" lon="2.13647">
        <ele>130.80000305176</ele>
        <time>2015-08-17T20:02:47.000Z</time>
      </trkpt>
      <trkpt lat="48.80555" lon="2.13619">
        <ele>131.19999694824</ele>
        <time>2015-08-17T20:02:51.000Z</time>
      </trkpt>
      <trkpt lat="48.80553" lon="2.136">
        <ele>131.39999389648</ele>
        <time>2015-08-17T20:02:53.000Z</time>
      </trkpt>
      <trkpt lat="48.8055" lon="2.13571">
        <ele>131.80000305176</ele>
        <time>2015-08-17T20:02:57.000Z</time>
      </trkpt>
      <trkpt lat="48.80549" lon="2.13546">
        <ele>132.60000610352</ele>
        <time>2015-08-17T20:03:01.000Z</time>
      </trkpt>
      <trkpt lat="48.8055" lon="2.13534">
        <ele>132.80000305176</ele>
        <time>2015-08-17T20:03:03.000Z</time>
      </trkpt>
      <trkpt lat="48.8055" lon="2.13508">
        <ele>133.19999694824</ele>
        <time>2015-08-17T20:03:07.000Z</time>
      </trkpt>
      <trkpt lat="48.80551" lon="2.13501">
        <ele>133.19999694824</ele>
        <time>2015-08-17T20:03:08.000Z</time>
      </trkpt>
      <trkpt lat="48.80551" lon="2.13494">
        <ele>133.39999389648</ele>
        <time>2015-08-17T20:03:09.000Z</time>
      </trkpt>
      <trkpt lat="48.80551" lon="2.13487">
        <ele>133.39999389648</ele>
        <time>2015-08-17T20:03:10.000Z</time>
      </trkpt>
      <trkpt lat="48.80551" lon="2.13463">
        <ele>133.60000610352</ele>
        <time>2015-08-17T20:03:14.000Z</time>
      </trkpt>
      <trkpt lat="48.8055" lon="2.13448">
        <ele>133.60000610352</ele>
        <time>2015-08-17T20:03:16.000Z</time>
      </trkpt>
      <trkpt lat="48.80548" lon="2.13417">
        <ele>133.80000305176</ele>
        <time>2015-08-17T20:03:20.000Z</time>
      </trkpt>
      <trkpt lat="48.80548" lon="2.13409">
        <ele>133.80000305176</ele>
        <time>2015-08-17T20:03:21.000Z</time>
      </trkpt>
      <trkpt lat="48.80545" lon="2.13381">
        <ele>133.80000305176</ele>
        <time>2015-08-17T20:03:24.000Z</time>
      </trkpt>
      <trkpt lat="48.80541" lon="2.13351">
        <ele>133.80000305176</ele>
        <time>2015-08-17T20:03:27.000Z</time>
      </trkpt>
      <trkpt lat="48.8054" lon="2.13342">
        <ele>133.80000305176</ele>
        <time>2015-08-17T20:03:28.000Z</time>
      </trkpt>
      <trkpt lat="48.80537" lon="2.13312">
        <ele>134</ele>
        <time>2015-08-17T20:03:31.000Z</time>
      </trkpt>
      <trkpt lat="48.80535" lon="2.13279">
        <ele>133.39999389648</ele>
        <time>2015-08-17T20:03:35.000Z</time>
      </trkpt>
      <trkpt lat="48.8053" lon="2.1324">
        <ele>132.80000305176</ele>
        <time>2015-08-17T20:03:39.000Z</time>
      </trkpt>
      <trkpt lat="48.80527" lon="2.13212">
        <ele>132.60000610352</ele>
        <time>2015-08-17T20:03:42.000Z</time>
      </trkpt>
      <trkpt lat="48.80525" lon="2.13187">
        <ele>132.39999389648</ele>
        <time>2015-08-17T20:03:45.000Z</time>
      </trkpt>
      <trkpt lat="48.80521" lon="2.13162">
        <ele>132.39999389648</ele>
        <time>2015-08-17T20:03:48.000Z</time>
      </trkpt>
      <trkpt lat="48.80512" lon="2.13128">
        <ele>132.19999694824</ele>
        <time>2015-08-17T20:03:52.000Z</time>
      </trkpt>
      <trkpt lat="48.80509" lon="2.1312">
        <ele>132.19999694824</ele>
        <time>2015-08-17T20:03:53.000Z</time>
      </trkpt>
      <trkpt lat="48.80502" lon="2.13087">
        <ele>132</ele>
        <time>2015-08-17T20:03:57.000Z</time>
      </trkpt>
      <trkpt lat="48.80501" lon="2.13079">
        <ele>132</ele>
        <time>2015-08-17T20:03:58.000Z</time>
      </trkpt>
      <trkpt lat="48.80501" lon="2.13072">
        <ele>132</ele>
        <time>2015-08-17T20:03:59.000Z</time>
      </trkpt>
      <trkpt lat="48.80497" lon="2.13028">
        <ele>132</ele>
        <time>2015-08-17T20:04:04.000Z</time>
      </trkpt>
      <trkpt lat="48.80493" lon="2.12996">
        <ele>132</ele>
        <time>2015-08-17T20:04:07.000Z</time>
      </trkpt>
      <trkpt lat="48.8049" lon="2.12972">
        <ele>132</ele>
        <time>2015-08-17T20:04:09.000Z</time>
      </trkpt>
      <trkpt lat="48.80489" lon="2.12949">
        <ele>132</ele>
        <time>2015-08-17T20:04:11.000Z</time>
      </trkpt>
      <trkpt lat="48.80487" lon="2.12915">
        <ele>132</ele>
        <time>2015-08-17T20:04:14.000Z</time>
      </trkpt>
      <trkpt lat="48.80485" lon="2.12871">
        <ele>132</ele>
        <time>2015-08-17T20:04:18.000Z</time>
      </trkpt>
      <trkpt lat="48.80484" lon="2.12837">
        <ele>131.60000610352</ele>
        <time>2015-08-17T20:04:21.000Z</time>
      </trkpt>
      <trkpt lat="48.80483" lon="2.12826">
        <ele>131.39999389648</ele>
        <time>2015-08-17T20:04:22.000Z</time>
      </trkpt>
      <trkpt lat="48.80483" lon="2.12804">
        <ele>131</ele>
        <time>2015-08-17T20:04:24.000Z</time>
      </trkpt>
      <trkpt lat="48.80483" lon="2.12774">
        <ele>130.80000305176</ele>
        <time>2015-08-17T20:04:27.000Z</time>
      </trkpt>
      <trkpt lat="48.80483" lon="2.12759">
        <ele>130.60000610352</ele>
        <time>2015-08-17T20:04:29.000Z</time>
      </trkpt>
      <trkpt lat="48.80483" lon="2.12745">
        <ele>130.39999389648</ele>
        <time>2015-08-17T20:04:31.000Z</time>
      </trkpt>
      <trkpt lat="48.80479" lon="2.12715">
        <ele>130.19999694824</ele>
        <time>2015-08-17T20:04:35.000Z</time>
      </trkpt>
      <trkpt lat="48.80474" lon="2.12693">
        <ele>130.19999694824</ele>
        <time>2015-08-17T20:04:39.000Z</time>
      </trkpt>
      <trkpt lat="48.80468" lon="2.12682">
        <ele>130</ele>
        <time>2015-08-17T20:04:44.000Z</time>
      </trkpt>
      <trkpt lat="48.80462" lon="2.12684">
        <ele>130</ele>
        <time>2015-08-17T20:04:47.000Z</time>
      </trkpt>
      <trkpt lat="48.80449" lon="2.12679">
        <ele>130</ele>
        <time>2015-08-17T20:04:51.000Z</time>
      </trkpt>
      <trkpt lat="48.80423" lon="2.12678">
        <ele>130</ele>
        <time>2015-08-17T20:04:57.000Z</time>
      </trkpt>
      <trkpt lat="48.80418" lon="2.12679">
        <ele>129.80000305176</ele>
        <time>2015-08-17T20:04:58.000Z</time>
      </trkpt>
      <trkpt lat="48.80405" lon="2.12678">
        <ele>130</ele>
        <time>2015-08-17T20:05:01.000Z</time>
      </trkpt>
      <trkpt lat="48.80378" lon="2.12668">
        <ele>131</ele>
        <time>2015-08-17T20:05:07.000Z</time>
      </trkpt>
      <trkpt lat="48.80364" lon="2.1266">
        <ele>131.19999694824</ele>
        <time>2015-08-17T20:05:11.000Z</time>
      </trkpt>
      <trkpt lat="48.80344" lon="2.12648">
        <ele>131.60000610352</ele>
        <time>2015-08-17T20:05:18.000Z</time>
      </trkpt>
      <trkpt lat="48.8034" lon="2.12643">
        <ele>131.60000610352</ele>
        <time>2015-08-17T20:05:21.000Z</time>
      </trkpt>
      <trkpt lat="48.80338" lon="2.12642">
        <ele>131.60000610352</ele>
        <time>2015-08-17T20:05:23.000Z</time>
      </trkpt>
      <trkpt lat="48.80333" lon="2.1264">
        <ele>131.80000305176</ele>
        <time>2015-08-17T20:05:27.000Z</time>
      </trkpt>
      <trkpt lat="48.80332" lon="2.12639">
        <ele>131.80000305176</ele>
        <time>2015-08-17T20:05:29.000Z</time>
      </trkpt>
      <trkpt lat="48.8033" lon="2.1264">
        <ele>131.80000305176</ele>
        <time>2015-08-17T20:05:40.000Z</time>
      </trkpt>
      <trkpt lat="48.80329" lon="2.1264">
        <ele>131.80000305176</ele>
        <time>2015-08-17T20:05:41.000Z</time>
      </trkpt>
      <trkpt lat="48.80329" lon="2.12637">
        <ele>131.80000305176</ele>
        <time>2015-08-17T20:05:49.000Z</time>
      </trkpt>
      <trkpt lat="48.80329" lon="2.12635">
        <ele>131.80000305176</ele>
        <time>2015-08-17T20:06:06.000Z</time>
      </trkpt>
      <trkpt lat="48.80327" lon="2.12637">
        <ele>131.80000305176</ele>
        <time>2015-08-17T20:06:11.000Z</time>
      </trkpt>
      <trkpt lat="48.80326" lon="2.12636">
        <ele>131.80000305176</ele>
        <time>2015-08-17T20:06:20.000Z</time>
      </trkpt>
      <trkpt lat="48.80324" lon="2.12638">
        <ele>131.80000305176</ele>
        <time>2015-08-17T20:06:30.000Z</time>
      </trkpt>
      <trkpt lat="48.80326" lon="2.12643">
        <ele>131.80000305176</ele>
        <time>2015-08-17T20:06:36.000Z</time>
      </trkpt>
      <trkpt lat="48.80322" lon="2.12644">
        <ele>131.80000305176</ele>
        <time>2015-08-17T20:06:40.000Z</time>
      </trkpt>
      <trkpt lat="48.80313" lon="2.12641">
        <ele>131.80000305176</ele>
        <time>2015-08-17T20:06:45.000Z</time>
      </trkpt>
      <trkpt lat="48.80309" lon="2.1264">
        <ele>131.80000305176</ele>
        <time>2015-08-17T20:06:47.000Z</time>
      </trkpt>
      <trkpt lat="48.80308" lon="2.12644">
        <ele>131.80000305176</ele>
        <time>2015-08-17T20:06:55.000Z</time>
      </trkpt>
      <trkpt lat="48.80305" lon="2.12662">
        <ele>131.80000305176</ele>
        <time>2015-08-17T20:07:00.000Z</time>
      </trkpt>
      <trkpt lat="48.80297" lon="2.1269">
        <ele>131.19999694824</ele>
        <time>2015-08-17T20:07:05.000Z</time>
      </trkpt>
      <trkpt lat="48.8029" lon="2.12715">
        <ele>130.60000610352</ele>
        <time>2015-08-17T20:07:09.000Z</time>
      </trkpt>
      <trkpt lat="48.80288" lon="2.12721">
        <ele>130.60000610352</ele>
        <time>2015-08-17T20:07:10.000Z</time>
      </trkpt>
      <trkpt lat="48.8028" lon="2.12753">
        <ele>130.19999694824</ele>
        <time>2015-08-17T20:07:15.000Z</time>
      </trkpt>
      <trkpt lat="48.80272" lon="2.12785">
        <ele>130</ele>
        <time>2015-08-17T20:07:20.000Z</time>
      </trkpt>
      <trkpt lat="48.80264" lon="2.12816">
        <ele>130</ele>
        <time>2015-08-17T20:07:25.000Z</time>
      </trkpt>
      <trkpt lat="48.80257" lon="2.12842">
        <ele>130</ele>
        <time>2015-08-17T20:07:29.000Z</time>
      </trkpt>
      <trkpt lat="48.8025" lon="2.12869">
        <ele>129.80000305176</ele>
        <time>2015-08-17T20:07:33.000Z</time>
      </trkpt>
      <trkpt lat="48.8024" lon="2.12898">
        <ele>129.80000305176</ele>
        <time>2015-08-17T20:07:38.000Z</time>
      </trkpt>
      <trkpt lat="48.80238" lon="2.12903">
        <ele>129.80000305176</ele>
        <time>2015-08-17T20:07:39.000Z</time>
      </trkpt>
      <trkpt lat="48.80234" lon="2.12917">
        <ele>129.80000305176</ele>
        <time>2015-08-17T20:07:42.000Z</time>
      </trkpt>
      <trkpt lat="48.80232" lon="2.12922">
        <ele>129.80000305176</ele>
        <time>2015-08-17T20:07:43.000Z</time>
      </trkpt>
      <trkpt lat="48.80222" lon="2.12949">
        <ele>129.80000305176</ele>
        <time>2015-08-17T20:07:48.000Z</time>
      </trkpt>
      <trkpt lat="48.80215" lon="2.12977">
        <ele>129.80000305176</ele>
        <time>2015-08-17T20:07:53.000Z</time>
      </trkpt>
      <trkpt lat="48.80209" lon="2.13004">
        <ele>129.80000305176</ele>
        <time>2015-08-17T20:07:58.000Z</time>
      </trkpt>
      <trkpt lat="48.80199" lon="2.13032">
        <ele>129.80000305176</ele>
        <time>2015-08-17T20:08:03.000Z</time>
      </trkpt>
      <trkpt lat="48.80196" lon="2.13038">
        <ele>129.80000305176</ele>
        <time>2015-08-17T20:08:04.000Z</time>
      </trkpt>
      <trkpt lat="48.80192" lon="2.1305">
        <ele>129.80000305176</ele>
        <time>2015-08-17T20:08:06.000Z</time>
      </trkpt>
      <trkpt lat="48.80181" lon="2.13081">
        <ele>129.80000305176</ele>
        <time>2015-08-17T20:08:11.000Z</time>
      </trkpt>
      <trkpt lat="48.80176" lon="2.131">
        <ele>129.80000305176</ele>
        <time>2015-08-17T20:08:14.000Z</time>
      </trkpt>
      <trkpt lat="48.80171" lon="2.13124">
        <ele>129.80000305176</ele>
        <time>2015-08-17T20:08:18.000Z</time>
      </trkpt>
      <trkpt lat="48.80165" lon="2.13162">
        <ele>129.80000305176</ele>
        <time>2015-08-17T20:08:24.000Z</time>
      </trkpt>
      <trkpt lat="48.8016" lon="2.1319">
        <ele>129.80000305176</ele>
        <time>2015-08-17T20:08:28.000Z</time>
      </trkpt>
      <trkpt lat="48.80154" lon="2.13216">
        <ele>130.39999389648</ele>
        <time>2015-08-17T20:08:32.000Z</time>
      </trkpt>
      <trkpt lat="48.80151" lon="2.13229">
        <ele>130.60000610352</ele>
        <time>2015-08-17T20:08:34.000Z</time>
      </trkpt>
      <trkpt lat="48.80145" lon="2.13247">
        <ele>131</ele>
        <time>2015-08-17T20:08:37.000Z</time>
      </trkpt>
      <trkpt lat="48.80135" lon="2.13282">
        <ele>131.39999389648</ele>
        <time>2015-08-17T20:08:43.000Z</time>
      </trkpt>
      <trkpt lat="48.80124" lon="2.13328">
        <ele>131.60000610352</ele>
        <time>2015-08-17T20:08:51.000Z</time>
      </trkpt>
      <trkpt lat="48.80122" lon="2.13333">
        <ele>131.60000610352</ele>
        <time>2015-08-17T20:08:52.000Z</time>
      </trkpt>
      <trkpt lat="48.80115" lon="2.13363">
        <ele>131.80000305176</ele>
        <time>2015-08-17T20:08:57.000Z</time>
      </trkpt>
      <trkpt lat="48.80108" lon="2.1339">
        <ele>131.80000305176</ele>
        <time>2015-08-17T20:09:01.000Z</time>
      </trkpt>
      <trkpt lat="48.80106" lon="2.13397">
        <ele>131.80000305176</ele>
        <time>2015-08-17T20:09:02.000Z</time>
      </trkpt>
      <trkpt lat="48.80105" lon="2.13404">
        <ele>131.80000305176</ele>
        <time>2015-08-17T20:09:03.000Z</time>
      </trkpt>
      <trkpt lat="48.80096" lon="2.1344">
        <ele>132.60000610352</ele>
        <time>2015-08-17T20:09:08.000Z</time>
      </trkpt>
      <trkpt lat="48.80088" lon="2.13469">
        <ele>133</ele>
        <time>2015-08-17T20:09:12.000Z</time>
      </trkpt>
      <trkpt lat="48.80081" lon="2.13497">
        <ele>133.39999389648</ele>
        <time>2015-08-17T20:09:16.000Z</time>
      </trkpt>
      <trkpt lat="48.80074" lon="2.13527">
        <ele>133.60000610352</ele>
        <time>2015-08-17T20:09:20.000Z</time>
      </trkpt>
      <trkpt lat="48.80067" lon="2.13555">
        <ele>133.60000610352</ele>
        <time>2015-08-17T20:09:24.000Z</time>
      </trkpt>
      <trkpt lat="48.80059" lon="2.13585">
        <ele>133.80000305176</ele>
        <time>2015-08-17T20:09:28.000Z</time>
      </trkpt>
      <trkpt lat="48.80053" lon="2.13607">
        <ele>133.80000305176</ele>
        <time>2015-08-17T20:09:31.000Z</time>
      </trkpt>
      <trkpt lat="48.80041" lon="2.1363">
        <ele>133.80000305176</ele>
        <time>2015-08-17T20:09:35.000Z</time>
      </trkpt>
      <trkpt lat="48.80032" lon="2.13653">
        <ele>134.39999389648</ele>
        <time>2015-08-17T20:09:39.000Z</time>
      </trkpt>
      <trkpt lat="48.80024" lon="2.13677">
        <ele>135</ele>
        <time>2015-08-17T20:09:43.000Z</time>
      </trkpt>
      <trkpt lat="48.80021" lon="2.13691">
        <ele>135</ele>
        <time>2015-08-17T20:09:45.000Z</time>
      </trkpt>
      <trkpt lat="48.80015" lon="2.13722">
        <ele>135.39999389648</ele>
        <time>2015-08-17T20:09:49.000Z</time>
      </trkpt>
      <trkpt lat="48.80005" lon="2.13762">
        <ele>135.60000610352</ele>
        <time>2015-08-17T20:09:54.000Z</time>
      </trkpt>
      <trkpt lat="48.80001" lon="2.13774">
        <ele>135.60000610352</ele>
        <time>2015-08-17T20:09:56.000Z</time>
      </trkpt>
      <trkpt lat="48.80001" lon="2.13777">
        <ele>135.80000305176</ele>
        <time>2015-08-17T20:10:00.000Z</time>
      </trkpt>
      <trkpt lat="48.80002" lon="2.13767">
        <ele>135.80000305176</ele>
        <time>2015-08-17T20:10:04.000Z</time>
      </trkpt>
      <trkpt lat="48.80002" lon="2.13773">
        <ele>135.80000305176</ele>
        <time>2015-08-17T20:10:09.000Z</time>
      </trkpt>
      <trkpt lat="48.79998" lon="2.13797">
        <ele>135.80000305176</ele>
        <time>2015-08-17T20:10:13.000Z</time>
      </trkpt>
      <trkpt lat="48.79993" lon="2.13826">
        <ele>135.80000305176</ele>
        <time>2015-08-17T20:10:17.000Z</time>
      </trkpt>
      <trkpt lat="48.79988" lon="2.13853">
        <ele>135.80000305176</ele>
        <time>2015-08-17T20:10:20.000Z</time>
      </trkpt>
      <trkpt lat="48.79982" lon="2.13881">
        <ele>135.80000305176</ele>
        <time>2015-08-17T20:10:23.000Z</time>
      </trkpt>
      <trkpt lat="48.79976" lon="2.13913">
        <ele>135.80000305176</ele>
        <time>2015-08-17T20:10:26.000Z</time>
      </trkpt>
      <trkpt lat="48.79967" lon="2.13948">
        <ele>136</ele>
        <time>2015-08-17T20:10:29.000Z</time>
      </trkpt>
      <trkpt lat="48.79958" lon="2.13983">
        <ele>136</ele>
        <time>2015-08-17T20:10:32.000Z</time>
      </trkpt>
      <trkpt lat="48.7995" lon="2.14016">
        <ele>136</ele>
        <time>2015-08-17T20:10:35.000Z</time>
      </trkpt>
      <trkpt lat="48.7994" lon="2.14051">
        <ele>136</ele>
        <time>2015-08-17T20:10:38.000Z</time>
      </trkpt>
      <trkpt lat="48.7993" lon="2.14085">
        <ele>136</ele>
        <time>2015-08-17T20:10:41.000Z</time>
      </trkpt>
      <trkpt lat="48.7992" lon="2.14121">
        <ele>136</ele>
        <time>2015-08-17T20:10:44.000Z</time>
      </trkpt>
      <trkpt lat="48.79913" lon="2.14158">
        <ele>136</ele>
        <time>2015-08-17T20:10:47.000Z</time>
      </trkpt>
      <trkpt lat="48.79907" lon="2.14196">
        <ele>136</ele>
        <time>2015-08-17T20:10:50.000Z</time>
      </trkpt>
      <trkpt lat="48.79905" lon="2.14207">
        <ele>136</ele>
        <time>2015-08-17T20:10:51.000Z</time>
      </trkpt>
      <trkpt lat="48.79904" lon="2.14234">
        <ele>136</ele>
        <time>2015-08-17T20:10:53.000Z</time>
      </trkpt>
      <trkpt lat="48.79905" lon="2.14259">
        <ele>136</ele>
        <time>2015-08-17T20:10:55.000Z</time>
      </trkpt>
      <trkpt lat="48.79904" lon="2.14306">
        <ele>136</ele>
        <time>2015-08-17T20:10:59.000Z</time>
      </trkpt>
      <trkpt lat="48.79905" lon="2.14336">
        <ele>136</ele>
        <time>2015-08-17T20:11:02.000Z</time>
      </trkpt>
      <trkpt lat="48.79904" lon="2.14347">
        <ele>136</ele>
        <time>2015-08-17T20:11:03.000Z</time>
      </trkpt>
      <trkpt lat="48.79883" lon="2.14374">
        <ele>136</ele>
        <time>2015-08-17T20:11:06.000Z</time>
      </trkpt>
      <trkpt lat="48.79877" lon="2.14381">
        <ele>136</ele>
        <time>2015-08-17T20:11:07.000Z</time>
      </trkpt>
      <trkpt lat="48.79861" lon="2.14391">
        <ele>136</ele>
        <time>2015-08-17T20:11:10.000Z</time>
      </trkpt>
      <trkpt lat="48.79859" lon="2.14393">
        <ele>136</ele>
        <time>2015-08-17T20:11:11.000Z</time>
      </trkpt>
      <trkpt lat="48.79853" lon="2.14392">
        <ele>136</ele>
        <time>2015-08-17T20:11:16.000Z</time>
      </trkpt>
      <trkpt lat="48.79852" lon="2.14391">
        <ele>136</ele>
        <time>2015-08-17T20:11:17.000Z</time>
      </trkpt>
      <trkpt lat="48.79847" lon="2.14404">
        <ele>135.39999389648</ele>
        <time>2015-08-17T20:11:22.000Z</time>
      </trkpt>
      <trkpt lat="48.79844" lon="2.14409">
        <ele>135.19999694824</ele>
        <time>2015-08-17T20:11:23.000Z</time>
      </trkpt>
      <trkpt lat="48.79836" lon="2.14437">
        <ele>134.60000610352</ele>
        <time>2015-08-17T20:11:27.000Z</time>
      </trkpt>
      <trkpt lat="48.79828" lon="2.14469">
        <ele>133.60000610352</ele>
        <time>2015-08-17T20:11:31.000Z</time>
      </trkpt>
      <trkpt lat="48.7982" lon="2.14501">
        <ele>132.80000305176</ele>
        <time>2015-08-17T20:11:35.000Z</time>
      </trkpt>
      <trkpt lat="48.79817" lon="2.14518">
        <ele>132.60000610352</ele>
        <time>2015-08-17T20:11:37.000Z</time>
      </trkpt>
      <trkpt lat="48.79816" lon="2.14535">
        <ele>132.39999389648</ele>
        <time>2015-08-17T20:11:39.000Z</time>
      </trkpt>
      <trkpt lat="48.79814" lon="2.14559">
        <ele>131.80000305176</ele>
        <time>2015-08-17T20:11:42.000Z</time>
      </trkpt>
      <trkpt lat="48.79813" lon="2.14582">
        <ele>131</ele>
        <time>2015-08-17T20:11:45.000Z</time>
      </trkpt>
      <trkpt lat="48.79816" lon="2.1462">
        <ele>130.39999389648</ele>
        <time>2015-08-17T20:11:50.000Z</time>
      </trkpt>
      <trkpt lat="48.79817" lon="2.14628">
        <ele>130.39999389648</ele>
        <time>2015-08-17T20:11:51.000Z</time>
      </trkpt>
      <trkpt lat="48.79817" lon="2.14656">
        <ele>130</ele>
        <time>2015-08-17T20:11:54.000Z</time>
      </trkpt>
      <trkpt lat="48.79817" lon="2.14693">
        <ele>129.80000305176</ele>
        <time>2015-08-17T20:11:58.000Z</time>
      </trkpt>
      <trkpt lat="48.79817" lon="2.14702">
        <ele>129.80000305176</ele>
        <time>2015-08-17T20:11:59.000Z</time>
      </trkpt>
      <trkpt lat="48.79816" lon="2.14737">
        <ele>129.60000610352</ele>
        <time>2015-08-17T20:12:03.000Z</time>
      </trkpt>
      <trkpt lat="48.79816" lon="2.14761">
        <ele>129.60000610352</ele>
        <time>2015-08-17T20:12:06.000Z</time>
      </trkpt>
      <trkpt lat="48.79816" lon="2.14776">
        <ele>129.60000610352</ele>
        <time>2015-08-17T20:12:08.000Z</time>
      </trkpt>
      <trkpt lat="48.79817" lon="2.14819">
        <ele>129.39999389648</ele>
        <time>2015-08-17T20:12:13.000Z</time>
      </trkpt>
      <trkpt lat="48.79818" lon="2.14848">
        <ele>129.39999389648</ele>
        <time>2015-08-17T20:12:16.000Z</time>
      </trkpt>
      <trkpt lat="48.79819" lon="2.1488">
        <ele>129.39999389648</ele>
        <time>2015-08-17T20:12:19.000Z</time>
      </trkpt>
      <trkpt lat="48.79819" lon="2.14892">
        <ele>129.39999389648</ele>
        <time>2015-08-17T20:12:20.000Z</time>
      </trkpt>
      <trkpt lat="48.79819" lon="2.14924">
        <ele>129.39999389648</ele>
        <time>2015-08-17T20:12:23.000Z</time>
      </trkpt>
      <trkpt lat="48.79818" lon="2.14956">
        <ele>129.39999389648</ele>
        <time>2015-08-17T20:12:26.000Z</time>
      </trkpt>
      <trkpt lat="48.79818" lon="2.14988">
        <ele>129.39999389648</ele>
        <time>2015-08-17T20:12:29.000Z</time>
      </trkpt>
      <trkpt lat="48.79819" lon="2.14998">
        <ele>129.39999389648</ele>
        <time>2015-08-17T20:12:30.000Z</time>
      </trkpt>
      <trkpt lat="48.79822" lon="2.15025">
        <ele>129.39999389648</ele>
        <time>2015-08-17T20:12:33.000Z</time>
      </trkpt>
      <trkpt lat="48.79822" lon="2.15035">
        <ele>129.39999389648</ele>
        <time>2015-08-17T20:12:34.000Z</time>
      </trkpt>
      <trkpt lat="48.79823" lon="2.15075">
        <ele>129</ele>
        <time>2015-08-17T20:12:38.000Z</time>
      </trkpt>
      <trkpt lat="48.79825" lon="2.15106">
        <ele>128.60000610352</ele>
        <time>2015-08-17T20:12:41.000Z</time>
      </trkpt>
      <trkpt lat="48.79826" lon="2.15136">
        <ele>128.19999694824</ele>
        <time>2015-08-17T20:12:44.000Z</time>
      </trkpt>
      <trkpt lat="48.79826" lon="2.15154">
        <ele>128</ele>
        <time>2015-08-17T20:12:46.000Z</time>
      </trkpt>
      <trkpt lat="48.79826" lon="2.15199">
        <ele>127</ele>
        <time>2015-08-17T20:12:51.000Z</time>
      </trkpt>
      <trkpt lat="48.79827" lon="2.15234">
        <ele>126.40000152588</ele>
        <time>2015-08-17T20:12:55.000Z</time>
      </trkpt>
      <trkpt lat="48.79827" lon="2.15267">
        <ele>126</ele>
        <time>2015-08-17T20:12:59.000Z</time>
      </trkpt>
      <trkpt lat="48.79827" lon="2.15274">
        <ele>125.59999847412</ele>
        <time>2015-08-17T20:13:00.000Z</time>
      </trkpt>
      <trkpt lat="48.7983" lon="2.15311">
        <ele>124.59999847412</ele>
        <time>2015-08-17T20:13:05.000Z</time>
      </trkpt>
      <trkpt lat="48.79832" lon="2.15339">
        <ele>124.19999694824</ele>
        <time>2015-08-17T20:13:09.000Z</time>
      </trkpt>
      <trkpt lat="48.79833" lon="2.15366">
        <ele>123.59999847412</ele>
        <time>2015-08-17T20:13:13.000Z</time>
      </trkpt>
      <trkpt lat="48.79834" lon="2.15401">
        <ele>122.80000305176</ele>
        <time>2015-08-17T20:13:17.000Z</time>
      </trkpt>
      <trkpt lat="48.79835" lon="2.15418">
        <ele>122.40000152588</ele>
        <time>2015-08-17T20:13:19.000Z</time>
      </trkpt>
      <trkpt lat="48.79836" lon="2.15443">
        <ele>122.19999694824</ele>
        <time>2015-08-17T20:13:22.000Z</time>
      </trkpt>
      <trkpt lat="48.79836" lon="2.15486">
        <ele>121.40000152588</ele>
        <time>2015-08-17T20:13:27.000Z</time>
      </trkpt>
      <trkpt lat="48.79836" lon="2.15495">
        <ele>121.19999694824</ele>
        <time>2015-08-17T20:13:28.000Z</time>
      </trkpt>
      <trkpt lat="48.79838" lon="2.15528">
        <ele>120.40000152588</ele>
        <time>2015-08-17T20:13:32.000Z</time>
      </trkpt>
      <trkpt lat="48.79838" lon="2.15555">
        <ele>120</ele>
        <time>2015-08-17T20:13:35.000Z</time>
      </trkpt>
      <trkpt lat="48.79839" lon="2.15581">
        <ele>119.80000305176</ele>
        <time>2015-08-17T20:13:38.000Z</time>
      </trkpt>
      <trkpt lat="48.79838" lon="2.1562">
        <ele>119.59999847412</ele>
        <time>2015-08-17T20:13:42.000Z</time>
      </trkpt>
      <trkpt lat="48.79838" lon="2.15649">
        <ele>118.80000305176</ele>
        <time>2015-08-17T20:13:45.000Z</time>
      </trkpt>
      <trkpt lat="48.79839" lon="2.15683">
        <ele>118.19999694824</ele>
        <time>2015-08-17T20:13:49.000Z</time>
      </trkpt>
      <trkpt lat="48.79839" lon="2.15714">
        <ele>117.80000305176</ele>
        <time>2015-08-17T20:13:53.000Z</time>
      </trkpt>
      <trkpt lat="48.7984" lon="2.15742">
        <ele>117.59999847412</ele>
        <time>2015-08-17T20:13:56.000Z</time>
      </trkpt>
      <trkpt lat="48.79842" lon="2.15776">
        <ele>117.40000152588</ele>
        <time>2015-08-17T20:14:00.000Z</time>
      </trkpt>
      <trkpt lat="48.79844" lon="2.15804">
        <ele>117.19999694824</ele>
        <time>2015-08-17T20:14:03.000Z</time>
      </trkpt>
      <trkpt lat="48.7985" lon="2.15833">
        <ele>117</ele>
        <time>2015-08-17T20:14:06.000Z</time>
      </trkpt>
      <trkpt lat="48.79852" lon="2.15843">
        <ele>116.80000305176</ele>
        <time>2015-08-17T20:14:07.000Z</time>
      </trkpt>
      <trkpt lat="48.79864" lon="2.15866">
        <ele>116.19999694824</ele>
        <time>2015-08-17T20:14:10.000Z</time>
      </trkpt>
      <trkpt lat="48.79879" lon="2.15889">
        <ele>115.80000305176</ele>
        <time>2015-08-17T20:14:13.000Z</time>
      </trkpt>
      <trkpt lat="48.79892" lon="2.15914">
        <ele>115.59999847412</ele>
        <time>2015-08-17T20:14:16.000Z</time>
      </trkpt>
      <trkpt lat="48.79896" lon="2.15921">
        <ele>115.59999847412</ele>
        <time>2015-08-17T20:14:17.000Z</time>
      </trkpt>
      <trkpt lat="48.79917" lon="2.15951">
        <ele>115.40000152588</ele>
        <time>2015-08-17T20:14:21.000Z</time>
      </trkpt>
      <trkpt lat="48.79929" lon="2.15974">
        <ele>115.19999694824</ele>
        <time>2015-08-17T20:14:24.000Z</time>
      </trkpt>
      <trkpt lat="48.79942" lon="2.15997">
        <ele>115.19999694824</ele>
        <time>2015-08-17T20:14:27.000Z</time>
      </trkpt>
      <trkpt lat="48.79958" lon="2.16019">
        <ele>115</ele>
        <time>2015-08-17T20:14:30.000Z</time>
      </trkpt>
      <trkpt lat="48.79964" lon="2.16026">
        <ele>115</ele>
        <time>2015-08-17T20:14:31.000Z</time>
      </trkpt>
      <trkpt lat="48.79985" lon="2.16054">
        <ele>115</ele>
        <time>2015-08-17T20:14:35.000Z</time>
      </trkpt>
      <trkpt lat="48.79989" lon="2.16062">
        <ele>115</ele>
        <time>2015-08-17T20:14:36.000Z</time>
      </trkpt>
      <trkpt lat="48.79999" lon="2.16085">
        <ele>115</ele>
        <time>2015-08-17T20:14:39.000Z</time>
      </trkpt>
      <trkpt lat="48.80002" lon="2.16093">
        <ele>115</ele>
        <time>2015-08-17T20:14:40.000Z</time>
      </trkpt>
      <trkpt lat="48.80008" lon="2.16106">
        <ele>115</ele>
        <time>2015-08-17T20:14:42.000Z</time>
      </trkpt>
      <trkpt lat="48.80032" lon="2.16132">
        <ele>115</ele>
        <time>2015-08-17T20:14:47.000Z</time>
      </trkpt>
      <trkpt lat="48.80037" lon="2.16139">
        <ele>115</ele>
        <time>2015-08-17T20:14:48.000Z</time>
      </trkpt>
      <trkpt lat="48.8007" lon="2.16194">
        <ele>114.80000305176</ele>
        <time>2015-08-17T20:14:55.000Z</time>
      </trkpt>
      <trkpt lat="48.80085" lon="2.16214">
        <ele>114.80000305176</ele>
        <time>2015-08-17T20:14:58.000Z</time>
      </trkpt>
      <trkpt lat="48.80092" lon="2.16224">
        <ele>114.80000305176</ele>
        <time>2015-08-17T20:15:00.000Z</time>
      </trkpt>
      <trkpt lat="48.80098" lon="2.16234">
        <ele>114.80000305176</ele>
        <time>2015-08-17T20:15:02.000Z</time>
      </trkpt>
      <trkpt lat="48.80104" lon="2.16244">
        <ele>114.80000305176</ele>
        <time>2015-08-17T20:15:04.000Z</time>
      </trkpt>
      <trkpt lat="48.80111" lon="2.16263">
        <ele>114.80000305176</ele>
        <time>2015-08-17T20:15:09.000Z</time>
      </trkpt>
      <trkpt lat="48.80114" lon="2.16267">
        <ele>114.80000305176</ele>
        <time>2015-08-17T20:15:10.000Z</time>
      </trkpt>
      <trkpt lat="48.80133" lon="2.16293">
        <ele>114.80000305176</ele>
        <time>2015-08-17T20:15:15.000Z</time>
      </trkpt>
      <trkpt lat="48.8015" lon="2.1632">
        <ele>114.80000305176</ele>
        <time>2015-08-17T20:15:19.000Z</time>
      </trkpt>
      <trkpt lat="48.80165" lon="2.16341">
        <ele>114.80000305176</ele>
        <time>2015-08-17T20:15:22.000Z</time>
      </trkpt>
      <trkpt lat="48.80175" lon="2.16356">
        <ele>114.80000305176</ele>
        <time>2015-08-17T20:15:24.000Z</time>
      </trkpt>
      <trkpt lat="48.80193" lon="2.16391">
        <ele>114.80000305176</ele>
        <time>2015-08-17T20:15:28.000Z</time>
      </trkpt>
      <trkpt lat="48.80197" lon="2.164">
        <ele>114.80000305176</ele>
        <time>2015-08-17T20:15:29.000Z</time>
      </trkpt>
      <trkpt lat="48.80217" lon="2.16431">
        <ele>114.80000305176</ele>
        <time>2015-08-17T20:15:33.000Z</time>
      </trkpt>
      <trkpt lat="48.80232" lon="2.16448">
        <ele>114.80000305176</ele>
        <time>2015-08-17T20:15:36.000Z</time>
      </trkpt>
      <trkpt lat="48.80237" lon="2.16454">
        <ele>114.80000305176</ele>
        <time>2015-08-17T20:15:37.000Z</time>
      </trkpt>
      <trkpt lat="48.80248" lon="2.16484">
        <ele>114.80000305176</ele>
        <time>2015-08-17T20:15:40.000Z</time>
      </trkpt>
      <trkpt lat="48.80251" lon="2.16495">
        <ele>114.80000305176</ele>
        <time>2015-08-17T20:15:41.000Z</time>
      </trkpt>
      <trkpt lat="48.80255" lon="2.16503">
        <ele>114.80000305176</ele>
        <time>2015-08-17T20:15:42.000Z</time>
      </trkpt>
      <trkpt lat="48.80267" lon="2.1653">
        <ele>114.80000305176</ele>
        <time>2015-08-17T20:15:45.000Z</time>
      </trkpt>
      <trkpt lat="48.80276" lon="2.1655">
        <ele>114.80000305176</ele>
        <time>2015-08-17T20:15:48.000Z</time>
      </trkpt>
      <trkpt lat="48.80283" lon="2.16564">
        <ele>114.80000305176</ele>
        <time>2015-08-17T20:15:50.000Z</time>
      </trkpt>
      <trkpt lat="48.80287" lon="2.16578">
        <ele>114.80000305176</ele>
        <time>2015-08-17T20:15:53.000Z</time>
      </trkpt>
      <trkpt lat="48.80288" lon="2.16587">
        <ele>114.40000152588</ele>
        <time>2015-08-17T20:15:58.000Z</time>
      </trkpt>
      <trkpt lat="48.80289" lon="2.16585">
        <ele>113.80000305176</ele>
        <time>2015-08-17T20:16:03.000Z</time>
      </trkpt>
      <trkpt lat="48.803" lon="2.16599">
        <ele>112.80000305176</ele>
        <time>2015-08-17T20:16:07.000Z</time>
      </trkpt>
      <trkpt lat="48.8032" lon="2.16619">
        <ele>111.19999694824</ele>
        <time>2015-08-17T20:16:12.000Z</time>
      </trkpt>
      <trkpt lat="48.80324" lon="2.16624">
        <ele>111</ele>
        <time>2015-08-17T20:16:13.000Z</time>
      </trkpt>
      <trkpt lat="48.80338" lon="2.16649">
        <ele>109.80000305176</ele>
        <time>2015-08-17T20:16:17.000Z</time>
      </trkpt>
      <trkpt lat="48.80348" lon="2.16667">
        <ele>108.80000305176</ele>
        <time>2015-08-17T20:16:20.000Z</time>
      </trkpt>
      <trkpt lat="48.80362" lon="2.16696">
        <ele>107.59999847412</ele>
        <time>2015-08-17T20:16:25.000Z</time>
      </trkpt>
      <trkpt lat="48.80365" lon="2.16702">
        <ele>107.19999694824</ele>
        <time>2015-08-17T20:16:26.000Z</time>
      </trkpt>
      <trkpt lat="48.80368" lon="2.16708">
        <ele>107</ele>
        <time>2015-08-17T20:16:27.000Z</time>
      </trkpt>
      <trkpt lat="48.80374" lon="2.16726">
        <ele>106.19999694824</ele>
        <time>2015-08-17T20:16:30.000Z</time>
      </trkpt>
      <trkpt lat="48.80382" lon="2.16749">
        <ele>105.40000152588</ele>
        <time>2015-08-17T20:16:34.000Z</time>
      </trkpt>
      <trkpt lat="48.80385" lon="2.1677">
        <ele>105</ele>
        <time>2015-08-17T20:16:37.000Z</time>
      </trkpt>
      <trkpt lat="48.8039" lon="2.16795">
        <ele>104.59999847412</ele>
        <time>2015-08-17T20:16:41.000Z</time>
      </trkpt>
      <trkpt lat="48.80392" lon="2.16807">
        <ele>104.59999847412</ele>
        <time>2015-08-17T20:16:43.000Z</time>
      </trkpt>
      <trkpt lat="48.80396" lon="2.16831">
        <ele>104.40000152588</ele>
        <time>2015-08-17T20:16:47.000Z</time>
      </trkpt>
      <trkpt lat="48.80399" lon="2.16866">
        <ele>104.19999694824</ele>
        <time>2015-08-17T20:16:53.000Z</time>
      </trkpt>
      <trkpt lat="48.80402" lon="2.16888">
        <ele>104</ele>
        <time>2015-08-17T20:16:57.000Z</time>
      </trkpt>
      <trkpt lat="48.80406" lon="2.16917">
        <ele>104</ele>
        <time>2015-08-17T20:17:03.000Z</time>
      </trkpt>
      <trkpt lat="48.80412" lon="2.16942">
        <ele>104</ele>
        <time>2015-08-17T20:17:09.000Z</time>
      </trkpt>
      <trkpt lat="48.80414" lon="2.16961">
        <ele>104</ele>
        <time>2015-08-17T20:17:15.000Z</time>
      </trkpt>
      <trkpt lat="48.80415" lon="2.16964">
        <ele>104</ele>
        <time>2015-08-17T20:17:16.000Z</time>
      </trkpt>
      <trkpt lat="48.80416" lon="2.16969">
        <ele>104</ele>
        <time>2015-08-17T20:17:18.000Z</time>
      </trkpt>
      <trkpt lat="48.80415" lon="2.16984">
        <ele>104</ele>
        <time>2015-08-17T20:17:23.000Z</time>
      </trkpt>
      <trkpt lat="48.80415" lon="2.17002">
        <ele>104</ele>
        <time>2015-08-17T20:17:27.000Z</time>
      </trkpt>
      <trkpt lat="48.80414" lon="2.17007">
        <ele>104</ele>
        <time>2015-08-17T20:17:28.000Z</time>
      </trkpt>
      <trkpt lat="48.80413" lon="2.17033">
        <ele>104</ele>
        <time>2015-08-17T20:17:32.000Z</time>
      </trkpt>
      <trkpt lat="48.80412" lon="2.1704">
        <ele>104</ele>
        <time>2015-08-17T20:17:33.000Z</time>
      </trkpt>
      <trkpt lat="48.80411" lon="2.17071">
        <ele>104</ele>
        <time>2015-08-17T20:17:37.000Z</time>
      </trkpt>
      <trkpt lat="48.80411" lon="2.17101">
        <ele>104</ele>
        <time>2015-08-17T20:17:41.000Z</time>
      </trkpt>
      <trkpt lat="48.80411" lon="2.17132">
        <ele>104.59999847412</ele>
        <time>2015-08-17T20:17:45.000Z</time>
      </trkpt>
      <trkpt lat="48.80412" lon="2.1716">
        <ele>105</ele>
        <time>2015-08-17T20:17:49.000Z</time>
      </trkpt>
      <trkpt lat="48.80411" lon="2.17175">
        <ele>105.19999694824</ele>
        <time>2015-08-17T20:17:51.000Z</time>
      </trkpt>
      <trkpt lat="48.80411" lon="2.17191">
        <ele>105.80000305176</ele>
        <time>2015-08-17T20:17:54.000Z</time>
      </trkpt>
      <trkpt lat="48.80411" lon="2.17204">
        <ele>106.40000152588</ele>
        <time>2015-08-17T20:17:56.000Z</time>
      </trkpt>
      <trkpt lat="48.8041" lon="2.17246">
        <ele>107.40000152588</ele>
        <time>2015-08-17T20:18:01.000Z</time>
      </trkpt>
      <trkpt lat="48.8041" lon="2.17254">
        <ele>107.59999847412</ele>
        <time>2015-08-17T20:18:02.000Z</time>
      </trkpt>
      <trkpt lat="48.80408" lon="2.17288">
        <ele>108.59999847412</ele>
        <time>2015-08-17T20:18:06.000Z</time>
      </trkpt>
      <trkpt lat="48.80407" lon="2.17322">
        <ele>109.19999694824</ele>
        <time>2015-08-17T20:18:10.000Z</time>
      </trkpt>
      <trkpt lat="48.80408" lon="2.17339">
        <ele>109.40000152588</ele>
        <time>2015-08-17T20:18:12.000Z</time>
      </trkpt>
      <trkpt lat="48.8041" lon="2.17353">
        <ele>109.59999847412</ele>
        <time>2015-08-17T20:18:14.000Z</time>
      </trkpt>
      <trkpt lat="48.8041" lon="2.17396">
        <ele>110.19999694824</ele>
        <time>2015-08-17T20:18:19.000Z</time>
      </trkpt>
      <trkpt lat="48.80409" lon="2.17426">
        <ele>110.80000305176</ele>
        <time>2015-08-17T20:18:22.000Z</time>
      </trkpt>
      <trkpt lat="48.80408" lon="2.17455">
        <ele>111.19999694824</ele>
        <time>2015-08-17T20:18:25.000Z</time>
      </trkpt>
      <trkpt lat="48.80407" lon="2.17484">
        <ele>111.59999847412</ele>
        <time>2015-08-17T20:18:28.000Z</time>
      </trkpt>
      <trkpt lat="48.80405" lon="2.17512">
        <ele>111.80000305176</ele>
        <time>2015-08-17T20:18:31.000Z</time>
      </trkpt>
      <trkpt lat="48.80405" lon="2.17548">
        <ele>112</ele>
        <time>2015-08-17T20:18:35.000Z</time>
      </trkpt>
      <trkpt lat="48.80405" lon="2.17584">
        <ele>112.19999694824</ele>
        <time>2015-08-17T20:18:39.000Z</time>
      </trkpt>
      <trkpt lat="48.80408" lon="2.17609">
        <ele>112.40000152588</ele>
        <time>2015-08-17T20:18:42.000Z</time>
      </trkpt>
      <trkpt lat="48.80411" lon="2.17641">
        <ele>112.40000152588</ele>
        <time>2015-08-17T20:18:46.000Z</time>
      </trkpt>
      <trkpt lat="48.80414" lon="2.1767">
        <ele>112.40000152588</ele>
        <time>2015-08-17T20:18:50.000Z</time>
      </trkpt>
      <trkpt lat="48.8042" lon="2.17702">
        <ele>111.80000305176</ele>
        <time>2015-08-17T20:18:55.000Z</time>
      </trkpt>
      <trkpt lat="48.80421" lon="2.17708">
        <ele>111.80000305176</ele>
        <time>2015-08-17T20:18:56.000Z</time>
      </trkpt>
      <trkpt lat="48.8042" lon="2.17717">
        <ele>111.40000152588</ele>
        <time>2015-08-17T20:18:58.000Z</time>
      </trkpt>
      <trkpt lat="48.80426" lon="2.17746">
        <ele>111</ele>
        <time>2015-08-17T20:19:04.000Z</time>
      </trkpt>
      <trkpt lat="48.80426" lon="2.17749">
        <ele>110.80000305176</ele>
        <time>2015-08-17T20:19:05.000Z</time>
      </trkpt>
      <trkpt lat="48.80427" lon="2.17774">
        <ele>110.19999694824</ele>
        <time>2015-08-17T20:19:10.000Z</time>
      </trkpt>
      <trkpt lat="48.80428" lon="2.1778">
        <ele>110</ele>
        <time>2015-08-17T20:19:11.000Z</time>
      </trkpt>
      <trkpt lat="48.80434" lon="2.17807">
        <ele>109.19999694824</ele>
        <time>2015-08-17T20:19:17.000Z</time>
      </trkpt>
      <trkpt lat="48.8044" lon="2.17831">
        <ele>108.80000305176</ele>
        <time>2015-08-17T20:19:22.000Z</time>
      </trkpt>
      <trkpt lat="48.80446" lon="2.17861">
        <ele>108.59999847412</ele>
        <time>2015-08-17T20:19:28.000Z</time>
      </trkpt>
      <trkpt lat="48.80453" lon="2.17883">
        <ele>108.40000152588</ele>
        <time>2015-08-17T20:19:33.000Z</time>
      </trkpt>
      <trkpt lat="48.80459" lon="2.17908">
        <ele>108.40000152588</ele>
        <time>2015-08-17T20:19:38.000Z</time>
      </trkpt>
      <trkpt lat="48.80463" lon="2.17936">
        <ele>108.40000152588</ele>
        <time>2015-08-17T20:19:43.000Z</time>
      </trkpt>
      <trkpt lat="48.80469" lon="2.17965">
        <ele>108.19999694824</ele>
        <time>2015-08-17T20:19:48.000Z</time>
      </trkpt>
      <trkpt lat="48.80472" lon="2.17989">
        <ele>108.19999694824</ele>
        <time>2015-08-17T20:19:52.000Z</time>
      </trkpt>
      <trkpt lat="48.80479" lon="2.1802">
        <ele>108.19999694824</ele>
        <time>2015-08-17T20:19:57.000Z</time>
      </trkpt>
      <trkpt lat="48.8048" lon="2.18026">
        <ele>108.19999694824</ele>
        <time>2015-08-17T20:19:58.000Z</time>
      </trkpt>
      <trkpt lat="48.80483" lon="2.18038">
        <ele>108.19999694824</ele>
        <time>2015-08-17T20:20:00.000Z</time>
      </trkpt>
      <trkpt lat="48.80487" lon="2.18067">
        <ele>108.19999694824</ele>
        <time>2015-08-17T20:20:04.000Z</time>
      </trkpt>
      <trkpt lat="48.80488" lon="2.18075">
        <ele>108.19999694824</ele>
        <time>2015-08-17T20:20:05.000Z</time>
      </trkpt>
      <trkpt lat="48.80495" lon="2.18114">
        <ele>108.19999694824</ele>
        <time>2015-08-17T20:20:10.000Z</time>
      </trkpt>
      <trkpt lat="48.80496" lon="2.18121">
        <ele>108.19999694824</ele>
        <time>2015-08-17T20:20:11.000Z</time>
      </trkpt>
      <trkpt lat="48.80497" lon="2.18129">
        <ele>108.19999694824</ele>
        <time>2015-08-17T20:20:12.000Z</time>
      </trkpt>
      <trkpt lat="48.80501" lon="2.18153">
        <ele>108.19999694824</ele>
        <time>2015-08-17T20:20:15.000Z</time>
      </trkpt>
      <trkpt lat="48.80503" lon="2.18182">
        <ele>108.19999694824</ele>
        <time>2015-08-17T20:20:19.000Z</time>
      </trkpt>
      <trkpt lat="48.80501" lon="2.18201">
        <ele>108.19999694824</ele>
        <time>2015-08-17T20:20:21.000Z</time>
      </trkpt>
      <trkpt lat="48.80502" lon="2.18222">
        <ele>108.19999694824</ele>
        <time>2015-08-17T20:20:23.000Z</time>
      </trkpt>
      <trkpt lat="48.8051" lon="2.18262">
        <ele>108.19999694824</ele>
        <time>2015-08-17T20:20:27.000Z</time>
      </trkpt>
      <trkpt lat="48.80513" lon="2.18271">
        <ele>108.19999694824</ele>
        <time>2015-08-17T20:20:28.000Z</time>
      </trkpt>
      <trkpt lat="48.80516" lon="2.18281">
        <ele>108.19999694824</ele>
        <time>2015-08-17T20:20:29.000Z</time>
      </trkpt>
      <trkpt lat="48.80522" lon="2.18302">
        <ele>108.19999694824</ele>
        <time>2015-08-17T20:20:31.000Z</time>
      </trkpt>
      <trkpt lat="48.8053" lon="2.18332">
        <ele>108.80000305176</ele>
        <time>2015-08-17T20:20:34.000Z</time>
      </trkpt>
      <trkpt lat="48.80543" lon="2.18366">
        <ele>109.40000152588</ele>
        <time>2015-08-17T20:20:38.000Z</time>
      </trkpt>
      <trkpt lat="48.80545" lon="2.18375">
        <ele>109.40000152588</ele>
        <time>2015-08-17T20:20:39.000Z</time>
      </trkpt>
      <trkpt lat="48.80555" lon="2.18401">
        <ele>109.59999847412</ele>
        <time>2015-08-17T20:20:42.000Z</time>
      </trkpt>
      <trkpt lat="48.80569" lon="2.1842">
        <ele>110.40000152588</ele>
        <time>2015-08-17T20:20:45.000Z</time>
      </trkpt>
      <trkpt lat="48.80573" lon="2.18427">
        <ele>110.59999847412</ele>
        <time>2015-08-17T20:20:46.000Z</time>
      </trkpt>
      <trkpt lat="48.80577" lon="2.18432">
        <ele>110.80000305176</ele>
        <time>2015-08-17T20:20:47.000Z</time>
      </trkpt>
      <trkpt lat="48.806" lon="2.1846">
        <ele>111.40000152588</ele>
        <time>2015-08-17T20:20:52.000Z</time>
      </trkpt>
      <trkpt lat="48.80606" lon="2.18465">
        <ele>111.59999847412</ele>
        <time>2015-08-17T20:20:53.000Z</time>
      </trkpt>
      <trkpt lat="48.80625" lon="2.1848">
        <ele>111.80000305176</ele>
        <time>2015-08-17T20:20:57.000Z</time>
      </trkpt>
      <trkpt lat="48.80628" lon="2.18498">
        <ele>112</ele>
        <time>2015-08-17T20:21:00.000Z</time>
      </trkpt>
      <trkpt lat="48.80633" lon="2.18511">
        <ele>112</ele>
        <time>2015-08-17T20:21:02.000Z</time>
      </trkpt>
      <trkpt lat="48.80644" lon="2.18524">
        <ele>112.19999694824</ele>
        <time>2015-08-17T20:21:04.000Z</time>
      </trkpt>
      <trkpt lat="48.80668" lon="2.18548">
        <ele>112.19999694824</ele>
        <time>2015-08-17T20:21:08.000Z</time>
      </trkpt>
      <trkpt lat="48.80674" lon="2.18552">
        <ele>112.19999694824</ele>
        <time>2015-08-17T20:21:09.000Z</time>
      </trkpt>
      <trkpt lat="48.80684" lon="2.18558">
        <ele>112</ele>
        <time>2015-08-17T20:21:11.000Z</time>
      </trkpt>
      <trkpt lat="48.80708" lon="2.18576">
        <ele>111.40000152588</ele>
        <time>2015-08-17T20:21:15.000Z</time>
      </trkpt>
      <trkpt lat="48.80714" lon="2.18583">
        <ele>111.40000152588</ele>
        <time>2015-08-17T20:21:16.000Z</time>
      </trkpt>
      <trkpt lat="48.8073" lon="2.18599">
        <ele>111</ele>
        <time>2015-08-17T20:21:19.000Z</time>
      </trkpt>
      <trkpt lat="48.8075" lon="2.1862">
        <ele>110.80000305176</ele>
        <time>2015-08-17T20:21:22.000Z</time>
      </trkpt>
      <trkpt lat="48.80766" lon="2.18639">
        <ele>110.19999694824</ele>
        <time>2015-08-17T20:21:25.000Z</time>
      </trkpt>
      <trkpt lat="48.8077" lon="2.18645">
        <ele>110</ele>
        <time>2015-08-17T20:21:26.000Z</time>
      </trkpt>
      <trkpt lat="48.80773" lon="2.18651">
        <ele>109.80000305176</ele>
        <time>2015-08-17T20:21:27.000Z</time>
      </trkpt>
      <trkpt lat="48.80796" lon="2.18674">
        <ele>109.19999694824</ele>
        <time>2015-08-17T20:21:31.000Z</time>
      </trkpt>
      <trkpt lat="48.80802" lon="2.1868">
        <ele>109.19999694824</ele>
        <time>2015-08-17T20:21:32.000Z</time>
      </trkpt>
      <trkpt lat="48.8082" lon="2.18699">
        <ele>109</ele>
        <time>2015-08-17T20:21:35.000Z</time>
      </trkpt>
      <trkpt lat="48.80831" lon="2.18711">
        <ele>108.80000305176</ele>
        <time>2015-08-17T20:21:37.000Z</time>
      </trkpt>
      <trkpt lat="48.80853" lon="2.18739">
        <ele>108.59999847412</ele>
        <time>2015-08-17T20:21:42.000Z</time>
      </trkpt>
      <trkpt lat="48.80861" lon="2.18751">
        <ele>108.40000152588</ele>
        <time>2015-08-17T20:21:45.000Z</time>
      </trkpt>
      <trkpt lat="48.80866" lon="2.1876">
        <ele>108.40000152588</ele>
        <time>2015-08-17T20:21:51.000Z</time>
      </trkpt>
      <trkpt lat="48.80865" lon="2.1876">
        <ele>108.40000152588</ele>
        <time>2015-08-17T20:21:53.000Z</time>
      </trkpt>
      <trkpt lat="48.80867" lon="2.18759">
        <ele>108.40000152588</ele>
        <time>2015-08-17T20:22:01.000Z</time>
      </trkpt>
      <trkpt lat="48.80873" lon="2.18764">
        <ele>108.40000152588</ele>
        <time>2015-08-17T20:22:03.000Z</time>
      </trkpt>
      <trkpt lat="48.80888" lon="2.1879">
        <ele>108.19999694824</ele>
        <time>2015-08-17T20:22:08.000Z</time>
      </trkpt>
      <trkpt lat="48.809" lon="2.1881">
        <ele>108.19999694824</ele>
        <time>2015-08-17T20:22:11.000Z</time>
      </trkpt>
      <trkpt lat="48.80904" lon="2.18816">
        <ele>108.19999694824</ele>
        <time>2015-08-17T20:22:12.000Z</time>
      </trkpt>
      <trkpt lat="48.80918" lon="2.18837">
        <ele>108.19999694824</ele>
        <time>2015-08-17T20:22:16.000Z</time>
      </trkpt>
      <trkpt lat="48.8093" lon="2.18861">
        <ele>108.19999694824</ele>
        <time>2015-08-17T20:22:20.000Z</time>
      </trkpt>
      <trkpt lat="48.80934" lon="2.18866">
        <ele>108.19999694824</ele>
        <time>2015-08-17T20:22:21.000Z</time>
      </trkpt>
      <trkpt lat="48.8094" lon="2.18886">
        <ele>108.19999694824</ele>
        <time>2015-08-17T20:22:24.000Z</time>
      </trkpt>
      <trkpt lat="48.80942" lon="2.18892">
        <ele>108.19999694824</ele>
        <time>2015-08-17T20:22:25.000Z</time>
      </trkpt>
      <trkpt lat="48.80955" lon="2.1892">
        <ele>108.19999694824</ele>
        <time>2015-08-17T20:22:29.000Z</time>
      </trkpt>
      <trkpt lat="48.80971" lon="2.18953">
        <ele>107.59999847412</ele>
        <time>2015-08-17T20:22:34.000Z</time>
      </trkpt>
      <trkpt lat="48.80982" lon="2.18981">
        <ele>107</ele>
        <time>2015-08-17T20:22:38.000Z</time>
      </trkpt>
      <trkpt lat="48.80985" lon="2.18987">
        <ele>106.80000305176</ele>
        <time>2015-08-17T20:22:39.000Z</time>
      </trkpt>
      <trkpt lat="48.80992" lon="2.18998">
        <ele>106.19999694824</ele>
        <time>2015-08-17T20:22:41.000Z</time>
      </trkpt>
      <trkpt lat="48.81007" lon="2.19031">
        <ele>105.19999694824</ele>
        <time>2015-08-17T20:22:46.000Z</time>
      </trkpt>
      <trkpt lat="48.81017" lon="2.1905">
        <ele>104.80000305176</ele>
        <time>2015-08-17T20:22:49.000Z</time>
      </trkpt>
      <trkpt lat="48.81033" lon="2.19085">
        <ele>104.19999694824</ele>
        <time>2015-08-17T20:22:54.000Z</time>
      </trkpt>
      <trkpt lat="48.81045" lon="2.19113">
        <ele>103.40000152588</ele>
        <time>2015-08-17T20:22:58.000Z</time>
      </trkpt>
      <trkpt lat="48.81053" lon="2.19133">
        <ele>103</ele>
        <time>2015-08-17T20:23:01.000Z</time>
      </trkpt>
      <trkpt lat="48.81068" lon="2.19152">
        <ele>102.59999847412</ele>
        <time>2015-08-17T20:23:05.000Z</time>
      </trkpt>
      <trkpt lat="48.81077" lon="2.19161">
        <ele>102.40000152588</ele>
        <time>2015-08-17T20:23:08.000Z</time>
      </trkpt>
      <trkpt lat="48.81079" lon="2.19162">
        <ele>102.40000152588</ele>
        <time>2015-08-17T20:23:09.000Z</time>
      </trkpt>
      <trkpt lat="48.81084" lon="2.19164">
        <ele>100.59999847412</ele>
        <time>2015-08-17T20:23:40.000Z</time>
      </trkpt>
      <trkpt lat="48.81102" lon="2.19171">
        <ele>100.19999694824</ele>
        <time>2015-08-17T20:23:44.000Z</time>
      </trkpt>
      <trkpt lat="48.8112" lon="2.19176">
        <ele>99.800003051758</ele>
        <time>2015-08-17T20:23:47.000Z</time>
      </trkpt>
      <trkpt lat="48.81142" lon="2.19184">
        <ele>99.199996948242</ele>
        <time>2015-08-17T20:23:50.000Z</time>
      </trkpt>
      <trkpt lat="48.8115" lon="2.19185">
        <ele>99</ele>
        <time>2015-08-17T20:23:51.000Z</time>
      </trkpt>
      <trkpt lat="48.81185" lon="2.19189">
        <ele>98.599998474121</ele>
        <time>2015-08-17T20:23:55.000Z</time>
      </trkpt>
      <trkpt lat="48.81205" lon="2.19192">
        <ele>98.400001525879</ele>
        <time>2015-08-17T20:23:57.000Z</time>
      </trkpt>
      <trkpt lat="48.81215" lon="2.19193">
        <ele>98.199996948242</ele>
        <time>2015-08-17T20:23:58.000Z</time>
      </trkpt>
      <trkpt lat="48.81242" lon="2.19198">
        <ele>98</ele>
        <time>2015-08-17T20:24:01.000Z</time>
      </trkpt>
      <trkpt lat="48.81261" lon="2.19199">
        <ele>98</ele>
        <time>2015-08-17T20:24:03.000Z</time>
      </trkpt>
      <trkpt lat="48.81279" lon="2.192">
        <ele>98</ele>
        <time>2015-08-17T20:24:05.000Z</time>
      </trkpt>
      <trkpt lat="48.81305" lon="2.19205">
        <ele>97.800003051758</ele>
        <time>2015-08-17T20:24:08.000Z</time>
      </trkpt>
      <trkpt lat="48.81324" lon="2.1921">
        <ele>97.800003051758</ele>
        <time>2015-08-17T20:24:10.000Z</time>
      </trkpt>
      <trkpt lat="48.81333" lon="2.19214">
        <ele>97.800003051758</ele>
        <time>2015-08-17T20:24:11.000Z</time>
      </trkpt>
      <trkpt lat="48.8135" lon="2.19225">
        <ele>97.800003051758</ele>
        <time>2015-08-17T20:24:13.000Z</time>
      </trkpt>
      <trkpt lat="48.81367" lon="2.19237">
        <ele>97.400001525879</ele>
        <time>2015-08-17T20:24:15.000Z</time>
      </trkpt>
      <trkpt lat="48.81392" lon="2.19253">
        <ele>96.800003051758</ele>
        <time>2015-08-17T20:24:18.000Z</time>
      </trkpt>
      <trkpt lat="48.81399" lon="2.19258">
        <ele>96.599998474121</ele>
        <time>2015-08-17T20:24:19.000Z</time>
      </trkpt>
      <trkpt lat="48.81428" lon="2.19283">
        <ele>96.400001525879</ele>
        <time>2015-08-17T20:24:23.000Z</time>
      </trkpt>
      <trkpt lat="48.81435" lon="2.1929">
        <ele>96.199996948242</ele>
        <time>2015-08-17T20:24:24.000Z</time>
      </trkpt>
      <trkpt lat="48.81448" lon="2.19304">
        <ele>96</ele>
        <time>2015-08-17T20:24:26.000Z</time>
      </trkpt>
      <trkpt lat="48.81478" lon="2.19329">
        <ele>95.199996948242</ele>
        <time>2015-08-17T20:24:30.000Z</time>
      </trkpt>
      <trkpt lat="48.815" lon="2.19345">
        <ele>94.199996948242</ele>
        <time>2015-08-17T20:24:33.000Z</time>
      </trkpt>
      <trkpt lat="48.81508" lon="2.19349">
        <ele>94</ele>
        <time>2015-08-17T20:24:34.000Z</time>
      </trkpt>
      <trkpt lat="48.81528" lon="2.19367">
        <ele>93.199996948242</ele>
        <time>2015-08-17T20:24:37.000Z</time>
      </trkpt>
      <trkpt lat="48.81535" lon="2.19373">
        <ele>92.800003051758</ele>
        <time>2015-08-17T20:24:38.000Z</time>
      </trkpt>
      <trkpt lat="48.81559" lon="2.19386">
        <ele>91.599998474121</ele>
        <time>2015-08-17T20:24:42.000Z</time>
      </trkpt>
      <trkpt lat="48.81565" lon="2.1939">
        <ele>91.199996948242</ele>
        <time>2015-08-17T20:24:43.000Z</time>
      </trkpt>
      <trkpt lat="48.8159" lon="2.19407">
        <ele>89.800003051758</ele>
        <time>2015-08-17T20:24:48.000Z</time>
      </trkpt>
      <trkpt lat="48.81605" lon="2.19421">
        <ele>88.800003051758</ele>
        <time>2015-08-17T20:24:52.000Z</time>
      </trkpt>
      <trkpt lat="48.81618" lon="2.19436">
        <ele>88.400001525879</ele>
        <time>2015-08-17T20:24:55.000Z</time>
      </trkpt>
      <trkpt lat="48.81636" lon="2.19462">
        <ele>87.800003051758</ele>
        <time>2015-08-17T20:25:00.000Z</time>
      </trkpt>
      <trkpt lat="48.81638" lon="2.19465">
        <ele>87.800003051758</ele>
        <time>2015-08-17T20:25:01.000Z</time>
      </trkpt>
      <trkpt lat="48.81642" lon="2.19473">
        <ele>87.599998474121</ele>
        <time>2015-08-17T20:25:03.000Z</time>
      </trkpt>
      <trkpt lat="48.81643" lon="2.19474">
        <ele>87.400001525879</ele>
        <time>2015-08-17T20:25:07.000Z</time>
      </trkpt>
      <trkpt lat="48.81645" lon="2.19475">
        <ele>87.199996948242</ele>
        <time>2015-08-17T20:25:13.000Z</time>
      </trkpt>
      <trkpt lat="48.81652" lon="2.19485">
        <ele>87.199996948242</ele>
        <time>2015-08-17T20:25:17.000Z</time>
      </trkpt>
      <trkpt lat="48.81666" lon="2.19506">
        <ele>87</ele>
        <time>2015-08-17T20:25:21.000Z</time>
      </trkpt>
      <trkpt lat="48.81679" lon="2.19525">
        <ele>87</ele>
        <time>2015-08-17T20:25:24.000Z</time>
      </trkpt>
      <trkpt lat="48.81687" lon="2.19537">
        <ele>87</ele>
        <time>2015-08-17T20:25:26.000Z</time>
      </trkpt>
      <trkpt lat="48.817" lon="2.19561">
        <ele>86.599998474121</ele>
        <time>2015-08-17T20:25:29.000Z</time>
      </trkpt>
      <trkpt lat="48.81719" lon="2.19589">
        <ele>86</ele>
        <time>2015-08-17T20:25:33.000Z</time>
      </trkpt>
      <trkpt lat="48.81734" lon="2.19608">
        <ele>85.800003051758</ele>
        <time>2015-08-17T20:25:36.000Z</time>
      </trkpt>
      <trkpt lat="48.81748" lon="2.19627">
        <ele>85.599998474121</ele>
        <time>2015-08-17T20:25:39.000Z</time>
      </trkpt>
      <trkpt lat="48.81758" lon="2.1964">
        <ele>85.400001525879</ele>
        <time>2015-08-17T20:25:41.000Z</time>
      </trkpt>
      <trkpt lat="48.81777" lon="2.19666">
        <ele>85</ele>
        <time>2015-08-17T20:25:45.000Z</time>
      </trkpt>
      <trkpt lat="48.81791" lon="2.19686">
        <ele>84.400001525879</ele>
        <time>2015-08-17T20:25:48.000Z</time>
      </trkpt>
      <trkpt lat="48.81796" lon="2.19692">
        <ele>84.199996948242</ele>
        <time>2015-08-17T20:25:49.000Z</time>
      </trkpt>
      <trkpt lat="48.81822" lon="2.19711">
        <ele>83.800003051758</ele>
        <time>2015-08-17T20:25:54.000Z</time>
      </trkpt>
      <trkpt lat="48.81837" lon="2.19727">
        <ele>83.599998474121</ele>
        <time>2015-08-17T20:25:57.000Z</time>
      </trkpt>
      <trkpt lat="48.81841" lon="2.19735">
        <ele>83.400001525879</ele>
        <time>2015-08-17T20:25:58.000Z</time>
      </trkpt>
      <trkpt lat="48.81859" lon="2.1977">
        <ele>83.199996948242</ele>
        <time>2015-08-17T20:26:03.000Z</time>
      </trkpt>
      <trkpt lat="48.81867" lon="2.19783">
        <ele>83.199996948242</ele>
        <time>2015-08-17T20:26:05.000Z</time>
      </trkpt>
      <trkpt lat="48.81884" lon="2.19817">
        <ele>83.199996948242</ele>
        <time>2015-08-17T20:26:10.000Z</time>
      </trkpt>
      <trkpt lat="48.819" lon="2.19831">
        <ele>83</ele>
        <time>2015-08-17T20:26:14.000Z</time>
      </trkpt>
      <trkpt lat="48.81904" lon="2.19835">
        <ele>83</ele>
        <time>2015-08-17T20:26:15.000Z</time>
      </trkpt>
      <trkpt lat="48.81909" lon="2.1984">
        <ele>83</ele>
        <time>2015-08-17T20:26:16.000Z</time>
      </trkpt>
      <trkpt lat="48.81918" lon="2.19862">
        <ele>83</ele>
        <time>2015-08-17T20:26:19.000Z</time>
      </trkpt>
      <trkpt lat="48.81921" lon="2.19871">
        <ele>83</ele>
        <time>2015-08-17T20:26:20.000Z</time>
      </trkpt>
      <trkpt lat="48.81926" lon="2.19886">
        <ele>83</ele>
        <time>2015-08-17T20:26:22.000Z</time>
      </trkpt>
      <trkpt lat="48.81933" lon="2.19899">
        <ele>83</ele>
        <time>2015-08-17T20:26:24.000Z</time>
      </trkpt>
      <trkpt lat="48.81936" lon="2.19906">
        <ele>83</ele>
        <time>2015-08-17T20:26:25.000Z</time>
      </trkpt>
      <trkpt lat="48.81951" lon="2.19928">
        <ele>83</ele>
        <time>2015-08-17T20:26:29.000Z</time>
      </trkpt>
      <trkpt lat="48.81966" lon="2.19956">
        <ele>83</ele>
        <time>2015-08-17T20:26:34.000Z</time>
      </trkpt>
      <trkpt lat="48.81981" lon="2.19967">
        <ele>83</ele>
        <time>2015-08-17T20:26:38.000Z</time>
      </trkpt>
      <trkpt lat="48.81985" lon="2.19972">
        <ele>83</ele>
        <time>2015-08-17T20:26:39.000Z</time>
      </trkpt>
      <trkpt lat="48.81991" lon="2.19982">
        <ele>83</ele>
        <time>2015-08-17T20:26:41.000Z</time>
      </trkpt>
      <trkpt lat="48.81998" lon="2.19992">
        <ele>83</ele>
        <time>2015-08-17T20:26:43.000Z</time>
      </trkpt>
      <trkpt lat="48.82016" lon="2.20029">
        <ele>83</ele>
        <time>2015-08-17T20:26:48.000Z</time>
      </trkpt>
      <trkpt lat="48.82019" lon="2.20034">
        <ele>83</ele>
        <time>2015-08-17T20:26:49.000Z</time>
      </trkpt>
      <trkpt lat="48.82029" lon="2.20056">
        <ele>83</ele>
        <time>2015-08-17T20:26:52.000Z</time>
      </trkpt>
      <trkpt lat="48.82042" lon="2.2008">
        <ele>83</ele>
        <time>2015-08-17T20:26:55.000Z</time>
      </trkpt>
      <trkpt lat="48.82061" lon="2.20112">
        <ele>83</ele>
        <time>2015-08-17T20:26:59.000Z</time>
      </trkpt>
      <trkpt lat="48.82069" lon="2.20127">
        <ele>83</ele>
        <time>2015-08-17T20:27:01.000Z</time>
      </trkpt>
      <trkpt lat="48.8209" lon="2.20157">
        <ele>83</ele>
        <time>2015-08-17T20:27:05.000Z</time>
      </trkpt>
      <trkpt lat="48.82102" lon="2.20177">
        <ele>83</ele>
        <time>2015-08-17T20:27:08.000Z</time>
      </trkpt>
      <trkpt lat="48.82106" lon="2.20187">
        <ele>83</ele>
        <time>2015-08-17T20:27:09.000Z</time>
      </trkpt>
      <trkpt lat="48.82113" lon="2.20205">
        <ele>83</ele>
        <time>2015-08-17T20:27:11.000Z</time>
      </trkpt>
      <trkpt lat="48.82125" lon="2.20242">
        <ele>83</ele>
        <time>2015-08-17T20:27:15.000Z</time>
      </trkpt>
      <trkpt lat="48.82133" lon="2.20272">
        <ele>82.800003051758</ele>
        <time>2015-08-17T20:27:18.000Z</time>
      </trkpt>
      <trkpt lat="48.82141" lon="2.20301">
        <ele>82.199996948242</ele>
        <time>2015-08-17T20:27:21.000Z</time>
      </trkpt>
      <trkpt lat="48.82147" lon="2.20327">
        <ele>81.800003051758</ele>
        <time>2015-08-17T20:27:24.000Z</time>
      </trkpt>
      <trkpt lat="48.82151" lon="2.20345">
        <ele>81.599998474121</ele>
        <time>2015-08-17T20:27:26.000Z</time>
      </trkpt>
      <trkpt lat="48.82154" lon="2.20383">
        <ele>81</ele>
        <time>2015-08-17T20:27:30.000Z</time>
      </trkpt>
      <trkpt lat="48.82156" lon="2.20391">
        <ele>80.800003051758</ele>
        <time>2015-08-17T20:27:31.000Z</time>
      </trkpt>
      <trkpt lat="48.82165" lon="2.20432">
        <ele>80</ele>
        <time>2015-08-17T20:27:36.000Z</time>
      </trkpt>
      <trkpt lat="48.82166" lon="2.20441">
        <ele>79.800003051758</ele>
        <time>2015-08-17T20:27:37.000Z</time>
      </trkpt>
      <trkpt lat="48.82167" lon="2.20462">
        <ele>79.199996948242</ele>
        <time>2015-08-17T20:27:39.000Z</time>
      </trkpt>
      <trkpt lat="48.82171" lon="2.20503">
        <ele>78.400001525879</ele>
        <time>2015-08-17T20:27:43.000Z</time>
      </trkpt>
      <trkpt lat="48.82175" lon="2.20533">
        <ele>78</ele>
        <time>2015-08-17T20:27:46.000Z</time>
      </trkpt>
      <trkpt lat="48.82176" lon="2.20544">
        <ele>77.800003051758</ele>
        <time>2015-08-17T20:27:47.000Z</time>
      </trkpt>
      <trkpt lat="48.82183" lon="2.20575">
        <ele>77.199996948242</ele>
        <time>2015-08-17T20:27:50.000Z</time>
      </trkpt>
      <trkpt lat="48.82185" lon="2.20586">
        <ele>76.800003051758</ele>
        <time>2015-08-17T20:27:51.000Z</time>
      </trkpt>
      <trkpt lat="48.82194" lon="2.20632">
        <ele>76</ele>
        <time>2015-08-17T20:27:56.000Z</time>
      </trkpt>
      <trkpt lat="48.82194" lon="2.20639">
        <ele>75.800003051758</ele>
        <time>2015-08-17T20:27:57.000Z</time>
      </trkpt>
      <trkpt lat="48.82197" lon="2.20659">
        <ele>75.199996948242</ele>
        <time>2015-08-17T20:28:00.000Z</time>
      </trkpt>
      <trkpt lat="48.82206" lon="2.20692">
        <ele>74.199996948242</ele>
        <time>2015-08-17T20:28:05.000Z</time>
      </trkpt>
      <trkpt lat="48.82207" lon="2.20699">
        <ele>74</ele>
        <time>2015-08-17T20:28:06.000Z</time>
      </trkpt>
      <trkpt lat="48.82218" lon="2.20731">
        <ele>73.400001525879</ele>
        <time>2015-08-17T20:28:12.000Z</time>
      </trkpt>
      <trkpt lat="48.82219" lon="2.20735">
        <ele>73.199996948242</ele>
        <time>2015-08-17T20:28:13.000Z</time>
      </trkpt>
      <trkpt lat="48.82225" lon="2.20745">
        <ele>73</ele>
        <time>2015-08-17T20:28:18.000Z</time>
      </trkpt>
      <trkpt lat="48.82226" lon="2.20746">
        <ele>72.800003051758</ele>
        <time>2015-08-17T20:28:20.000Z</time>
      </trkpt>
      <trkpt lat="48.82229" lon="2.20742">
        <ele>72.800003051758</ele>
        <time>2015-08-17T20:28:27.000Z</time>
      </trkpt>
      <trkpt lat="48.82237" lon="2.20743">
        <ele>75.199996948242</ele>
        <time>2015-08-17T20:28:50.000Z</time>
      </trkpt>
      <trkpt lat="48.82245" lon="2.20764">
        <ele>75.800003051758</ele>
        <time>2015-08-17T20:28:56.000Z</time>
      </trkpt>
      <trkpt lat="48.82257" lon="2.20787">
        <ele>76.199996948242</ele>
        <time>2015-08-17T20:29:02.000Z</time>
      </trkpt>
      <trkpt lat="48.82269" lon="2.20807">
        <ele>77.199996948242</ele>
        <time>2015-08-17T20:29:07.000Z</time>
      </trkpt>
      <trkpt lat="48.82279" lon="2.2083">
        <ele>77.800003051758</ele>
        <time>2015-08-17T20:29:11.000Z</time>
      </trkpt>
      <trkpt lat="48.82289" lon="2.20854">
        <ele>78</ele>
        <time>2015-08-17T20:29:15.000Z</time>
      </trkpt>
      <trkpt lat="48.823" lon="2.20884">
        <ele>79.199996948242</ele>
        <time>2015-08-17T20:29:20.000Z</time>
      </trkpt>
      <trkpt lat="48.8231" lon="2.20913">
        <ele>79.800003051758</ele>
        <time>2015-08-17T20:29:25.000Z</time>
      </trkpt>
      <trkpt lat="48.82318" lon="2.20932">
        <ele>80.199996948242</ele>
        <time>2015-08-17T20:29:28.000Z</time>
      </trkpt>
      <trkpt lat="48.82323" lon="2.20944">
        <ele>80.400001525879</ele>
        <time>2015-08-17T20:29:30.000Z</time>
      </trkpt>
      <trkpt lat="48.82332" lon="2.2097">
        <ele>80.599998474121</ele>
        <time>2015-08-17T20:29:34.000Z</time>
      </trkpt>
      <trkpt lat="48.82345" lon="2.21">
        <ele>80.599998474121</ele>
        <time>2015-08-17T20:29:38.000Z</time>
      </trkpt>
      <trkpt lat="48.82348" lon="2.21008">
        <ele>80.599998474121</ele>
        <time>2015-08-17T20:29:39.000Z</time>
      </trkpt>
      <trkpt lat="48.82351" lon="2.21016">
        <ele>80.800003051758</ele>
        <time>2015-08-17T20:29:40.000Z</time>
      </trkpt>
      <trkpt lat="48.82357" lon="2.21047">
        <ele>80.800003051758</ele>
        <time>2015-08-17T20:29:44.000Z</time>
      </trkpt>
      <trkpt lat="48.82363" lon="2.21062">
        <ele>80.800003051758</ele>
        <time>2015-08-17T20:29:46.000Z</time>
      </trkpt>
      <trkpt lat="48.82369" lon="2.21075">
        <ele>80.800003051758</ele>
        <time>2015-08-17T20:29:47.000Z</time>
      </trkpt>
      <trkpt lat="48.82377" lon="2.2109">
        <ele>80.800003051758</ele>
        <time>2015-08-17T20:29:49.000Z</time>
      </trkpt>
      <trkpt lat="48.82386" lon="2.21104">
        <ele>80.800003051758</ele>
        <time>2015-08-17T20:29:51.000Z</time>
      </trkpt>
      <trkpt lat="48.82397" lon="2.21128">
        <ele>80.800003051758</ele>
        <time>2015-08-17T20:29:54.000Z</time>
      </trkpt>
      <trkpt lat="48.82407" lon="2.21153">
        <ele>80.800003051758</ele>
        <time>2015-08-17T20:29:57.000Z</time>
      </trkpt>
      <trkpt lat="48.82413" lon="2.21169">
        <ele>81</ele>
        <time>2015-08-17T20:29:59.000Z</time>
      </trkpt>
      <trkpt lat="48.82417" lon="2.21183">
        <ele>81</ele>
        <time>2015-08-17T20:30:01.000Z</time>
      </trkpt>
      <trkpt lat="48.82419" lon="2.21214">
        <ele>81</ele>
        <time>2015-08-17T20:30:05.000Z</time>
      </trkpt>
      <trkpt lat="48.82426" lon="2.21238">
        <ele>81</ele>
        <time>2015-08-17T20:30:09.000Z</time>
      </trkpt>
      <trkpt lat="48.82431" lon="2.21249">
        <ele>81</ele>
        <time>2015-08-17T20:30:11.000Z</time>
      </trkpt>
      <trkpt lat="48.82435" lon="2.21266">
        <ele>81</ele>
        <time>2015-08-17T20:30:14.000Z</time>
      </trkpt>
      <trkpt lat="48.82439" lon="2.21282">
        <ele>80.800003051758</ele>
        <time>2015-08-17T20:30:17.000Z</time>
      </trkpt>
      <trkpt lat="48.82448" lon="2.21317">
        <ele>79.599998474121</ele>
        <time>2015-08-17T20:30:23.000Z</time>
      </trkpt>
      <trkpt lat="48.82457" lon="2.21347">
        <ele>78.400001525879</ele>
        <time>2015-08-17T20:30:28.000Z</time>
      </trkpt>
      <trkpt lat="48.82461" lon="2.21364">
        <ele>77.400001525879</ele>
        <time>2015-08-17T20:30:31.000Z</time>
      </trkpt>
      <trkpt lat="48.82467" lon="2.2139">
        <ele>76.199996948242</ele>
        <time>2015-08-17T20:30:35.000Z</time>
      </trkpt>
      <trkpt lat="48.82479" lon="2.21429">
        <ele>74.800003051758</ele>
        <time>2015-08-17T20:30:40.000Z</time>
      </trkpt>
      <trkpt lat="48.82492" lon="2.21459">
        <ele>73.199996948242</ele>
        <time>2015-08-17T20:30:44.000Z</time>
      </trkpt>
      <trkpt lat="48.82495" lon="2.21467">
        <ele>72.599998474121</ele>
        <time>2015-08-17T20:30:45.000Z</time>
      </trkpt>
      <trkpt lat="48.8251" lon="2.21512">
        <ele>71.199996948242</ele>
        <time>2015-08-17T20:30:50.000Z</time>
      </trkpt>
      <trkpt lat="48.82518" lon="2.21538">
        <ele>70</ele>
        <time>2015-08-17T20:30:53.000Z</time>
      </trkpt>
      <trkpt lat="48.8252" lon="2.21546">
        <ele>69.599998474121</ele>
        <time>2015-08-17T20:30:54.000Z</time>
      </trkpt>
      <trkpt lat="48.82528" lon="2.21571">
        <ele>68.599998474121</ele>
        <time>2015-08-17T20:30:57.000Z</time>
      </trkpt>
      <trkpt lat="48.82531" lon="2.21579">
        <ele>68.400001525879</ele>
        <time>2015-08-17T20:30:58.000Z</time>
      </trkpt>
      <trkpt lat="48.82544" lon="2.2162">
        <ele>66.800003051758</ele>
        <time>2015-08-17T20:31:03.000Z</time>
      </trkpt>
      <trkpt lat="48.82555" lon="2.21653">
        <ele>65.800003051758</ele>
        <time>2015-08-17T20:31:07.000Z</time>
      </trkpt>
      <trkpt lat="48.82563" lon="2.21678">
        <ele>65.400001525879</ele>
        <time>2015-08-17T20:31:10.000Z</time>
      </trkpt>
      <trkpt lat="48.82573" lon="2.2171">
        <ele>64.199996948242</ele>
        <time>2015-08-17T20:31:14.000Z</time>
      </trkpt>
      <trkpt lat="48.82582" lon="2.21743">
        <ele>63.400001525879</ele>
        <time>2015-08-17T20:31:18.000Z</time>
      </trkpt>
      <trkpt lat="48.8259" lon="2.21768">
        <ele>62.400001525879</ele>
        <time>2015-08-17T20:31:21.000Z</time>
      </trkpt>
      <trkpt lat="48.82598" lon="2.21796">
        <ele>61.599998474121</ele>
        <time>2015-08-17T20:31:24.000Z</time>
      </trkpt>
      <trkpt lat="48.82609" lon="2.21824">
        <ele>61</ele>
        <time>2015-08-17T20:31:27.000Z</time>
      </trkpt>
      <trkpt lat="48.82613" lon="2.21833">
        <ele>61</ele>
        <time>2015-08-17T20:31:28.000Z</time>
      </trkpt>
      <trkpt lat="48.82625" lon="2.21859">
        <ele>60</ele>
        <time>2015-08-17T20:31:31.000Z</time>
      </trkpt>
      <trkpt lat="48.82628" lon="2.21867">
        <ele>59.799999237061</ele>
        <time>2015-08-17T20:31:32.000Z</time>
      </trkpt>
      <trkpt lat="48.82639" lon="2.21893">
        <ele>59.200000762939</ele>
        <time>2015-08-17T20:31:35.000Z</time>
      </trkpt>
      <trkpt lat="48.82648" lon="2.21922">
        <ele>58.599998474121</ele>
        <time>2015-08-17T20:31:39.000Z</time>
      </trkpt>
      <trkpt lat="48.82649" lon="2.2193">
        <ele>58.599998474121</ele>
        <time>2015-08-17T20:31:40.000Z</time>
      </trkpt>
      <trkpt lat="48.82651" lon="2.21943">
        <ele>58.200000762939</ele>
        <time>2015-08-17T20:31:44.000Z</time>
      </trkpt>
      <trkpt lat="48.82649" lon="2.21933">
        <ele>58</ele>
        <time>2015-08-17T20:31:51.000Z</time>
      </trkpt>
      <trkpt lat="48.82657" lon="2.21942">
        <ele>57.799999237061</ele>
        <time>2015-08-17T20:31:56.000Z</time>
      </trkpt>
      <trkpt lat="48.82666" lon="2.21962">
        <ele>57.799999237061</ele>
        <time>2015-08-17T20:31:59.000Z</time>
      </trkpt>
      <trkpt lat="48.82678" lon="2.2199">
        <ele>57.799999237061</ele>
        <time>2015-08-17T20:32:02.000Z</time>
      </trkpt>
      <trkpt lat="48.82685" lon="2.22024">
        <ele>57.799999237061</ele>
        <time>2015-08-17T20:32:05.000Z</time>
      </trkpt>
      <trkpt lat="48.82689" lon="2.22059">
        <ele>57.200000762939</ele>
        <time>2015-08-17T20:32:08.000Z</time>
      </trkpt>
      <trkpt lat="48.82694" lon="2.22096">
        <ele>56.799999237061</ele>
        <time>2015-08-17T20:32:11.000Z</time>
      </trkpt>
      <trkpt lat="48.82701" lon="2.2213">
        <ele>56.400001525879</ele>
        <time>2015-08-17T20:32:14.000Z</time>
      </trkpt>
      <trkpt lat="48.82707" lon="2.22164">
        <ele>55.599998474121</ele>
        <time>2015-08-17T20:32:17.000Z</time>
      </trkpt>
      <trkpt lat="48.82713" lon="2.22198">
        <ele>55</ele>
        <time>2015-08-17T20:32:20.000Z</time>
      </trkpt>
      <trkpt lat="48.82718" lon="2.22231">
        <ele>54.599998474121</ele>
        <time>2015-08-17T20:32:23.000Z</time>
      </trkpt>
      <trkpt lat="48.82725" lon="2.22263">
        <ele>53.599998474121</ele>
        <time>2015-08-17T20:32:27.000Z</time>
      </trkpt>
      <trkpt lat="48.82726" lon="2.22269">
        <ele>53.400001525879</ele>
        <time>2015-08-17T20:32:28.000Z</time>
      </trkpt>
      <trkpt lat="48.8273" lon="2.22284">
        <ele>52.799999237061</ele>
        <time>2015-08-17T20:32:31.000Z</time>
      </trkpt>
      <trkpt lat="48.82733" lon="2.22295">
        <ele>52.400001525879</ele>
        <time>2015-08-17T20:32:34.000Z</time>
      </trkpt>
      <trkpt lat="48.82733" lon="2.22305">
        <ele>52</ele>
        <time>2015-08-17T20:32:37.000Z</time>
      </trkpt>
      <trkpt lat="48.82735" lon="2.22309">
        <ele>51.799999237061</ele>
        <time>2015-08-17T20:32:40.000Z</time>
      </trkpt>
      <trkpt lat="48.82735" lon="2.22324">
        <ele>51.400001525879</ele>
        <time>2015-08-17T20:32:45.000Z</time>
      </trkpt>
      <trkpt lat="48.82738" lon="2.22342">
        <ele>50.599998474121</ele>
        <time>2015-08-17T20:32:49.000Z</time>
      </trkpt>
      <trkpt lat="48.82744" lon="2.22365">
        <ele>50</ele>
        <time>2015-08-17T20:32:55.000Z</time>
      </trkpt>
      <trkpt lat="48.82753" lon="2.22389">
        <ele>49</ele>
        <time>2015-08-17T20:32:59.000Z</time>
      </trkpt>
      <trkpt lat="48.82762" lon="2.22413">
        <ele>48.200000762939</ele>
        <time>2015-08-17T20:33:03.000Z</time>
      </trkpt>
      <trkpt lat="48.82763" lon="2.22418">
        <ele>48</ele>
        <time>2015-08-17T20:33:04.000Z</time>
      </trkpt>
      <trkpt lat="48.82778" lon="2.22449">
        <ele>46.400001525879</ele>
        <time>2015-08-17T20:33:11.000Z</time>
      </trkpt>
      <trkpt lat="48.82788" lon="2.22472">
        <ele>45.400001525879</ele>
        <time>2015-08-17T20:33:16.000Z</time>
      </trkpt>
      <trkpt lat="48.828" lon="2.22497">
        <ele>44.200000762939</ele>
        <time>2015-08-17T20:33:22.000Z</time>
      </trkpt>
      <trkpt lat="48.82804" lon="2.22519">
        <ele>43.599998474121</ele>
        <time>2015-08-17T20:33:26.000Z</time>
      </trkpt>
      <trkpt lat="48.82812" lon="2.22545">
        <ele>42.400001525879</ele>
        <time>2015-08-17T20:33:31.000Z</time>
      </trkpt>
      <trkpt lat="48.8282" lon="2.22575">
        <ele>41.799999237061</ele>
        <time>2015-08-17T20:33:36.000Z</time>
      </trkpt>
      <trkpt lat="48.82828" lon="2.22598">
        <ele>41.400001525879</ele>
        <time>2015-08-17T20:33:40.000Z</time>
      </trkpt>
      <trkpt lat="48.82838" lon="2.2263">
        <ele>40.400001525879</ele>
        <time>2015-08-17T20:33:46.000Z</time>
      </trkpt>
      <trkpt lat="48.82848" lon="2.2266">
        <ele>39.799999237061</ele>
        <time>2015-08-17T20:33:51.000Z</time>
      </trkpt>
      <trkpt lat="48.82856" lon="2.22691">
        <ele>39.400001525879</ele>
        <time>2015-08-17T20:33:56.000Z</time>
      </trkpt>
      <trkpt lat="48.82864" lon="2.22716">
        <ele>39.200000762939</ele>
        <time>2015-08-17T20:34:00.000Z</time>
      </trkpt>
      <trkpt lat="48.82866" lon="2.22721">
        <ele>39</ele>
        <time>2015-08-17T20:34:01.000Z</time>
      </trkpt>
      <trkpt lat="48.82876" lon="2.22753">
        <ele>39</ele>
        <time>2015-08-17T20:34:06.000Z</time>
      </trkpt>
      <trkpt lat="48.82878" lon="2.22758">
        <ele>39</ele>
        <time>2015-08-17T20:34:07.000Z</time>
      </trkpt>
      <trkpt lat="48.82881" lon="2.22771">
        <ele>38.799999237061</ele>
        <time>2015-08-17T20:34:09.000Z</time>
      </trkpt>
      <trkpt lat="48.82891" lon="2.22804">
        <ele>38.799999237061</ele>
        <time>2015-08-17T20:34:15.000Z</time>
      </trkpt>
      <trkpt lat="48.82893" lon="2.2281">
        <ele>38.799999237061</ele>
        <time>2015-08-17T20:34:16.000Z</time>
      </trkpt>
      <trkpt lat="48.82901" lon="2.22836">
        <ele>38.799999237061</ele>
        <time>2015-08-17T20:34:21.000Z</time>
      </trkpt>
      <trkpt lat="48.8291" lon="2.2285">
        <ele>38.799999237061</ele>
        <time>2015-08-17T20:34:25.000Z</time>
      </trkpt>
      <trkpt lat="48.82916" lon="2.2287">
        <ele>38</ele>
        <time>2015-08-17T20:34:30.000Z</time>
      </trkpt>
      <trkpt lat="48.82916" lon="2.22871">
        <ele>37.799999237061</ele>
        <time>2015-08-17T20:34:31.000Z</time>
      </trkpt>
      <trkpt lat="48.8292" lon="2.22872">
        <ele>37.200000762939</ele>
        <time>2015-08-17T20:34:38.000Z</time>
      </trkpt>
      <trkpt lat="48.8292" lon="2.22872">
        <ele>37</ele>
        <time>2015-08-17T20:34:42.000Z</time>
      </trkpt>
      <trkpt lat="48.82923" lon="2.22874">
        <ele>36.200000762939</ele>
        <time>2015-08-17T20:34:47.000Z</time>
      </trkpt>
      <trkpt lat="48.82923" lon="2.22873">
        <ele>35.599998474121</ele>
        <time>2015-08-17T20:34:52.000Z</time>
      </trkpt>
      <trkpt lat="48.82925" lon="2.2288">
        <ele>33</ele>
        <time>2015-08-17T20:35:55.000Z</time>
      </trkpt>
      <trkpt lat="48.82928" lon="2.229">
        <ele>32.799999237061</ele>
        <time>2015-08-17T20:36:00.000Z</time>
      </trkpt>
      <trkpt lat="48.82929" lon="2.22903">
        <ele>32.799999237061</ele>
        <time>2015-08-17T20:36:01.000Z</time>
      </trkpt>
      <trkpt lat="48.82932" lon="2.22918">
        <ele>32.799999237061</ele>
        <time>2015-08-17T20:36:07.000Z</time>
      </trkpt>
      <trkpt lat="48.82933" lon="2.22927">
        <ele>32.799999237061</ele>
        <time>2015-08-17T20:36:09.000Z</time>
      </trkpt>
      <trkpt lat="48.82934" lon="2.22954">
        <ele>32.799999237061</ele>
        <time>2015-08-17T20:36:15.000Z</time>
      </trkpt>
      <trkpt lat="48.8294" lon="2.22977">
        <ele>32.599998474121</ele>
        <time>2015-08-17T20:36:20.000Z</time>
      </trkpt>
      <trkpt lat="48.8294" lon="2.22998">
        <ele>32.200000762939</ele>
        <time>2015-08-17T20:36:24.000Z</time>
      </trkpt>
      <trkpt lat="48.82945" lon="2.23017">
        <ele>31.60000038147</ele>
        <time>2015-08-17T20:36:28.000Z</time>
      </trkpt>
      <trkpt lat="48.82945" lon="2.23022">
        <ele>31.39999961853</ele>
        <time>2015-08-17T20:36:29.000Z</time>
      </trkpt>
      <trkpt lat="48.82943" lon="2.23043">
        <ele>31</ele>
        <time>2015-08-17T20:36:35.000Z</time>
      </trkpt>
      <trkpt lat="48.82945" lon="2.23055">
        <ele>31</ele>
        <time>2015-08-17T20:36:39.000Z</time>
      </trkpt>
      <trkpt lat="48.82946" lon="2.23059">
        <ele>30.799999237061</ele>
        <time>2015-08-17T20:36:40.000Z</time>
      </trkpt>
      <trkpt lat="48.82948" lon="2.23067">
        <ele>30.799999237061</ele>
        <time>2015-08-17T20:36:42.000Z</time>
      </trkpt>
      <trkpt lat="48.82954" lon="2.23084">
        <ele>30.799999237061</ele>
        <time>2015-08-17T20:36:46.000Z</time>
      </trkpt>
      <trkpt lat="48.82956" lon="2.23088">
        <ele>30.799999237061</ele>
        <time>2015-08-17T20:36:47.000Z</time>
      </trkpt>
      <trkpt lat="48.82959" lon="2.23093">
        <ele>30.799999237061</ele>
        <time>2015-08-17T20:36:49.000Z</time>
      </trkpt>
      <trkpt lat="48.82964" lon="2.23136">
        <ele>31</ele>
        <time>2015-08-17T20:37:00.000Z</time>
      </trkpt>
      <trkpt lat="48.82973" lon="2.23163">
        <ele>31.799999237061</ele>
        <time>2015-08-17T20:37:05.000Z</time>
      </trkpt>
      <trkpt lat="48.82981" lon="2.23188">
        <ele>32.400001525879</ele>
        <time>2015-08-17T20:37:09.000Z</time>
      </trkpt>
      <trkpt lat="48.82983" lon="2.23194">
        <ele>32.599998474121</ele>
        <time>2015-08-17T20:37:10.000Z</time>
      </trkpt>
      <trkpt lat="48.82988" lon="2.23216">
        <ele>33.400001525879</ele>
        <time>2015-08-17T20:37:14.000Z</time>
      </trkpt>
      <trkpt lat="48.8299" lon="2.23222">
        <ele>33.599998474121</ele>
        <time>2015-08-17T20:37:15.000Z</time>
      </trkpt>
      <trkpt lat="48.82998" lon="2.23243">
        <ele>34.400001525879</ele>
        <time>2015-08-17T20:37:19.000Z</time>
      </trkpt>
      <trkpt lat="48.8301" lon="2.23273">
        <ele>35.799999237061</ele>
        <time>2015-08-17T20:37:25.000Z</time>
      </trkpt>
      <trkpt lat="48.83017" lon="2.23303">
        <ele>37</ele>
        <time>2015-08-17T20:37:30.000Z</time>
      </trkpt>
      <trkpt lat="48.8302" lon="2.23309">
        <ele>37.200000762939</ele>
        <time>2015-08-17T20:37:31.000Z</time>
      </trkpt>
      <trkpt lat="48.83028" lon="2.23333">
        <ele>37.799999237061</ele>
        <time>2015-08-17T20:37:35.000Z</time>
      </trkpt>
      <trkpt lat="48.83029" lon="2.23338">
        <ele>37.799999237061</ele>
        <time>2015-08-17T20:37:36.000Z</time>
      </trkpt>
      <trkpt lat="48.83031" lon="2.23343">
        <ele>38</ele>
        <time>2015-08-17T20:37:37.000Z</time>
      </trkpt>
      <trkpt lat="48.83039" lon="2.23364">
        <ele>38.200000762939</ele>
        <time>2015-08-17T20:37:41.000Z</time>
      </trkpt>
      <trkpt lat="48.8304" lon="2.23368">
        <ele>38.200000762939</ele>
        <time>2015-08-17T20:37:42.000Z</time>
      </trkpt>
      <trkpt lat="48.83049" lon="2.23398">
        <ele>38.599998474121</ele>
        <time>2015-08-17T20:37:48.000Z</time>
      </trkpt>
      <trkpt lat="48.83057" lon="2.23425">
        <ele>38.599998474121</ele>
        <time>2015-08-17T20:37:53.000Z</time>
      </trkpt>
      <trkpt lat="48.83067" lon="2.23447">
        <ele>38.599998474121</ele>
        <time>2015-08-17T20:37:57.000Z</time>
      </trkpt>
      <trkpt lat="48.83068" lon="2.23453">
        <ele>38.799999237061</ele>
        <time>2015-08-17T20:37:58.000Z</time>
      </trkpt>
      <trkpt lat="48.83078" lon="2.23477">
        <ele>38.799999237061</ele>
        <time>2015-08-17T20:38:02.000Z</time>
      </trkpt>
      <trkpt lat="48.8308" lon="2.23483">
        <ele>38.799999237061</ele>
        <time>2015-08-17T20:38:03.000Z</time>
      </trkpt>
      <trkpt lat="48.83082" lon="2.23489">
        <ele>38.799999237061</ele>
        <time>2015-08-17T20:38:04.000Z</time>
      </trkpt>
      <trkpt lat="48.8309" lon="2.23516">
        <ele>39</ele>
        <time>2015-08-17T20:38:09.000Z</time>
      </trkpt>
      <trkpt lat="48.83092" lon="2.23521">
        <ele>39.200000762939</ele>
        <time>2015-08-17T20:38:10.000Z</time>
      </trkpt>
      <trkpt lat="48.83104" lon="2.23553">
        <ele>40</ele>
        <time>2015-08-17T20:38:16.000Z</time>
      </trkpt>
      <trkpt lat="48.83113" lon="2.23581">
        <ele>40.400001525879</ele>
        <time>2015-08-17T20:38:21.000Z</time>
      </trkpt>
      <trkpt lat="48.83115" lon="2.23586">
        <ele>40.400001525879</ele>
        <time>2015-08-17T20:38:22.000Z</time>
      </trkpt>
      <trkpt lat="48.83124" lon="2.23612">
        <ele>40.599998474121</ele>
        <time>2015-08-17T20:38:26.000Z</time>
      </trkpt>
      <trkpt lat="48.83135" lon="2.2364">
        <ele>40.799999237061</ele>
        <time>2015-08-17T20:38:30.000Z</time>
      </trkpt>
      <trkpt lat="48.83145" lon="2.23663">
        <ele>41.400001525879</ele>
        <time>2015-08-17T20:38:33.000Z</time>
      </trkpt>
      <trkpt lat="48.83151" lon="2.23678">
        <ele>41.799999237061</ele>
        <time>2015-08-17T20:38:35.000Z</time>
      </trkpt>
      <trkpt lat="48.8316" lon="2.23693">
        <ele>42.200000762939</ele>
        <time>2015-08-17T20:38:38.000Z</time>
      </trkpt>
      <trkpt lat="48.83165" lon="2.23705">
        <ele>42.400001525879</ele>
        <time>2015-08-17T20:38:40.000Z</time>
      </trkpt>
      <trkpt lat="48.83172" lon="2.23722">
        <ele>43.200000762939</ele>
        <time>2015-08-17T20:38:43.000Z</time>
      </trkpt>
      <trkpt lat="48.83183" lon="2.23762">
        <ele>44.200000762939</ele>
        <time>2015-08-17T20:38:48.000Z</time>
      </trkpt>
      <trkpt lat="48.83186" lon="2.2377">
        <ele>44.599998474121</ele>
        <time>2015-08-17T20:38:49.000Z</time>
      </trkpt>
      <trkpt lat="48.8319" lon="2.23792">
        <ele>45.400001525879</ele>
        <time>2015-08-17T20:38:52.000Z</time>
      </trkpt>
      <trkpt lat="48.83196" lon="2.23819">
        <ele>46</ele>
        <time>2015-08-17T20:38:56.000Z</time>
      </trkpt>
      <trkpt lat="48.83206" lon="2.23837">
        <ele>47.200000762939</ele>
        <time>2015-08-17T20:39:00.000Z</time>
      </trkpt>
      <trkpt lat="48.83217" lon="2.23864">
        <ele>48</ele>
        <time>2015-08-17T20:39:04.000Z</time>
      </trkpt>
      <trkpt lat="48.83223" lon="2.23883">
        <ele>48.400001525879</ele>
        <time>2015-08-17T20:39:07.000Z</time>
      </trkpt>
      <trkpt lat="48.83237" lon="2.23918">
        <ele>50</ele>
        <time>2015-08-17T20:39:13.000Z</time>
      </trkpt>
      <trkpt lat="48.83239" lon="2.23925">
        <ele>50.200000762939</ele>
        <time>2015-08-17T20:39:14.000Z</time>
      </trkpt>
      <trkpt lat="48.83243" lon="2.23945">
        <ele>50.799999237061</ele>
        <time>2015-08-17T20:39:17.000Z</time>
      </trkpt>
      <trkpt lat="48.83248" lon="2.23958">
        <ele>51.400001525879</ele>
        <time>2015-08-17T20:39:19.000Z</time>
      </trkpt>
      <trkpt lat="48.83255" lon="2.23974">
        <ele>52</ele>
        <time>2015-08-17T20:39:22.000Z</time>
      </trkpt>
      <trkpt lat="48.8326" lon="2.23989">
        <ele>52.200000762939</ele>
        <time>2015-08-17T20:39:24.000Z</time>
      </trkpt>
      <trkpt lat="48.83261" lon="2.24019">
        <ele>52.799999237061</ele>
        <time>2015-08-17T20:39:28.000Z</time>
      </trkpt>
      <trkpt lat="48.83269" lon="2.24055">
        <ele>53.200000762939</ele>
        <time>2015-08-17T20:39:33.000Z</time>
      </trkpt>
      <trkpt lat="48.83272" lon="2.2406">
        <ele>53.200000762939</ele>
        <time>2015-08-17T20:39:34.000Z</time>
      </trkpt>
      <trkpt lat="48.83282" lon="2.24088">
        <ele>54</ele>
        <time>2015-08-17T20:39:38.000Z</time>
      </trkpt>
      <trkpt lat="48.8329" lon="2.24117">
        <ele>54.599998474121</ele>
        <time>2015-08-17T20:39:42.000Z</time>
      </trkpt>
      <trkpt lat="48.83291" lon="2.24123">
        <ele>54.799999237061</ele>
        <time>2015-08-17T20:39:43.000Z</time>
      </trkpt>
      <trkpt lat="48.83299" lon="2.24149">
        <ele>55.200000762939</ele>
        <time>2015-08-17T20:39:47.000Z</time>
      </trkpt>
      <trkpt lat="48.83308" lon="2.24175">
        <ele>55.400001525879</ele>
        <time>2015-08-17T20:39:51.000Z</time>
      </trkpt>
      <trkpt lat="48.83315" lon="2.24193">
        <ele>55.400001525879</ele>
        <time>2015-08-17T20:39:54.000Z</time>
      </trkpt>
      <trkpt lat="48.83324" lon="2.24231">
        <ele>55.599998474121</ele>
        <time>2015-08-17T20:40:00.000Z</time>
      </trkpt>
      <trkpt lat="48.83326" lon="2.24238">
        <ele>55.599998474121</ele>
        <time>2015-08-17T20:40:01.000Z</time>
      </trkpt>
      <trkpt lat="48.83338" lon="2.2427">
        <ele>55.599998474121</ele>
        <time>2015-08-17T20:40:06.000Z</time>
      </trkpt>
      <trkpt lat="48.83347" lon="2.24295">
        <ele>55.599998474121</ele>
        <time>2015-08-17T20:40:10.000Z</time>
      </trkpt>
      <trkpt lat="48.83354" lon="2.24317">
        <ele>55.799999237061</ele>
        <time>2015-08-17T20:40:14.000Z</time>
      </trkpt>
      <trkpt lat="48.83358" lon="2.24332">
        <ele>55.799999237061</ele>
        <time>2015-08-17T20:40:17.000Z</time>
      </trkpt>
      <trkpt lat="48.83361" lon="2.24354">
        <ele>55.799999237061</ele>
        <time>2015-08-17T20:40:23.000Z</time>
      </trkpt>
      <trkpt lat="48.83368" lon="2.24377">
        <ele>55.599998474121</ele>
        <time>2015-08-17T20:40:29.000Z</time>
      </trkpt>
      <trkpt lat="48.83376" lon="2.24404">
        <ele>54.599998474121</ele>
        <time>2015-08-17T20:40:35.000Z</time>
      </trkpt>
      <trkpt lat="48.83385" lon="2.2443">
        <ele>54.200000762939</ele>
        <time>2015-08-17T20:40:40.000Z</time>
      </trkpt>
      <trkpt lat="48.83393" lon="2.24455">
        <ele>54</ele>
        <time>2015-08-17T20:40:45.000Z</time>
      </trkpt>
      <trkpt lat="48.83404" lon="2.24483">
        <ele>53.799999237061</ele>
        <time>2015-08-17T20:40:50.000Z</time>
      </trkpt>
      <trkpt lat="48.83408" lon="2.24493">
        <ele>53.799999237061</ele>
        <time>2015-08-17T20:40:52.000Z</time>
      </trkpt>
      <trkpt lat="48.83416" lon="2.24517">
        <ele>53.599998474121</ele>
        <time>2015-08-17T20:40:56.000Z</time>
      </trkpt>
      <trkpt lat="48.83419" lon="2.2453">
        <ele>53.599998474121</ele>
        <time>2015-08-17T20:40:58.000Z</time>
      </trkpt>
      <trkpt lat="48.83427" lon="2.24555">
        <ele>54.200000762939</ele>
        <time>2015-08-17T20:41:02.000Z</time>
      </trkpt>
      <trkpt lat="48.83437" lon="2.24589">
        <ele>54.799999237061</ele>
        <time>2015-08-17T20:41:07.000Z</time>
      </trkpt>
      <trkpt lat="48.83445" lon="2.24614">
        <ele>55</ele>
        <time>2015-08-17T20:41:11.000Z</time>
      </trkpt>
      <trkpt lat="48.83447" lon="2.2462">
        <ele>55.200000762939</ele>
        <time>2015-08-17T20:41:12.000Z</time>
      </trkpt>
      <trkpt lat="48.83458" lon="2.24649">
        <ele>55.400001525879</ele>
        <time>2015-08-17T20:41:17.000Z</time>
      </trkpt>
      <trkpt lat="48.83459" lon="2.24655">
        <ele>55.400001525879</ele>
        <time>2015-08-17T20:41:18.000Z</time>
      </trkpt>
      <trkpt lat="48.83463" lon="2.24669">
        <ele>55.400001525879</ele>
        <time>2015-08-17T20:41:20.000Z</time>
      </trkpt>
      <trkpt lat="48.83471" lon="2.24692">
        <ele>55.400001525879</ele>
        <time>2015-08-17T20:41:24.000Z</time>
      </trkpt>
      <trkpt lat="48.83479" lon="2.24719">
        <ele>55.599998474121</ele>
        <time>2015-08-17T20:41:28.000Z</time>
      </trkpt>
      <trkpt lat="48.83487" lon="2.24757">
        <ele>55.599998474121</ele>
        <time>2015-08-17T20:41:34.000Z</time>
      </trkpt>
      <trkpt lat="48.8349" lon="2.24765">
        <ele>55.599998474121</ele>
        <time>2015-08-17T20:41:35.000Z</time>
      </trkpt>
      <trkpt lat="48.83493" lon="2.24772">
        <ele>55.599998474121</ele>
        <time>2015-08-17T20:41:36.000Z</time>
      </trkpt>
      <trkpt lat="48.83498" lon="2.24786">
        <ele>55.599998474121</ele>
        <time>2015-08-17T20:41:38.000Z</time>
      </trkpt>
      <trkpt lat="48.83506" lon="2.24814">
        <ele>55.599998474121</ele>
        <time>2015-08-17T20:41:42.000Z</time>
      </trkpt>
      <trkpt lat="48.83516" lon="2.24846">
        <ele>55</ele>
        <time>2015-08-17T20:41:47.000Z</time>
      </trkpt>
      <trkpt lat="48.83527" lon="2.24876">
        <ele>54.599998474121</ele>
        <time>2015-08-17T20:41:51.000Z</time>
      </trkpt>
      <trkpt lat="48.8353" lon="2.24882">
        <ele>54.400001525879</ele>
        <time>2015-08-17T20:41:52.000Z</time>
      </trkpt>
      <trkpt lat="48.83534" lon="2.24895">
        <ele>54.200000762939</ele>
        <time>2015-08-17T20:41:54.000Z</time>
      </trkpt>
      <trkpt lat="48.83541" lon="2.24911">
        <ele>54.200000762939</ele>
        <time>2015-08-17T20:41:56.000Z</time>
      </trkpt>
      <trkpt lat="48.83553" lon="2.24947">
        <ele>54</ele>
        <time>2015-08-17T20:42:01.000Z</time>
      </trkpt>
      <trkpt lat="48.83554" lon="2.24952">
        <ele>54.200000762939</ele>
        <time>2015-08-17T20:42:02.000Z</time>
      </trkpt>
      <trkpt lat="48.83562" lon="2.24981">
        <ele>54.599998474121</ele>
        <time>2015-08-17T20:42:06.000Z</time>
      </trkpt>
      <trkpt lat="48.83573" lon="2.25016">
        <ele>55</ele>
        <time>2015-08-17T20:42:11.000Z</time>
      </trkpt>
      <trkpt lat="48.83577" lon="2.25029">
        <ele>55.200000762939</ele>
        <time>2015-08-17T20:42:13.000Z</time>
      </trkpt>
      <trkpt lat="48.83582" lon="2.25049">
        <ele>55.200000762939</ele>
        <time>2015-08-17T20:42:16.000Z</time>
      </trkpt>
      <trkpt lat="48.83585" lon="2.25082">
        <ele>55.400001525879</ele>
        <time>2015-08-17T20:42:22.000Z</time>
      </trkpt>
      <trkpt lat="48.83591" lon="2.25104">
        <ele>55.400001525879</ele>
        <time>2015-08-17T20:42:26.000Z</time>
      </trkpt>
      <trkpt lat="48.83594" lon="2.2511">
        <ele>55.400001525879</ele>
        <time>2015-08-17T20:42:27.000Z</time>
      </trkpt>
      <trkpt lat="48.83602" lon="2.25139">
        <ele>55.599998474121</ele>
        <time>2015-08-17T20:42:31.000Z</time>
      </trkpt>
      <trkpt lat="48.83611" lon="2.2517">
        <ele>55.599998474121</ele>
        <time>2015-08-17T20:42:35.000Z</time>
      </trkpt>
      <trkpt lat="48.83613" lon="2.25179">
        <ele>55.599998474121</ele>
        <time>2015-08-17T20:42:36.000Z</time>
      </trkpt>
      <trkpt lat="48.83621" lon="2.25205">
        <ele>55.599998474121</ele>
        <time>2015-08-17T20:42:39.000Z</time>
      </trkpt>
      <trkpt lat="48.83624" lon="2.25213">
        <ele>55.799999237061</ele>
        <time>2015-08-17T20:42:40.000Z</time>
      </trkpt>
      <trkpt lat="48.83639" lon="2.25241">
        <ele>56.599998474121</ele>
        <time>2015-08-17T20:42:45.000Z</time>
      </trkpt>
      <trkpt lat="48.83642" lon="2.25251">
        <ele>56.599998474121</ele>
        <time>2015-08-17T20:42:46.000Z</time>
      </trkpt>
      <trkpt lat="48.83654" lon="2.25286">
        <ele>57</ele>
        <time>2015-08-17T20:42:51.000Z</time>
      </trkpt>
      <trkpt lat="48.83664" lon="2.25313">
        <ele>57.200000762939</ele>
        <time>2015-08-17T20:42:54.000Z</time>
      </trkpt>
      <trkpt lat="48.83667" lon="2.25327">
        <ele>57.200000762939</ele>
        <time>2015-08-17T20:42:56.000Z</time>
      </trkpt>
      <trkpt lat="48.83673" lon="2.25354">
        <ele>57.400001525879</ele>
        <time>2015-08-17T20:43:00.000Z</time>
      </trkpt>
      <trkpt lat="48.83679" lon="2.25384">
        <ele>56.799999237061</ele>
        <time>2015-08-17T20:43:05.000Z</time>
      </trkpt>
      <trkpt lat="48.8368" lon="2.25394">
        <ele>56.200000762939</ele>
        <time>2015-08-17T20:43:08.000Z</time>
      </trkpt>
      <trkpt lat="48.8368" lon="2.25398">
        <ele>53.200000762939</ele>
        <time>2015-08-17T20:43:21.000Z</time>
      </trkpt>
      <trkpt lat="48.83677" lon="2.254">
        <ele>52.400001525879</ele>
        <time>2015-08-17T20:43:26.000Z</time>
      </trkpt>
      <trkpt lat="48.83674" lon="2.25403">
        <ele>49.200000762939</ele>
        <time>2015-08-17T20:43:40.000Z</time>
      </trkpt>
      <trkpt lat="48.83674" lon="2.25404">
        <ele>47.400001525879</ele>
        <time>2015-08-17T20:44:01.000Z</time>
      </trkpt>
      <trkpt lat="48.83677" lon="2.25402">
        <ele>48.799999237061</ele>
        <time>2015-08-17T20:44:24.000Z</time>
      </trkpt>
      <trkpt lat="48.83676" lon="2.25409">
        <ele>46</ele>
        <time>2015-08-17T20:45:10.000Z</time>
      </trkpt>
      <trkpt lat="48.83674" lon="2.2541">
        <ele>40.799999237061</ele>
        <time>2015-08-17T20:45:43.000Z</time>
      </trkpt>
      <trkpt lat="48.83677" lon="2.25407">
        <ele>39</ele>
        <time>2015-08-17T20:46:12.000Z</time>
      </trkpt>
      <trkpt lat="48.83684" lon="2.25407">
        <ele>39</ele>
        <time>2015-08-17T20:46:27.000Z</time>
      </trkpt>
      <trkpt lat="48.83699" lon="2.25413">
        <ele>39</ele>
        <time>2015-08-17T20:46:34.000Z</time>
      </trkpt>
      <trkpt lat="48.83701" lon="2.25418">
        <ele>39</ele>
        <time>2015-08-17T20:46:36.000Z</time>
      </trkpt>
      <trkpt lat="48.83704" lon="2.25427">
        <ele>39</ele>
        <time>2015-08-17T20:46:40.000Z</time>
      </trkpt>
      <trkpt lat="48.83715" lon="2.25442">
        <ele>39</ele>
        <time>2015-08-17T20:46:47.000Z</time>
      </trkpt>
      <trkpt lat="48.83721" lon="2.25454">
        <ele>39</ele>
        <time>2015-08-17T20:46:51.000Z</time>
      </trkpt>
      <trkpt lat="48.83726" lon="2.25471">
        <ele>39</ele>
        <time>2015-08-17T20:46:56.000Z</time>
      </trkpt>
      <trkpt lat="48.8373" lon="2.25484">
        <ele>38.599998474121</ele>
        <time>2015-08-17T20:47:01.000Z</time>
      </trkpt>
      <trkpt lat="48.83732" lon="2.25486">
        <ele>37.799999237061</ele>
        <time>2015-08-17T20:47:06.000Z</time>
      </trkpt>
      <trkpt lat="48.83737" lon="2.25499">
        <ele>37.400001525879</ele>
        <time>2015-08-17T20:47:13.000Z</time>
      </trkpt>
      <trkpt lat="48.83744" lon="2.2552">
        <ele>37.200000762939</ele>
        <time>2015-08-17T20:47:20.000Z</time>
      </trkpt>
      <trkpt lat="48.83749" lon="2.2554">
        <ele>36</ele>
        <time>2015-08-17T20:47:26.000Z</time>
      </trkpt>
      <trkpt lat="48.83757" lon="2.2556">
        <ele>35.599998474121</ele>
        <time>2015-08-17T20:47:32.000Z</time>
      </trkpt>
      <trkpt lat="48.83757" lon="2.25561">
        <ele>35.400001525879</ele>
        <time>2015-08-17T20:47:33.000Z</time>
      </trkpt>
      <trkpt lat="48.83758" lon="2.25562">
        <ele>34.200000762939</ele>
        <time>2015-08-17T20:47:43.000Z</time>
      </trkpt>
      <trkpt lat="48.83759" lon="2.25564">
        <ele>33.400001525879</ele>
        <time>2015-08-17T20:47:52.000Z</time>
      </trkpt>
      <trkpt lat="48.8376" lon="2.25562">
        <ele>33.200000762939</ele>
        <time>2015-08-17T20:47:58.000Z</time>
      </trkpt>
      <trkpt lat="48.83764" lon="2.2556">
        <ele>33</ele>
        <time>2015-08-17T20:48:04.000Z</time>
      </trkpt>
      <trkpt lat="48.83765" lon="2.25561">
        <ele>33</ele>
        <time>2015-08-17T20:48:10.000Z</time>
      </trkpt>
      <trkpt lat="48.83766" lon="2.25559">
        <ele>32.799999237061</ele>
        <time>2015-08-17T20:48:19.000Z</time>
      </trkpt>
      <trkpt lat="48.83775" lon="2.25552">
        <ele>32.799999237061</ele>
        <time>2015-08-17T20:48:26.000Z</time>
      </trkpt>
      <trkpt lat="48.83778" lon="2.25551">
        <ele>32.799999237061</ele>
        <time>2015-08-17T20:48:29.000Z</time>
      </trkpt>
      <trkpt lat="48.83791" lon="2.25562">
        <ele>32.799999237061</ele>
        <time>2015-08-17T20:48:35.000Z</time>
      </trkpt>
      <trkpt lat="48.83794" lon="2.25565">
        <ele>32.799999237061</ele>
        <time>2015-08-17T20:48:36.000Z</time>
      </trkpt>
      <trkpt lat="48.83807" lon="2.25567">
        <ele>32.799999237061</ele>
        <time>2015-08-17T20:48:40.000Z</time>
      </trkpt>
      <trkpt lat="48.83809" lon="2.25565">
        <ele>32.799999237061</ele>
        <time>2015-08-17T20:48:43.000Z</time>
      </trkpt>
      <trkpt lat="48.83811" lon="2.25565">
        <ele>32.799999237061</ele>
        <time>2015-08-17T20:49:00.000Z</time>
      </trkpt>
      <trkpt lat="48.83815" lon="2.2557">
        <ele>32.799999237061</ele>
        <time>2015-08-17T20:49:06.000Z</time>
      </trkpt>
      <trkpt lat="48.83817" lon="2.25587">
        <ele>32.799999237061</ele>
        <time>2015-08-17T20:49:12.000Z</time>
      </trkpt>
      <trkpt lat="48.83817" lon="2.25592">
        <ele>32.799999237061</ele>
        <time>2015-08-17T20:49:13.000Z</time>
      </trkpt>
      <trkpt lat="48.83812" lon="2.25614">
        <ele>32.799999237061</ele>
        <time>2015-08-17T20:49:19.000Z</time>
      </trkpt>
      <trkpt lat="48.83801" lon="2.25626">
        <ele>32.799999237061</ele>
        <time>2015-08-17T20:49:24.000Z</time>
      </trkpt>
      <trkpt lat="48.83789" lon="2.25625">
        <ele>32.799999237061</ele>
        <time>2015-08-17T20:49:30.000Z</time>
      </trkpt>
      <trkpt lat="48.83774" lon="2.25626">
        <ele>32.799999237061</ele>
        <time>2015-08-17T20:49:35.000Z</time>
      </trkpt>
      <trkpt lat="48.83761" lon="2.25634">
        <ele>32.799999237061</ele>
        <time>2015-08-17T20:49:41.000Z</time>
      </trkpt>
      <trkpt lat="48.8376" lon="2.25634">
        <ele>32.799999237061</ele>
        <time>2015-08-17T20:49:43.000Z</time>
      </trkpt>
      <trkpt lat="48.83761" lon="2.25636">
        <ele>32.799999237061</ele>
        <time>2015-08-17T20:49:45.000Z</time>
      </trkpt>
      <trkpt lat="48.83752" lon="2.25657">
        <ele>32.799999237061</ele>
        <time>2015-08-17T20:49:51.000Z</time>
      </trkpt>
      <trkpt lat="48.83743" lon="2.25687">
        <ele>32.799999237061</ele>
        <time>2015-08-17T20:49:57.000Z</time>
      </trkpt>
      <trkpt lat="48.83739" lon="2.25705">
        <ele>32.799999237061</ele>
        <time>2015-08-17T20:50:00.000Z</time>
      </trkpt>
      <trkpt lat="48.83745" lon="2.25731">
        <ele>32.799999237061</ele>
        <time>2015-08-17T20:50:04.000Z</time>
      </trkpt>
      <trkpt lat="48.83751" lon="2.25742">
        <ele>32.799999237061</ele>
        <time>2015-08-17T20:50:06.000Z</time>
      </trkpt>
      <trkpt lat="48.83754" lon="2.25746">
        <ele>32.799999237061</ele>
        <time>2015-08-17T20:50:07.000Z</time>
      </trkpt>
      <trkpt lat="48.83756" lon="2.25751">
        <ele>32.799999237061</ele>
        <time>2015-08-17T20:50:08.000Z</time>
      </trkpt>
      <trkpt lat="48.83769" lon="2.25761">
        <ele>32.799999237061</ele>
        <time>2015-08-17T20:50:12.000Z</time>
      </trkpt>
      <trkpt lat="48.83772" lon="2.25761">
        <ele>32.799999237061</ele>
        <time>2015-08-17T20:50:13.000Z</time>
      </trkpt>
      <trkpt lat="48.83774" lon="2.25762">
        <ele>32.799999237061</ele>
        <time>2015-08-17T20:50:14.000Z</time>
      </trkpt>
      <trkpt lat="48.83778" lon="2.25761">
        <ele>32.799999237061</ele>
        <time>2015-08-17T20:50:20.000Z</time>
      </trkpt>
      <trkpt lat="48.83775" lon="2.2576">
        <ele>34.200000762939</ele>
        <time>2015-08-17T20:50:30.000Z</time>
      </trkpt>
      <trkpt lat="48.83765" lon="2.25759">
        <ele>34.799999237061</ele>
        <time>2015-08-17T20:50:35.000Z</time>
      </trkpt>
      <trkpt lat="48.83758" lon="2.25759">
        <ele>35.400001525879</ele>
        <time>2015-08-17T20:50:38.000Z</time>
      </trkpt>
      <trkpt lat="48.83748" lon="2.25783">
        <ele>36.200000762939</ele>
        <time>2015-08-17T20:50:45.000Z</time>
      </trkpt>
      <trkpt lat="48.83747" lon="2.25787">
        <ele>36.200000762939</ele>
        <time>2015-08-17T20:50:46.000Z</time>
      </trkpt>
      <trkpt lat="48.83744" lon="2.25803">
        <ele>36.400001525879</ele>
        <time>2015-08-17T20:50:50.000Z</time>
      </trkpt>
      <trkpt lat="48.83743" lon="2.25806">
        <ele>36.599998474121</ele>
        <time>2015-08-17T20:50:51.000Z</time>
      </trkpt>
      <trkpt lat="48.83735" lon="2.25831">
        <ele>36.599998474121</ele>
        <time>2015-08-17T20:50:55.000Z</time>
      </trkpt>
      <trkpt lat="48.83725" lon="2.25856">
        <ele>36.799999237061</ele>
        <time>2015-08-17T20:51:00.000Z</time>
      </trkpt>
      <trkpt lat="48.83717" lon="2.25885">
        <ele>36.799999237061</ele>
        <time>2015-08-17T20:51:04.000Z</time>
      </trkpt>
      <trkpt lat="48.83717" lon="2.25893">
        <ele>36.799999237061</ele>
        <time>2015-08-17T20:51:05.000Z</time>
      </trkpt>
      <trkpt lat="48.83712" lon="2.25916">
        <ele>36.799999237061</ele>
        <time>2015-08-17T20:51:08.000Z</time>
      </trkpt>
      <trkpt lat="48.83708" lon="2.25945">
        <ele>37</ele>
        <time>2015-08-17T20:51:12.000Z</time>
      </trkpt>
      <trkpt lat="48.83709" lon="2.25951">
        <ele>37</ele>
        <time>2015-08-17T20:51:13.000Z</time>
      </trkpt>
      <trkpt lat="48.83707" lon="2.25973">
        <ele>37</ele>
        <time>2015-08-17T20:51:16.000Z</time>
      </trkpt>
      <trkpt lat="48.83705" lon="2.25986">
        <ele>37</ele>
        <time>2015-08-17T20:51:18.000Z</time>
      </trkpt>
      <trkpt lat="48.83703" lon="2.26007">
        <ele>37</ele>
        <time>2015-08-17T20:51:21.000Z</time>
      </trkpt>
      <trkpt lat="48.83712" lon="2.26029">
        <ele>37</ele>
        <time>2015-08-17T20:51:26.000Z</time>
      </trkpt>
      <trkpt lat="48.83716" lon="2.26033">
        <ele>37</ele>
        <time>2015-08-17T20:51:27.000Z</time>
      </trkpt>
      <trkpt lat="48.8372" lon="2.26035">
        <ele>37</ele>
        <time>2015-08-17T20:51:28.000Z</time>
      </trkpt>
      <trkpt lat="48.83732" lon="2.26037">
        <ele>37</ele>
        <time>2015-08-17T20:51:31.000Z</time>
      </trkpt>
      <trkpt lat="48.83754" lon="2.26049">
        <ele>37</ele>
        <time>2015-08-17T20:51:37.000Z</time>
      </trkpt>
      <trkpt lat="48.83766" lon="2.26074">
        <ele>37</ele>
        <time>2015-08-17T20:51:42.000Z</time>
      </trkpt>
      <trkpt lat="48.83768" lon="2.2608">
        <ele>37</ele>
        <time>2015-08-17T20:51:43.000Z</time>
      </trkpt>
      <trkpt lat="48.83782" lon="2.26104">
        <ele>37</ele>
        <time>2015-08-17T20:51:49.000Z</time>
      </trkpt>
      <trkpt lat="48.83784" lon="2.26108">
        <ele>37</ele>
        <time>2015-08-17T20:51:50.000Z</time>
      </trkpt>
      <trkpt lat="48.83805" lon="2.26131">
        <ele>37</ele>
        <time>2015-08-17T20:51:56.000Z</time>
      </trkpt>
      <trkpt lat="48.83815" lon="2.26145">
        <ele>37</ele>
        <time>2015-08-17T20:51:59.000Z</time>
      </trkpt>
      <trkpt lat="48.83823" lon="2.26151">
        <ele>37</ele>
        <time>2015-08-17T20:52:01.000Z</time>
      </trkpt>
      <trkpt lat="48.83844" lon="2.26168">
        <ele>36.200000762939</ele>
        <time>2015-08-17T20:52:06.000Z</time>
      </trkpt>
      <trkpt lat="48.83847" lon="2.2617">
        <ele>36.200000762939</ele>
        <time>2015-08-17T20:52:07.000Z</time>
      </trkpt>
      <trkpt lat="48.83859" lon="2.2619">
        <ele>35.799999237061</ele>
        <time>2015-08-17T20:52:11.000Z</time>
      </trkpt>
      <trkpt lat="48.83861" lon="2.26194">
        <ele>35.599998474121</ele>
        <time>2015-08-17T20:52:12.000Z</time>
      </trkpt>
      <trkpt lat="48.83863" lon="2.26197">
        <ele>35.599998474121</ele>
        <time>2015-08-17T20:52:13.000Z</time>
      </trkpt>
      <trkpt lat="48.83881" lon="2.26218">
        <ele>35.400001525879</ele>
        <time>2015-08-17T20:52:18.000Z</time>
      </trkpt>
      <trkpt lat="48.83885" lon="2.26223">
        <ele>35.200000762939</ele>
        <time>2015-08-17T20:52:19.000Z</time>
      </trkpt>
      <trkpt lat="48.83896" lon="2.26245">
        <ele>35.200000762939</ele>
        <time>2015-08-17T20:52:23.000Z</time>
      </trkpt>
      <trkpt lat="48.83903" lon="2.26256">
        <ele>35.200000762939</ele>
        <time>2015-08-17T20:52:25.000Z</time>
      </trkpt>
      <trkpt lat="48.8391" lon="2.26269">
        <ele>35</ele>
        <time>2015-08-17T20:52:27.000Z</time>
      </trkpt>
      <trkpt lat="48.83931" lon="2.26289">
        <ele>35</ele>
        <time>2015-08-17T20:52:31.000Z</time>
      </trkpt>
      <trkpt lat="48.83935" lon="2.26293">
        <ele>35</ele>
        <time>2015-08-17T20:52:32.000Z</time>
      </trkpt>
      <trkpt lat="48.83945" lon="2.26302">
        <ele>35</ele>
        <time>2015-08-17T20:52:34.000Z</time>
      </trkpt>
      <trkpt lat="48.83959" lon="2.26323">
        <ele>35</ele>
        <time>2015-08-17T20:52:38.000Z</time>
      </trkpt>
      <trkpt lat="48.83975" lon="2.2634">
        <ele>35</ele>
        <time>2015-08-17T20:52:42.000Z</time>
      </trkpt>
      <trkpt lat="48.84001" lon="2.2638">
        <ele>35</ele>
        <time>2015-08-17T20:52:49.000Z</time>
      </trkpt>
      <trkpt lat="48.84025" lon="2.26414">
        <ele>35</ele>
        <time>2015-08-17T20:52:54.000Z</time>
      </trkpt>
      <trkpt lat="48.84039" lon="2.26436">
        <ele>35</ele>
        <time>2015-08-17T20:52:57.000Z</time>
      </trkpt>
      <trkpt lat="48.84048" lon="2.2645">
        <ele>35.200000762939</ele>
        <time>2015-08-17T20:52:59.000Z</time>
      </trkpt>
      <trkpt lat="48.84057" lon="2.26461">
        <ele>35.599998474121</ele>
        <time>2015-08-17T20:53:01.000Z</time>
      </trkpt>
      <trkpt lat="48.84072" lon="2.26486">
        <ele>36.400001525879</ele>
        <time>2015-08-17T20:53:06.000Z</time>
      </trkpt>
      <trkpt lat="48.84076" lon="2.26492">
        <ele>37</ele>
        <time>2015-08-17T20:53:08.000Z</time>
      </trkpt>
      <trkpt lat="48.84078" lon="2.26492">
        <ele>38.200000762939</ele>
        <time>2015-08-17T20:53:15.000Z</time>
      </trkpt>
      <trkpt lat="48.84085" lon="2.26511">
        <ele>39.599998474121</ele>
        <time>2015-08-17T20:53:21.000Z</time>
      </trkpt>
      <trkpt lat="48.84086" lon="2.26515">
        <ele>39.799999237061</ele>
        <time>2015-08-17T20:53:22.000Z</time>
      </trkpt>
      <trkpt lat="48.84098" lon="2.26538">
        <ele>40.400001525879</ele>
        <time>2015-08-17T20:53:27.000Z</time>
      </trkpt>
      <trkpt lat="48.84104" lon="2.26558">
        <ele>40.799999237061</ele>
        <time>2015-08-17T20:53:31.000Z</time>
      </trkpt>
      <trkpt lat="48.84114" lon="2.26581">
        <ele>41</ele>
        <time>2015-08-17T20:53:35.000Z</time>
      </trkpt>
      <trkpt lat="48.84118" lon="2.26593">
        <ele>41</ele>
        <time>2015-08-17T20:53:37.000Z</time>
      </trkpt>
      <trkpt lat="48.84126" lon="2.26615">
        <ele>41</ele>
        <time>2015-08-17T20:53:41.000Z</time>
      </trkpt>
      <trkpt lat="48.84133" lon="2.26633">
        <ele>41.200000762939</ele>
        <time>2015-08-17T20:53:44.000Z</time>
      </trkpt>
      <trkpt lat="48.84149" lon="2.26659">
        <ele>41.200000762939</ele>
        <time>2015-08-17T20:53:49.000Z</time>
      </trkpt>
      <trkpt lat="48.84153" lon="2.26665">
        <ele>41.200000762939</ele>
        <time>2015-08-17T20:53:50.000Z</time>
      </trkpt>
      <trkpt lat="48.84161" lon="2.26688">
        <ele>41.200000762939</ele>
        <time>2015-08-17T20:53:54.000Z</time>
      </trkpt>
      <trkpt lat="48.84174" lon="2.26704">
        <ele>41.200000762939</ele>
        <time>2015-08-17T20:53:57.000Z</time>
      </trkpt>
      <trkpt lat="48.84177" lon="2.26707">
        <ele>41.200000762939</ele>
        <time>2015-08-17T20:53:58.000Z</time>
      </trkpt>
      <trkpt lat="48.84184" lon="2.26715">
        <ele>41.200000762939</ele>
        <time>2015-08-17T20:54:01.000Z</time>
      </trkpt>
      <trkpt lat="48.84193" lon="2.26744">
        <ele>41.400001525879</ele>
        <time>2015-08-17T20:54:05.000Z</time>
      </trkpt>
      <trkpt lat="48.84196" lon="2.26751">
        <ele>41.599998474121</ele>
        <time>2015-08-17T20:54:06.000Z</time>
      </trkpt>
      <trkpt lat="48.84211" lon="2.26785">
        <ele>42.200000762939</ele>
        <time>2015-08-17T20:54:10.000Z</time>
      </trkpt>
      <trkpt lat="48.84217" lon="2.26794">
        <ele>42.400001525879</ele>
        <time>2015-08-17T20:54:11.000Z</time>
      </trkpt>
      <trkpt lat="48.84232" lon="2.26821">
        <ele>42.599998474121</ele>
        <time>2015-08-17T20:54:14.000Z</time>
      </trkpt>
      <trkpt lat="48.84235" lon="2.26831">
        <ele>42.599998474121</ele>
        <time>2015-08-17T20:54:15.000Z</time>
      </trkpt>
      <trkpt lat="48.84241" lon="2.26849">
        <ele>42.799999237061</ele>
        <time>2015-08-17T20:54:17.000Z</time>
      </trkpt>
      <trkpt lat="48.84253" lon="2.26864">
        <ele>42.799999237061</ele>
        <time>2015-08-17T20:54:19.000Z</time>
      </trkpt>
      <trkpt lat="48.84279" lon="2.26886">
        <ele>43</ele>
        <time>2015-08-17T20:54:24.000Z</time>
      </trkpt>
      <trkpt lat="48.8429" lon="2.26897">
        <ele>43.200000762939</ele>
        <time>2015-08-17T20:54:26.000Z</time>
      </trkpt>
      <trkpt lat="48.8431" lon="2.26919">
        <ele>42.599998474121</ele>
        <time>2015-08-17T20:54:30.000Z</time>
      </trkpt>
      <trkpt lat="48.84314" lon="2.26925">
        <ele>42.400001525879</ele>
        <time>2015-08-17T20:54:31.000Z</time>
      </trkpt>
      <trkpt lat="48.84331" lon="2.26939">
        <ele>42</ele>
        <time>2015-08-17T20:54:35.000Z</time>
      </trkpt>
      <trkpt lat="48.84339" lon="2.26947">
        <ele>41.799999237061</ele>
        <time>2015-08-17T20:54:37.000Z</time>
      </trkpt>
      <trkpt lat="48.8436" lon="2.26966">
        <ele>41.400001525879</ele>
        <time>2015-08-17T20:54:41.000Z</time>
      </trkpt>
      <trkpt lat="48.8437" lon="2.26975">
        <ele>41</ele>
        <time>2015-08-17T20:54:43.000Z</time>
      </trkpt>
      <trkpt lat="48.8438" lon="2.26983">
        <ele>40.599998474121</ele>
        <time>2015-08-17T20:54:45.000Z</time>
      </trkpt>
      <trkpt lat="48.84388" lon="2.26993">
        <ele>40.400001525879</ele>
        <time>2015-08-17T20:54:47.000Z</time>
      </trkpt>
      <trkpt lat="48.84407" lon="2.27022">
        <ele>40</ele>
        <time>2015-08-17T20:54:51.000Z</time>
      </trkpt>
      <trkpt lat="48.8441" lon="2.27026">
        <ele>39.799999237061</ele>
        <time>2015-08-17T20:54:52.000Z</time>
      </trkpt>
      <trkpt lat="48.84425" lon="2.27041">
        <ele>39</ele>
        <time>2015-08-17T20:54:55.000Z</time>
      </trkpt>
      <trkpt lat="48.84442" lon="2.2706">
        <ele>38.400001525879</ele>
        <time>2015-08-17T20:54:59.000Z</time>
      </trkpt>
      <trkpt lat="48.84445" lon="2.27062">
        <ele>38.200000762939</ele>
        <time>2015-08-17T20:55:00.000Z</time>
      </trkpt>
      <trkpt lat="48.8446" lon="2.27079">
        <ele>38</ele>
        <time>2015-08-17T20:55:03.000Z</time>
      </trkpt>
      <trkpt lat="48.84466" lon="2.27086">
        <ele>37.799999237061</ele>
        <time>2015-08-17T20:55:04.000Z</time>
      </trkpt>
      <trkpt lat="48.8448" lon="2.27103">
        <ele>37.200000762939</ele>
        <time>2015-08-17T20:55:07.000Z</time>
      </trkpt>
      <trkpt lat="48.84489" lon="2.27112">
        <ele>36.799999237061</ele>
        <time>2015-08-17T20:55:09.000Z</time>
      </trkpt>
      <trkpt lat="48.84505" lon="2.27123">
        <ele>36.200000762939</ele>
        <time>2015-08-17T20:55:12.000Z</time>
      </trkpt>
      <trkpt lat="48.84518" lon="2.27135">
        <ele>36</ele>
        <time>2015-08-17T20:55:15.000Z</time>
      </trkpt>
      <trkpt lat="48.84526" lon="2.2714">
        <ele>35.799999237061</ele>
        <time>2015-08-17T20:55:17.000Z</time>
      </trkpt>
      <trkpt lat="48.84542" lon="2.27154">
        <ele>35.400001525879</ele>
        <time>2015-08-17T20:55:22.000Z</time>
      </trkpt>
      <trkpt lat="48.8455" lon="2.27163">
        <ele>35.400001525879</ele>
        <time>2015-08-17T20:55:24.000Z</time>
      </trkpt>
      <trkpt lat="48.84561" lon="2.27178">
        <ele>35.200000762939</ele>
        <time>2015-08-17T20:55:27.000Z</time>
      </trkpt>
      <trkpt lat="48.84579" lon="2.27196">
        <ele>35.200000762939</ele>
        <time>2015-08-17T20:55:31.000Z</time>
      </trkpt>
      <trkpt lat="48.8459" lon="2.27211">
        <ele>35</ele>
        <time>2015-08-17T20:55:34.000Z</time>
      </trkpt>
      <trkpt lat="48.84598" lon="2.27216">
        <ele>35</ele>
        <time>2015-08-17T20:55:36.000Z</time>
      </trkpt>
      <trkpt lat="48.84613" lon="2.27227">
        <ele>35</ele>
        <time>2015-08-17T20:55:40.000Z</time>
      </trkpt>
      <trkpt lat="48.84619" lon="2.27235">
        <ele>35.400001525879</ele>
        <time>2015-08-17T20:55:42.000Z</time>
      </trkpt>
      <trkpt lat="48.84627" lon="2.27247">
        <ele>35.799999237061</ele>
        <time>2015-08-17T20:55:45.000Z</time>
      </trkpt>
      <trkpt lat="48.8464" lon="2.27266">
        <ele>36.200000762939</ele>
        <time>2015-08-17T20:55:49.000Z</time>
      </trkpt>
      <trkpt lat="48.84662" lon="2.27285">
        <ele>36.599998474121</ele>
        <time>2015-08-17T20:55:54.000Z</time>
      </trkpt>
      <trkpt lat="48.84675" lon="2.27287">
        <ele>36.599998474121</ele>
        <time>2015-08-17T20:55:56.000Z</time>
      </trkpt>
      <trkpt lat="48.84685" lon="2.27292">
        <ele>36.599998474121</ele>
        <time>2015-08-17T20:55:58.000Z</time>
      </trkpt>
      <trkpt lat="48.84696" lon="2.27307">
        <ele>36.799999237061</ele>
        <time>2015-08-17T20:56:01.000Z</time>
      </trkpt>
      <trkpt lat="48.84705" lon="2.27317">
        <ele>36.799999237061</ele>
        <time>2015-08-17T20:56:03.000Z</time>
      </trkpt>
      <trkpt lat="48.84722" lon="2.27334">
        <ele>36.799999237061</ele>
        <time>2015-08-17T20:56:07.000Z</time>
      </trkpt>
      <trkpt lat="48.84728" lon="2.27341">
        <ele>36.799999237061</ele>
        <time>2015-08-17T20:56:09.000Z</time>
      </trkpt>
      <trkpt lat="48.84733" lon="2.2735">
        <ele>36.799999237061</ele>
        <time>2015-08-17T20:56:11.000Z</time>
      </trkpt>
      <trkpt lat="48.8474" lon="2.27356">
        <ele>37</ele>
        <time>2015-08-17T20:56:13.000Z</time>
      </trkpt>
      <trkpt lat="48.84746" lon="2.27362">
        <ele>37</ele>
        <time>2015-08-17T20:56:18.000Z</time>
      </trkpt>
      <trkpt lat="48.84747" lon="2.27362">
        <ele>37</ele>
        <time>2015-08-17T20:56:20.000Z</time>
      </trkpt>
      <trkpt lat="48.84749" lon="2.27363">
        <ele>37</ele>
        <time>2015-08-17T20:56:24.000Z</time>
      </trkpt>
      <trkpt lat="48.8475" lon="2.27374">
        <ele>37.400001525879</ele>
        <time>2015-08-17T20:56:28.000Z</time>
      </trkpt>
      <trkpt lat="48.84752" lon="2.27379">
        <ele>38</ele>
        <time>2015-08-17T20:56:32.000Z</time>
      </trkpt>
      <trkpt lat="48.84755" lon="2.27381">
        <ele>38.200000762939</ele>
        <time>2015-08-17T20:56:34.000Z</time>
      </trkpt>
      <trkpt lat="48.84769" lon="2.27396">
        <ele>38.599998474121</ele>
        <time>2015-08-17T20:56:40.000Z</time>
      </trkpt>
      <trkpt lat="48.84782" lon="2.27406">
        <ele>38.799999237061</ele>
        <time>2015-08-17T20:56:44.000Z</time>
      </trkpt>
      <trkpt lat="48.84799" lon="2.2742">
        <ele>38.799999237061</ele>
        <time>2015-08-17T20:56:49.000Z</time>
      </trkpt>
      <trkpt lat="48.84816" lon="2.27434">
        <ele>38.400001525879</ele>
        <time>2015-08-17T20:56:54.000Z</time>
      </trkpt>
      <trkpt lat="48.84821" lon="2.27441">
        <ele>38.400001525879</ele>
        <time>2015-08-17T20:56:55.000Z</time>
      </trkpt>
      <trkpt lat="48.84833" lon="2.27457">
        <ele>38</ele>
        <time>2015-08-17T20:56:58.000Z</time>
      </trkpt>
      <trkpt lat="48.84856" lon="2.27483">
        <ele>37.599998474121</ele>
        <time>2015-08-17T20:57:03.000Z</time>
      </trkpt>
      <trkpt lat="48.84861" lon="2.27488">
        <ele>37.400001525879</ele>
        <time>2015-08-17T20:57:04.000Z</time>
      </trkpt>
      <trkpt lat="48.84881" lon="2.27509">
        <ele>37.200000762939</ele>
        <time>2015-08-17T20:57:08.000Z</time>
      </trkpt>
      <trkpt lat="48.84888" lon="2.27514">
        <ele>37.200000762939</ele>
        <time>2015-08-17T20:57:09.000Z</time>
      </trkpt>
      <trkpt lat="48.84899" lon="2.27522">
        <ele>37.200000762939</ele>
        <time>2015-08-17T20:57:11.000Z</time>
      </trkpt>
      <trkpt lat="48.84904" lon="2.27525">
        <ele>37.200000762939</ele>
        <time>2015-08-17T20:57:12.000Z</time>
      </trkpt>
      <trkpt lat="48.84922" lon="2.27546">
        <ele>37</ele>
        <time>2015-08-17T20:57:16.000Z</time>
      </trkpt>
      <trkpt lat="48.84944" lon="2.27569">
        <ele>37</ele>
        <time>2015-08-17T20:57:20.000Z</time>
      </trkpt>
      <trkpt lat="48.8495" lon="2.27575">
        <ele>37</ele>
        <time>2015-08-17T20:57:21.000Z</time>
      </trkpt>
      <trkpt lat="48.84967" lon="2.27596">
        <ele>36.400001525879</ele>
        <time>2015-08-17T20:57:25.000Z</time>
      </trkpt>
      <trkpt lat="48.84983" lon="2.27619">
        <ele>35.799999237061</ele>
        <time>2015-08-17T20:57:29.000Z</time>
      </trkpt>
      <trkpt lat="48.84999" lon="2.27646">
        <ele>35.599998474121</ele>
        <time>2015-08-17T20:57:33.000Z</time>
      </trkpt>
      <trkpt lat="48.85005" lon="2.27657">
        <ele>35.400001525879</ele>
        <time>2015-08-17T20:57:34.000Z</time>
      </trkpt>
      <trkpt lat="48.85009" lon="2.27666">
        <ele>35.400001525879</ele>
        <time>2015-08-17T20:57:35.000Z</time>
      </trkpt>
      <trkpt lat="48.85018" lon="2.27691">
        <ele>35.200000762939</ele>
        <time>2015-08-17T20:57:38.000Z</time>
      </trkpt>
      <trkpt lat="48.85031" lon="2.27708">
        <ele>35.200000762939</ele>
        <time>2015-08-17T20:57:42.000Z</time>
      </trkpt>
      <trkpt lat="48.85051" lon="2.27723">
        <ele>35</ele>
        <time>2015-08-17T20:57:46.000Z</time>
      </trkpt>
      <trkpt lat="48.85054" lon="2.27728">
        <ele>35</ele>
        <time>2015-08-17T20:57:47.000Z</time>
      </trkpt>
      <trkpt lat="48.8506" lon="2.27743">
        <ele>35</ele>
        <time>2015-08-17T20:57:49.000Z</time>
      </trkpt>
      <trkpt lat="48.85068" lon="2.2776">
        <ele>35</ele>
        <time>2015-08-17T20:57:52.000Z</time>
      </trkpt>
      <trkpt lat="48.85076" lon="2.27766">
        <ele>35</ele>
        <time>2015-08-17T20:57:57.000Z</time>
      </trkpt>
      <trkpt lat="48.8508" lon="2.27766">
        <ele>34.799999237061</ele>
        <time>2015-08-17T20:58:03.000Z</time>
      </trkpt>
      <trkpt lat="48.8509" lon="2.27778">
        <ele>34.799999237061</ele>
        <time>2015-08-17T20:58:08.000Z</time>
      </trkpt>
      <trkpt lat="48.85096" lon="2.27793">
        <ele>34.799999237061</ele>
        <time>2015-08-17T20:58:12.000Z</time>
      </trkpt>
      <trkpt lat="48.851" lon="2.2781">
        <ele>35.799999237061</ele>
        <time>2015-08-17T20:58:17.000Z</time>
      </trkpt>
      <trkpt lat="48.85103" lon="2.27815">
        <ele>36.200000762939</ele>
        <time>2015-08-17T20:58:19.000Z</time>
      </trkpt>
      <trkpt lat="48.85111" lon="2.27826">
        <ele>37.400001525879</ele>
        <time>2015-08-17T20:58:24.000Z</time>
      </trkpt>
      <trkpt lat="48.8512" lon="2.27832">
        <ele>38.400001525879</ele>
        <time>2015-08-17T20:58:31.000Z</time>
      </trkpt>
      <trkpt lat="48.85122" lon="2.27837">
        <ele>38.799999237061</ele>
        <time>2015-08-17T20:58:37.000Z</time>
      </trkpt>
      <trkpt lat="48.85132" lon="2.27847">
        <ele>39</ele>
        <time>2015-08-17T20:58:43.000Z</time>
      </trkpt>
      <trkpt lat="48.85134" lon="2.2785">
        <ele>39</ele>
        <time>2015-08-17T20:58:44.000Z</time>
      </trkpt>
      <trkpt lat="48.85147" lon="2.27867">
        <ele>39</ele>
        <time>2015-08-17T20:58:49.000Z</time>
      </trkpt>
      <trkpt lat="48.85165" lon="2.27892">
        <ele>39.200000762939</ele>
        <time>2015-08-17T20:58:54.000Z</time>
      </trkpt>
      <trkpt lat="48.85168" lon="2.27897">
        <ele>39.400001525879</ele>
        <time>2015-08-17T20:58:55.000Z</time>
      </trkpt>
      <trkpt lat="48.85178" lon="2.27914">
        <ele>39.799999237061</ele>
        <time>2015-08-17T20:58:58.000Z</time>
      </trkpt>
      <trkpt lat="48.85193" lon="2.27943">
        <ele>40.400001525879</ele>
        <time>2015-08-17T20:59:03.000Z</time>
      </trkpt>
      <trkpt lat="48.85196" lon="2.27948">
        <ele>40.400001525879</ele>
        <time>2015-08-17T20:59:04.000Z</time>
      </trkpt>
      <trkpt lat="48.85198" lon="2.27953">
        <ele>40.599998474121</ele>
        <time>2015-08-17T20:59:05.000Z</time>
      </trkpt>
      <trkpt lat="48.85208" lon="2.27983">
        <ele>40.799999237061</ele>
        <time>2015-08-17T20:59:10.000Z</time>
      </trkpt>
      <trkpt lat="48.8521" lon="2.2799">
        <ele>40.799999237061</ele>
        <time>2015-08-17T20:59:11.000Z</time>
      </trkpt>
      <trkpt lat="48.85215" lon="2.28002">
        <ele>41</ele>
        <time>2015-08-17T20:59:13.000Z</time>
      </trkpt>
      <trkpt lat="48.85227" lon="2.28024">
        <ele>41</ele>
        <time>2015-08-17T20:59:17.000Z</time>
      </trkpt>
      <trkpt lat="48.85234" lon="2.28042">
        <ele>41</ele>
        <time>2015-08-17T20:59:20.000Z</time>
      </trkpt>
      <trkpt lat="48.85246" lon="2.2806">
        <ele>41</ele>
        <time>2015-08-17T20:59:23.000Z</time>
      </trkpt>
      <trkpt lat="48.85261" lon="2.28084">
        <ele>41.200000762939</ele>
        <time>2015-08-17T20:59:27.000Z</time>
      </trkpt>
      <trkpt lat="48.85279" lon="2.28109">
        <ele>41.200000762939</ele>
        <time>2015-08-17T20:59:31.000Z</time>
      </trkpt>
      <trkpt lat="48.85282" lon="2.28115">
        <ele>41.200000762939</ele>
        <time>2015-08-17T20:59:32.000Z</time>
      </trkpt>
      <trkpt lat="48.85293" lon="2.28139">
        <ele>41.200000762939</ele>
        <time>2015-08-17T20:59:36.000Z</time>
      </trkpt>
      <trkpt lat="48.85296" lon="2.28144">
        <ele>41.200000762939</ele>
        <time>2015-08-17T20:59:37.000Z</time>
      </trkpt>
      <trkpt lat="48.8531" lon="2.28164">
        <ele>41.200000762939</ele>
        <time>2015-08-17T20:59:41.000Z</time>
      </trkpt>
      <trkpt lat="48.85326" lon="2.2819">
        <ele>40.400001525879</ele>
        <time>2015-08-17T20:59:46.000Z</time>
      </trkpt>
      <trkpt lat="48.85341" lon="2.28214">
        <ele>39.599998474121</ele>
        <time>2015-08-17T20:59:50.000Z</time>
      </trkpt>
      <trkpt lat="48.85353" lon="2.28236">
        <ele>38.799999237061</ele>
        <time>2015-08-17T20:59:54.000Z</time>
      </trkpt>
      <trkpt lat="48.85357" lon="2.28244">
        <ele>38.599998474121</ele>
        <time>2015-08-17T20:59:55.000Z</time>
      </trkpt>
      <trkpt lat="48.85366" lon="2.28265">
        <ele>38</ele>
        <time>2015-08-17T20:59:59.000Z</time>
      </trkpt>
      <trkpt lat="48.85372" lon="2.28276">
        <ele>37.799999237061</ele>
        <time>2015-08-17T21:00:01.000Z</time>
      </trkpt>
      <trkpt lat="48.85374" lon="2.2828">
        <ele>37.799999237061</ele>
        <time>2015-08-17T21:00:02.000Z</time>
      </trkpt>
      <trkpt lat="48.85382" lon="2.28291">
        <ele>37.400001525879</ele>
        <time>2015-08-17T21:00:04.000Z</time>
      </trkpt>
      <trkpt lat="48.85394" lon="2.2831">
        <ele>36.400001525879</ele>
        <time>2015-08-17T21:00:08.000Z</time>
      </trkpt>
      <trkpt lat="48.854" lon="2.28318">
        <ele>36.200000762939</ele>
        <time>2015-08-17T21:00:10.000Z</time>
      </trkpt>
      <trkpt lat="48.85407" lon="2.28327">
        <ele>36</ele>
        <time>2015-08-17T21:00:12.000Z</time>
      </trkpt>
      <trkpt lat="48.85424" lon="2.28352">
        <ele>34.799999237061</ele>
        <time>2015-08-17T21:00:18.000Z</time>
      </trkpt>
      <trkpt lat="48.85428" lon="2.28356">
        <ele>34.599998474121</ele>
        <time>2015-08-17T21:00:19.000Z</time>
      </trkpt>
      <trkpt lat="48.85441" lon="2.2837">
        <ele>34.200000762939</ele>
        <time>2015-08-17T21:00:22.000Z</time>
      </trkpt>
      <trkpt lat="48.85457" lon="2.28383">
        <ele>33.799999237061</ele>
        <time>2015-08-17T21:00:25.000Z</time>
      </trkpt>
      <trkpt lat="48.85479" lon="2.28408">
        <ele>32.799999237061</ele>
        <time>2015-08-17T21:00:30.000Z</time>
      </trkpt>
      <trkpt lat="48.85497" lon="2.28427">
        <ele>32</ele>
        <time>2015-08-17T21:00:35.000Z</time>
      </trkpt>
      <trkpt lat="48.855" lon="2.2843">
        <ele>31.799999237061</ele>
        <time>2015-08-17T21:00:36.000Z</time>
      </trkpt>
      <trkpt lat="48.85514" lon="2.28455">
        <ele>31.39999961853</ele>
        <time>2015-08-17T21:00:42.000Z</time>
      </trkpt>
      <trkpt lat="48.85524" lon="2.2847">
        <ele>31.200000762939</ele>
        <time>2015-08-17T21:00:45.000Z</time>
      </trkpt>
      <trkpt lat="48.85531" lon="2.28479">
        <ele>31.200000762939</ele>
        <time>2015-08-17T21:00:47.000Z</time>
      </trkpt>
      <trkpt lat="48.85535" lon="2.28484">
        <ele>31</ele>
        <time>2015-08-17T21:00:48.000Z</time>
      </trkpt>
      <trkpt lat="48.85557" lon="2.28502">
        <ele>31</ele>
        <time>2015-08-17T21:00:52.000Z</time>
      </trkpt>
      <trkpt lat="48.85571" lon="2.28514">
        <ele>31</ele>
        <time>2015-08-17T21:00:56.000Z</time>
      </trkpt>
      <trkpt lat="48.85583" lon="2.28538">
        <ele>30.799999237061</ele>
        <time>2015-08-17T21:01:01.000Z</time>
      </trkpt>
      <trkpt lat="48.85587" lon="2.28543">
        <ele>30.799999237061</ele>
        <time>2015-08-17T21:01:02.000Z</time>
      </trkpt>
      <trkpt lat="48.856" lon="2.28565">
        <ele>30.799999237061</ele>
        <time>2015-08-17T21:01:06.000Z</time>
      </trkpt>
      <trkpt lat="48.85614" lon="2.28583">
        <ele>30.799999237061</ele>
        <time>2015-08-17T21:01:09.000Z</time>
      </trkpt>
      <trkpt lat="48.85619" lon="2.28587">
        <ele>30.799999237061</ele>
        <time>2015-08-17T21:01:10.000Z</time>
      </trkpt>
      <trkpt lat="48.85637" lon="2.28594">
        <ele>30.799999237061</ele>
        <time>2015-08-17T21:01:13.000Z</time>
      </trkpt>
      <trkpt lat="48.85643" lon="2.28596">
        <ele>30.799999237061</ele>
        <time>2015-08-17T21:01:14.000Z</time>
      </trkpt>
      <trkpt lat="48.85663" lon="2.28599">
        <ele>30.799999237061</ele>
        <time>2015-08-17T21:01:18.000Z</time>
      </trkpt>
      <trkpt lat="48.85678" lon="2.2861">
        <ele>30.799999237061</ele>
        <time>2015-08-17T21:01:22.000Z</time>
      </trkpt>
      <trkpt lat="48.85682" lon="2.28614">
        <ele>30.799999237061</ele>
        <time>2015-08-17T21:01:23.000Z</time>
      </trkpt>
      <trkpt lat="48.85685" lon="2.28618">
        <ele>30.799999237061</ele>
        <time>2015-08-17T21:01:24.000Z</time>
      </trkpt>
      <trkpt lat="48.85696" lon="2.28644">
        <ele>31.39999961853</ele>
        <time>2015-08-17T21:01:28.000Z</time>
      </trkpt>
      <trkpt lat="48.857" lon="2.2865">
        <ele>31.60000038147</ele>
        <time>2015-08-17T21:01:29.000Z</time>
      </trkpt>
      <trkpt lat="48.85704" lon="2.28656">
        <ele>31.799999237061</ele>
        <time>2015-08-17T21:01:30.000Z</time>
      </trkpt>
      <trkpt lat="48.85722" lon="2.28688">
        <ele>32.200000762939</ele>
        <time>2015-08-17T21:01:35.000Z</time>
      </trkpt>
      <trkpt lat="48.85729" lon="2.28701">
        <ele>32.200000762939</ele>
        <time>2015-08-17T21:01:37.000Z</time>
      </trkpt>
      <trkpt lat="48.85748" lon="2.2873">
        <ele>32.400001525879</ele>
        <time>2015-08-17T21:01:42.000Z</time>
      </trkpt>
      <trkpt lat="48.85753" lon="2.28737">
        <ele>32.599998474121</ele>
        <time>2015-08-17T21:01:43.000Z</time>
      </trkpt>
      <trkpt lat="48.85769" lon="2.28759">
        <ele>32.599998474121</ele>
        <time>2015-08-17T21:01:47.000Z</time>
      </trkpt>
      <trkpt lat="48.85774" lon="2.28766">
        <ele>32.599998474121</ele>
        <time>2015-08-17T21:01:48.000Z</time>
      </trkpt>
      <trkpt lat="48.85788" lon="2.28785">
        <ele>32.599998474121</ele>
        <time>2015-08-17T21:01:52.000Z</time>
      </trkpt>
      <trkpt lat="48.8579" lon="2.28789">
        <ele>32.799999237061</ele>
        <time>2015-08-17T21:01:53.000Z</time>
      </trkpt>
      <trkpt lat="48.85796" lon="2.28813">
        <ele>32.799999237061</ele>
        <time>2015-08-17T21:02:00.000Z</time>
      </trkpt>
      <trkpt lat="48.85797" lon="2.2882">
        <ele>32.200000762939</ele>
        <time>2015-08-17T21:02:04.000Z</time>
      </trkpt>
      <trkpt lat="48.85798" lon="2.28823">
        <ele>31.39999961853</ele>
        <time>2015-08-17T21:02:12.000Z</time>
      </trkpt>
      <trkpt lat="48.85805" lon="2.28836">
        <ele>31.200000762939</ele>
        <time>2015-08-17T21:02:17.000Z</time>
      </trkpt>
      <trkpt lat="48.85807" lon="2.2884">
        <ele>31</ele>
        <time>2015-08-17T21:02:18.000Z</time>
      </trkpt>
      <trkpt lat="48.85824" lon="2.28863">
        <ele>31</ele>
        <time>2015-08-17T21:02:23.000Z</time>
      </trkpt>
      <trkpt lat="48.85838" lon="2.28882">
        <ele>30.39999961853</ele>
        <time>2015-08-17T21:02:27.000Z</time>
      </trkpt>
      <trkpt lat="48.85841" lon="2.28886">
        <ele>30.200000762939</ele>
        <time>2015-08-17T21:02:28.000Z</time>
      </trkpt>
      <trkpt lat="48.8586" lon="2.28911">
        <ele>29.60000038147</ele>
        <time>2015-08-17T21:02:34.000Z</time>
      </trkpt>
      <trkpt lat="48.85863" lon="2.28915">
        <ele>29.39999961853</ele>
        <time>2015-08-17T21:02:35.000Z</time>
      </trkpt>
      <trkpt lat="48.85881" lon="2.28936">
        <ele>29</ele>
        <time>2015-08-17T21:02:41.000Z</time>
      </trkpt>
      <trkpt lat="48.8589" lon="2.28948">
        <ele>28.200000762939</ele>
        <time>2015-08-17T21:02:45.000Z</time>
      </trkpt>
      <trkpt lat="48.85896" lon="2.28963">
        <ele>27.39999961853</ele>
        <time>2015-08-17T21:02:51.000Z</time>
      </trkpt>
      <trkpt lat="48.85897" lon="2.28965">
        <ele>27.39999961853</ele>
        <time>2015-08-17T21:02:52.000Z</time>
      </trkpt>
      <trkpt lat="48.85909" lon="2.28982">
        <ele>27</ele>
        <time>2015-08-17T21:02:57.000Z</time>
      </trkpt>
      <trkpt lat="48.85916" lon="2.28993">
        <ele>26.799999237061</ele>
        <time>2015-08-17T21:03:01.000Z</time>
      </trkpt>
      <trkpt lat="48.8593" lon="2.29015">
        <ele>26.799999237061</ele>
        <time>2015-08-17T21:03:08.000Z</time>
      </trkpt>
      <trkpt lat="48.85945" lon="2.29032">
        <ele>26.60000038147</ele>
        <time>2015-08-17T21:03:14.000Z</time>
      </trkpt>
      <trkpt lat="48.85962" lon="2.29049">
        <ele>26.60000038147</ele>
        <time>2015-08-17T21:03:20.000Z</time>
      </trkpt>
      <trkpt lat="48.85974" lon="2.2906">
        <ele>26.60000038147</ele>
        <time>2015-08-17T21:03:25.000Z</time>
      </trkpt>
      <trkpt lat="48.85987" lon="2.29075">
        <ele>26.60000038147</ele>
        <time>2015-08-17T21:03:31.000Z</time>
      </trkpt>
      <trkpt lat="48.85988" lon="2.29077">
        <ele>26.60000038147</ele>
        <time>2015-08-17T21:03:32.000Z</time>
      </trkpt>
      <trkpt lat="48.85994" lon="2.29086">
        <ele>27.39999961853</ele>
        <time>2015-08-17T21:03:37.000Z</time>
      </trkpt>
      <trkpt lat="48.86" lon="2.29095">
        <ele>28</ele>
        <time>2015-08-17T21:03:43.000Z</time>
      </trkpt>
      <trkpt lat="48.86005" lon="2.29101">
        <ele>28.200000762939</ele>
        <time>2015-08-17T21:03:48.000Z</time>
      </trkpt>
      <trkpt lat="48.86005" lon="2.29102">
        <ele>28.200000762939</ele>
        <time>2015-08-17T21:03:49.000Z</time>
      </trkpt>
      <trkpt lat="48.86006" lon="2.29103">
        <ele>28.200000762939</ele>
        <time>2015-08-17T21:03:50.000Z</time>
      </trkpt>
      <trkpt lat="48.86013" lon="2.2911">
        <ele>28.39999961853</ele>
        <time>2015-08-17T21:03:57.000Z</time>
      </trkpt>
      <trkpt lat="48.86015" lon="2.29111">
        <ele>28.39999961853</ele>
        <time>2015-08-17T21:03:59.000Z</time>
      </trkpt>
      <trkpt lat="48.86018" lon="2.29116">
        <ele>28.60000038147</ele>
        <time>2015-08-17T21:04:07.000Z</time>
      </trkpt>
      <trkpt lat="48.86019" lon="2.2912">
        <ele>28.60000038147</ele>
        <time>2015-08-17T21:04:15.000Z</time>
      </trkpt>
      <trkpt lat="48.86018" lon="2.29121">
        <ele>28.60000038147</ele>
        <time>2015-08-17T21:04:20.000Z</time>
      </trkpt>
      <trkpt lat="48.86019" lon="2.29123">
        <ele>29.60000038147</ele>
        <time>2015-08-17T21:04:43.000Z</time>
      </trkpt>
      <trkpt lat="48.86021" lon="2.29117">
        <ele>30</ele>
        <time>2015-08-17T21:04:48.000Z</time>
      </trkpt>
      <trkpt lat="48.86021" lon="2.29115">
        <ele>30.39999961853</ele>
        <time>2015-08-17T21:04:57.000Z</time>
      </trkpt>
      <trkpt lat="48.8602" lon="2.29117">
        <ele>30.39999961853</ele>
        <time>2015-08-17T21:05:01.000Z</time>
      </trkpt>
      <trkpt lat="48.86021" lon="2.2912">
        <ele>30.60000038147</ele>
        <time>2015-08-17T21:05:07.000Z</time>
      </trkpt>
      <trkpt lat="48.86026" lon="2.2913">
        <ele>30.60000038147</ele>
        <time>2015-08-17T21:05:12.000Z</time>
      </trkpt>
      <trkpt lat="48.8604" lon="2.29143">
        <ele>30.60000038147</ele>
        <time>2015-08-17T21:05:20.000Z</time>
      </trkpt>
      <trkpt lat="48.86048" lon="2.29154">
        <ele>30.60000038147</ele>
        <time>2015-08-17T21:05:26.000Z</time>
      </trkpt>
      <trkpt lat="48.86055" lon="2.29165">
        <ele>30.60000038147</ele>
        <time>2015-08-17T21:05:32.000Z</time>
      </trkpt>
      <trkpt lat="48.8607" lon="2.29185">
        <ele>30.60000038147</ele>
        <time>2015-08-17T21:05:39.000Z</time>
      </trkpt>
      <trkpt lat="48.86083" lon="2.29205">
        <ele>30.60000038147</ele>
        <time>2015-08-17T21:05:45.000Z</time>
      </trkpt>
      <trkpt lat="48.86099" lon="2.29224">
        <ele>30.60000038147</ele>
        <time>2015-08-17T21:05:51.000Z</time>
      </trkpt>
      <trkpt lat="48.86113" lon="2.29245">
        <ele>30.60000038147</ele>
        <time>2015-08-17T21:05:57.000Z</time>
      </trkpt>
      <trkpt lat="48.86121" lon="2.2926">
        <ele>30.60000038147</ele>
        <time>2015-08-17T21:06:01.000Z</time>
      </trkpt>
      <trkpt lat="48.86131" lon="2.29276">
        <ele>30.60000038147</ele>
        <time>2015-08-17T21:06:05.000Z</time>
      </trkpt>
      <trkpt lat="48.86148" lon="2.29296">
        <ele>30.60000038147</ele>
        <time>2015-08-17T21:06:10.000Z</time>
      </trkpt>
      <trkpt lat="48.86162" lon="2.29314">
        <ele>30.60000038147</ele>
        <time>2015-08-17T21:06:14.000Z</time>
      </trkpt>
      <trkpt lat="48.86165" lon="2.29319">
        <ele>30.60000038147</ele>
        <time>2015-08-17T21:06:15.000Z</time>
      </trkpt>
      <trkpt lat="48.86178" lon="2.29338">
        <ele>30.60000038147</ele>
        <time>2015-08-17T21:06:20.000Z</time>
      </trkpt>
      <trkpt lat="48.86185" lon="2.2935">
        <ele>30.60000038147</ele>
        <time>2015-08-17T21:06:23.000Z</time>
      </trkpt>
      <trkpt lat="48.86201" lon="2.29373">
        <ele>30.60000038147</ele>
        <time>2015-08-17T21:06:29.000Z</time>
      </trkpt>
      <trkpt lat="48.86215" lon="2.29396">
        <ele>30.60000038147</ele>
        <time>2015-08-17T21:06:34.000Z</time>
      </trkpt>
      <trkpt lat="48.86224" lon="2.29411">
        <ele>30.60000038147</ele>
        <time>2015-08-17T21:06:37.000Z</time>
      </trkpt>
      <trkpt lat="48.86237" lon="2.2944">
        <ele>29.799999237061</ele>
        <time>2015-08-17T21:06:42.000Z</time>
      </trkpt>
      <trkpt lat="48.86241" lon="2.29446">
        <ele>29.60000038147</ele>
        <time>2015-08-17T21:06:43.000Z</time>
      </trkpt>
      <trkpt lat="48.86247" lon="2.29467">
        <ele>29.200000762939</ele>
        <time>2015-08-17T21:06:47.000Z</time>
      </trkpt>
      <trkpt lat="48.86251" lon="2.29478">
        <ele>29.200000762939</ele>
        <time>2015-08-17T21:06:49.000Z</time>
      </trkpt>
      <trkpt lat="48.8626" lon="2.29499">
        <ele>29</ele>
        <time>2015-08-17T21:06:53.000Z</time>
      </trkpt>
      <trkpt lat="48.86269" lon="2.29525">
        <ele>28.799999237061</ele>
        <time>2015-08-17T21:06:58.000Z</time>
      </trkpt>
      <trkpt lat="48.86276" lon="2.29541">
        <ele>28.799999237061</ele>
        <time>2015-08-17T21:07:01.000Z</time>
      </trkpt>
      <trkpt lat="48.86288" lon="2.2957">
        <ele>28.60000038147</ele>
        <time>2015-08-17T21:07:07.000Z</time>
      </trkpt>
      <trkpt lat="48.8629" lon="2.29574">
        <ele>28.60000038147</ele>
        <time>2015-08-17T21:07:08.000Z</time>
      </trkpt>
      <trkpt lat="48.86298" lon="2.29595">
        <ele>28.60000038147</ele>
        <time>2015-08-17T21:07:13.000Z</time>
      </trkpt>
      <trkpt lat="48.86307" lon="2.2962">
        <ele>28.60000038147</ele>
        <time>2015-08-17T21:07:19.000Z</time>
      </trkpt>
      <trkpt lat="48.86314" lon="2.29634">
        <ele>28.60000038147</ele>
        <time>2015-08-17T21:07:24.000Z</time>
      </trkpt>
      <trkpt lat="48.8632" lon="2.29657">
        <ele>28.60000038147</ele>
        <time>2015-08-17T21:07:30.000Z</time>
      </trkpt>
      <trkpt lat="48.86325" lon="2.29675">
        <ele>28.60000038147</ele>
        <time>2015-08-17T21:07:35.000Z</time>
      </trkpt>
      <trkpt lat="48.8633" lon="2.29695">
        <ele>28.60000038147</ele>
        <time>2015-08-17T21:07:40.000Z</time>
      </trkpt>
      <trkpt lat="48.86336" lon="2.29722">
        <ele>29.200000762939</ele>
        <time>2015-08-17T21:07:46.000Z</time>
      </trkpt>
      <trkpt lat="48.86338" lon="2.29735">
        <ele>29.799999237061</ele>
        <time>2015-08-17T21:07:50.000Z</time>
      </trkpt>
      <trkpt lat="48.86344" lon="2.29756">
        <ele>30.200000762939</ele>
        <time>2015-08-17T21:07:55.000Z</time>
      </trkpt>
      <trkpt lat="48.86348" lon="2.29775">
        <ele>30.60000038147</ele>
        <time>2015-08-17T21:08:00.000Z</time>
      </trkpt>
      <trkpt lat="48.86354" lon="2.298">
        <ele>31.60000038147</ele>
        <time>2015-08-17T21:08:06.000Z</time>
      </trkpt>
      <trkpt lat="48.8636" lon="2.29826">
        <ele>32.200000762939</ele>
        <time>2015-08-17T21:08:12.000Z</time>
      </trkpt>
      <trkpt lat="48.86365" lon="2.2985">
        <ele>32.400001525879</ele>
        <time>2015-08-17T21:08:17.000Z</time>
      </trkpt>
      <trkpt lat="48.86372" lon="2.29873">
        <ele>32.599998474121</ele>
        <time>2015-08-17T21:08:22.000Z</time>
      </trkpt>
      <trkpt lat="48.86376" lon="2.29895">
        <ele>32.599998474121</ele>
        <time>2015-08-17T21:08:26.000Z</time>
      </trkpt>
      <trkpt lat="48.86381" lon="2.29926">
        <ele>32.599998474121</ele>
        <time>2015-08-17T21:08:30.000Z</time>
      </trkpt>
      <trkpt lat="48.86385" lon="2.2996">
        <ele>32.799999237061</ele>
        <time>2015-08-17T21:08:34.000Z</time>
      </trkpt>
      <trkpt lat="48.8639" lon="2.29995">
        <ele>32.799999237061</ele>
        <time>2015-08-17T21:08:38.000Z</time>
      </trkpt>
      <trkpt lat="48.86394" lon="2.30022">
        <ele>32.799999237061</ele>
        <time>2015-08-17T21:08:41.000Z</time>
      </trkpt>
      <trkpt lat="48.86395" lon="2.3003">
        <ele>32.799999237061</ele>
        <time>2015-08-17T21:08:42.000Z</time>
      </trkpt>
      <trkpt lat="48.86396" lon="2.30039">
        <ele>32.799999237061</ele>
        <time>2015-08-17T21:08:43.000Z</time>
      </trkpt>
      <trkpt lat="48.86399" lon="2.30075">
        <ele>32.799999237061</ele>
        <time>2015-08-17T21:08:48.000Z</time>
      </trkpt>
      <trkpt lat="48.864" lon="2.3008">
        <ele>32.799999237061</ele>
        <time>2015-08-17T21:08:49.000Z</time>
      </trkpt>
      <trkpt lat="48.86403" lon="2.30103">
        <ele>32.799999237061</ele>
        <time>2015-08-17T21:08:53.000Z</time>
      </trkpt>
      <trkpt lat="48.86403" lon="2.3012">
        <ele>32.799999237061</ele>
        <time>2015-08-17T21:08:57.000Z</time>
      </trkpt>
      <trkpt lat="48.86407" lon="2.30136">
        <ele>32.400001525879</ele>
        <time>2015-08-17T21:09:03.000Z</time>
      </trkpt>
      <trkpt lat="48.86407" lon="2.30139">
        <ele>31.60000038147</ele>
        <time>2015-08-17T21:09:09.000Z</time>
      </trkpt>
      <trkpt lat="48.86409" lon="2.30143">
        <ele>30.799999237061</ele>
        <time>2015-08-17T21:09:40.000Z</time>
      </trkpt>
      <trkpt lat="48.86412" lon="2.30159">
        <ele>30.60000038147</ele>
        <time>2015-08-17T21:09:45.000Z</time>
      </trkpt>
      <trkpt lat="48.86415" lon="2.30169">
        <ele>30.60000038147</ele>
        <time>2015-08-17T21:09:48.000Z</time>
      </trkpt>
      <trkpt lat="48.86419" lon="2.30197">
        <ele>30.60000038147</ele>
        <time>2015-08-17T21:09:54.000Z</time>
      </trkpt>
      <trkpt lat="48.8642" lon="2.3023">
        <ele>30.60000038147</ele>
        <time>2015-08-17T21:09:59.000Z</time>
      </trkpt>
      <trkpt lat="48.86418" lon="2.3026">
        <ele>30.60000038147</ele>
        <time>2015-08-17T21:10:03.000Z</time>
      </trkpt>
      <trkpt lat="48.86418" lon="2.30267">
        <ele>30.60000038147</ele>
        <time>2015-08-17T21:10:04.000Z</time>
      </trkpt>
      <trkpt lat="48.86418" lon="2.30295">
        <ele>30.60000038147</ele>
        <time>2015-08-17T21:10:08.000Z</time>
      </trkpt>
      <trkpt lat="48.86419" lon="2.30325">
        <ele>30.60000038147</ele>
        <time>2015-08-17T21:10:12.000Z</time>
      </trkpt>
      <trkpt lat="48.86419" lon="2.30348">
        <ele>30.60000038147</ele>
        <time>2015-08-17T21:10:15.000Z</time>
      </trkpt>
      <trkpt lat="48.86421" lon="2.30369">
        <ele>30.60000038147</ele>
        <time>2015-08-17T21:10:18.000Z</time>
      </trkpt>
      <trkpt lat="48.86425" lon="2.30392">
        <ele>30.60000038147</ele>
        <time>2015-08-17T21:10:21.000Z</time>
      </trkpt>
      <trkpt lat="48.86433" lon="2.3043">
        <ele>30.60000038147</ele>
        <time>2015-08-17T21:10:26.000Z</time>
      </trkpt>
      <trkpt lat="48.86437" lon="2.3046">
        <ele>30.60000038147</ele>
        <time>2015-08-17T21:10:30.000Z</time>
      </trkpt>
      <trkpt lat="48.86437" lon="2.30486">
        <ele>30.60000038147</ele>
        <time>2015-08-17T21:10:34.000Z</time>
      </trkpt>
      <trkpt lat="48.86435" lon="2.30512">
        <ele>30.60000038147</ele>
        <time>2015-08-17T21:10:40.000Z</time>
      </trkpt>
      <trkpt lat="48.86438" lon="2.3053">
        <ele>30.60000038147</ele>
        <time>2015-08-17T21:10:44.000Z</time>
      </trkpt>
      <trkpt lat="48.86441" lon="2.30551">
        <ele>30.60000038147</ele>
        <time>2015-08-17T21:10:49.000Z</time>
      </trkpt>
      <trkpt lat="48.86442" lon="2.30583">
        <ele>30.60000038147</ele>
        <time>2015-08-17T21:10:53.000Z</time>
      </trkpt>
      <trkpt lat="48.86443" lon="2.30591">
        <ele>30.60000038147</ele>
        <time>2015-08-17T21:10:54.000Z</time>
      </trkpt>
      <trkpt lat="48.86443" lon="2.30615">
        <ele>30.60000038147</ele>
        <time>2015-08-17T21:10:57.000Z</time>
      </trkpt>
      <trkpt lat="48.86444" lon="2.30632">
        <ele>30.60000038147</ele>
        <time>2015-08-17T21:10:59.000Z</time>
      </trkpt>
      <trkpt lat="48.86445" lon="2.30638">
        <ele>30.60000038147</ele>
        <time>2015-08-17T21:11:00.000Z</time>
      </trkpt>
      <trkpt lat="48.86448" lon="2.30662">
        <ele>30.60000038147</ele>
        <time>2015-08-17T21:11:03.000Z</time>
      </trkpt>
      <trkpt lat="48.8645" lon="2.30686">
        <ele>30.60000038147</ele>
        <time>2015-08-17T21:11:06.000Z</time>
      </trkpt>
      <trkpt lat="48.86452" lon="2.30722">
        <ele>30.60000038147</ele>
        <time>2015-08-17T21:11:10.000Z</time>
      </trkpt>
      <trkpt lat="48.86455" lon="2.3076">
        <ele>30</ele>
        <time>2015-08-17T21:11:14.000Z</time>
      </trkpt>
      <trkpt lat="48.86456" lon="2.30769">
        <ele>30</ele>
        <time>2015-08-17T21:11:15.000Z</time>
      </trkpt>
      <trkpt lat="48.86457" lon="2.30805">
        <ele>29.39999961853</ele>
        <time>2015-08-17T21:11:20.000Z</time>
      </trkpt>
      <trkpt lat="48.86458" lon="2.30819">
        <ele>29</ele>
        <time>2015-08-17T21:11:22.000Z</time>
      </trkpt>
      <trkpt lat="48.86459" lon="2.30864">
        <ele>28</ele>
        <time>2015-08-17T21:11:27.000Z</time>
      </trkpt>
      <trkpt lat="48.86459" lon="2.30885">
        <ele>27.60000038147</ele>
        <time>2015-08-17T21:11:30.000Z</time>
      </trkpt>
      <trkpt lat="48.86459" lon="2.30901">
        <ele>27.200000762939</ele>
        <time>2015-08-17T21:11:33.000Z</time>
      </trkpt>
      <trkpt lat="48.8646" lon="2.3093">
        <ele>26.799999237061</ele>
        <time>2015-08-17T21:11:38.000Z</time>
      </trkpt>
      <trkpt lat="48.8646" lon="2.30962">
        <ele>26.60000038147</ele>
        <time>2015-08-17T21:11:43.000Z</time>
      </trkpt>
      <trkpt lat="48.86453" lon="2.31006">
        <ele>25.200000762939</ele>
        <time>2015-08-17T21:11:52.000Z</time>
      </trkpt>
      <trkpt lat="48.8645" lon="2.3103">
        <ele>25.39999961853</ele>
        <time>2015-08-17T21:12:00.000Z</time>
      </trkpt>
      <trkpt lat="48.86454" lon="2.31059">
        <ele>25.799999237061</ele>
        <time>2015-08-17T21:12:06.000Z</time>
      </trkpt>
      <trkpt lat="48.86454" lon="2.31086">
        <ele>26.39999961853</ele>
        <time>2015-08-17T21:12:11.000Z</time>
      </trkpt>
      <trkpt lat="48.86455" lon="2.3111">
        <ele>27.200000762939</ele>
        <time>2015-08-17T21:12:16.000Z</time>
      </trkpt>
      <trkpt lat="48.86457" lon="2.31134">
        <ele>27.799999237061</ele>
        <time>2015-08-17T21:12:20.000Z</time>
      </trkpt>
      <trkpt lat="48.86459" lon="2.31157">
        <ele>28</ele>
        <time>2015-08-17T21:12:24.000Z</time>
      </trkpt>
      <trkpt lat="48.8646" lon="2.31165">
        <ele>28.200000762939</ele>
        <time>2015-08-17T21:12:26.000Z</time>
      </trkpt>
      <trkpt lat="48.86458" lon="2.31199">
        <ele>28.39999961853</ele>
        <time>2015-08-17T21:12:32.000Z</time>
      </trkpt>
      <trkpt lat="48.8646" lon="2.31229">
        <ele>28.39999961853</ele>
        <time>2015-08-17T21:12:37.000Z</time>
      </trkpt>
      <trkpt lat="48.86459" lon="2.31236">
        <ele>28.39999961853</ele>
        <time>2015-08-17T21:12:38.000Z</time>
      </trkpt>
      <trkpt lat="48.86462" lon="2.31276">
        <ele>28.60000038147</ele>
        <time>2015-08-17T21:12:44.000Z</time>
      </trkpt>
      <trkpt lat="48.86462" lon="2.31291">
        <ele>28.60000038147</ele>
        <time>2015-08-17T21:12:46.000Z</time>
      </trkpt>
      <trkpt lat="48.8646" lon="2.31317">
        <ele>28.60000038147</ele>
        <time>2015-08-17T21:12:50.000Z</time>
      </trkpt>
      <trkpt lat="48.8646" lon="2.31329">
        <ele>28.60000038147</ele>
        <time>2015-08-17T21:12:52.000Z</time>
      </trkpt>
      <trkpt lat="48.86459" lon="2.31368">
        <ele>28.60000038147</ele>
        <time>2015-08-17T21:12:59.000Z</time>
      </trkpt>
      <trkpt lat="48.86459" lon="2.31371">
        <ele>28.60000038147</ele>
        <time>2015-08-17T21:13:00.000Z</time>
      </trkpt>
      <trkpt lat="48.8646" lon="2.31396">
        <ele>28.60000038147</ele>
        <time>2015-08-17T21:13:05.000Z</time>
      </trkpt>
      <trkpt lat="48.86461" lon="2.3143">
        <ele>28.60000038147</ele>
        <time>2015-08-17T21:13:12.000Z</time>
      </trkpt>
      <trkpt lat="48.8646" lon="2.31463">
        <ele>28.60000038147</ele>
        <time>2015-08-17T21:13:17.000Z</time>
      </trkpt>
      <trkpt lat="48.86462" lon="2.31478">
        <ele>28.60000038147</ele>
        <time>2015-08-17T21:13:19.000Z</time>
      </trkpt>
      <trkpt lat="48.86463" lon="2.31517">
        <ele>28.60000038147</ele>
        <time>2015-08-17T21:13:24.000Z</time>
      </trkpt>
      <trkpt lat="48.86465" lon="2.3155">
        <ele>29.200000762939</ele>
        <time>2015-08-17T21:13:28.000Z</time>
      </trkpt>
      <trkpt lat="48.86466" lon="2.31564">
        <ele>29.39999961853</ele>
        <time>2015-08-17T21:13:30.000Z</time>
      </trkpt>
      <trkpt lat="48.86466" lon="2.31603">
        <ele>30</ele>
        <time>2015-08-17T21:13:35.000Z</time>
      </trkpt>
      <trkpt lat="48.86467" lon="2.31612">
        <ele>30</ele>
        <time>2015-08-17T21:13:36.000Z</time>
      </trkpt>
      <trkpt lat="48.86468" lon="2.31647">
        <ele>30.200000762939</ele>
        <time>2015-08-17T21:13:41.000Z</time>
      </trkpt>
      <trkpt lat="48.86471" lon="2.31676">
        <ele>30.39999961853</ele>
        <time>2015-08-17T21:13:45.000Z</time>
      </trkpt>
      <trkpt lat="48.86471" lon="2.31684">
        <ele>30.39999961853</ele>
        <time>2015-08-17T21:13:46.000Z</time>
      </trkpt>
      <trkpt lat="48.86471" lon="2.317">
        <ele>30.39999961853</ele>
        <time>2015-08-17T21:13:48.000Z</time>
      </trkpt>
      <trkpt lat="48.8647" lon="2.31725">
        <ele>30.39999961853</ele>
        <time>2015-08-17T21:13:52.000Z</time>
      </trkpt>
      <trkpt lat="48.86467" lon="2.3176">
        <ele>30.60000038147</ele>
        <time>2015-08-17T21:13:57.000Z</time>
      </trkpt>
      <trkpt lat="48.86468" lon="2.31789">
        <ele>30.60000038147</ele>
        <time>2015-08-17T21:14:02.000Z</time>
      </trkpt>
      <trkpt lat="48.86464" lon="2.31818">
        <ele>30.60000038147</ele>
        <time>2015-08-17T21:14:06.000Z</time>
      </trkpt>
      <trkpt lat="48.86456" lon="2.31834">
        <ele>30.60000038147</ele>
        <time>2015-08-17T21:14:09.000Z</time>
      </trkpt>
      <trkpt lat="48.86449" lon="2.31846">
        <ele>30.200000762939</ele>
        <time>2015-08-17T21:14:12.000Z</time>
      </trkpt>
      <trkpt lat="48.86441" lon="2.31875">
        <ele>29.39999961853</ele>
        <time>2015-08-17T21:14:18.000Z</time>
      </trkpt>
      <trkpt lat="48.86433" lon="2.31902">
        <ele>29</ele>
        <time>2015-08-17T21:14:23.000Z</time>
      </trkpt>
      <trkpt lat="48.86426" lon="2.31932">
        <ele>28.799999237061</ele>
        <time>2015-08-17T21:14:29.000Z</time>
      </trkpt>
      <trkpt lat="48.86419" lon="2.31952">
        <ele>28.60000038147</ele>
        <time>2015-08-17T21:14:34.000Z</time>
      </trkpt>
      <trkpt lat="48.86418" lon="2.31957">
        <ele>28.60000038147</ele>
        <time>2015-08-17T21:14:35.000Z</time>
      </trkpt>
      <trkpt lat="48.86414" lon="2.31975">
        <ele>28.60000038147</ele>
        <time>2015-08-17T21:14:40.000Z</time>
      </trkpt>
      <trkpt lat="48.8641" lon="2.31989">
        <ele>28.60000038147</ele>
        <time>2015-08-17T21:14:46.000Z</time>
      </trkpt>
      <trkpt lat="48.86405" lon="2.32008">
        <ele>28.60000038147</ele>
        <time>2015-08-17T21:14:52.000Z</time>
      </trkpt>
      <trkpt lat="48.86399" lon="2.32025">
        <ele>28.60000038147</ele>
        <time>2015-08-17T21:15:01.000Z</time>
      </trkpt>
      <trkpt lat="48.86398" lon="2.32029">
        <ele>28.60000038147</ele>
        <time>2015-08-17T21:15:07.000Z</time>
      </trkpt>
      <trkpt lat="48.8639" lon="2.32044">
        <ele>28.60000038147</ele>
        <time>2015-08-17T21:15:13.000Z</time>
      </trkpt>
      <trkpt lat="48.86386" lon="2.32063">
        <ele>28.60000038147</ele>
        <time>2015-08-17T21:15:18.000Z</time>
      </trkpt>
      <trkpt lat="48.86378" lon="2.32084">
        <ele>28.60000038147</ele>
        <time>2015-08-17T21:15:24.000Z</time>
      </trkpt>
      <trkpt lat="48.86371" lon="2.32103">
        <ele>28.60000038147</ele>
        <time>2015-08-17T21:15:28.000Z</time>
      </trkpt>
      <trkpt lat="48.86363" lon="2.32129">
        <ele>28.60000038147</ele>
        <time>2015-08-17T21:15:33.000Z</time>
      </trkpt>
      <trkpt lat="48.86354" lon="2.32156">
        <ele>28.60000038147</ele>
        <time>2015-08-17T21:15:39.000Z</time>
      </trkpt>
      <trkpt lat="48.86346" lon="2.32182">
        <ele>28.60000038147</ele>
        <time>2015-08-17T21:15:44.000Z</time>
      </trkpt>
      <trkpt lat="48.86337" lon="2.32209">
        <ele>28.60000038147</ele>
        <time>2015-08-17T21:15:49.000Z</time>
      </trkpt>
      <trkpt lat="48.86332" lon="2.32226">
        <ele>28.60000038147</ele>
        <time>2015-08-17T21:15:52.000Z</time>
      </trkpt>
      <trkpt lat="48.86322" lon="2.32261">
        <ele>28.60000038147</ele>
        <time>2015-08-17T21:15:58.000Z</time>
      </trkpt>
      <trkpt lat="48.86317" lon="2.32276">
        <ele>28.60000038147</ele>
        <time>2015-08-17T21:16:01.000Z</time>
      </trkpt>
      <trkpt lat="48.86311" lon="2.32297">
        <ele>28.60000038147</ele>
        <time>2015-08-17T21:16:05.000Z</time>
      </trkpt>
      <trkpt lat="48.86302" lon="2.32321">
        <ele>28.60000038147</ele>
        <time>2015-08-17T21:16:09.000Z</time>
      </trkpt>
      <trkpt lat="48.86298" lon="2.32332">
        <ele>28.60000038147</ele>
        <time>2015-08-17T21:16:11.000Z</time>
      </trkpt>
      <trkpt lat="48.86288" lon="2.32367">
        <ele>28.60000038147</ele>
        <time>2015-08-17T21:16:17.000Z</time>
      </trkpt>
      <trkpt lat="48.86286" lon="2.32372">
        <ele>28.60000038147</ele>
        <time>2015-08-17T21:16:18.000Z</time>
      </trkpt>
      <trkpt lat="48.86278" lon="2.32397">
        <ele>28.60000038147</ele>
        <time>2015-08-17T21:16:23.000Z</time>
      </trkpt>
      <trkpt lat="48.8627" lon="2.32421">
        <ele>28.60000038147</ele>
        <time>2015-08-17T21:16:28.000Z</time>
      </trkpt>
      <trkpt lat="48.86261" lon="2.32447">
        <ele>28.60000038147</ele>
        <time>2015-08-17T21:16:33.000Z</time>
      </trkpt>
      <trkpt lat="48.86253" lon="2.32474">
        <ele>28.60000038147</ele>
        <time>2015-08-17T21:16:38.000Z</time>
      </trkpt>
      <trkpt lat="48.86246" lon="2.325">
        <ele>28.60000038147</ele>
        <time>2015-08-17T21:16:44.000Z</time>
      </trkpt>
      <trkpt lat="48.86241" lon="2.32522">
        <ele>28.60000038147</ele>
        <time>2015-08-17T21:16:48.000Z</time>
      </trkpt>
      <trkpt lat="48.86234" lon="2.3255">
        <ele>28.60000038147</ele>
        <time>2015-08-17T21:16:53.000Z</time>
      </trkpt>
      <trkpt lat="48.86226" lon="2.32577">
        <ele>28.60000038147</ele>
        <time>2015-08-17T21:16:57.000Z</time>
      </trkpt>
      <trkpt lat="48.86221" lon="2.32591">
        <ele>28.60000038147</ele>
        <time>2015-08-17T21:16:59.000Z</time>
      </trkpt>
      <trkpt lat="48.8621" lon="2.32623">
        <ele>28.60000038147</ele>
        <time>2015-08-17T21:17:04.000Z</time>
      </trkpt>
      <trkpt lat="48.86201" lon="2.32649">
        <ele>28.60000038147</ele>
        <time>2015-08-17T21:17:08.000Z</time>
      </trkpt>
      <trkpt lat="48.86197" lon="2.32661">
        <ele>28.60000038147</ele>
        <time>2015-08-17T21:17:10.000Z</time>
      </trkpt>
      <trkpt lat="48.86184" lon="2.32696">
        <ele>28.60000038147</ele>
        <time>2015-08-17T21:17:16.000Z</time>
      </trkpt>
      <trkpt lat="48.86183" lon="2.32702">
        <ele>28.60000038147</ele>
        <time>2015-08-17T21:17:17.000Z</time>
      </trkpt>
      <trkpt lat="48.86174" lon="2.32727">
        <ele>28.60000038147</ele>
        <time>2015-08-17T21:17:21.000Z</time>
      </trkpt>
      <trkpt lat="48.86167" lon="2.32754">
        <ele>28.60000038147</ele>
        <time>2015-08-17T21:17:25.000Z</time>
      </trkpt>
      <trkpt lat="48.8616" lon="2.32778">
        <ele>28.60000038147</ele>
        <time>2015-08-17T21:17:29.000Z</time>
      </trkpt>
      <trkpt lat="48.86148" lon="2.32813">
        <ele>28.60000038147</ele>
        <time>2015-08-17T21:17:35.000Z</time>
      </trkpt>
      <trkpt lat="48.86139" lon="2.32841">
        <ele>28.60000038147</ele>
        <time>2015-08-17T21:17:40.000Z</time>
      </trkpt>
      <trkpt lat="48.86133" lon="2.32857">
        <ele>28.60000038147</ele>
        <time>2015-08-17T21:17:43.000Z</time>
      </trkpt>
      <trkpt lat="48.8613" lon="2.32868">
        <ele>28.60000038147</ele>
        <time>2015-08-17T21:17:45.000Z</time>
      </trkpt>
      <trkpt lat="48.8612" lon="2.329">
        <ele>28.60000038147</ele>
        <time>2015-08-17T21:17:51.000Z</time>
      </trkpt>
      <trkpt lat="48.86111" lon="2.32924">
        <ele>28.60000038147</ele>
        <time>2015-08-17T21:17:56.000Z</time>
      </trkpt>
      <trkpt lat="48.86102" lon="2.32948">
        <ele>28.60000038147</ele>
        <time>2015-08-17T21:18:01.000Z</time>
      </trkpt>
      <trkpt lat="48.86092" lon="2.32974">
        <ele>28.60000038147</ele>
        <time>2015-08-17T21:18:07.000Z</time>
      </trkpt>
      <trkpt lat="48.86087" lon="2.32987">
        <ele>28.60000038147</ele>
        <time>2015-08-17T21:18:12.000Z</time>
      </trkpt>
      <trkpt lat="48.86091" lon="2.32991">
        <ele>28.60000038147</ele>
        <time>2015-08-17T21:18:19.000Z</time>
      </trkpt>
      <trkpt lat="48.86104" lon="2.33006">
        <ele>28.60000038147</ele>
        <time>2015-08-17T21:18:28.000Z</time>
      </trkpt>
      <trkpt lat="48.86109" lon="2.33018">
        <ele>28.60000038147</ele>
        <time>2015-08-17T21:18:34.000Z</time>
      </trkpt>
      <trkpt lat="48.8612" lon="2.33027">
        <ele>28.60000038147</ele>
        <time>2015-08-17T21:18:39.000Z</time>
      </trkpt>
      <trkpt lat="48.8612" lon="2.33026">
        <ele>28.60000038147</ele>
        <time>2015-08-17T21:18:40.000Z</time>
      </trkpt>
      <trkpt lat="48.86129" lon="2.33032">
        <ele>28.60000038147</ele>
        <time>2015-08-17T21:18:44.000Z</time>
      </trkpt>
      <trkpt lat="48.86151" lon="2.33052">
        <ele>28.60000038147</ele>
        <time>2015-08-17T21:18:49.000Z</time>
      </trkpt>
      <trkpt lat="48.86171" lon="2.33069">
        <ele>28.60000038147</ele>
        <time>2015-08-17T21:18:52.000Z</time>
      </trkpt>
      <trkpt lat="48.86338" lon="2.33189">
        <ele>28.799999237061</ele>
        <time>2015-08-17T21:19:13.000Z</time>
      </trkpt>
      <trkpt lat="48.86341" lon="2.33198">
        <ele>29.39999961853</ele>
        <time>2015-08-17T21:19:16.000Z</time>
      </trkpt>
      <trkpt lat="48.86353" lon="2.33198">
        <ele>30</ele>
        <time>2015-08-17T21:19:19.000Z</time>
      </trkpt>
      <trkpt lat="48.86369" lon="2.33209">
        <ele>30.39999961853</ele>
        <time>2015-08-17T21:19:23.000Z</time>
      </trkpt>
      <trkpt lat="48.86375" lon="2.3322">
        <ele>30.60000038147</ele>
        <time>2015-08-17T21:19:27.000Z</time>
      </trkpt>
      <trkpt lat="48.86378" lon="2.33228">
        <ele>31.60000038147</ele>
        <time>2015-08-17T21:19:32.000Z</time>
      </trkpt>
      <trkpt lat="48.86379" lon="2.33232">
        <ele>32.400001525879</ele>
        <time>2015-08-17T21:19:38.000Z</time>
      </trkpt>
      <trkpt lat="48.86381" lon="2.33234">
        <ele>33.799999237061</ele>
        <time>2015-08-17T21:19:43.000Z</time>
      </trkpt>
      <trkpt lat="48.86384" lon="2.33233">
        <ele>35</ele>
        <time>2015-08-17T21:19:47.000Z</time>
      </trkpt>
      <trkpt lat="48.86386" lon="2.33233">
        <ele>36.799999237061</ele>
        <time>2015-08-17T21:19:53.000Z</time>
      </trkpt>
      <trkpt lat="48.86387" lon="2.33228">
        <ele>39.200000762939</ele>
        <time>2015-08-17T21:20:00.000Z</time>
      </trkpt>
      <trkpt lat="48.86386" lon="2.33219">
        <ele>45</ele>
        <time>2015-08-17T21:20:27.000Z</time>
      </trkpt>
      <trkpt lat="48.86389" lon="2.33218">
        <ele>45.200000762939</ele>
        <time>2015-08-17T21:20:28.000Z</time>
      </trkpt>
      <trkpt lat="48.86405" lon="2.3323">
        <ele>46.599998474121</ele>
        <time>2015-08-17T21:20:35.000Z</time>
      </trkpt>
      <trkpt lat="48.86422" lon="2.33233">
        <ele>47.200000762939</ele>
        <time>2015-08-17T21:20:38.000Z</time>
      </trkpt>
      <trkpt lat="48.8644" lon="2.33239">
        <ele>47.599998474121</ele>
        <time>2015-08-17T21:20:43.000Z</time>
      </trkpt>
      <trkpt lat="48.86457" lon="2.3325">
        <ele>47</ele>
        <time>2015-08-17T21:20:48.000Z</time>
      </trkpt>
      <trkpt lat="48.86459" lon="2.33256">
        <ele>47</ele>
        <time>2015-08-17T21:20:50.000Z</time>
      </trkpt>
      <trkpt lat="48.86453" lon="2.33273">
        <ele>46.599998474121</ele>
        <time>2015-08-17T21:20:52.000Z</time>
      </trkpt>
      <trkpt lat="48.86449" lon="2.33278">
        <ele>46.400001525879</ele>
        <time>2015-08-17T21:20:53.000Z</time>
      </trkpt>
      <trkpt lat="48.86441" lon="2.3329">
        <ele>46</ele>
        <time>2015-08-17T21:20:56.000Z</time>
      </trkpt>
      <trkpt lat="48.86433" lon="2.33306">
        <ele>45.400001525879</ele>
        <time>2015-08-17T21:20:59.000Z</time>
      </trkpt>
      <trkpt lat="48.86424" lon="2.33327">
        <ele>45</ele>
        <time>2015-08-17T21:21:03.000Z</time>
      </trkpt>
      <trkpt lat="48.86418" lon="2.33338">
        <ele>44.599998474121</ele>
        <time>2015-08-17T21:21:05.000Z</time>
      </trkpt>
      <trkpt lat="48.86416" lon="2.33341">
        <ele>44.400001525879</ele>
        <time>2015-08-17T21:21:06.000Z</time>
      </trkpt>
      <trkpt lat="48.8641" lon="2.33362">
        <ele>43.400001525879</ele>
        <time>2015-08-17T21:21:11.000Z</time>
      </trkpt>
      <trkpt lat="48.86405" lon="2.33382">
        <ele>43</ele>
        <time>2015-08-17T21:21:15.000Z</time>
      </trkpt>
      <trkpt lat="48.86404" lon="2.33388">
        <ele>42.799999237061</ele>
        <time>2015-08-17T21:21:16.000Z</time>
      </trkpt>
      <trkpt lat="48.86402" lon="2.33396">
        <ele>42.599998474121</ele>
        <time>2015-08-17T21:21:18.000Z</time>
      </trkpt>
      <trkpt lat="48.86389" lon="2.33407">
        <ele>41.799999237061</ele>
        <time>2015-08-17T21:21:23.000Z</time>
      </trkpt>
      <trkpt lat="48.86377" lon="2.33427">
        <ele>41</ele>
        <time>2015-08-17T21:21:27.000Z</time>
      </trkpt>
      <trkpt lat="48.86368" lon="2.33451">
        <ele>40.799999237061</ele>
        <time>2015-08-17T21:21:32.000Z</time>
      </trkpt>
      <trkpt lat="48.86369" lon="2.33471">
        <ele>40.599998474121</ele>
        <time>2015-08-17T21:21:35.000Z</time>
      </trkpt>
      <trkpt lat="48.8637" lon="2.33477">
        <ele>40.400001525879</ele>
        <time>2015-08-17T21:21:36.000Z</time>
      </trkpt>
      <trkpt lat="48.86371" lon="2.3349">
        <ele>40.400001525879</ele>
        <time>2015-08-17T21:21:38.000Z</time>
      </trkpt>
      <trkpt lat="48.86372" lon="2.33523">
        <ele>40.200000762939</ele>
        <time>2015-08-17T21:21:43.000Z</time>
      </trkpt>
      <trkpt lat="48.8637" lon="2.33534">
        <ele>40.200000762939</ele>
        <time>2015-08-17T21:21:45.000Z</time>
      </trkpt>
      <trkpt lat="48.86358" lon="2.3354">
        <ele>40.200000762939</ele>
        <time>2015-08-17T21:21:49.000Z</time>
      </trkpt>
      <trkpt lat="48.86353" lon="2.33541">
        <ele>40</ele>
        <time>2015-08-17T21:21:50.000Z</time>
      </trkpt>
      <trkpt lat="48.86336" lon="2.33554">
        <ele>40</ele>
        <time>2015-08-17T21:21:54.000Z</time>
      </trkpt>
      <trkpt lat="48.86332" lon="2.3356">
        <ele>40</ele>
        <time>2015-08-17T21:21:55.000Z</time>
      </trkpt>
      <trkpt lat="48.86322" lon="2.33573">
        <ele>40</ele>
        <time>2015-08-17T21:21:58.000Z</time>
      </trkpt>
      <trkpt lat="48.86318" lon="2.33578">
        <ele>40</ele>
        <time>2015-08-17T21:22:00.000Z</time>
      </trkpt>
      <trkpt lat="48.86317" lon="2.33588">
        <ele>40</ele>
        <time>2015-08-17T21:22:02.000Z</time>
      </trkpt>
      <trkpt lat="48.86319" lon="2.33595">
        <ele>40</ele>
        <time>2015-08-17T21:22:05.000Z</time>
      </trkpt>
      <trkpt lat="48.86324" lon="2.3361">
        <ele>40</ele>
        <time>2015-08-17T21:22:08.000Z</time>
      </trkpt>
      <trkpt lat="48.86322" lon="2.33616">
        <ele>40</ele>
        <time>2015-08-17T21:22:10.000Z</time>
      </trkpt>
      <trkpt lat="48.8631" lon="2.33643">
        <ele>40</ele>
        <time>2015-08-17T21:22:14.000Z</time>
      </trkpt>
      <trkpt lat="48.86298" lon="2.3367">
        <ele>40.799999237061</ele>
        <time>2015-08-17T21:22:20.000Z</time>
      </trkpt>
      <trkpt lat="48.86283" lon="2.33682">
        <ele>41.400001525879</ele>
        <time>2015-08-17T21:22:27.000Z</time>
      </trkpt>
      <trkpt lat="48.86281" lon="2.33686">
        <ele>42</ele>
        <time>2015-08-17T21:22:30.000Z</time>
      </trkpt>
      <trkpt lat="48.8628" lon="2.3369">
        <ele>43</ele>
        <time>2015-08-17T21:22:36.000Z</time>
      </trkpt>
      <trkpt lat="48.86274" lon="2.33696">
        <ele>44.400001525879</ele>
        <time>2015-08-17T21:22:44.000Z</time>
      </trkpt>
      <trkpt lat="48.86266" lon="2.33696">
        <ele>45.799999237061</ele>
        <time>2015-08-17T21:22:52.000Z</time>
      </trkpt>
      <trkpt lat="48.86265" lon="2.33701">
        <ele>47.400001525879</ele>
        <time>2015-08-17T21:23:00.000Z</time>
      </trkpt>
      <trkpt lat="48.86272" lon="2.33708">
        <ele>49.400001525879</ele>
        <time>2015-08-17T21:23:11.000Z</time>
      </trkpt>
      <trkpt lat="48.86273" lon="2.3371">
        <ele>50</ele>
        <time>2015-08-17T21:23:16.000Z</time>
      </trkpt>
      <trkpt lat="48.86251" lon="2.33721">
        <ele>53.200000762939</ele>
        <time>2015-08-17T21:23:43.000Z</time>
      </trkpt>
      <trkpt lat="48.86246" lon="2.33723">
        <ele>54</ele>
        <time>2015-08-17T21:23:50.000Z</time>
      </trkpt>
      <trkpt lat="48.8625" lon="2.33718">
        <ele>56.400001525879</ele>
        <time>2015-08-17T21:24:16.000Z</time>
      </trkpt>
      <trkpt lat="48.8627" lon="2.33714">
        <ele>64</ele>
        <time>2015-08-17T21:25:01.000Z</time>
      </trkpt>
      <trkpt lat="48.86271" lon="2.33718">
        <ele>64.400001525879</ele>
        <time>2015-08-17T21:25:03.000Z</time>
      </trkpt>
      <trkpt lat="48.86275" lon="2.33726">
        <ele>64.800003051758</ele>
        <time>2015-08-17T21:25:08.000Z</time>
      </trkpt>
      <trkpt lat="48.86271" lon="2.33733">
        <ele>65</ele>
        <time>2015-08-17T21:25:11.000Z</time>
      </trkpt>
      <trkpt lat="48.86267" lon="2.33742">
        <ele>65</ele>
        <time>2015-08-17T21:25:13.000Z</time>
      </trkpt>
      <trkpt lat="48.86254" lon="2.33771">
        <ele>64.199996948242</ele>
        <time>2015-08-17T21:25:18.000Z</time>
      </trkpt>
      <trkpt lat="48.86245" lon="2.33789">
        <ele>64</ele>
        <time>2015-08-17T21:25:21.000Z</time>
      </trkpt>
      <trkpt lat="48.86238" lon="2.33806">
        <ele>63.200000762939</ele>
        <time>2015-08-17T21:25:23.000Z</time>
      </trkpt>
      <trkpt lat="48.86232" lon="2.33818">
        <ele>62.799999237061</ele>
        <time>2015-08-17T21:25:26.000Z</time>
      </trkpt>
      <trkpt lat="48.8622" lon="2.3385">
        <ele>62.200000762939</ele>
        <time>2015-08-17T21:25:31.000Z</time>
      </trkpt>
      <trkpt lat="48.86219" lon="2.33864">
        <ele>62</ele>
        <time>2015-08-17T21:25:33.000Z</time>
      </trkpt>
      <trkpt lat="48.86217" lon="2.33896">
        <ele>61.599998474121</ele>
        <time>2015-08-17T21:25:38.000Z</time>
      </trkpt>
      <trkpt lat="48.86214" lon="2.33917">
        <ele>61.400001525879</ele>
        <time>2015-08-17T21:25:41.000Z</time>
      </trkpt>
      <trkpt lat="48.86202" lon="2.3395">
        <ele>61.400001525879</ele>
        <time>2015-08-17T21:25:46.000Z</time>
      </trkpt>
      <trkpt lat="48.86201" lon="2.33955">
        <ele>61.400001525879</ele>
        <time>2015-08-17T21:25:47.000Z</time>
      </trkpt>
      <trkpt lat="48.86197" lon="2.33967">
        <ele>61.200000762939</ele>
        <time>2015-08-17T21:25:48.000Z</time>
      </trkpt>
      <trkpt lat="48.86189" lon="2.34005">
        <ele>61.200000762939</ele>
        <time>2015-08-17T21:25:53.000Z</time>
      </trkpt>
      <trkpt lat="48.86185" lon="2.3402">
        <ele>61.200000762939</ele>
        <time>2015-08-17T21:25:56.000Z</time>
      </trkpt>
      <trkpt lat="48.86181" lon="2.3403">
        <ele>61.200000762939</ele>
        <time>2015-08-17T21:25:58.000Z</time>
      </trkpt>
      <trkpt lat="48.86173" lon="2.34048">
        <ele>61.200000762939</ele>
        <time>2015-08-17T21:26:01.000Z</time>
      </trkpt>
      <trkpt lat="48.86162" lon="2.34083">
        <ele>61.200000762939</ele>
        <time>2015-08-17T21:26:06.000Z</time>
      </trkpt>
      <trkpt lat="48.8616" lon="2.34089">
        <ele>61.200000762939</ele>
        <time>2015-08-17T21:26:07.000Z</time>
      </trkpt>
      <trkpt lat="48.86157" lon="2.34094">
        <ele>61.200000762939</ele>
        <time>2015-08-17T21:26:08.000Z</time>
      </trkpt>
      <trkpt lat="48.86146" lon="2.34109">
        <ele>61.200000762939</ele>
        <time>2015-08-17T21:26:11.000Z</time>
      </trkpt>
      <trkpt lat="48.86143" lon="2.34134">
        <ele>61.200000762939</ele>
        <time>2015-08-17T21:26:16.000Z</time>
      </trkpt>
      <trkpt lat="48.86143" lon="2.3414">
        <ele>61.200000762939</ele>
        <time>2015-08-17T21:26:17.000Z</time>
      </trkpt>
      <trkpt lat="48.86143" lon="2.34166">
        <ele>61.200000762939</ele>
        <time>2015-08-17T21:26:22.000Z</time>
      </trkpt>
      <trkpt lat="48.86139" lon="2.34198">
        <ele>61.200000762939</ele>
        <time>2015-08-17T21:26:26.000Z</time>
      </trkpt>
      <trkpt lat="48.8614" lon="2.34204">
        <ele>61.200000762939</ele>
        <time>2015-08-17T21:26:27.000Z</time>
      </trkpt>
      <trkpt lat="48.86128" lon="2.34224">
        <ele>61.200000762939</ele>
        <time>2015-08-17T21:26:31.000Z</time>
      </trkpt>
      <trkpt lat="48.86126" lon="2.3423">
        <ele>61.200000762939</ele>
        <time>2015-08-17T21:26:32.000Z</time>
      </trkpt>
      <trkpt lat="48.86119" lon="2.34257">
        <ele>61.200000762939</ele>
        <time>2015-08-17T21:26:36.000Z</time>
      </trkpt>
      <trkpt lat="48.86113" lon="2.34288">
        <ele>61.200000762939</ele>
        <time>2015-08-17T21:26:41.000Z</time>
      </trkpt>
      <trkpt lat="48.86108" lon="2.343">
        <ele>61.200000762939</ele>
        <time>2015-08-17T21:26:43.000Z</time>
      </trkpt>
      <trkpt lat="48.86107" lon="2.34312">
        <ele>61.200000762939</ele>
        <time>2015-08-17T21:26:45.000Z</time>
      </trkpt>
      <trkpt lat="48.86103" lon="2.34341">
        <ele>60.599998474121</ele>
        <time>2015-08-17T21:26:49.000Z</time>
      </trkpt>
      <trkpt lat="48.86104" lon="2.34348">
        <ele>60.400001525879</ele>
        <time>2015-08-17T21:26:50.000Z</time>
      </trkpt>
      <trkpt lat="48.86105" lon="2.34354">
        <ele>60.200000762939</ele>
        <time>2015-08-17T21:26:51.000Z</time>
      </trkpt>
      <trkpt lat="48.86101" lon="2.34378">
        <ele>59.799999237061</ele>
        <time>2015-08-17T21:26:55.000Z</time>
      </trkpt>
      <trkpt lat="48.86097" lon="2.34392">
        <ele>59.799999237061</ele>
        <time>2015-08-17T21:26:57.000Z</time>
      </trkpt>
      <trkpt lat="48.86091" lon="2.34404">
        <ele>59.400001525879</ele>
        <time>2015-08-17T21:26:59.000Z</time>
      </trkpt>
      <trkpt lat="48.86077" lon="2.34441">
        <ele>58.599998474121</ele>
        <time>2015-08-17T21:27:03.000Z</time>
      </trkpt>
      <trkpt lat="48.86072" lon="2.34455">
        <ele>58.200000762939</ele>
        <time>2015-08-17T21:27:05.000Z</time>
      </trkpt>
      <trkpt lat="48.86072" lon="2.34471">
        <ele>58</ele>
        <time>2015-08-17T21:27:07.000Z</time>
      </trkpt>
      <trkpt lat="48.86074" lon="2.34495">
        <ele>57.599998474121</ele>
        <time>2015-08-17T21:27:11.000Z</time>
      </trkpt>
      <trkpt lat="48.8607" lon="2.34513">
        <ele>57.599998474121</ele>
        <time>2015-08-17T21:27:14.000Z</time>
      </trkpt>
      <trkpt lat="48.86072" lon="2.3455">
        <ele>58.200000762939</ele>
        <time>2015-08-17T21:27:18.000Z</time>
      </trkpt>
      <trkpt lat="48.86073" lon="2.34557">
        <ele>58.200000762939</ele>
        <time>2015-08-17T21:27:20.000Z</time>
      </trkpt>
      <trkpt lat="48.8607" lon="2.3458">
        <ele>58.400001525879</ele>
        <time>2015-08-17T21:27:23.000Z</time>
      </trkpt>
      <trkpt lat="48.86069" lon="2.34585">
        <ele>58.400001525879</ele>
        <time>2015-08-17T21:27:25.000Z</time>
      </trkpt>
      <trkpt lat="48.86058" lon="2.34609">
        <ele>59.599998474121</ele>
        <time>2015-08-17T21:27:31.000Z</time>
      </trkpt>
      <trkpt lat="48.86042" lon="2.34626">
        <ele>60.200000762939</ele>
        <time>2015-08-17T21:27:35.000Z</time>
      </trkpt>
      <trkpt lat="48.86035" lon="2.34634">
        <ele>60.400001525879</ele>
        <time>2015-08-17T21:27:37.000Z</time>
      </trkpt>
      <trkpt lat="48.8602" lon="2.34639">
        <ele>60.400001525879</ele>
        <time>2015-08-17T21:27:40.000Z</time>
      </trkpt>
      <trkpt lat="48.86002" lon="2.34629">
        <ele>60.799999237061</ele>
        <time>2015-08-17T21:27:44.000Z</time>
      </trkpt>
      <trkpt lat="48.85986" lon="2.34627">
        <ele>61.799999237061</ele>
        <time>2015-08-17T21:27:49.000Z</time>
      </trkpt>
      <trkpt lat="48.85983" lon="2.34627">
        <ele>62</ele>
        <time>2015-08-17T21:27:50.000Z</time>
      </trkpt>
      <trkpt lat="48.85971" lon="2.34609">
        <ele>62.400001525879</ele>
        <time>2015-08-17T21:27:55.000Z</time>
      </trkpt>
      <trkpt lat="48.8597" lon="2.34606">
        <ele>62.400001525879</ele>
        <time>2015-08-17T21:27:56.000Z</time>
      </trkpt>
      <trkpt lat="48.85965" lon="2.34593">
        <ele>62.599998474121</ele>
        <time>2015-08-17T21:27:58.000Z</time>
      </trkpt>
      <trkpt lat="48.85964" lon="2.34592">
        <ele>62.599998474121</ele>
        <time>2015-08-17T21:28:00.000Z</time>
      </trkpt>
      <trkpt lat="48.85963" lon="2.34591">
        <ele>62.799999237061</ele>
        <time>2015-08-17T21:28:01.000Z</time>
      </trkpt>
      <trkpt lat="48.85957" lon="2.34585">
        <ele>63.400001525879</ele>
        <time>2015-08-17T21:28:06.000Z</time>
      </trkpt>
      <trkpt lat="48.85951" lon="2.34588">
        <ele>64.199996948242</ele>
        <time>2015-08-17T21:28:13.000Z</time>
      </trkpt>
      <trkpt lat="48.85942" lon="2.34601">
        <ele>64.800003051758</ele>
        <time>2015-08-17T21:28:17.000Z</time>
      </trkpt>
      <trkpt lat="48.8593" lon="2.34625">
        <ele>65.599998474121</ele>
        <time>2015-08-17T21:28:21.000Z</time>
      </trkpt>
      <trkpt lat="48.85928" lon="2.3463">
        <ele>65.800003051758</ele>
        <time>2015-08-17T21:28:22.000Z</time>
      </trkpt>
      <trkpt lat="48.85924" lon="2.34634">
        <ele>66</ele>
        <time>2015-08-17T21:28:23.000Z</time>
      </trkpt>
      <trkpt lat="48.85913" lon="2.34631">
        <ele>66.400001525879</ele>
        <time>2015-08-17T21:28:27.000Z</time>
      </trkpt>
      <trkpt lat="48.85911" lon="2.34628">
        <ele>66.400001525879</ele>
        <time>2015-08-17T21:28:28.000Z</time>
      </trkpt>
      <trkpt lat="48.85906" lon="2.34624">
        <ele>66.599998474121</ele>
        <time>2015-08-17T21:28:30.000Z</time>
      </trkpt>
      <trkpt lat="48.85897" lon="2.34615">
        <ele>66.800003051758</ele>
        <time>2015-08-17T21:28:34.000Z</time>
      </trkpt>
      <trkpt lat="48.85889" lon="2.34622">
        <ele>67</ele>
        <time>2015-08-17T21:28:37.000Z</time>
      </trkpt>
      <trkpt lat="48.85884" lon="2.34642">
        <ele>67</ele>
        <time>2015-08-17T21:28:41.000Z</time>
      </trkpt>
      <trkpt lat="48.85884" lon="2.34646">
        <ele>67</ele>
        <time>2015-08-17T21:28:42.000Z</time>
      </trkpt>
      <trkpt lat="48.85884" lon="2.34669">
        <ele>67.199996948242</ele>
        <time>2015-08-17T21:28:48.000Z</time>
      </trkpt>
      <trkpt lat="48.85882" lon="2.34674">
        <ele>67.199996948242</ele>
        <time>2015-08-17T21:28:50.000Z</time>
      </trkpt>
      <trkpt lat="48.85883" lon="2.34676">
        <ele>67.199996948242</ele>
        <time>2015-08-17T21:28:53.000Z</time>
      </trkpt>
      <trkpt lat="48.85881" lon="2.34672">
        <ele>67.199996948242</ele>
        <time>2015-08-17T21:28:59.000Z</time>
      </trkpt>
      <trkpt lat="48.85869" lon="2.34675">
        <ele>67.199996948242</ele>
        <time>2015-08-17T21:29:13.000Z</time>
      </trkpt>
      <trkpt lat="48.85861" lon="2.34689">
        <ele>67.199996948242</ele>
        <time>2015-08-17T21:29:19.000Z</time>
      </trkpt>
      <trkpt lat="48.85858" lon="2.34694">
        <ele>67.199996948242</ele>
        <time>2015-08-17T21:29:21.000Z</time>
      </trkpt>
      <trkpt lat="48.85842" lon="2.34708">
        <ele>67.199996948242</ele>
        <time>2015-08-17T21:29:27.000Z</time>
      </trkpt>
      <trkpt lat="48.85844" lon="2.3472">
        <ele>66.599998474121</ele>
        <time>2015-08-17T21:29:31.000Z</time>
      </trkpt>
      <trkpt lat="48.85848" lon="2.34724">
        <ele>66.400001525879</ele>
        <time>2015-08-17T21:29:33.000Z</time>
      </trkpt>
      <trkpt lat="48.85871" lon="2.34733">
        <ele>66</ele>
        <time>2015-08-17T21:29:37.000Z</time>
      </trkpt>
      <trkpt lat="48.85885" lon="2.34744">
        <ele>65.800003051758</ele>
        <time>2015-08-17T21:29:40.000Z</time>
      </trkpt>
      <trkpt lat="48.859" lon="2.34746">
        <ele>65.599998474121</ele>
        <time>2015-08-17T21:29:43.000Z</time>
      </trkpt>
      <trkpt lat="48.85906" lon="2.34745">
        <ele>65.599998474121</ele>
        <time>2015-08-17T21:29:45.000Z</time>
      </trkpt>
      <trkpt lat="48.85923" lon="2.34742">
        <ele>65.400001525879</ele>
        <time>2015-08-17T21:29:48.000Z</time>
      </trkpt>
      <trkpt lat="48.85931" lon="2.34739">
        <ele>65.400001525879</ele>
        <time>2015-08-17T21:29:50.000Z</time>
      </trkpt>
      <trkpt lat="48.85942" lon="2.34731">
        <ele>65.400001525879</ele>
        <time>2015-08-17T21:29:52.000Z</time>
      </trkpt>
      <trkpt lat="48.85955" lon="2.34727">
        <ele>65.400001525879</ele>
        <time>2015-08-17T21:29:57.000Z</time>
      </trkpt>
      <trkpt lat="48.85958" lon="2.3473">
        <ele>65.400001525879</ele>
        <time>2015-08-17T21:29:59.000Z</time>
      </trkpt>
    </trkseg>
  </trk>
</gpx>